<?xml version="1.0" encoding="UTF-8"?>
<gpx
  version="1.0"
  creator="GPSBabel - http://www.gpsbabel.org"
  xmlns:xsi="http://www.w3.org/2001/XMLSchema-instance"
  xmlns="http://www.topografix.com/GPX/1/0"
  xsi:schemaLocation="http://www.topografix.com/GPX/1/0 http://www.topografix.com/GPX/1/0/gpx.xsd">
<time>2011-11-22T22:11:34Z</time>
<bounds minlat="32.603046417" minlon="35.104156494" maxlat="32.647819519" maxlon="35.132492065"/>
<trk>
  <name>Holux2011/11/22_19:55</name>
<trkseg>
<trkpt lat="32.646358490" lon="35.115608215">
  <ele>42.504211</ele>
  <time>2011-11-22T17:55:26Z</time>
  <speed>3.360000</speed>
</trkpt>
<trkpt lat="32.646335602" lon="35.115589142">
  <ele>45.094055</ele>
  <time>2011-11-22T17:55:26Z</time>
  <speed>3.350000</speed>
</trkpt>
<trkpt lat="32.646308899" lon="35.115566254">
  <ele>47.485657</ele>
  <time>2011-11-22T17:55:27Z</time>
  <speed>2.660000</speed>
</trkpt>
<trkpt lat="32.646293640" lon="35.115550995">
  <ele>49.434875</ele>
  <time>2011-11-22T17:55:28Z</time>
  <speed>2.350000</speed>
</trkpt>
<trkpt lat="32.646266937" lon="35.115535736">
  <ele>50.923157</ele>
  <time>2011-11-22T17:55:29Z</time>
  <speed>2.460000</speed>
</trkpt>
<trkpt lat="32.646240234" lon="35.115524292">
  <ele>51.785461</ele>
  <time>2011-11-22T17:55:30Z</time>
  <speed>2.620000</speed>
</trkpt>
<trkpt lat="32.646213531" lon="35.115520477">
  <ele>52.074524</ele>
  <time>2011-11-22T17:55:31Z</time>
  <speed>2.890000</speed>
</trkpt>
<trkpt lat="32.646186829" lon="35.115501404">
  <ele>51.960266</ele>
  <time>2011-11-22T17:55:32Z</time>
  <speed>3.000000</speed>
</trkpt>
<trkpt lat="32.646167755" lon="35.115478516">
  <ele>52.322571</ele>
  <time>2011-11-22T17:55:33Z</time>
  <speed>3.030000</speed>
</trkpt>
<trkpt lat="32.646144867" lon="35.115463257">
  <ele>52.862610</ele>
  <time>2011-11-22T17:55:33Z</time>
  <speed>3.160000</speed>
</trkpt>
<trkpt lat="32.646118164" lon="35.115451813">
  <ele>53.074524</ele>
  <time>2011-11-22T17:55:34Z</time>
  <speed>2.970000</speed>
</trkpt>
<trkpt lat="32.646087646" lon="35.115440369">
  <ele>53.185852</ele>
  <time>2011-11-22T17:55:35Z</time>
  <speed>2.980000</speed>
</trkpt>
<trkpt lat="32.646030426" lon="35.115425110">
  <ele>52.883118</ele>
  <time>2011-11-22T17:55:38Z</time>
  <speed>3.050000</speed>
</trkpt>
<trkpt lat="32.645999908" lon="35.115425110">
  <ele>52.919250</ele>
  <time>2011-11-22T17:55:39Z</time>
  <speed>3.360000</speed>
</trkpt>
<trkpt lat="32.645965576" lon="35.115421295">
  <ele>53.039368</ele>
  <time>2011-11-22T17:55:40Z</time>
  <speed>3.210000</speed>
</trkpt>
<trkpt lat="32.645919800" lon="35.115409851">
  <ele>53.129211</ele>
  <time>2011-11-22T17:55:42Z</time>
  <speed>2.830000</speed>
</trkpt>
<trkpt lat="32.645866394" lon="35.115383148">
  <ele>53.430969</ele>
  <time>2011-11-22T17:55:44Z</time>
  <speed>2.890000</speed>
</trkpt>
<trkpt lat="32.645843506" lon="35.115360260">
  <ele>53.864563</ele>
  <time>2011-11-22T17:55:45Z</time>
  <speed>2.680000</speed>
</trkpt>
<trkpt lat="32.645824432" lon="35.115341187">
  <ele>54.186829</ele>
  <time>2011-11-22T17:55:46Z</time>
  <speed>2.600000</speed>
</trkpt>
<trkpt lat="32.645771027" lon="35.115322113">
  <ele>54.999329</ele>
  <time>2011-11-22T17:55:48Z</time>
  <speed>3.040000</speed>
</trkpt>
<trkpt lat="32.645736694" lon="35.115314484">
  <ele>55.709290</ele>
  <time>2011-11-22T17:55:49Z</time>
  <speed>3.030000</speed>
</trkpt>
<trkpt lat="32.645683289" lon="35.115303040">
  <ele>56.803040</ele>
  <time>2011-11-22T17:55:51Z</time>
  <speed>3.060000</speed>
</trkpt>
<trkpt lat="32.645652771" lon="35.115306854">
  <ele>57.328430</ele>
  <time>2011-11-22T17:55:52Z</time>
  <speed>3.200000</speed>
</trkpt>
<trkpt lat="32.645622253" lon="35.115306854">
  <ele>57.685852</ele>
  <time>2011-11-22T17:55:53Z</time>
  <speed>3.300000</speed>
</trkpt>
<trkpt lat="32.645595551" lon="35.115299225">
  <ele>57.967102</ele>
  <time>2011-11-22T17:55:54Z</time>
  <speed>2.960000</speed>
</trkpt>
<trkpt lat="32.645545959" lon="35.115280151">
  <ele>58.419250</ele>
  <time>2011-11-22T17:55:56Z</time>
  <speed>2.730000</speed>
</trkpt>
<trkpt lat="32.645515442" lon="35.115276337">
  <ele>58.275696</ele>
  <time>2011-11-22T17:55:57Z</time>
  <speed>3.270000</speed>
</trkpt>
<trkpt lat="32.645488739" lon="35.115264893">
  <ele>58.420227</ele>
  <time>2011-11-22T17:55:58Z</time>
  <speed>2.770000</speed>
</trkpt>
<trkpt lat="32.645439148" lon="35.115245819">
  <ele>58.789368</ele>
  <time>2011-11-22T17:56:00Z</time>
  <speed>3.010000</speed>
</trkpt>
<trkpt lat="32.645397186" lon="35.115215302">
  <ele>58.538391</ele>
  <time>2011-11-22T17:56:02Z</time>
  <speed>2.650000</speed>
</trkpt>
<trkpt lat="32.645370483" lon="35.115200043">
  <ele>58.708313</ele>
  <time>2011-11-22T17:56:03Z</time>
  <speed>2.990000</speed>
</trkpt>
<trkpt lat="32.645324707" lon="35.115177155">
  <ele>59.085266</ele>
  <time>2011-11-22T17:56:05Z</time>
  <speed>2.500000</speed>
</trkpt>
<trkpt lat="32.645278931" lon="35.115158081">
  <ele>59.047180</ele>
  <time>2011-11-22T17:56:07Z</time>
  <speed>2.470000</speed>
</trkpt>
<trkpt lat="32.645233154" lon="35.115139008">
  <ele>58.792297</ele>
  <time>2011-11-22T17:56:09Z</time>
  <speed>2.480000</speed>
</trkpt>
<trkpt lat="32.645191193" lon="35.115116119">
  <ele>58.176086</ele>
  <time>2011-11-22T17:56:11Z</time>
  <speed>2.740000</speed>
</trkpt>
<trkpt lat="32.645164490" lon="35.115100861">
  <ele>57.639954</ele>
  <time>2011-11-22T17:56:12Z</time>
  <speed>2.790000</speed>
</trkpt>
<trkpt lat="32.645137787" lon="35.115085602">
  <ele>57.367493</ele>
  <time>2011-11-22T17:56:13Z</time>
  <speed>2.910000</speed>
</trkpt>
<trkpt lat="32.645111084" lon="35.115077972">
  <ele>57.260071</ele>
  <time>2011-11-22T17:56:14Z</time>
  <speed>2.550000</speed>
</trkpt>
<trkpt lat="32.645069122" lon="35.115058899">
  <ele>56.927063</ele>
  <time>2011-11-22T17:56:16Z</time>
  <speed>2.190000</speed>
</trkpt>
<trkpt lat="32.645042419" lon="35.115043640">
  <ele>56.466125</ele>
  <time>2011-11-22T17:56:17Z</time>
  <speed>2.300000</speed>
</trkpt>
<trkpt lat="32.645019531" lon="35.115028381">
  <ele>56.023743</ele>
  <time>2011-11-22T17:56:18Z</time>
  <speed>2.730000</speed>
</trkpt>
<trkpt lat="32.644985199" lon="35.115001678">
  <ele>55.345032</ele>
  <time>2011-11-22T17:56:19Z</time>
  <speed>2.940000</speed>
</trkpt>
<trkpt lat="32.644954681" lon="35.114971161">
  <ele>55.077454</ele>
  <time>2011-11-22T17:56:20Z</time>
  <speed>2.880000</speed>
</trkpt>
<trkpt lat="32.644897461" lon="35.114948273">
  <ele>55.538391</ele>
  <time>2011-11-22T17:56:22Z</time>
  <speed>2.560000</speed>
</trkpt>
<trkpt lat="32.644866943" lon="35.114933014">
  <ele>56.638977</ele>
  <time>2011-11-22T17:56:23Z</time>
  <speed>2.620000</speed>
</trkpt>
<trkpt lat="32.644821167" lon="35.114913940">
  <ele>56.635071</ele>
  <time>2011-11-22T17:56:25Z</time>
  <speed>2.780000</speed>
</trkpt>
<trkpt lat="32.644790649" lon="35.114921570">
  <ele>57.056946</ele>
  <time>2011-11-22T17:56:26Z</time>
  <speed>2.910000</speed>
</trkpt>
<trkpt lat="32.644763947" lon="35.114925385">
  <ele>57.593079</ele>
  <time>2011-11-22T17:56:27Z</time>
  <speed>2.780000</speed>
</trkpt>
<trkpt lat="32.644721985" lon="35.114894867">
  <ele>58.138977</ele>
  <time>2011-11-22T17:56:29Z</time>
  <speed>2.490000</speed>
</trkpt>
<trkpt lat="32.644695282" lon="35.114849091">
  <ele>59.730774</ele>
  <time>2011-11-22T17:56:31Z</time>
  <speed>2.740000</speed>
</trkpt>
<trkpt lat="32.644645691" lon="35.114822388">
  <ele>59.801086</ele>
  <time>2011-11-22T17:56:33Z</time>
  <speed>3.050000</speed>
</trkpt>
<trkpt lat="32.644615173" lon="35.114810944">
  <ele>59.847961</ele>
  <time>2011-11-22T17:56:34Z</time>
  <speed>3.050000</speed>
</trkpt>
<trkpt lat="32.644588470" lon="35.114799500">
  <ele>59.879211</ele>
  <time>2011-11-22T17:56:35Z</time>
  <speed>2.890000</speed>
</trkpt>
<trkpt lat="32.644565582" lon="35.114784241">
  <ele>59.638977</ele>
  <time>2011-11-22T17:56:36Z</time>
  <speed>2.940000</speed>
</trkpt>
<trkpt lat="32.644527435" lon="35.114738464">
  <ele>60.546204</ele>
  <time>2011-11-22T17:56:38Z</time>
  <speed>2.820000</speed>
</trkpt>
<trkpt lat="32.644500732" lon="35.114715576">
  <ele>60.883118</ele>
  <time>2011-11-22T17:56:39Z</time>
  <speed>3.280000</speed>
</trkpt>
<trkpt lat="32.644470215" lon="35.114696503">
  <ele>60.559875</ele>
  <time>2011-11-22T17:56:40Z</time>
  <speed>3.150000</speed>
</trkpt>
<trkpt lat="32.644439697" lon="35.114688873">
  <ele>60.745422</ele>
  <time>2011-11-22T17:56:41Z</time>
  <speed>3.000000</speed>
</trkpt>
<trkpt lat="32.644409180" lon="35.114681244">
  <ele>61.076477</ele>
  <time>2011-11-22T17:56:42Z</time>
  <speed>3.050000</speed>
</trkpt>
<trkpt lat="32.644386292" lon="35.114665985">
  <ele>61.236633</ele>
  <time>2011-11-22T17:56:43Z</time>
  <speed>3.260000</speed>
</trkpt>
<trkpt lat="32.644367218" lon="35.114639282">
  <ele>61.464172</ele>
  <time>2011-11-22T17:56:44Z</time>
  <speed>3.240000</speed>
</trkpt>
<trkpt lat="32.644348145" lon="35.114616394">
  <ele>61.987610</ele>
  <time>2011-11-22T17:56:45Z</time>
  <speed>3.090000</speed>
</trkpt>
<trkpt lat="32.644317627" lon="35.114593506">
  <ele>63.350891</ele>
  <time>2011-11-22T17:56:46Z</time>
  <speed>3.370000</speed>
</trkpt>
<trkpt lat="32.644290924" lon="35.114574432">
  <ele>63.641907</ele>
  <time>2011-11-22T17:56:47Z</time>
  <speed>3.290000</speed>
</trkpt>
<trkpt lat="32.644268036" lon="35.114559174">
  <ele>63.399719</ele>
  <time>2011-11-22T17:56:48Z</time>
  <speed>3.410000</speed>
</trkpt>
<trkpt lat="32.644241333" lon="35.114543915">
  <ele>63.311829</ele>
  <time>2011-11-22T17:56:49Z</time>
  <speed>3.370000</speed>
</trkpt>
<trkpt lat="32.644214630" lon="35.114524841">
  <ele>63.390930</ele>
  <time>2011-11-22T17:56:50Z</time>
  <speed>3.570000</speed>
</trkpt>
<trkpt lat="32.644176483" lon="35.114501953">
  <ele>63.925110</ele>
  <time>2011-11-22T17:56:51Z</time>
  <speed>3.700000</speed>
</trkpt>
<trkpt lat="32.644142151" lon="35.114482880">
  <ele>63.827454</ele>
  <time>2011-11-22T17:56:52Z</time>
  <speed>3.680000</speed>
</trkpt>
<trkpt lat="32.644107819" lon="35.114463806">
  <ele>64.240845</ele>
  <time>2011-11-22T17:56:53Z</time>
  <speed>3.740000</speed>
</trkpt>
<trkpt lat="32.644077301" lon="35.114448547">
  <ele>64.408813</ele>
  <time>2011-11-22T17:56:54Z</time>
  <speed>3.590000</speed>
</trkpt>
<trkpt lat="32.644042969" lon="35.114425659">
  <ele>65.563110</ele>
  <time>2011-11-22T17:56:55Z</time>
  <speed>3.560000</speed>
</trkpt>
<trkpt lat="32.644016266" lon="35.114410400">
  <ele>66.258423</ele>
  <time>2011-11-22T17:56:56Z</time>
  <speed>3.520000</speed>
</trkpt>
<trkpt lat="32.643985748" lon="35.114395142">
  <ele>66.758423</ele>
  <time>2011-11-22T17:56:57Z</time>
  <speed>3.480000</speed>
</trkpt>
<trkpt lat="32.643955231" lon="35.114376068">
  <ele>66.215454</ele>
  <time>2011-11-22T17:56:58Z</time>
  <speed>3.590000</speed>
</trkpt>
<trkpt lat="32.643924713" lon="35.114356995">
  <ele>65.959595</ele>
  <time>2011-11-22T17:56:59Z</time>
  <speed>3.440000</speed>
</trkpt>
<trkpt lat="32.643898010" lon="35.114337921">
  <ele>65.541626</ele>
  <time>2011-11-22T17:57:00Z</time>
  <speed>3.250000</speed>
</trkpt>
<trkpt lat="32.643871307" lon="35.114318848">
  <ele>65.233032</ele>
  <time>2011-11-22T17:57:01Z</time>
  <speed>3.450000</speed>
</trkpt>
<trkpt lat="32.643848419" lon="35.114295959">
  <ele>64.856079</ele>
  <time>2011-11-22T17:57:02Z</time>
  <speed>3.480000</speed>
</trkpt>
<trkpt lat="32.643821716" lon="35.114276886">
  <ele>64.541626</ele>
  <time>2011-11-22T17:57:03Z</time>
  <speed>3.830000</speed>
</trkpt>
<trkpt lat="32.643795013" lon="35.114250183">
  <ele>64.840454</ele>
  <time>2011-11-22T17:57:04Z</time>
  <speed>3.610000</speed>
</trkpt>
<trkpt lat="32.643756866" lon="35.114223480">
  <ele>65.596313</ele>
  <time>2011-11-22T17:57:05Z</time>
  <speed>3.870000</speed>
</trkpt>
<trkpt lat="32.643722534" lon="35.114208221">
  <ele>65.322876</ele>
  <time>2011-11-22T17:57:06Z</time>
  <speed>4.210000</speed>
</trkpt>
<trkpt lat="32.643669128" lon="35.114196777">
  <ele>67.219360</ele>
  <time>2011-11-22T17:57:07Z</time>
  <speed>4.690000</speed>
</trkpt>
<trkpt lat="32.643615723" lon="35.114196777">
  <ele>68.660767</ele>
  <time>2011-11-22T17:57:08Z</time>
  <speed>4.780000</speed>
</trkpt>
<trkpt lat="32.643566132" lon="35.114200592">
  <ele>68.783813</ele>
  <time>2011-11-22T17:57:09Z</time>
  <speed>5.180000</speed>
</trkpt>
<trkpt lat="32.643520355" lon="35.114204407">
  <ele>69.067017</ele>
  <time>2011-11-22T17:57:10Z</time>
  <speed>5.290000</speed>
</trkpt>
<trkpt lat="32.643466949" lon="35.114204407">
  <ele>69.479126</ele>
  <time>2011-11-22T17:57:11Z</time>
  <speed>5.380000</speed>
</trkpt>
<trkpt lat="32.643413544" lon="35.114208221">
  <ele>69.512329</ele>
  <time>2011-11-22T17:57:12Z</time>
  <speed>5.410000</speed>
</trkpt>
<trkpt lat="32.643363953" lon="35.114204407">
  <ele>69.287720</ele>
  <time>2011-11-22T17:57:13Z</time>
  <speed>5.570000</speed>
</trkpt>
<trkpt lat="32.643310547" lon="35.114200592">
  <ele>68.981079</ele>
  <time>2011-11-22T17:57:14Z</time>
  <speed>5.680000</speed>
</trkpt>
<trkpt lat="32.643257141" lon="35.114192963">
  <ele>68.971313</ele>
  <time>2011-11-22T17:57:15Z</time>
  <speed>6.040000</speed>
</trkpt>
<trkpt lat="32.643199921" lon="35.114189148">
  <ele>68.731079</ele>
  <time>2011-11-22T17:57:16Z</time>
  <speed>6.300000</speed>
</trkpt>
<trkpt lat="32.643142700" lon="35.114181519">
  <ele>68.859985</ele>
  <time>2011-11-22T17:57:17Z</time>
  <speed>6.570000</speed>
</trkpt>
<trkpt lat="32.643081665" lon="35.114173889">
  <ele>68.209595</ele>
  <time>2011-11-22T17:57:18Z</time>
  <speed>6.780000</speed>
</trkpt>
<trkpt lat="32.643020630" lon="35.114170074">
  <ele>67.893188</ele>
  <time>2011-11-22T17:57:19Z</time>
  <speed>7.160000</speed>
</trkpt>
<trkpt lat="32.642951965" lon="35.114170074">
  <ele>67.621704</ele>
  <time>2011-11-22T17:57:20Z</time>
  <speed>7.640000</speed>
</trkpt>
<trkpt lat="32.642883301" lon="35.114177704">
  <ele>67.713501</ele>
  <time>2011-11-22T17:57:21Z</time>
  <speed>7.430000</speed>
</trkpt>
<trkpt lat="32.642814636" lon="35.114192963">
  <ele>67.475220</ele>
  <time>2011-11-22T17:57:22Z</time>
  <speed>7.820000</speed>
</trkpt>
<trkpt lat="32.642745972" lon="35.114212036">
  <ele>67.381470</ele>
  <time>2011-11-22T17:57:23Z</time>
  <speed>8.080000</speed>
</trkpt>
<trkpt lat="32.642677307" lon="35.114242554">
  <ele>67.027954</ele>
  <time>2011-11-22T17:57:24Z</time>
  <speed>8.140000</speed>
</trkpt>
<trkpt lat="32.642608643" lon="35.114269257">
  <ele>66.811157</ele>
  <time>2011-11-22T17:57:25Z</time>
  <speed>8.430000</speed>
</trkpt>
<trkpt lat="32.642539978" lon="35.114299774">
  <ele>66.492798</ele>
  <time>2011-11-22T17:57:26Z</time>
  <speed>8.080000</speed>
</trkpt>
<trkpt lat="32.642463684" lon="35.114326477">
  <ele>66.186157</ele>
  <time>2011-11-22T17:57:27Z</time>
  <speed>8.780000</speed>
</trkpt>
<trkpt lat="32.642391205" lon="35.114360809">
  <ele>65.901001</ele>
  <time>2011-11-22T17:57:28Z</time>
  <speed>8.890000</speed>
</trkpt>
<trkpt lat="32.642314911" lon="35.114395142">
  <ele>65.516235</ele>
  <time>2011-11-22T17:57:29Z</time>
  <speed>9.020000</speed>
</trkpt>
<trkpt lat="32.642234802" lon="35.114437103">
  <ele>65.192017</ele>
  <time>2011-11-22T17:57:30Z</time>
  <speed>9.710000</speed>
</trkpt>
<trkpt lat="32.642150879" lon="35.114479065">
  <ele>65.151001</ele>
  <time>2011-11-22T17:57:31Z</time>
  <speed>8.900000</speed>
</trkpt>
<trkpt lat="32.642074585" lon="35.114501953">
  <ele>64.649048</ele>
  <time>2011-11-22T17:57:32Z</time>
  <speed>8.660000</speed>
</trkpt>
<trkpt lat="32.642002106" lon="35.114509583">
  <ele>64.621704</ele>
  <time>2011-11-22T17:57:33Z</time>
  <speed>7.850000</speed>
</trkpt>
<trkpt lat="32.641933441" lon="35.114521027">
  <ele>64.207642</ele>
  <time>2011-11-22T17:57:34Z</time>
  <speed>7.180000</speed>
</trkpt>
<trkpt lat="32.641872406" lon="35.114528656">
  <ele>64.018188</ele>
  <time>2011-11-22T17:57:35Z</time>
  <speed>6.970000</speed>
</trkpt>
<trkpt lat="32.641815186" lon="35.114540100">
  <ele>63.289368</ele>
  <time>2011-11-22T17:57:36Z</time>
  <speed>6.440000</speed>
</trkpt>
<trkpt lat="32.641757965" lon="35.114543915">
  <ele>62.794250</ele>
  <time>2011-11-22T17:57:37Z</time>
  <speed>6.070000</speed>
</trkpt>
<trkpt lat="32.641708374" lon="35.114536285">
  <ele>62.675110</ele>
  <time>2011-11-22T17:57:38Z</time>
  <speed>5.630000</speed>
</trkpt>
<trkpt lat="32.641651154" lon="35.114532471">
  <ele>61.882141</ele>
  <time>2011-11-22T17:57:39Z</time>
  <speed>5.610000</speed>
</trkpt>
<trkpt lat="32.641601563" lon="35.114528656">
  <ele>61.770813</ele>
  <time>2011-11-22T17:57:40Z</time>
  <speed>5.280000</speed>
</trkpt>
<trkpt lat="32.641548157" lon="35.114521027">
  <ele>61.693665</ele>
  <time>2011-11-22T17:57:41Z</time>
  <speed>5.390000</speed>
</trkpt>
<trkpt lat="32.641490936" lon="35.114524841">
  <ele>62.422180</ele>
  <time>2011-11-22T17:57:42Z</time>
  <speed>5.080000</speed>
</trkpt>
<trkpt lat="32.641437531" lon="35.114528656">
  <ele>62.316711</ele>
  <time>2011-11-22T17:57:43Z</time>
  <speed>5.040000</speed>
</trkpt>
<trkpt lat="32.641395569" lon="35.114521027">
  <ele>61.816711</ele>
  <time>2011-11-22T17:57:44Z</time>
  <speed>4.860000</speed>
</trkpt>
<trkpt lat="32.641353607" lon="35.114517212">
  <ele>61.561829</ele>
  <time>2011-11-22T17:57:45Z</time>
  <speed>4.870000</speed>
</trkpt>
<trkpt lat="32.641304016" lon="35.114521027">
  <ele>61.433899</ele>
  <time>2011-11-22T17:57:46Z</time>
  <speed>5.070000</speed>
</trkpt>
<trkpt lat="32.641258240" lon="35.114517212">
  <ele>61.262024</ele>
  <time>2011-11-22T17:57:47Z</time>
  <speed>4.880000</speed>
</trkpt>
<trkpt lat="32.641216278" lon="35.114517212">
  <ele>60.577454</ele>
  <time>2011-11-22T17:57:48Z</time>
  <speed>4.650000</speed>
</trkpt>
<trkpt lat="32.641174316" lon="35.114509583">
  <ele>60.359680</ele>
  <time>2011-11-22T17:57:49Z</time>
  <speed>4.430000</speed>
</trkpt>
<trkpt lat="32.641132355" lon="35.114505768">
  <ele>60.013977</ele>
  <time>2011-11-22T17:57:50Z</time>
  <speed>4.850000</speed>
</trkpt>
<trkpt lat="32.641086578" lon="35.114505768">
  <ele>59.697571</ele>
  <time>2011-11-22T17:57:51Z</time>
  <speed>4.620000</speed>
</trkpt>
<trkpt lat="32.641048431" lon="35.114501953">
  <ele>59.708313</ele>
  <time>2011-11-22T17:57:52Z</time>
  <speed>4.660000</speed>
</trkpt>
<trkpt lat="32.641002655" lon="35.114501953">
  <ele>59.553040</ele>
  <time>2011-11-22T17:57:53Z</time>
  <speed>4.450000</speed>
</trkpt>
<trkpt lat="32.640964508" lon="35.114501953">
  <ele>59.260071</ele>
  <time>2011-11-22T17:57:54Z</time>
  <speed>4.430000</speed>
</trkpt>
<trkpt lat="32.640930176" lon="35.114505768">
  <ele>59.015930</ele>
  <time>2011-11-22T17:57:55Z</time>
  <speed>4.490000</speed>
</trkpt>
<trkpt lat="32.640888214" lon="35.114505768">
  <ele>58.749329</ele>
  <time>2011-11-22T17:57:56Z</time>
  <speed>4.610000</speed>
</trkpt>
<trkpt lat="32.640846252" lon="35.114505768">
  <ele>58.934875</ele>
  <time>2011-11-22T17:57:57Z</time>
  <speed>4.350000</speed>
</trkpt>
<trkpt lat="32.640808105" lon="35.114498138">
  <ele>58.665344</ele>
  <time>2011-11-22T17:57:58Z</time>
  <speed>4.350000</speed>
</trkpt>
<trkpt lat="32.640769958" lon="35.114494324">
  <ele>58.477844</ele>
  <time>2011-11-22T17:57:59Z</time>
  <speed>4.580000</speed>
</trkpt>
<trkpt lat="32.640727997" lon="35.114490509">
  <ele>58.323547</ele>
  <time>2011-11-22T17:58:00Z</time>
  <speed>4.120000</speed>
</trkpt>
<trkpt lat="32.640697479" lon="35.114467621">
  <ele>58.039368</ele>
  <time>2011-11-22T17:58:01Z</time>
  <speed>4.200000</speed>
</trkpt>
<trkpt lat="32.640663147" lon="35.114452362">
  <ele>57.561829</ele>
  <time>2011-11-22T17:58:02Z</time>
  <speed>3.800000</speed>
</trkpt>
<trkpt lat="32.640632629" lon="35.114440918">
  <ele>57.672180</ele>
  <time>2011-11-22T17:58:03Z</time>
  <speed>3.870000</speed>
</trkpt>
<trkpt lat="32.640594482" lon="35.114425659">
  <ele>57.738586</ele>
  <time>2011-11-22T17:58:04Z</time>
  <speed>3.870000</speed>
</trkpt>
<trkpt lat="32.640563965" lon="35.114402771">
  <ele>57.401672</ele>
  <time>2011-11-22T17:58:05Z</time>
  <speed>3.670000</speed>
</trkpt>
<trkpt lat="32.640537262" lon="35.114391327">
  <ele>57.054993</ele>
  <time>2011-11-22T17:58:06Z</time>
  <speed>2.930000</speed>
</trkpt>
<trkpt lat="32.640499115" lon="35.114322662">
  <ele>56.238586</ele>
  <time>2011-11-22T17:58:08Z</time>
  <speed>4.360000</speed>
</trkpt>
<trkpt lat="32.640487671" lon="35.114265442">
  <ele>56.091125</ele>
  <time>2011-11-22T17:58:09Z</time>
  <speed>3.880000</speed>
</trkpt>
<trkpt lat="32.640476227" lon="35.114231110">
  <ele>56.108704</ele>
  <time>2011-11-22T17:58:10Z</time>
  <speed>2.830000</speed>
</trkpt>
<trkpt lat="32.640453339" lon="35.114177704">
  <ele>55.736633</ele>
  <time>2011-11-22T17:58:12Z</time>
  <speed>3.020000</speed>
</trkpt>
<trkpt lat="32.640426636" lon="35.114139557">
  <ele>55.283508</ele>
  <time>2011-11-22T17:58:13Z</time>
  <speed>4.050000</speed>
</trkpt>
<trkpt lat="32.640396118" lon="35.114116669">
  <ele>54.778625</ele>
  <time>2011-11-22T17:58:14Z</time>
  <speed>3.450000</speed>
</trkpt>
<trkpt lat="32.640357971" lon="35.114070892">
  <ele>54.148743</ele>
  <time>2011-11-22T17:58:15Z</time>
  <speed>3.380000</speed>
</trkpt>
<trkpt lat="32.640327454" lon="35.114055634">
  <ele>53.945618</ele>
  <time>2011-11-22T17:58:16Z</time>
  <speed>3.400000</speed>
</trkpt>
<trkpt lat="32.640289307" lon="35.113990784">
  <ele>55.362610</ele>
  <time>2011-11-22T17:58:17Z</time>
  <speed>4.270000</speed>
</trkpt>
<trkpt lat="32.640262604" lon="35.113937378">
  <ele>55.289368</ele>
  <time>2011-11-22T17:58:18Z</time>
  <speed>3.740000</speed>
</trkpt>
<trkpt lat="32.640216827" lon="35.113887787">
  <ele>55.543274</ele>
  <time>2011-11-22T17:58:19Z</time>
  <speed>4.130000</speed>
</trkpt>
<trkpt lat="32.640190125" lon="35.113857269">
  <ele>55.291321</ele>
  <time>2011-11-22T17:58:20Z</time>
  <speed>3.740000</speed>
</trkpt>
<trkpt lat="32.640155792" lon="35.113822937">
  <ele>54.879211</ele>
  <time>2011-11-22T17:58:21Z</time>
  <speed>3.930000</speed>
</trkpt>
<trkpt lat="32.640117645" lon="35.113826752">
  <ele>55.813782</ele>
  <time>2011-11-22T17:58:22Z</time>
  <speed>3.930000</speed>
</trkpt>
<trkpt lat="32.640087128" lon="35.113815308">
  <ele>56.112610</ele>
  <time>2011-11-22T17:58:23Z</time>
  <speed>3.530000</speed>
</trkpt>
<trkpt lat="32.640064240" lon="35.113788605">
  <ele>55.735657</ele>
  <time>2011-11-22T17:58:24Z</time>
  <speed>3.500000</speed>
</trkpt>
<trkpt lat="32.640022278" lon="35.113761902">
  <ele>55.852844</ele>
  <time>2011-11-22T17:58:25Z</time>
  <speed>4.030000</speed>
</trkpt>
<trkpt lat="32.639984131" lon="35.113739014">
  <ele>55.872375</ele>
  <time>2011-11-22T17:58:26Z</time>
  <speed>4.040000</speed>
</trkpt>
<trkpt lat="32.639949799" lon="35.113719940">
  <ele>55.595032</ele>
  <time>2011-11-22T17:58:27Z</time>
  <speed>3.910000</speed>
</trkpt>
<trkpt lat="32.639900208" lon="35.113712311">
  <ele>55.290344</ele>
  <time>2011-11-22T17:58:28Z</time>
  <speed>3.830000</speed>
</trkpt>
<trkpt lat="32.639881134" lon="35.113685608">
  <ele>55.218079</ele>
  <time>2011-11-22T17:58:29Z</time>
  <speed>3.620000</speed>
</trkpt>
<trkpt lat="32.639858246" lon="35.113658905">
  <ele>55.618469</ele>
  <time>2011-11-22T17:58:30Z</time>
  <speed>4.170000</speed>
</trkpt>
<trkpt lat="32.639827728" lon="35.113628387">
  <ele>55.388977</ele>
  <time>2011-11-22T17:58:31Z</time>
  <speed>3.940000</speed>
</trkpt>
<trkpt lat="32.639793396" lon="35.113582611">
  <ele>56.287415</ele>
  <time>2011-11-22T17:58:32Z</time>
  <speed>4.250000</speed>
</trkpt>
<trkpt lat="32.639774323" lon="35.113540649">
  <ele>56.370422</ele>
  <time>2011-11-22T17:58:33Z</time>
  <speed>3.800000</speed>
</trkpt>
<trkpt lat="32.639774323" lon="35.113491058">
  <ele>55.920227</ele>
  <time>2011-11-22T17:58:34Z</time>
  <speed>3.800000</speed>
</trkpt>
<trkpt lat="32.639774323" lon="35.113449097">
  <ele>56.096008</ele>
  <time>2011-11-22T17:58:35Z</time>
  <speed>4.190000</speed>
</trkpt>
<trkpt lat="32.639755249" lon="35.113399506">
  <ele>57.670227</ele>
  <time>2011-11-22T17:58:36Z</time>
  <speed>3.800000</speed>
</trkpt>
<trkpt lat="32.639736176" lon="35.113353729">
  <ele>60.346008</ele>
  <time>2011-11-22T17:58:37Z</time>
  <speed>3.400000</speed>
</trkpt>
<trkpt lat="32.639736176" lon="35.113296509">
  <ele>62.491516</ele>
  <time>2011-11-22T17:58:39Z</time>
  <speed>1.740000</speed>
</trkpt>
<trkpt lat="32.639709473" lon="35.113258362">
  <ele>62.438782</ele>
  <time>2011-11-22T17:58:42Z</time>
  <speed>1.800000</speed>
</trkpt>
<trkpt lat="32.639675140" lon="35.113227844">
  <ele>63.129211</ele>
  <time>2011-11-22T17:58:44Z</time>
  <speed>1.640000</speed>
</trkpt>
<trkpt lat="32.639652252" lon="35.113197327">
  <ele>63.309875</ele>
  <time>2011-11-22T17:58:46Z</time>
  <speed>1.660000</speed>
</trkpt>
<trkpt lat="32.639633179" lon="35.113162994">
  <ele>64.020142</ele>
  <time>2011-11-22T17:58:48Z</time>
  <speed>1.880000</speed>
</trkpt>
<trkpt lat="32.639640808" lon="35.113098145">
  <ele>64.018188</ele>
  <time>2011-11-22T17:58:50Z</time>
  <speed>1.700000</speed>
</trkpt>
<trkpt lat="32.639648438" lon="35.113033295">
  <ele>63.558899</ele>
  <time>2011-11-22T17:58:52Z</time>
  <speed>2.940000</speed>
</trkpt>
<trkpt lat="32.639644623" lon="35.112983704">
  <ele>63.273743</ele>
  <time>2011-11-22T17:58:54Z</time>
  <speed>2.150000</speed>
</trkpt>
<trkpt lat="32.639610291" lon="35.112926483">
  <ele>63.312805</ele>
  <time>2011-11-22T17:58:56Z</time>
  <speed>2.740000</speed>
</trkpt>
<trkpt lat="32.639587402" lon="35.112884521">
  <ele>63.079407</ele>
  <time>2011-11-22T17:58:57Z</time>
  <speed>4.030000</speed>
</trkpt>
<trkpt lat="32.639568329" lon="35.112808228">
  <ele>63.198547</ele>
  <time>2011-11-22T17:58:58Z</time>
  <speed>4.620000</speed>
</trkpt>
<trkpt lat="32.639553070" lon="35.112777710">
  <ele>63.428040</ele>
  <time>2011-11-22T17:58:59Z</time>
  <speed>3.140000</speed>
</trkpt>
<trkpt lat="32.639553070" lon="35.112743378">
  <ele>63.396790</ele>
  <time>2011-11-22T17:59:00Z</time>
  <speed>2.700000</speed>
</trkpt>
<trkpt lat="32.639549255" lon="35.112712860">
  <ele>63.334290</ele>
  <time>2011-11-22T17:59:01Z</time>
  <speed>2.650000</speed>
</trkpt>
<trkpt lat="32.639560699" lon="35.112678528">
  <ele>62.510071</ele>
  <time>2011-11-22T17:59:02Z</time>
  <speed>2.780000</speed>
</trkpt>
<trkpt lat="32.639556885" lon="35.112640381">
  <ele>62.338196</ele>
  <time>2011-11-22T17:59:03Z</time>
  <speed>2.870000</speed>
</trkpt>
<trkpt lat="32.639549255" lon="35.112590790">
  <ele>62.192688</ele>
  <time>2011-11-22T17:59:04Z</time>
  <speed>3.950000</speed>
</trkpt>
<trkpt lat="32.639503479" lon="35.112552643">
  <ele>61.388000</ele>
  <time>2011-11-22T17:59:05Z</time>
  <speed>3.980000</speed>
</trkpt>
<trkpt lat="32.639480591" lon="35.112510681">
  <ele>61.190735</ele>
  <time>2011-11-22T17:59:06Z</time>
  <speed>3.900000</speed>
</trkpt>
<trkpt lat="32.639453888" lon="35.112457275">
  <ele>60.949524</ele>
  <time>2011-11-22T17:59:07Z</time>
  <speed>4.650000</speed>
</trkpt>
<trkpt lat="32.639419556" lon="35.112403870">
  <ele>59.603821</ele>
  <time>2011-11-22T17:59:08Z</time>
  <speed>4.570000</speed>
</trkpt>
<trkpt lat="32.639385223" lon="35.112319946">
  <ele>58.700500</ele>
  <time>2011-11-22T17:59:09Z</time>
  <speed>4.800000</speed>
</trkpt>
<trkpt lat="32.639366150" lon="35.112270355">
  <ele>58.584290</ele>
  <time>2011-11-22T17:59:10Z</time>
  <speed>4.400000</speed>
</trkpt>
<trkpt lat="32.639324188" lon="35.112228394">
  <ele>58.439758</ele>
  <time>2011-11-22T17:59:11Z</time>
  <speed>4.920000</speed>
</trkpt>
<trkpt lat="32.639270782" lon="35.112182617">
  <ele>59.342102</ele>
  <time>2011-11-22T17:59:12Z</time>
  <speed>4.500000</speed>
</trkpt>
<trkpt lat="32.639244080" lon="35.112148285">
  <ele>59.400696</ele>
  <time>2011-11-22T17:59:13Z</time>
  <speed>4.480000</speed>
</trkpt>
<trkpt lat="32.639202118" lon="35.112113953">
  <ele>59.179016</ele>
  <time>2011-11-22T17:59:14Z</time>
  <speed>4.750000</speed>
</trkpt>
<trkpt lat="32.639156342" lon="35.112083435">
  <ele>59.483704</ele>
  <time>2011-11-22T17:59:15Z</time>
  <speed>4.800000</speed>
</trkpt>
<trkpt lat="32.639114380" lon="35.112052917">
  <ele>59.855774</ele>
  <time>2011-11-22T17:59:16Z</time>
  <speed>4.890000</speed>
</trkpt>
<trkpt lat="32.639068604" lon="35.112014771">
  <ele>61.624329</ele>
  <time>2011-11-22T17:59:17Z</time>
  <speed>5.060000</speed>
</trkpt>
<trkpt lat="32.639022827" lon="35.111976624">
  <ele>62.804993</ele>
  <time>2011-11-22T17:59:18Z</time>
  <speed>5.060000</speed>
</trkpt>
<trkpt lat="32.638980865" lon="35.111949921">
  <ele>62.522766</ele>
  <time>2011-11-22T17:59:19Z</time>
  <speed>5.100000</speed>
</trkpt>
<trkpt lat="32.638938904" lon="35.111919403">
  <ele>62.970032</ele>
  <time>2011-11-22T17:59:20Z</time>
  <speed>4.860000</speed>
</trkpt>
<trkpt lat="32.638893127" lon="35.111885071">
  <ele>63.963196</ele>
  <time>2011-11-22T17:59:21Z</time>
  <speed>5.110000</speed>
</trkpt>
<trkpt lat="32.638854980" lon="35.111862183">
  <ele>63.851868</ele>
  <time>2011-11-22T17:59:22Z</time>
  <speed>4.160000</speed>
</trkpt>
<trkpt lat="32.638816833" lon="35.111839294">
  <ele>64.176392</ele>
  <time>2011-11-22T17:59:23Z</time>
  <speed>4.830000</speed>
</trkpt>
<trkpt lat="32.638774872" lon="35.111816406">
  <ele>64.338501</ele>
  <time>2011-11-22T17:59:24Z</time>
  <speed>4.950000</speed>
</trkpt>
<trkpt lat="32.638729095" lon="35.111797333">
  <ele>65.350220</ele>
  <time>2011-11-22T17:59:25Z</time>
  <speed>4.820000</speed>
</trkpt>
<trkpt lat="32.638683319" lon="35.111782074">
  <ele>65.428345</ele>
  <time>2011-11-22T17:59:26Z</time>
  <speed>4.760000</speed>
</trkpt>
<trkpt lat="32.638641357" lon="35.111770630">
  <ele>65.584595</ele>
  <time>2011-11-22T17:59:27Z</time>
  <speed>4.460000</speed>
</trkpt>
<trkpt lat="32.638603210" lon="35.111751556">
  <ele>65.797485</ele>
  <time>2011-11-22T17:59:28Z</time>
  <speed>4.510000</speed>
</trkpt>
<trkpt lat="32.638553619" lon="35.111732483">
  <ele>65.854126</ele>
  <time>2011-11-22T17:59:29Z</time>
  <speed>4.920000</speed>
</trkpt>
<trkpt lat="32.638507843" lon="35.111721039">
  <ele>66.395142</ele>
  <time>2011-11-22T17:59:30Z</time>
  <speed>4.880000</speed>
</trkpt>
<trkpt lat="32.638469696" lon="35.111698151">
  <ele>66.352173</ele>
  <time>2011-11-22T17:59:31Z</time>
  <speed>4.590000</speed>
</trkpt>
<trkpt lat="32.638423920" lon="35.111682892">
  <ele>66.545532</ele>
  <time>2011-11-22T17:59:32Z</time>
  <speed>4.580000</speed>
</trkpt>
<trkpt lat="32.638378143" lon="35.111667633">
  <ele>67.592407</ele>
  <time>2011-11-22T17:59:33Z</time>
  <speed>4.510000</speed>
</trkpt>
<trkpt lat="32.638332367" lon="35.111656189">
  <ele>67.846313</ele>
  <time>2011-11-22T17:59:34Z</time>
  <speed>4.460000</speed>
</trkpt>
<trkpt lat="32.638294220" lon="35.111648560">
  <ele>67.680298</ele>
  <time>2011-11-22T17:59:35Z</time>
  <speed>4.300000</speed>
</trkpt>
<trkpt lat="32.638252258" lon="35.111629486">
  <ele>68.432251</ele>
  <time>2011-11-22T17:59:36Z</time>
  <speed>4.640000</speed>
</trkpt>
<trkpt lat="32.638214111" lon="35.111614227">
  <ele>68.533813</ele>
  <time>2011-11-22T17:59:37Z</time>
  <speed>4.440000</speed>
</trkpt>
<trkpt lat="32.638175964" lon="35.111595154">
  <ele>68.115845</ele>
  <time>2011-11-22T17:59:38Z</time>
  <speed>4.270000</speed>
</trkpt>
<trkpt lat="32.638134003" lon="35.111587524">
  <ele>68.461548</ele>
  <time>2011-11-22T17:59:39Z</time>
  <speed>4.520000</speed>
</trkpt>
<trkpt lat="32.638095856" lon="35.111564636">
  <ele>68.574829</ele>
  <time>2011-11-22T17:59:40Z</time>
  <speed>3.720000</speed>
</trkpt>
<trkpt lat="32.638065338" lon="35.111530304">
  <ele>69.018188</ele>
  <time>2011-11-22T17:59:41Z</time>
  <speed>3.780000</speed>
</trkpt>
<trkpt lat="32.638027191" lon="35.111515045">
  <ele>69.008423</ele>
  <time>2011-11-22T17:59:42Z</time>
  <speed>3.930000</speed>
</trkpt>
<trkpt lat="32.637992859" lon="35.111499786">
  <ele>68.410767</ele>
  <time>2011-11-22T17:59:43Z</time>
  <speed>3.560000</speed>
</trkpt>
<trkpt lat="32.637947083" lon="35.111495972">
  <ele>68.832642</ele>
  <time>2011-11-22T17:59:44Z</time>
  <speed>4.420000</speed>
</trkpt>
<trkpt lat="32.637905121" lon="35.111469269">
  <ele>68.381470</ele>
  <time>2011-11-22T17:59:45Z</time>
  <speed>3.790000</speed>
</trkpt>
<trkpt lat="32.637878418" lon="35.111457825">
  <ele>68.361938</ele>
  <time>2011-11-22T17:59:46Z</time>
  <speed>3.020000</speed>
</trkpt>
<trkpt lat="32.637840271" lon="35.111404419">
  <ele>69.395142</ele>
  <time>2011-11-22T17:59:47Z</time>
  <speed>3.870000</speed>
</trkpt>
<trkpt lat="32.637813568" lon="35.111377716">
  <ele>69.104126</ele>
  <time>2011-11-22T17:59:48Z</time>
  <speed>3.350000</speed>
</trkpt>
<trkpt lat="32.637783051" lon="35.111354828">
  <ele>68.850220</ele>
  <time>2011-11-22T17:59:49Z</time>
  <speed>3.350000</speed>
</trkpt>
<trkpt lat="32.637752533" lon="35.111328125">
  <ele>69.102173</ele>
  <time>2011-11-22T17:59:50Z</time>
  <speed>3.270000</speed>
</trkpt>
<trkpt lat="32.637725830" lon="35.111297607">
  <ele>68.195923</ele>
  <time>2011-11-22T17:59:51Z</time>
  <speed>3.720000</speed>
</trkpt>
<trkpt lat="32.637695313" lon="35.111278534">
  <ele>68.543579</ele>
  <time>2011-11-22T17:59:52Z</time>
  <speed>3.000000</speed>
</trkpt>
<trkpt lat="32.637660980" lon="35.111232758">
  <ele>69.240845</ele>
  <time>2011-11-22T17:59:53Z</time>
  <speed>3.080000</speed>
</trkpt>
<trkpt lat="32.637634277" lon="35.111217499">
  <ele>68.736938</ele>
  <time>2011-11-22T17:59:54Z</time>
  <speed>2.990000</speed>
</trkpt>
<trkpt lat="32.637607574" lon="35.111167908">
  <ele>69.215454</ele>
  <time>2011-11-22T17:59:55Z</time>
  <speed>3.650000</speed>
</trkpt>
<trkpt lat="32.637584686" lon="35.111145020">
  <ele>69.203735</ele>
  <time>2011-11-22T17:59:56Z</time>
  <speed>2.820000</speed>
</trkpt>
<trkpt lat="32.637557983" lon="35.111106873">
  <ele>69.676392</ele>
  <time>2011-11-22T17:59:57Z</time>
  <speed>3.350000</speed>
</trkpt>
<trkpt lat="32.637538910" lon="35.111076355">
  <ele>69.984985</ele>
  <time>2011-11-22T17:59:58Z</time>
  <speed>3.090000</speed>
</trkpt>
<trkpt lat="32.637523651" lon="35.111038208">
  <ele>69.785767</ele>
  <time>2011-11-22T17:59:59Z</time>
  <speed>3.130000</speed>
</trkpt>
<trkpt lat="32.637504578" lon="35.111015320">
  <ele>69.557251</ele>
  <time>2011-11-22T18:00:00Z</time>
  <speed>2.930000</speed>
</trkpt>
<trkpt lat="32.637470245" lon="35.110965729">
  <ele>68.688110</ele>
  <time>2011-11-22T18:00:02Z</time>
  <speed>2.330000</speed>
</trkpt>
<trkpt lat="32.637451172" lon="35.110931396">
  <ele>68.615845</ele>
  <time>2011-11-22T18:00:04Z</time>
  <speed>2.740000</speed>
</trkpt>
<trkpt lat="32.637420654" lon="35.110908508">
  <ele>68.293579</ele>
  <time>2011-11-22T18:00:05Z</time>
  <speed>3.070000</speed>
</trkpt>
<trkpt lat="32.637405396" lon="35.110877991">
  <ele>67.619751</ele>
  <time>2011-11-22T18:00:06Z</time>
  <speed>2.870000</speed>
</trkpt>
<trkpt lat="32.637390137" lon="35.110828400">
  <ele>66.932251</ele>
  <time>2011-11-22T18:00:08Z</time>
  <speed>1.170000</speed>
</trkpt>
<trkpt lat="32.637351990" lon="35.110763550">
  <ele>67.936157</ele>
  <time>2011-11-22T18:00:10Z</time>
  <speed>2.170000</speed>
</trkpt>
<trkpt lat="32.637325287" lon="35.110744476">
  <ele>69.203735</ele>
  <time>2011-11-22T18:00:11Z</time>
  <speed>1.690000</speed>
</trkpt>
<trkpt lat="32.637287140" lon="35.110725403">
  <ele>70.541626</ele>
  <time>2011-11-22T18:00:13Z</time>
  <speed>1.800000</speed>
</trkpt>
<trkpt lat="32.637248993" lon="35.110710144">
  <ele>70.529907</ele>
  <time>2011-11-22T18:00:15Z</time>
  <speed>1.370000</speed>
</trkpt>
<trkpt lat="32.637199402" lon="35.110691071">
  <ele>71.510376</ele>
  <time>2011-11-22T18:00:17Z</time>
  <speed>2.680000</speed>
</trkpt>
<trkpt lat="32.637168884" lon="35.110694885">
  <ele>72.035767</ele>
  <time>2011-11-22T18:00:18Z</time>
  <speed>2.310000</speed>
</trkpt>
<trkpt lat="32.637123108" lon="35.110660553">
  <ele>74.262329</ele>
  <time>2011-11-22T18:00:20Z</time>
  <speed>1.890000</speed>
</trkpt>
<trkpt lat="32.637107849" lon="35.110637665">
  <ele>75.858032</ele>
  <time>2011-11-22T18:00:21Z</time>
  <speed>1.880000</speed>
</trkpt>
<trkpt lat="32.637096405" lon="35.110599518">
  <ele>77.920532</ele>
  <time>2011-11-22T18:00:23Z</time>
  <speed>1.780000</speed>
</trkpt>
<trkpt lat="32.637084961" lon="35.110561371">
  <ele>77.678345</ele>
  <time>2011-11-22T18:00:25Z</time>
  <speed>1.760000</speed>
</trkpt>
<trkpt lat="32.637073517" lon="35.110542297">
  <ele>79.666626</ele>
  <time>2011-11-22T18:00:26Z</time>
  <speed>1.510000</speed>
</trkpt>
<trkpt lat="32.637073517" lon="35.110507965">
  <ele>81.149048</ele>
  <time>2011-11-22T18:00:28Z</time>
  <speed>1.890000</speed>
</trkpt>
<trkpt lat="32.637058258" lon="35.110466003">
  <ele>83.010376</ele>
  <time>2011-11-22T18:00:30Z</time>
  <speed>1.680000</speed>
</trkpt>
<trkpt lat="32.637042999" lon="35.110443115">
  <ele>85.703735</ele>
  <time>2011-11-22T18:00:32Z</time>
  <speed>1.730000</speed>
</trkpt>
<trkpt lat="32.637035370" lon="35.110408783">
  <ele>86.738892</ele>
  <time>2011-11-22T18:00:34Z</time>
  <speed>1.700000</speed>
</trkpt>
<trkpt lat="32.637027740" lon="35.110374451">
  <ele>87.299438</ele>
  <time>2011-11-22T18:00:36Z</time>
  <speed>1.620000</speed>
</trkpt>
<trkpt lat="32.637027740" lon="35.110336304">
  <ele>88.176392</ele>
  <time>2011-11-22T18:00:38Z</time>
  <speed>1.590000</speed>
</trkpt>
<trkpt lat="32.637023926" lon="35.110301971">
  <ele>90.053345</ele>
  <time>2011-11-22T18:00:40Z</time>
  <speed>1.520000</speed>
</trkpt>
<trkpt lat="32.637016296" lon="35.110271454">
  <ele>90.557251</ele>
  <time>2011-11-22T18:00:42Z</time>
  <speed>1.540000</speed>
</trkpt>
<trkpt lat="32.637012482" lon="35.110237122">
  <ele>91.436157</ele>
  <time>2011-11-22T18:00:44Z</time>
  <speed>1.660000</speed>
</trkpt>
<trkpt lat="32.637008667" lon="35.110195160">
  <ele>91.119751</ele>
  <time>2011-11-22T18:00:46Z</time>
  <speed>1.660000</speed>
</trkpt>
<trkpt lat="32.637016296" lon="35.110157013">
  <ele>92.053345</ele>
  <time>2011-11-22T18:00:48Z</time>
  <speed>1.490000</speed>
</trkpt>
<trkpt lat="32.637027740" lon="35.110118866">
  <ele>92.240845</ele>
  <time>2011-11-22T18:00:50Z</time>
  <speed>1.740000</speed>
</trkpt>
<trkpt lat="32.637012482" lon="35.110080719">
  <ele>91.840454</ele>
  <time>2011-11-22T18:00:52Z</time>
  <speed>1.620000</speed>
</trkpt>
<trkpt lat="32.636993408" lon="35.110042572">
  <ele>92.234985</ele>
  <time>2011-11-22T18:00:54Z</time>
  <speed>1.830000</speed>
</trkpt>
<trkpt lat="32.636981964" lon="35.109996796">
  <ele>93.113892</ele>
  <time>2011-11-22T18:00:56Z</time>
  <speed>2.180000</speed>
</trkpt>
<trkpt lat="32.636978149" lon="35.109947205">
  <ele>93.061157</ele>
  <time>2011-11-22T18:00:58Z</time>
  <speed>2.230000</speed>
</trkpt>
<trkpt lat="32.636970520" lon="35.109897614">
  <ele>93.647095</ele>
  <time>2011-11-22T18:01:00Z</time>
  <speed>2.340000</speed>
</trkpt>
<trkpt lat="32.636962891" lon="35.109848022">
  <ele>93.797485</ele>
  <time>2011-11-22T18:01:02Z</time>
  <speed>2.430000</speed>
</trkpt>
<trkpt lat="32.636955261" lon="35.109802246">
  <ele>94.795532</ele>
  <time>2011-11-22T18:01:04Z</time>
  <speed>2.310000</speed>
</trkpt>
<trkpt lat="32.636951447" lon="35.109767914">
  <ele>95.414673</ele>
  <time>2011-11-22T18:01:05Z</time>
  <speed>2.350000</speed>
</trkpt>
<trkpt lat="32.636943817" lon="35.109718323">
  <ele>96.545532</ele>
  <time>2011-11-22T18:01:07Z</time>
  <speed>2.400000</speed>
</trkpt>
<trkpt lat="32.636936188" lon="35.109661102">
  <ele>97.133423</ele>
  <time>2011-11-22T18:01:09Z</time>
  <speed>2.450000</speed>
</trkpt>
<trkpt lat="32.636940002" lon="35.109611511">
  <ele>97.584595</ele>
  <time>2011-11-22T18:01:11Z</time>
  <speed>2.310000</speed>
</trkpt>
<trkpt lat="32.636947632" lon="35.109561920">
  <ele>98.029907</ele>
  <time>2011-11-22T18:01:13Z</time>
  <speed>2.310000</speed>
</trkpt>
<trkpt lat="32.636959076" lon="35.109516144">
  <ele>97.682251</ele>
  <time>2011-11-22T18:01:15Z</time>
  <speed>2.090000</speed>
</trkpt>
<trkpt lat="32.636966705" lon="35.109481812">
  <ele>97.283813</ele>
  <time>2011-11-22T18:01:17Z</time>
  <speed>1.890000</speed>
</trkpt>
<trkpt lat="32.636970520" lon="35.109443665">
  <ele>97.211548</ele>
  <time>2011-11-22T18:01:19Z</time>
  <speed>1.960000</speed>
</trkpt>
<trkpt lat="32.636966705" lon="35.109405518">
  <ele>97.192017</ele>
  <time>2011-11-22T18:01:21Z</time>
  <speed>1.890000</speed>
</trkpt>
<trkpt lat="32.636962891" lon="35.109371185">
  <ele>97.885376</ele>
  <time>2011-11-22T18:01:23Z</time>
  <speed>1.570000</speed>
</trkpt>
<trkpt lat="32.636978149" lon="35.109336853">
  <ele>98.361938</ele>
  <time>2011-11-22T18:01:25Z</time>
  <speed>1.170000</speed>
</trkpt>
<trkpt lat="32.636989594" lon="35.109298706">
  <ele>98.229126</ele>
  <time>2011-11-22T18:01:27Z</time>
  <speed>1.700000</speed>
</trkpt>
<trkpt lat="32.636993408" lon="35.109249115">
  <ele>98.703735</ele>
  <time>2011-11-22T18:01:29Z</time>
  <speed>2.490000</speed>
</trkpt>
<trkpt lat="32.637008667" lon="35.109207153">
  <ele>99.096313</ele>
  <time>2011-11-22T18:01:31Z</time>
  <speed>2.440000</speed>
</trkpt>
<trkpt lat="32.637039185" lon="35.109165192">
  <ele>98.801392</ele>
  <time>2011-11-22T18:01:33Z</time>
  <speed>2.600000</speed>
</trkpt>
<trkpt lat="32.637065887" lon="35.109119415">
  <ele>99.072876</ele>
  <time>2011-11-22T18:01:35Z</time>
  <speed>2.170000</speed>
</trkpt>
<trkpt lat="32.637042999" lon="35.109104156">
  <ele>99.559204</ele>
  <time>2011-11-22T18:01:37Z</time>
  <speed>2.110000</speed>
</trkpt>
<trkpt lat="32.637016296" lon="35.109107971">
  <ele>98.803345</ele>
  <time>2011-11-22T18:01:38Z</time>
  <speed>2.250000</speed>
</trkpt>
<trkpt lat="32.636978149" lon="35.109146118">
  <ele>98.369751</ele>
  <time>2011-11-22T18:01:40Z</time>
  <speed>3.150000</speed>
</trkpt>
<trkpt lat="32.636951447" lon="35.109172821">
  <ele>97.555298</ele>
  <time>2011-11-22T18:01:41Z</time>
  <speed>3.900000</speed>
</trkpt>
<trkpt lat="32.636917114" lon="35.109210968">
  <ele>97.139282</ele>
  <time>2011-11-22T18:01:42Z</time>
  <speed>5.040000</speed>
</trkpt>
<trkpt lat="32.636871338" lon="35.109237671">
  <ele>96.670532</ele>
  <time>2011-11-22T18:01:43Z</time>
  <speed>5.540000</speed>
</trkpt>
<trkpt lat="32.636817932" lon="35.109256744">
  <ele>96.100220</ele>
  <time>2011-11-22T18:01:44Z</time>
  <speed>6.350000</speed>
</trkpt>
<trkpt lat="32.636756897" lon="35.109264374">
  <ele>95.084595</ele>
  <time>2011-11-22T18:01:45Z</time>
  <speed>7.160000</speed>
</trkpt>
<trkpt lat="32.636695862" lon="35.109256744">
  <ele>94.572876</ele>
  <time>2011-11-22T18:01:46Z</time>
  <speed>6.990000</speed>
</trkpt>
<trkpt lat="32.636623383" lon="35.109233856">
  <ele>93.553345</ele>
  <time>2011-11-22T18:01:47Z</time>
  <speed>7.090000</speed>
</trkpt>
<trkpt lat="32.636566162" lon="35.109203339">
  <ele>92.496704</ele>
  <time>2011-11-22T18:01:48Z</time>
  <speed>6.570000</speed>
</trkpt>
<trkpt lat="32.636520386" lon="35.109169006">
  <ele>92.606079</ele>
  <time>2011-11-22T18:01:49Z</time>
  <speed>5.640000</speed>
</trkpt>
<trkpt lat="32.636489868" lon="35.109130859">
  <ele>92.381470</ele>
  <time>2011-11-22T18:01:50Z</time>
  <speed>4.340000</speed>
</trkpt>
<trkpt lat="32.636459351" lon="35.109107971">
  <ele>91.723267</ele>
  <time>2011-11-22T18:01:51Z</time>
  <speed>3.280000</speed>
</trkpt>
<trkpt lat="32.636436462" lon="35.109088898">
  <ele>91.608032</ele>
  <time>2011-11-22T18:01:52Z</time>
  <speed>2.850000</speed>
</trkpt>
<trkpt lat="32.636417389" lon="35.109066010">
  <ele>91.537720</ele>
  <time>2011-11-22T18:01:53Z</time>
  <speed>2.810000</speed>
</trkpt>
<trkpt lat="32.636394501" lon="35.109043121">
  <ele>91.377563</ele>
  <time>2011-11-22T18:01:54Z</time>
  <speed>2.770000</speed>
</trkpt>
<trkpt lat="32.636371613" lon="35.109016418">
  <ele>91.219360</ele>
  <time>2011-11-22T18:01:55Z</time>
  <speed>2.860000</speed>
</trkpt>
<trkpt lat="32.636344910" lon="35.108993530">
  <ele>91.225220</ele>
  <time>2011-11-22T18:01:56Z</time>
  <speed>2.900000</speed>
</trkpt>
<trkpt lat="32.636314392" lon="35.108978271">
  <ele>91.676392</ele>
  <time>2011-11-22T18:01:57Z</time>
  <speed>3.270000</speed>
</trkpt>
<trkpt lat="32.636291504" lon="35.108959198">
  <ele>92.256470</ele>
  <time>2011-11-22T18:01:58Z</time>
  <speed>2.950000</speed>
</trkpt>
<trkpt lat="32.636268616" lon="35.108932495">
  <ele>92.412720</ele>
  <time>2011-11-22T18:01:59Z</time>
  <speed>3.310000</speed>
</trkpt>
<trkpt lat="32.636245728" lon="35.108909607">
  <ele>92.672485</ele>
  <time>2011-11-22T18:02:00Z</time>
  <speed>2.970000</speed>
</trkpt>
<trkpt lat="32.636219025" lon="35.108852386">
  <ele>92.899048</ele>
  <time>2011-11-22T18:02:02Z</time>
  <speed>2.750000</speed>
</trkpt>
<trkpt lat="32.636203766" lon="35.108802795">
  <ele>93.359985</ele>
  <time>2011-11-22T18:02:04Z</time>
  <speed>1.890000</speed>
</trkpt>
<trkpt lat="32.636177063" lon="35.108764648">
  <ele>93.897095</ele>
  <time>2011-11-22T18:02:06Z</time>
  <speed>1.780000</speed>
</trkpt>
<trkpt lat="32.636161804" lon="35.108711243">
  <ele>95.041626</ele>
  <time>2011-11-22T18:02:08Z</time>
  <speed>2.550000</speed>
</trkpt>
<trkpt lat="32.636142731" lon="35.108665466">
  <ele>95.217407</ele>
  <time>2011-11-22T18:02:10Z</time>
  <speed>2.280000</speed>
</trkpt>
<trkpt lat="32.636127472" lon="35.108615875">
  <ele>94.891235</ele>
  <time>2011-11-22T18:02:12Z</time>
  <speed>2.110000</speed>
</trkpt>
<trkpt lat="32.636112213" lon="35.108566284">
  <ele>95.397095</ele>
  <time>2011-11-22T18:02:14Z</time>
  <speed>2.560000</speed>
</trkpt>
<trkpt lat="32.636112213" lon="35.108509064">
  <ele>95.004517</ele>
  <time>2011-11-22T18:02:16Z</time>
  <speed>2.630000</speed>
</trkpt>
<trkpt lat="32.636116028" lon="35.108451843">
  <ele>94.770142</ele>
  <time>2011-11-22T18:02:18Z</time>
  <speed>2.670000</speed>
</trkpt>
<trkpt lat="32.636119843" lon="35.108394623">
  <ele>95.168579</ele>
  <time>2011-11-22T18:02:20Z</time>
  <speed>2.490000</speed>
</trkpt>
<trkpt lat="32.636108398" lon="35.108337402">
  <ele>95.785767</ele>
  <time>2011-11-22T18:02:22Z</time>
  <speed>2.500000</speed>
</trkpt>
<trkpt lat="32.636089325" lon="35.108303070">
  <ele>97.166626</ele>
  <time>2011-11-22T18:02:23Z</time>
  <speed>2.570000</speed>
</trkpt>
<trkpt lat="32.636085510" lon="35.108242035">
  <ele>98.766235</ele>
  <time>2011-11-22T18:02:25Z</time>
  <speed>2.840000</speed>
</trkpt>
<trkpt lat="32.636081696" lon="35.108181000">
  <ele>99.551392</ele>
  <time>2011-11-22T18:02:27Z</time>
  <speed>2.620000</speed>
</trkpt>
<trkpt lat="32.636081696" lon="35.108123779">
  <ele>100.154907</ele>
  <time>2011-11-22T18:02:29Z</time>
  <speed>2.470000</speed>
</trkpt>
<trkpt lat="32.636058807" lon="35.108058929">
  <ele>101.307251</ele>
  <time>2011-11-22T18:02:31Z</time>
  <speed>2.520000</speed>
</trkpt>
<trkpt lat="32.636066437" lon="35.108001709">
  <ele>101.420532</ele>
  <time>2011-11-22T18:02:33Z</time>
  <speed>2.420000</speed>
</trkpt>
<trkpt lat="32.636066437" lon="35.107948303">
  <ele>101.541626</ele>
  <time>2011-11-22T18:02:35Z</time>
  <speed>2.300000</speed>
</trkpt>
<trkpt lat="32.636066437" lon="35.107898712">
  <ele>101.449829</ele>
  <time>2011-11-22T18:02:37Z</time>
  <speed>2.510000</speed>
</trkpt>
<trkpt lat="32.636081696" lon="35.107837677">
  <ele>102.123657</ele>
  <time>2011-11-22T18:02:39Z</time>
  <speed>2.640000</speed>
</trkpt>
<trkpt lat="32.636085510" lon="35.107803345">
  <ele>102.004517</ele>
  <time>2011-11-22T18:02:40Z</time>
  <speed>2.720000</speed>
</trkpt>
<trkpt lat="32.636058807" lon="35.107734680">
  <ele>103.260376</ele>
  <time>2011-11-22T18:02:42Z</time>
  <speed>2.530000</speed>
</trkpt>
<trkpt lat="32.636047363" lon="35.107677460">
  <ele>103.670532</ele>
  <time>2011-11-22T18:02:44Z</time>
  <speed>2.640000</speed>
</trkpt>
<trkpt lat="32.636047363" lon="35.107620239">
  <ele>103.879517</ele>
  <time>2011-11-22T18:02:46Z</time>
  <speed>2.340000</speed>
</trkpt>
<trkpt lat="32.636039734" lon="35.107563019">
  <ele>103.906860</ele>
  <time>2011-11-22T18:02:48Z</time>
  <speed>2.710000</speed>
</trkpt>
<trkpt lat="32.636035919" lon="35.107532501">
  <ele>103.660767</ele>
  <time>2011-11-22T18:02:49Z</time>
  <speed>2.730000</speed>
</trkpt>
<trkpt lat="32.636028290" lon="35.107482910">
  <ele>103.455688</ele>
  <time>2011-11-22T18:02:51Z</time>
  <speed>2.520000</speed>
</trkpt>
<trkpt lat="32.636001587" lon="35.107448578">
  <ele>104.639282</ele>
  <time>2011-11-22T18:02:52Z</time>
  <speed>2.760000</speed>
</trkpt>
<trkpt lat="32.635993958" lon="35.107398987">
  <ele>105.711548</ele>
  <time>2011-11-22T18:02:54Z</time>
  <speed>2.690000</speed>
</trkpt>
<trkpt lat="32.635978699" lon="35.107341766">
  <ele>105.186157</ele>
  <time>2011-11-22T18:02:56Z</time>
  <speed>2.500000</speed>
</trkpt>
<trkpt lat="32.635959625" lon="35.107288361">
  <ele>104.910767</ele>
  <time>2011-11-22T18:02:58Z</time>
  <speed>2.520000</speed>
</trkpt>
<trkpt lat="32.635940552" lon="35.107242584">
  <ele>105.123657</ele>
  <time>2011-11-22T18:03:00Z</time>
  <speed>2.300000</speed>
</trkpt>
<trkpt lat="32.635921478" lon="35.107223511">
  <ele>105.693970</ele>
  <time>2011-11-22T18:03:01Z</time>
  <speed>2.810000</speed>
</trkpt>
<trkpt lat="32.635902405" lon="35.107173920">
  <ele>106.268188</ele>
  <time>2011-11-22T18:03:03Z</time>
  <speed>2.100000</speed>
</trkpt>
<trkpt lat="32.635883331" lon="35.107128143">
  <ele>106.592407</ele>
  <time>2011-11-22T18:03:05Z</time>
  <speed>2.010000</speed>
</trkpt>
<trkpt lat="32.635860443" lon="35.107086182">
  <ele>106.561157</ele>
  <time>2011-11-22T18:03:07Z</time>
  <speed>2.270000</speed>
</trkpt>
<trkpt lat="32.635833740" lon="35.107051849">
  <ele>106.861938</ele>
  <time>2011-11-22T18:03:09Z</time>
  <speed>1.890000</speed>
</trkpt>
<trkpt lat="32.635803223" lon="35.107017517">
  <ele>106.930298</ele>
  <time>2011-11-22T18:03:11Z</time>
  <speed>2.040000</speed>
</trkpt>
<trkpt lat="32.635784149" lon="35.106971741">
  <ele>107.104126</ele>
  <time>2011-11-22T18:03:13Z</time>
  <speed>1.940000</speed>
</trkpt>
<trkpt lat="32.635761261" lon="35.106933594">
  <ele>107.465454</ele>
  <time>2011-11-22T18:03:15Z</time>
  <speed>2.120000</speed>
</trkpt>
<trkpt lat="32.635742188" lon="35.106899261">
  <ele>108.024048</ele>
  <time>2011-11-22T18:03:17Z</time>
  <speed>1.530000</speed>
</trkpt>
<trkpt lat="32.635730743" lon="35.106857300">
  <ele>109.293579</ele>
  <time>2011-11-22T18:03:20Z</time>
  <speed>1.600000</speed>
</trkpt>
<trkpt lat="32.635707855" lon="35.106822968">
  <ele>109.291626</ele>
  <time>2011-11-22T18:03:22Z</time>
  <speed>1.660000</speed>
</trkpt>
<trkpt lat="32.635646820" lon="35.106792450">
  <ele>112.652954</ele>
  <time>2011-11-22T18:03:24Z</time>
  <speed>1.470000</speed>
</trkpt>
<trkpt lat="32.635616302" lon="35.106777191">
  <ele>114.428345</ele>
  <time>2011-11-22T18:03:25Z</time>
  <speed>1.470000</speed>
</trkpt>
<trkpt lat="32.635589600" lon="35.106754303">
  <ele>114.994751</ele>
  <time>2011-11-22T18:03:27Z</time>
  <speed>1.450000</speed>
</trkpt>
<trkpt lat="32.635566711" lon="35.106716156">
  <ele>116.301392</ele>
  <time>2011-11-22T18:03:29Z</time>
  <speed>1.650000</speed>
</trkpt>
<trkpt lat="32.635551453" lon="35.106685638">
  <ele>117.645142</ele>
  <time>2011-11-22T18:03:31Z</time>
  <speed>1.670000</speed>
</trkpt>
<trkpt lat="32.635524750" lon="35.106651306">
  <ele>118.010376</ele>
  <time>2011-11-22T18:03:34Z</time>
  <speed>1.770000</speed>
</trkpt>
<trkpt lat="32.635505676" lon="35.106624603">
  <ele>118.467407</ele>
  <time>2011-11-22T18:03:36Z</time>
  <speed>1.590000</speed>
</trkpt>
<trkpt lat="32.635486603" lon="35.106590271">
  <ele>118.033813</ele>
  <time>2011-11-22T18:03:38Z</time>
  <speed>1.570000</speed>
</trkpt>
<trkpt lat="32.635467529" lon="35.106567383">
  <ele>118.151001</ele>
  <time>2011-11-22T18:03:40Z</time>
  <speed>1.570000</speed>
</trkpt>
<trkpt lat="32.635440826" lon="35.106544495">
  <ele>118.682251</ele>
  <time>2011-11-22T18:03:42Z</time>
  <speed>1.190000</speed>
</trkpt>
<trkpt lat="32.635414124" lon="35.106510162">
  <ele>118.942017</ele>
  <time>2011-11-22T18:03:44Z</time>
  <speed>1.430000</speed>
</trkpt>
<trkpt lat="32.635395050" lon="35.106487274">
  <ele>118.641235</ele>
  <time>2011-11-22T18:03:46Z</time>
  <speed>1.630000</speed>
</trkpt>
<trkpt lat="32.635364532" lon="35.106449127">
  <ele>119.063110</ele>
  <time>2011-11-22T18:03:48Z</time>
  <speed>1.820000</speed>
</trkpt>
<trkpt lat="32.635330200" lon="35.106410980">
  <ele>121.758423</ele>
  <time>2011-11-22T18:03:50Z</time>
  <speed>1.520000</speed>
</trkpt>
<trkpt lat="32.635307312" lon="35.106380463">
  <ele>121.399048</ele>
  <time>2011-11-22T18:03:52Z</time>
  <speed>1.420000</speed>
</trkpt>
<trkpt lat="32.635284424" lon="35.106357574">
  <ele>122.668579</ele>
  <time>2011-11-22T18:03:54Z</time>
  <speed>1.510000</speed>
</trkpt>
<trkpt lat="32.635269165" lon="35.106323242">
  <ele>123.701782</ele>
  <time>2011-11-22T18:03:57Z</time>
  <speed>1.090000</speed>
</trkpt>
<trkpt lat="32.635250092" lon="35.106292725">
  <ele>124.840454</ele>
  <time>2011-11-22T18:04:00Z</time>
  <speed>1.170000</speed>
</trkpt>
<trkpt lat="32.635238647" lon="35.106246948">
  <ele>125.582642</ele>
  <time>2011-11-22T18:04:03Z</time>
  <speed>1.690000</speed>
</trkpt>
<trkpt lat="32.635231018" lon="35.106216431">
  <ele>126.289673</ele>
  <time>2011-11-22T18:04:05Z</time>
  <speed>1.400000</speed>
</trkpt>
<trkpt lat="32.635208130" lon="35.106193542">
  <ele>126.729126</ele>
  <time>2011-11-22T18:04:07Z</time>
  <speed>1.630000</speed>
</trkpt>
<trkpt lat="32.635204315" lon="35.106163025">
  <ele>127.229126</ele>
  <time>2011-11-22T18:04:09Z</time>
  <speed>1.790000</speed>
</trkpt>
<trkpt lat="32.635192871" lon="35.106124878">
  <ele>126.539673</ele>
  <time>2011-11-22T18:04:12Z</time>
  <speed>1.220000</speed>
</trkpt>
<trkpt lat="32.635169983" lon="35.106090546">
  <ele>127.268188</ele>
  <time>2011-11-22T18:04:14Z</time>
  <speed>1.160000</speed>
</trkpt>
<trkpt lat="32.635150909" lon="35.106060028">
  <ele>127.221313</ele>
  <time>2011-11-22T18:04:16Z</time>
  <speed>1.420000</speed>
</trkpt>
<trkpt lat="32.635131836" lon="35.106025696">
  <ele>127.238892</ele>
  <time>2011-11-22T18:04:18Z</time>
  <speed>1.120000</speed>
</trkpt>
<trkpt lat="32.635116577" lon="35.105991364">
  <ele>127.520142</ele>
  <time>2011-11-22T18:04:20Z</time>
  <speed>1.500000</speed>
</trkpt>
<trkpt lat="32.635093689" lon="35.105960846">
  <ele>127.666626</ele>
  <time>2011-11-22T18:04:22Z</time>
  <speed>1.370000</speed>
</trkpt>
<trkpt lat="32.635074615" lon="35.105922699">
  <ele>128.493408</ele>
  <time>2011-11-22T18:04:25Z</time>
  <speed>1.510000</speed>
</trkpt>
<trkpt lat="32.635051727" lon="35.105888367">
  <ele>128.766846</ele>
  <time>2011-11-22T18:04:27Z</time>
  <speed>1.500000</speed>
</trkpt>
<trkpt lat="32.635017395" lon="35.105869293">
  <ele>131.126221</ele>
  <time>2011-11-22T18:04:28Z</time>
  <speed>1.150000</speed>
</trkpt>
<trkpt lat="32.635013580" lon="35.105827332">
  <ele>131.024658</ele>
  <time>2011-11-22T18:04:31Z</time>
  <speed>1.240000</speed>
</trkpt>
<trkpt lat="32.634990692" lon="35.105800629">
  <ele>131.200439</ele>
  <time>2011-11-22T18:04:33Z</time>
  <speed>1.480000</speed>
</trkpt>
<trkpt lat="32.634975433" lon="35.105770111">
  <ele>131.809814</ele>
  <time>2011-11-22T18:04:35Z</time>
  <speed>1.310000</speed>
</trkpt>
<trkpt lat="32.634941101" lon="35.105712891">
  <ele>134.219971</ele>
  <time>2011-11-22T18:04:38Z</time>
  <speed>1.170000</speed>
</trkpt>
<trkpt lat="32.634925842" lon="35.105674744">
  <ele>133.649658</ele>
  <time>2011-11-22T18:04:41Z</time>
  <speed>1.670000</speed>
</trkpt>
<trkpt lat="32.634933472" lon="35.105636597">
  <ele>134.145752</ele>
  <time>2011-11-22T18:04:44Z</time>
  <speed>1.310000</speed>
</trkpt>
<trkpt lat="32.634922028" lon="35.105609894">
  <ele>134.091064</ele>
  <time>2011-11-22T18:04:46Z</time>
  <speed>1.480000</speed>
</trkpt>
<trkpt lat="32.634914398" lon="35.105575562">
  <ele>133.540283</ele>
  <time>2011-11-22T18:04:48Z</time>
  <speed>1.350000</speed>
</trkpt>
<trkpt lat="32.634899139" lon="35.105556488">
  <ele>135.313721</ele>
  <time>2011-11-22T18:04:50Z</time>
  <speed>1.320000</speed>
</trkpt>
<trkpt lat="32.634883881" lon="35.105518341">
  <ele>136.571533</ele>
  <time>2011-11-22T18:04:53Z</time>
  <speed>1.310000</speed>
</trkpt>
<trkpt lat="32.634853363" lon="35.105495453">
  <ele>135.848877</ele>
  <time>2011-11-22T18:04:55Z</time>
  <speed>1.540000</speed>
</trkpt>
<trkpt lat="32.634838104" lon="35.105464935">
  <ele>135.930908</ele>
  <time>2011-11-22T18:04:57Z</time>
  <speed>1.300000</speed>
</trkpt>
<trkpt lat="32.634815216" lon="35.105430603">
  <ele>136.227783</ele>
  <time>2011-11-22T18:05:00Z</time>
  <speed>1.100000</speed>
</trkpt>
<trkpt lat="32.634784698" lon="35.105411530">
  <ele>136.048096</ele>
  <time>2011-11-22T18:05:02Z</time>
  <speed>1.410000</speed>
</trkpt>
<trkpt lat="32.634765625" lon="35.105388641">
  <ele>137.630127</ele>
  <time>2011-11-22T18:05:04Z</time>
  <speed>1.230000</speed>
</trkpt>
<trkpt lat="32.634754181" lon="35.105354309">
  <ele>139.364502</ele>
  <time>2011-11-22T18:05:05Z</time>
  <speed>1.610000</speed>
</trkpt>
<trkpt lat="32.634731293" lon="35.105335236">
  <ele>139.024658</ele>
  <time>2011-11-22T18:05:07Z</time>
  <speed>1.470000</speed>
</trkpt>
<trkpt lat="32.634727478" lon="35.105308533">
  <ele>140.641846</ele>
  <time>2011-11-22T18:05:09Z</time>
  <speed>1.340000</speed>
</trkpt>
<trkpt lat="32.634696960" lon="35.105278015">
  <ele>141.055908</ele>
  <time>2011-11-22T18:05:11Z</time>
  <speed>1.280000</speed>
</trkpt>
<trkpt lat="32.634670258" lon="35.105247498">
  <ele>141.509033</ele>
  <time>2011-11-22T18:05:14Z</time>
  <speed>0.950000</speed>
</trkpt>
<trkpt lat="32.634639740" lon="35.105224609">
  <ele>141.993408</ele>
  <time>2011-11-22T18:05:16Z</time>
  <speed>1.360000</speed>
</trkpt>
<trkpt lat="32.634624481" lon="35.105190277">
  <ele>142.727783</ele>
  <time>2011-11-22T18:05:18Z</time>
  <speed>1.350000</speed>
</trkpt>
<trkpt lat="32.634624481" lon="35.105155945">
  <ele>143.540283</ele>
  <time>2011-11-22T18:05:20Z</time>
  <speed>1.400000</speed>
</trkpt>
<trkpt lat="32.634586334" lon="35.105113983">
  <ele>145.977783</ele>
  <time>2011-11-22T18:05:22Z</time>
  <speed>1.240000</speed>
</trkpt>
<trkpt lat="32.634590149" lon="35.105072021">
  <ele>147.692627</ele>
  <time>2011-11-22T18:05:25Z</time>
  <speed>1.490000</speed>
</trkpt>
<trkpt lat="32.634578705" lon="35.105041504">
  <ele>148.423096</ele>
  <time>2011-11-22T18:05:27Z</time>
  <speed>1.550000</speed>
</trkpt>
<trkpt lat="32.634571075" lon="35.105003357">
  <ele>149.059814</ele>
  <time>2011-11-22T18:05:29Z</time>
  <speed>1.550000</speed>
</trkpt>
<trkpt lat="32.634548187" lon="35.104976654">
  <ele>149.239502</ele>
  <time>2011-11-22T18:05:31Z</time>
  <speed>1.590000</speed>
</trkpt>
<trkpt lat="32.634540558" lon="35.104930878">
  <ele>149.333252</ele>
  <time>2011-11-22T18:05:33Z</time>
  <speed>1.630000</speed>
</trkpt>
<trkpt lat="32.634502411" lon="35.104911804">
  <ele>149.677002</ele>
  <time>2011-11-22T18:05:35Z</time>
  <speed>1.400000</speed>
</trkpt>
<trkpt lat="32.634479523" lon="35.104885101">
  <ele>150.247314</ele>
  <time>2011-11-22T18:05:37Z</time>
  <speed>1.510000</speed>
</trkpt>
<trkpt lat="32.634464264" lon="35.104835510">
  <ele>150.907471</ele>
  <time>2011-11-22T18:05:40Z</time>
  <speed>1.250000</speed>
</trkpt>
<trkpt lat="32.634449005" lon="35.104797363">
  <ele>151.825439</ele>
  <time>2011-11-22T18:05:42Z</time>
  <speed>1.610000</speed>
</trkpt>
<trkpt lat="32.634414673" lon="35.104774475">
  <ele>151.427002</ele>
  <time>2011-11-22T18:05:45Z</time>
  <speed>1.500000</speed>
</trkpt>
<trkpt lat="32.634368896" lon="35.104774475">
  <ele>150.891846</ele>
  <time>2011-11-22T18:05:46Z</time>
  <speed>1.520000</speed>
</trkpt>
<trkpt lat="32.634357452" lon="35.104736328">
  <ele>151.016846</ele>
  <time>2011-11-22T18:05:48Z</time>
  <speed>1.520000</speed>
</trkpt>
<trkpt lat="32.634330750" lon="35.104701996">
  <ele>152.477783</ele>
  <time>2011-11-22T18:05:50Z</time>
  <speed>1.360000</speed>
</trkpt>
<trkpt lat="32.634288788" lon="35.104663849">
  <ele>153.102783</ele>
  <time>2011-11-22T18:05:53Z</time>
  <speed>1.440000</speed>
</trkpt>
<trkpt lat="32.634250641" lon="35.104637146">
  <ele>152.829346</ele>
  <time>2011-11-22T18:05:55Z</time>
  <speed>1.710000</speed>
</trkpt>
<trkpt lat="32.634239197" lon="35.104595184">
  <ele>152.587158</ele>
  <time>2011-11-22T18:05:57Z</time>
  <speed>1.770000</speed>
</trkpt>
<trkpt lat="32.634235382" lon="35.104560852">
  <ele>153.180908</ele>
  <time>2011-11-22T18:05:59Z</time>
  <speed>1.570000</speed>
</trkpt>
<trkpt lat="32.634227753" lon="35.104526520">
  <ele>153.364502</ele>
  <time>2011-11-22T18:06:01Z</time>
  <speed>1.590000</speed>
</trkpt>
<trkpt lat="32.634208679" lon="35.104496002">
  <ele>154.360596</ele>
  <time>2011-11-22T18:06:03Z</time>
  <speed>1.820000</speed>
</trkpt>
<trkpt lat="32.634181976" lon="35.104473114">
  <ele>154.298096</ele>
  <time>2011-11-22T18:06:05Z</time>
  <speed>1.540000</speed>
</trkpt>
<trkpt lat="32.634170532" lon="35.104442596">
  <ele>154.333252</ele>
  <time>2011-11-22T18:06:07Z</time>
  <speed>1.690000</speed>
</trkpt>
<trkpt lat="32.634162903" lon="35.104408264">
  <ele>154.091064</ele>
  <time>2011-11-22T18:06:09Z</time>
  <speed>1.950000</speed>
</trkpt>
<trkpt lat="32.634136200" lon="35.104373932">
  <ele>153.141846</ele>
  <time>2011-11-22T18:06:11Z</time>
  <speed>1.660000</speed>
</trkpt>
<trkpt lat="32.634113312" lon="35.104362488">
  <ele>152.907471</ele>
  <time>2011-11-22T18:06:13Z</time>
  <speed>1.500000</speed>
</trkpt>
<trkpt lat="32.634082794" lon="35.104343414">
  <ele>153.106689</ele>
  <time>2011-11-22T18:06:15Z</time>
  <speed>1.480000</speed>
</trkpt>
<trkpt lat="32.634048462" lon="35.104335785">
  <ele>152.872314</ele>
  <time>2011-11-22T18:06:17Z</time>
  <speed>1.560000</speed>
</trkpt>
<trkpt lat="32.634021759" lon="35.104328156">
  <ele>152.130127</ele>
  <time>2011-11-22T18:06:19Z</time>
  <speed>1.720000</speed>
</trkpt>
<trkpt lat="32.633991241" lon="35.104316711">
  <ele>150.981689</ele>
  <time>2011-11-22T18:06:21Z</time>
  <speed>1.410000</speed>
</trkpt>
<trkpt lat="32.633960724" lon="35.104301453">
  <ele>151.333252</ele>
  <time>2011-11-22T18:06:23Z</time>
  <speed>1.210000</speed>
</trkpt>
<trkpt lat="32.633922577" lon="35.104309082">
  <ele>151.766846</ele>
  <time>2011-11-22T18:06:26Z</time>
  <speed>1.520000</speed>
</trkpt>
<trkpt lat="32.633892059" lon="35.104305267">
  <ele>151.794189</ele>
  <time>2011-11-22T18:06:28Z</time>
  <speed>1.610000</speed>
</trkpt>
<trkpt lat="32.633865356" lon="35.104297638">
  <ele>151.688721</ele>
  <time>2011-11-22T18:06:30Z</time>
  <speed>1.670000</speed>
</trkpt>
<trkpt lat="32.633834839" lon="35.104297638">
  <ele>151.930908</ele>
  <time>2011-11-22T18:06:32Z</time>
  <speed>1.650000</speed>
</trkpt>
<trkpt lat="32.633792877" lon="35.104290009">
  <ele>153.212158</ele>
  <time>2011-11-22T18:06:34Z</time>
  <speed>1.930000</speed>
</trkpt>
<trkpt lat="32.633758545" lon="35.104293823">
  <ele>153.719971</ele>
  <time>2011-11-22T18:06:36Z</time>
  <speed>1.840000</speed>
</trkpt>
<trkpt lat="32.633724213" lon="35.104297638">
  <ele>154.610596</ele>
  <time>2011-11-22T18:06:38Z</time>
  <speed>1.890000</speed>
</trkpt>
<trkpt lat="32.633689880" lon="35.104290009">
  <ele>155.079346</ele>
  <time>2011-11-22T18:06:40Z</time>
  <speed>1.730000</speed>
</trkpt>
<trkpt lat="32.633659363" lon="35.104282379">
  <ele>156.344971</ele>
  <time>2011-11-22T18:06:42Z</time>
  <speed>1.500000</speed>
</trkpt>
<trkpt lat="32.633625031" lon="35.104270935">
  <ele>156.216064</ele>
  <time>2011-11-22T18:06:45Z</time>
  <speed>1.160000</speed>
</trkpt>
<trkpt lat="32.633594513" lon="35.104267120">
  <ele>156.817627</ele>
  <time>2011-11-22T18:06:47Z</time>
  <speed>1.110000</speed>
</trkpt>
<trkpt lat="32.633567810" lon="35.104251862">
  <ele>156.688721</ele>
  <time>2011-11-22T18:06:50Z</time>
  <speed>0.860000</speed>
</trkpt>
<trkpt lat="32.633533478" lon="35.104240417">
  <ele>156.759033</ele>
  <time>2011-11-22T18:06:53Z</time>
  <speed>1.470000</speed>
</trkpt>
<trkpt lat="32.633506775" lon="35.104240417">
  <ele>156.473877</ele>
  <time>2011-11-22T18:06:55Z</time>
  <speed>1.150000</speed>
</trkpt>
<trkpt lat="32.633468628" lon="35.104225159">
  <ele>155.188721</ele>
  <time>2011-11-22T18:06:58Z</time>
  <speed>1.330000</speed>
</trkpt>
<trkpt lat="32.633438110" lon="35.104213715">
  <ele>154.966064</ele>
  <time>2011-11-22T18:07:01Z</time>
  <speed>0.580000</speed>
</trkpt>
<trkpt lat="32.633396149" lon="35.104209900">
  <ele>154.645752</ele>
  <time>2011-11-22T18:07:04Z</time>
  <speed>1.810000</speed>
</trkpt>
<trkpt lat="32.633350372" lon="35.104217529">
  <ele>154.716064</ele>
  <time>2011-11-22T18:07:06Z</time>
  <speed>2.450000</speed>
</trkpt>
<trkpt lat="32.633308411" lon="35.104206085">
  <ele>153.895752</ele>
  <time>2011-11-22T18:07:08Z</time>
  <speed>2.250000</speed>
</trkpt>
<trkpt lat="32.633266449" lon="35.104187012">
  <ele>153.485596</ele>
  <time>2011-11-22T18:07:10Z</time>
  <speed>2.960000</speed>
</trkpt>
<trkpt lat="32.633213043" lon="35.104183197">
  <ele>152.387939</ele>
  <time>2011-11-22T18:07:12Z</time>
  <speed>3.520000</speed>
</trkpt>
<trkpt lat="32.633178711" lon="35.104175568">
  <ele>152.282471</ele>
  <time>2011-11-22T18:07:13Z</time>
  <speed>3.850000</speed>
</trkpt>
<trkpt lat="32.633140564" lon="35.104171753">
  <ele>152.141846</ele>
  <time>2011-11-22T18:07:14Z</time>
  <speed>4.120000</speed>
</trkpt>
<trkpt lat="32.633102417" lon="35.104167938">
  <ele>151.641846</ele>
  <time>2011-11-22T18:07:15Z</time>
  <speed>4.470000</speed>
</trkpt>
<trkpt lat="32.633056641" lon="35.104164124">
  <ele>151.622314</ele>
  <time>2011-11-22T18:07:16Z</time>
  <speed>4.900000</speed>
</trkpt>
<trkpt lat="32.633010864" lon="35.104156494">
  <ele>151.501221</ele>
  <time>2011-11-22T18:07:17Z</time>
  <speed>5.180000</speed>
</trkpt>
<trkpt lat="32.632957458" lon="35.104160309">
  <ele>152.052002</ele>
  <time>2011-11-22T18:07:18Z</time>
  <speed>5.740000</speed>
</trkpt>
<trkpt lat="32.632904053" lon="35.104171753">
  <ele>152.641846</ele>
  <time>2011-11-22T18:07:19Z</time>
  <speed>6.140000</speed>
</trkpt>
<trkpt lat="32.632846832" lon="35.104183197">
  <ele>152.348877</ele>
  <time>2011-11-22T18:07:20Z</time>
  <speed>6.590000</speed>
</trkpt>
<trkpt lat="32.632789612" lon="35.104202271">
  <ele>152.243408</ele>
  <time>2011-11-22T18:07:21Z</time>
  <speed>7.200000</speed>
</trkpt>
<trkpt lat="32.632728577" lon="35.104225159">
  <ele>152.063721</ele>
  <time>2011-11-22T18:07:22Z</time>
  <speed>7.470000</speed>
</trkpt>
<trkpt lat="32.632663727" lon="35.104263306">
  <ele>151.591064</ele>
  <time>2011-11-22T18:07:23Z</time>
  <speed>8.230000</speed>
</trkpt>
<trkpt lat="32.632598877" lon="35.104312897">
  <ele>151.282471</ele>
  <time>2011-11-22T18:07:24Z</time>
  <speed>8.310000</speed>
</trkpt>
<trkpt lat="32.632541656" lon="35.104362488">
  <ele>150.958252</ele>
  <time>2011-11-22T18:07:25Z</time>
  <speed>7.980000</speed>
</trkpt>
<trkpt lat="32.632492065" lon="35.104427338">
  <ele>151.227783</ele>
  <time>2011-11-22T18:07:26Z</time>
  <speed>7.950000</speed>
</trkpt>
<trkpt lat="32.632442474" lon="35.104496002">
  <ele>151.223877</ele>
  <time>2011-11-22T18:07:27Z</time>
  <speed>7.610000</speed>
</trkpt>
<trkpt lat="32.632400513" lon="35.104557037">
  <ele>151.016846</ele>
  <time>2011-11-22T18:07:28Z</time>
  <speed>7.170000</speed>
</trkpt>
<trkpt lat="32.632358551" lon="35.104621887">
  <ele>150.723877</ele>
  <time>2011-11-22T18:07:29Z</time>
  <speed>7.870000</speed>
</trkpt>
<trkpt lat="32.632316589" lon="35.104682922">
  <ele>150.747314</ele>
  <time>2011-11-22T18:07:30Z</time>
  <speed>7.840000</speed>
</trkpt>
<trkpt lat="32.632270813" lon="35.104747772">
  <ele>150.587158</ele>
  <time>2011-11-22T18:07:31Z</time>
  <speed>7.720000</speed>
</trkpt>
<trkpt lat="32.632221222" lon="35.104804993">
  <ele>150.391846</ele>
  <time>2011-11-22T18:07:32Z</time>
  <speed>7.640000</speed>
</trkpt>
<trkpt lat="32.632171631" lon="35.104869843">
  <ele>150.196533</ele>
  <time>2011-11-22T18:07:33Z</time>
  <speed>8.610000</speed>
</trkpt>
<trkpt lat="32.632118225" lon="35.104934692">
  <ele>150.044189</ele>
  <time>2011-11-22T18:07:34Z</time>
  <speed>8.790000</speed>
</trkpt>
<trkpt lat="32.632061005" lon="35.104999542">
  <ele>150.098877</ele>
  <time>2011-11-22T18:07:35Z</time>
  <speed>9.340000</speed>
</trkpt>
<trkpt lat="32.631999969" lon="35.105079651">
  <ele>149.614502</ele>
  <time>2011-11-22T18:07:36Z</time>
  <speed>9.490000</speed>
</trkpt>
<trkpt lat="32.631938934" lon="35.105152130">
  <ele>149.329346</ele>
  <time>2011-11-22T18:07:37Z</time>
  <speed>9.780000</speed>
</trkpt>
<trkpt lat="32.631862640" lon="35.105232239">
  <ele>149.321533</ele>
  <time>2011-11-22T18:07:38Z</time>
  <speed>10.000000</speed>
</trkpt>
<trkpt lat="32.631786346" lon="35.105308533">
  <ele>148.098877</ele>
  <time>2011-11-22T18:07:39Z</time>
  <speed>10.330000</speed>
</trkpt>
<trkpt lat="32.631721497" lon="35.105377197">
  <ele>147.540283</ele>
  <time>2011-11-22T18:07:40Z</time>
  <speed>10.430000</speed>
</trkpt>
<trkpt lat="32.631645203" lon="35.105449677">
  <ele>146.856689</ele>
  <time>2011-11-22T18:07:41Z</time>
  <speed>10.810000</speed>
</trkpt>
<trkpt lat="32.631572723" lon="35.105525970">
  <ele>145.602783</ele>
  <time>2011-11-22T18:07:42Z</time>
  <speed>11.329999</speed>
</trkpt>
<trkpt lat="32.631496429" lon="35.105609894">
  <ele>145.087158</ele>
  <time>2011-11-22T18:07:43Z</time>
  <speed>11.400000</speed>
</trkpt>
<trkpt lat="32.631416321" lon="35.105690002">
  <ele>144.872314</ele>
  <time>2011-11-22T18:07:44Z</time>
  <speed>11.640000</speed>
</trkpt>
<trkpt lat="32.631340027" lon="35.105781555">
  <ele>143.973877</ele>
  <time>2011-11-22T18:07:45Z</time>
  <speed>11.780000</speed>
</trkpt>
<trkpt lat="32.631271362" lon="35.105876923">
  <ele>143.005127</ele>
  <time>2011-11-22T18:07:46Z</time>
  <speed>11.530000</speed>
</trkpt>
<trkpt lat="32.631206512" lon="35.105972290">
  <ele>142.071533</ele>
  <time>2011-11-22T18:07:47Z</time>
  <speed>11.620000</speed>
</trkpt>
<trkpt lat="32.631137848" lon="35.106071472">
  <ele>140.954346</ele>
  <time>2011-11-22T18:07:48Z</time>
  <speed>12.020000</speed>
</trkpt>
<trkpt lat="32.631069183" lon="35.106170654">
  <ele>139.934814</ele>
  <time>2011-11-22T18:07:49Z</time>
  <speed>11.470000</speed>
</trkpt>
<trkpt lat="32.630996704" lon="35.106262207">
  <ele>139.208252</ele>
  <time>2011-11-22T18:07:50Z</time>
  <speed>11.620000</speed>
</trkpt>
<trkpt lat="32.630928040" lon="35.106353760">
  <ele>138.427002</ele>
  <time>2011-11-22T18:07:51Z</time>
  <speed>11.490000</speed>
</trkpt>
<trkpt lat="32.630851746" lon="35.106441498">
  <ele>137.458252</ele>
  <time>2011-11-22T18:07:52Z</time>
  <speed>11.790000</speed>
</trkpt>
<trkpt lat="32.630779266" lon="35.106536865">
  <ele>136.177002</ele>
  <time>2011-11-22T18:07:53Z</time>
  <speed>12.110000</speed>
</trkpt>
<trkpt lat="32.630710602" lon="35.106647491">
  <ele>135.907471</ele>
  <time>2011-11-22T18:07:54Z</time>
  <speed>11.850000</speed>
</trkpt>
<trkpt lat="32.630641937" lon="35.106750488">
  <ele>135.497314</ele>
  <time>2011-11-22T18:07:55Z</time>
  <speed>11.750000</speed>
</trkpt>
<trkpt lat="32.630580902" lon="35.106849670">
  <ele>135.063721</ele>
  <time>2011-11-22T18:07:56Z</time>
  <speed>11.680000</speed>
</trkpt>
<trkpt lat="32.630523682" lon="35.106956482">
  <ele>134.407471</ele>
  <time>2011-11-22T18:07:57Z</time>
  <speed>11.470000</speed>
</trkpt>
<trkpt lat="32.630458832" lon="35.107040405">
  <ele>134.247314</ele>
  <time>2011-11-22T18:07:58Z</time>
  <speed>10.360000</speed>
</trkpt>
<trkpt lat="32.630393982" lon="35.107116699">
  <ele>133.899658</ele>
  <time>2011-11-22T18:07:59Z</time>
  <speed>8.770000</speed>
</trkpt>
<trkpt lat="32.630321503" lon="35.107162476">
  <ele>133.794189</ele>
  <time>2011-11-22T18:08:00Z</time>
  <speed>9.160000</speed>
</trkpt>
<trkpt lat="32.630241394" lon="35.107208252">
  <ele>133.446533</ele>
  <time>2011-11-22T18:08:01Z</time>
  <speed>9.880000</speed>
</trkpt>
<trkpt lat="32.630153656" lon="35.107250214">
  <ele>132.298096</ele>
  <time>2011-11-22T18:08:02Z</time>
  <speed>10.440000</speed>
</trkpt>
<trkpt lat="32.630058289" lon="35.107307434">
  <ele>130.739502</ele>
  <time>2011-11-22T18:08:03Z</time>
  <speed>11.350000</speed>
</trkpt>
<trkpt lat="32.629966736" lon="35.107357025">
  <ele>129.759033</ele>
  <time>2011-11-22T18:08:04Z</time>
  <speed>11.610000</speed>
</trkpt>
<trkpt lat="32.629875183" lon="35.107410431">
  <ele>128.387939</ele>
  <time>2011-11-22T18:08:05Z</time>
  <speed>11.880000</speed>
</trkpt>
<trkpt lat="32.629776001" lon="35.107479095">
  <ele>127.072876</ele>
  <time>2011-11-22T18:08:06Z</time>
  <speed>12.260000</speed>
</trkpt>
<trkpt lat="32.629680634" lon="35.107551575">
  <ele>125.682251</ele>
  <time>2011-11-22T18:08:07Z</time>
  <speed>12.400000</speed>
</trkpt>
<trkpt lat="32.629592896" lon="35.107631683">
  <ele>123.276001</ele>
  <time>2011-11-22T18:08:08Z</time>
  <speed>12.100000</speed>
</trkpt>
<trkpt lat="32.629501343" lon="35.107707977">
  <ele>121.824829</ele>
  <time>2011-11-22T18:08:09Z</time>
  <speed>12.300000</speed>
</trkpt>
<trkpt lat="32.629413605" lon="35.107784271">
  <ele>120.692017</ele>
  <time>2011-11-22T18:08:10Z</time>
  <speed>11.520000</speed>
</trkpt>
<trkpt lat="32.629337311" lon="35.107849121">
  <ele>119.399048</ele>
  <time>2011-11-22T18:08:11Z</time>
  <speed>9.250000</speed>
</trkpt>
<trkpt lat="32.629272461" lon="35.107894897">
  <ele>118.461548</ele>
  <time>2011-11-22T18:08:12Z</time>
  <speed>7.780000</speed>
</trkpt>
<trkpt lat="32.629219055" lon="35.107913971">
  <ele>117.328735</ele>
  <time>2011-11-22T18:08:13Z</time>
  <speed>5.900000</speed>
</trkpt>
<trkpt lat="32.629158020" lon="35.107906342">
  <ele>116.770142</ele>
  <time>2011-11-22T18:08:14Z</time>
  <speed>7.010000</speed>
</trkpt>
<trkpt lat="32.629100800" lon="35.107860565">
  <ele>115.463501</ele>
  <time>2011-11-22T18:08:15Z</time>
  <speed>8.300000</speed>
</trkpt>
<trkpt lat="32.629035950" lon="35.107799530">
  <ele>114.026001</ele>
  <time>2011-11-22T18:08:16Z</time>
  <speed>9.500000</speed>
</trkpt>
<trkpt lat="32.628967285" lon="35.107734680">
  <ele>112.586548</ele>
  <time>2011-11-22T18:08:17Z</time>
  <speed>9.580000</speed>
</trkpt>
<trkpt lat="32.628898621" lon="35.107669830">
  <ele>111.002563</ele>
  <time>2011-11-22T18:08:18Z</time>
  <speed>8.870000</speed>
</trkpt>
<trkpt lat="32.628841400" lon="35.107604980">
  <ele>110.219360</ele>
  <time>2011-11-22T18:08:19Z</time>
  <speed>8.200000</speed>
</trkpt>
<trkpt lat="32.628787994" lon="35.107547760">
  <ele>109.223267</ele>
  <time>2011-11-22T18:08:20Z</time>
  <speed>7.460000</speed>
</trkpt>
<trkpt lat="32.628738403" lon="35.107498169">
  <ele>108.772095</ele>
  <time>2011-11-22T18:08:21Z</time>
  <speed>6.410000</speed>
</trkpt>
<trkpt lat="32.628700256" lon="35.107448578">
  <ele>109.315063</ele>
  <time>2011-11-22T18:08:22Z</time>
  <speed>5.890000</speed>
</trkpt>
<trkpt lat="32.628662109" lon="35.107410431">
  <ele>109.289673</ele>
  <time>2011-11-22T18:08:23Z</time>
  <speed>4.540000</speed>
</trkpt>
<trkpt lat="32.628631592" lon="35.107376099">
  <ele>109.022095</ele>
  <time>2011-11-22T18:08:24Z</time>
  <speed>4.290000</speed>
</trkpt>
<trkpt lat="32.628608704" lon="35.107349396">
  <ele>108.014282</ele>
  <time>2011-11-22T18:08:25Z</time>
  <speed>4.460000</speed>
</trkpt>
<trkpt lat="32.628578186" lon="35.107315063">
  <ele>108.451782</ele>
  <time>2011-11-22T18:08:26Z</time>
  <speed>3.820000</speed>
</trkpt>
<trkpt lat="32.628555298" lon="35.107292175">
  <ele>108.076782</ele>
  <time>2011-11-22T18:08:27Z</time>
  <speed>3.200000</speed>
</trkpt>
<trkpt lat="32.628528595" lon="35.107265472">
  <ele>107.393188</ele>
  <time>2011-11-22T18:08:29Z</time>
  <speed>1.850000</speed>
</trkpt>
<trkpt lat="32.628509521" lon="35.107223511">
  <ele>108.317017</ele>
  <time>2011-11-22T18:08:31Z</time>
  <speed>1.270000</speed>
</trkpt>
<trkpt lat="32.628482819" lon="35.107215881">
  <ele>107.945923</ele>
  <time>2011-11-22T18:08:33Z</time>
  <speed>1.530000</speed>
</trkpt>
<trkpt lat="32.628456116" lon="35.107227325">
  <ele>106.715454</ele>
  <time>2011-11-22T18:08:35Z</time>
  <speed>1.900000</speed>
</trkpt>
<trkpt lat="32.628437042" lon="35.107265472">
  <ele>105.777954</ele>
  <time>2011-11-22T18:08:37Z</time>
  <speed>1.710000</speed>
</trkpt>
<trkpt lat="32.628429413" lon="35.107292175">
  <ele>106.469360</ele>
  <time>2011-11-22T18:08:39Z</time>
  <speed>0.450000</speed>
</trkpt>
<trkpt lat="32.628433228" lon="35.107311249">
  <ele>103.711548</ele>
  <time>2011-11-22T18:08:43Z</time>
  <speed>0.130000</speed>
</trkpt>
<trkpt lat="32.628440857" lon="35.107307434">
  <ele>106.647095</ele>
  <time>2011-11-22T18:08:53Z</time>
  <speed>0.040000</speed>
</trkpt>
<trkpt lat="32.628437042" lon="35.107334137">
  <ele>108.670532</ele>
  <time>2011-11-22T18:08:55Z</time>
  <speed>0.170000</speed>
</trkpt>
<trkpt lat="32.628437042" lon="35.107364655">
  <ele>108.662720</ele>
  <time>2011-11-22T18:08:58Z</time>
  <speed>0.360000</speed>
</trkpt>
<trkpt lat="32.628406525" lon="35.107395172">
  <ele>108.424438</ele>
  <time>2011-11-22T18:09:03Z</time>
  <speed>1.670000</speed>
</trkpt>
<trkpt lat="32.628372192" lon="35.107418060">
  <ele>108.369751</ele>
  <time>2011-11-22T18:09:05Z</time>
  <speed>1.620000</speed>
</trkpt>
<trkpt lat="32.628368378" lon="35.107448578">
  <ele>108.320923</ele>
  <time>2011-11-22T18:09:08Z</time>
  <speed>0.910000</speed>
</trkpt>
<trkpt lat="32.628341675" lon="35.107467651">
  <ele>108.361938</ele>
  <time>2011-11-22T18:09:11Z</time>
  <speed>1.280000</speed>
</trkpt>
<trkpt lat="32.628311157" lon="35.107494354">
  <ele>108.877563</ele>
  <time>2011-11-22T18:09:14Z</time>
  <speed>1.480000</speed>
</trkpt>
<trkpt lat="32.628284454" lon="35.107521057">
  <ele>109.606079</ele>
  <time>2011-11-22T18:09:17Z</time>
  <speed>1.300000</speed>
</trkpt>
<trkpt lat="32.628261566" lon="35.107547760">
  <ele>110.043579</ele>
  <time>2011-11-22T18:09:19Z</time>
  <speed>1.400000</speed>
</trkpt>
<trkpt lat="32.628227234" lon="35.107566833">
  <ele>110.445923</ele>
  <time>2011-11-22T18:09:21Z</time>
  <speed>1.390000</speed>
</trkpt>
<trkpt lat="32.628200531" lon="35.107589722">
  <ele>111.152954</ele>
  <time>2011-11-22T18:09:23Z</time>
  <speed>1.390000</speed>
</trkpt>
<trkpt lat="32.628173828" lon="35.107620239">
  <ele>111.178345</ele>
  <time>2011-11-22T18:09:25Z</time>
  <speed>1.840000</speed>
</trkpt>
<trkpt lat="32.628185272" lon="35.107666016">
  <ele>110.793579</ele>
  <time>2011-11-22T18:09:27Z</time>
  <speed>1.730000</speed>
</trkpt>
<trkpt lat="32.628170013" lon="35.107692719">
  <ele>111.215454</ele>
  <time>2011-11-22T18:09:29Z</time>
  <speed>1.830000</speed>
</trkpt>
<trkpt lat="32.628147125" lon="35.107730865">
  <ele>110.971313</ele>
  <time>2011-11-22T18:09:31Z</time>
  <speed>2.190000</speed>
</trkpt>
<trkpt lat="32.628120422" lon="35.107765198">
  <ele>110.795532</ele>
  <time>2011-11-22T18:09:33Z</time>
  <speed>2.270000</speed>
</trkpt>
<trkpt lat="32.628089905" lon="35.107807159">
  <ele>110.428345</ele>
  <time>2011-11-22T18:09:35Z</time>
  <speed>2.900000</speed>
</trkpt>
<trkpt lat="32.628067017" lon="35.107822418">
  <ele>110.201782</ele>
  <time>2011-11-22T18:09:36Z</time>
  <speed>2.900000</speed>
</trkpt>
<trkpt lat="32.628040314" lon="35.107845306">
  <ele>110.108032</ele>
  <time>2011-11-22T18:09:37Z</time>
  <speed>2.700000</speed>
</trkpt>
<trkpt lat="32.628005981" lon="35.107883453">
  <ele>110.014282</ele>
  <time>2011-11-22T18:09:39Z</time>
  <speed>2.410000</speed>
</trkpt>
<trkpt lat="32.627979279" lon="35.107917786">
  <ele>110.190063</ele>
  <time>2011-11-22T18:09:41Z</time>
  <speed>2.080000</speed>
</trkpt>
<trkpt lat="32.627952576" lon="35.107952118">
  <ele>110.127563</ele>
  <time>2011-11-22T18:09:43Z</time>
  <speed>2.230000</speed>
</trkpt>
<trkpt lat="32.627918243" lon="35.107982635">
  <ele>110.012329</ele>
  <time>2011-11-22T18:09:45Z</time>
  <speed>2.500000</speed>
</trkpt>
<trkpt lat="32.627880096" lon="35.108005524">
  <ele>109.606079</ele>
  <time>2011-11-22T18:09:46Z</time>
  <speed>2.950000</speed>
</trkpt>
<trkpt lat="32.627841949" lon="35.108039856">
  <ele>109.182251</ele>
  <time>2011-11-22T18:09:48Z</time>
  <speed>2.790000</speed>
</trkpt>
<trkpt lat="32.627803802" lon="35.108085632">
  <ele>109.277954</ele>
  <time>2011-11-22T18:09:50Z</time>
  <speed>3.160000</speed>
</trkpt>
<trkpt lat="32.627769470" lon="35.108112335">
  <ele>109.742798</ele>
  <time>2011-11-22T18:09:51Z</time>
  <speed>3.750000</speed>
</trkpt>
<trkpt lat="32.627731323" lon="35.108150482">
  <ele>110.068970</ele>
  <time>2011-11-22T18:09:53Z</time>
  <speed>2.700000</speed>
</trkpt>
<trkpt lat="32.627696991" lon="35.108184814">
  <ele>109.979126</ele>
  <time>2011-11-22T18:09:55Z</time>
  <speed>2.140000</speed>
</trkpt>
<trkpt lat="32.627666473" lon="35.108211517">
  <ele>109.387329</ele>
  <time>2011-11-22T18:09:57Z</time>
  <speed>1.440000</speed>
</trkpt>
<trkpt lat="32.627635956" lon="35.108238220">
  <ele>108.647095</ele>
  <time>2011-11-22T18:10:00Z</time>
  <speed>1.030000</speed>
</trkpt>
<trkpt lat="32.627609253" lon="35.108253479">
  <ele>108.125610</ele>
  <time>2011-11-22T18:10:02Z</time>
  <speed>1.110000</speed>
</trkpt>
<trkpt lat="32.627582550" lon="35.108276367">
  <ele>107.996704</ele>
  <time>2011-11-22T18:10:04Z</time>
  <speed>1.570000</speed>
</trkpt>
<trkpt lat="32.627555847" lon="35.108310699">
  <ele>108.170532</ele>
  <time>2011-11-22T18:10:07Z</time>
  <speed>1.200000</speed>
</trkpt>
<trkpt lat="32.627532959" lon="35.108348846">
  <ele>107.916626</ele>
  <time>2011-11-22T18:10:10Z</time>
  <speed>1.610000</speed>
</trkpt>
<trkpt lat="32.627513885" lon="35.108371735">
  <ele>108.197876</ele>
  <time>2011-11-22T18:10:12Z</time>
  <speed>1.660000</speed>
</trkpt>
<trkpt lat="32.627490997" lon="35.108409882">
  <ele>108.518188</ele>
  <time>2011-11-22T18:10:15Z</time>
  <speed>1.970000</speed>
</trkpt>
<trkpt lat="32.627464294" lon="35.108444214">
  <ele>109.006470</ele>
  <time>2011-11-22T18:10:17Z</time>
  <speed>2.210000</speed>
</trkpt>
<trkpt lat="32.627441406" lon="35.108470917">
  <ele>108.803345</ele>
  <time>2011-11-22T18:10:19Z</time>
  <speed>2.360000</speed>
</trkpt>
<trkpt lat="32.627403259" lon="35.108501434">
  <ele>108.652954</ele>
  <time>2011-11-22T18:10:21Z</time>
  <speed>2.360000</speed>
</trkpt>
<trkpt lat="32.627376556" lon="35.108528137">
  <ele>107.395142</ele>
  <time>2011-11-22T18:10:23Z</time>
  <speed>2.200000</speed>
</trkpt>
<trkpt lat="32.627346039" lon="35.108566284">
  <ele>106.613892</ele>
  <time>2011-11-22T18:10:25Z</time>
  <speed>2.780000</speed>
</trkpt>
<trkpt lat="32.627311707" lon="35.108604431">
  <ele>106.318970</ele>
  <time>2011-11-22T18:10:27Z</time>
  <speed>2.570000</speed>
</trkpt>
<trkpt lat="32.627307892" lon="35.108642578">
  <ele>107.051392</ele>
  <time>2011-11-22T18:10:28Z</time>
  <speed>2.640000</speed>
</trkpt>
<trkpt lat="32.627296448" lon="35.108669281">
  <ele>108.100220</ele>
  <time>2011-11-22T18:10:29Z</time>
  <speed>2.580000</speed>
</trkpt>
<trkpt lat="32.627277374" lon="35.108692169">
  <ele>108.551392</ele>
  <time>2011-11-22T18:10:30Z</time>
  <speed>2.740000</speed>
</trkpt>
<trkpt lat="32.627262115" lon="35.108730316">
  <ele>109.313110</ele>
  <time>2011-11-22T18:10:31Z</time>
  <speed>2.990000</speed>
</trkpt>
<trkpt lat="32.627243042" lon="35.108757019">
  <ele>109.881470</ele>
  <time>2011-11-22T18:10:32Z</time>
  <speed>3.530000</speed>
</trkpt>
<trkpt lat="32.627220154" lon="35.108795166">
  <ele>110.151001</ele>
  <time>2011-11-22T18:10:33Z</time>
  <speed>3.870000</speed>
</trkpt>
<trkpt lat="32.627197266" lon="35.108825684">
  <ele>109.750610</ele>
  <time>2011-11-22T18:10:34Z</time>
  <speed>3.770000</speed>
</trkpt>
<trkpt lat="32.627178192" lon="35.108852386">
  <ele>109.125610</ele>
  <time>2011-11-22T18:10:35Z</time>
  <speed>3.790000</speed>
</trkpt>
<trkpt lat="32.627155304" lon="35.108890533">
  <ele>108.541626</ele>
  <time>2011-11-22T18:10:36Z</time>
  <speed>4.480000</speed>
</trkpt>
<trkpt lat="32.627132416" lon="35.108932495">
  <ele>107.744751</ele>
  <time>2011-11-22T18:10:37Z</time>
  <speed>4.940000</speed>
</trkpt>
<trkpt lat="32.627109528" lon="35.108974457">
  <ele>107.352173</ele>
  <time>2011-11-22T18:10:38Z</time>
  <speed>5.180000</speed>
</trkpt>
<trkpt lat="32.627086639" lon="35.109024048">
  <ele>106.787720</ele>
  <time>2011-11-22T18:10:39Z</time>
  <speed>5.520000</speed>
</trkpt>
<trkpt lat="32.627063751" lon="35.109081268">
  <ele>106.584595</ele>
  <time>2011-11-22T18:10:40Z</time>
  <speed>5.870000</speed>
</trkpt>
<trkpt lat="32.627037048" lon="35.109134674">
  <ele>106.039673</ele>
  <time>2011-11-22T18:10:41Z</time>
  <speed>6.020000</speed>
</trkpt>
<trkpt lat="32.627014160" lon="35.109188080">
  <ele>105.768188</ele>
  <time>2011-11-22T18:10:42Z</time>
  <speed>5.820000</speed>
</trkpt>
<trkpt lat="32.626987457" lon="35.109241486">
  <ele>105.643188</ele>
  <time>2011-11-22T18:10:43Z</time>
  <speed>5.890000</speed>
</trkpt>
<trkpt lat="32.626956940" lon="35.109291077">
  <ele>105.399048</ele>
  <time>2011-11-22T18:10:44Z</time>
  <speed>5.690000</speed>
</trkpt>
<trkpt lat="32.626934052" lon="35.109340668">
  <ele>105.295532</ele>
  <time>2011-11-22T18:10:45Z</time>
  <speed>5.180000</speed>
</trkpt>
<trkpt lat="32.626911163" lon="35.109378815">
  <ele>104.953735</ele>
  <time>2011-11-22T18:10:46Z</time>
  <speed>4.940000</speed>
</trkpt>
<trkpt lat="32.626892090" lon="35.109424591">
  <ele>104.815063</ele>
  <time>2011-11-22T18:10:47Z</time>
  <speed>4.830000</speed>
</trkpt>
<trkpt lat="32.626876831" lon="35.109470367">
  <ele>104.283813</ele>
  <time>2011-11-22T18:10:48Z</time>
  <speed>4.830000</speed>
</trkpt>
<trkpt lat="32.626865387" lon="35.109516144">
  <ele>104.065063</ele>
  <time>2011-11-22T18:10:49Z</time>
  <speed>4.630000</speed>
</trkpt>
<trkpt lat="32.626861572" lon="35.109569550">
  <ele>104.391235</ele>
  <time>2011-11-22T18:10:50Z</time>
  <speed>4.420000</speed>
</trkpt>
<trkpt lat="32.626857758" lon="35.109630585">
  <ele>104.838501</ele>
  <time>2011-11-22T18:10:51Z</time>
  <speed>4.730000</speed>
</trkpt>
<trkpt lat="32.626846313" lon="35.109683990">
  <ele>105.381470</ele>
  <time>2011-11-22T18:10:52Z</time>
  <speed>4.550000</speed>
</trkpt>
<trkpt lat="32.626834869" lon="35.109729767">
  <ele>105.197876</ele>
  <time>2011-11-22T18:10:53Z</time>
  <speed>4.370000</speed>
</trkpt>
<trkpt lat="32.626827240" lon="35.109775543">
  <ele>104.678345</ele>
  <time>2011-11-22T18:10:54Z</time>
  <speed>4.390000</speed>
</trkpt>
<trkpt lat="32.626819611" lon="35.109817505">
  <ele>104.475220</ele>
  <time>2011-11-22T18:10:55Z</time>
  <speed>4.630000</speed>
</trkpt>
<trkpt lat="32.626808167" lon="35.109863281">
  <ele>103.922485</ele>
  <time>2011-11-22T18:10:56Z</time>
  <speed>4.630000</speed>
</trkpt>
<trkpt lat="32.626808167" lon="35.109912872">
  <ele>103.717407</ele>
  <time>2011-11-22T18:10:57Z</time>
  <speed>4.690000</speed>
</trkpt>
<trkpt lat="32.626804352" lon="35.109966278">
  <ele>103.721313</ele>
  <time>2011-11-22T18:10:58Z</time>
  <speed>4.490000</speed>
</trkpt>
<trkpt lat="32.626796722" lon="35.110012054">
  <ele>103.309204</ele>
  <time>2011-11-22T18:10:59Z</time>
  <speed>4.380000</speed>
</trkpt>
<trkpt lat="32.626785278" lon="35.110057831">
  <ele>103.100220</ele>
  <time>2011-11-22T18:11:00Z</time>
  <speed>4.540000</speed>
</trkpt>
<trkpt lat="32.626770020" lon="35.110103607">
  <ele>103.365845</ele>
  <time>2011-11-22T18:11:01Z</time>
  <speed>4.330000</speed>
</trkpt>
<trkpt lat="32.626762390" lon="35.110149384">
  <ele>103.639282</ele>
  <time>2011-11-22T18:11:02Z</time>
  <speed>4.140000</speed>
</trkpt>
<trkpt lat="32.626758575" lon="35.110183716">
  <ele>103.002563</ele>
  <time>2011-11-22T18:11:03Z</time>
  <speed>4.230000</speed>
</trkpt>
<trkpt lat="32.626770020" lon="35.110256195">
  <ele>105.949829</ele>
  <time>2011-11-22T18:11:04Z</time>
  <speed>4.170000</speed>
</trkpt>
<trkpt lat="32.626773834" lon="35.110317230">
  <ele>107.848267</ele>
  <time>2011-11-22T18:11:05Z</time>
  <speed>3.960000</speed>
</trkpt>
<trkpt lat="32.626773834" lon="35.110351563">
  <ele>107.500610</ele>
  <time>2011-11-22T18:11:06Z</time>
  <speed>3.810000</speed>
</trkpt>
<trkpt lat="32.626781464" lon="35.110397339">
  <ele>108.209595</ele>
  <time>2011-11-22T18:11:07Z</time>
  <speed>3.970000</speed>
</trkpt>
<trkpt lat="32.626789093" lon="35.110450745">
  <ele>109.688110</ele>
  <time>2011-11-22T18:11:08Z</time>
  <speed>3.990000</speed>
</trkpt>
<trkpt lat="32.626792908" lon="35.110492706">
  <ele>110.752563</ele>
  <time>2011-11-22T18:11:09Z</time>
  <speed>3.940000</speed>
</trkpt>
<trkpt lat="32.626796722" lon="35.110530853">
  <ele>111.631470</ele>
  <time>2011-11-22T18:11:10Z</time>
  <speed>3.830000</speed>
</trkpt>
<trkpt lat="32.626796722" lon="35.110580444">
  <ele>112.856079</ele>
  <time>2011-11-22T18:11:11Z</time>
  <speed>3.640000</speed>
</trkpt>
<trkpt lat="32.626800537" lon="35.110626221">
  <ele>113.479126</ele>
  <time>2011-11-22T18:11:12Z</time>
  <speed>4.070000</speed>
</trkpt>
<trkpt lat="32.626796722" lon="35.110675812">
  <ele>114.127563</ele>
  <time>2011-11-22T18:11:13Z</time>
  <speed>3.980000</speed>
</trkpt>
<trkpt lat="32.626781464" lon="35.110713959">
  <ele>113.891235</ele>
  <time>2011-11-22T18:11:14Z</time>
  <speed>4.070000</speed>
</trkpt>
<trkpt lat="32.626773834" lon="35.110759735">
  <ele>113.801392</ele>
  <time>2011-11-22T18:11:15Z</time>
  <speed>4.100000</speed>
</trkpt>
<trkpt lat="32.626781464" lon="35.110805511">
  <ele>114.158813</ele>
  <time>2011-11-22T18:11:16Z</time>
  <speed>4.150000</speed>
</trkpt>
<trkpt lat="32.626785278" lon="35.110843658">
  <ele>114.160767</ele>
  <time>2011-11-22T18:11:17Z</time>
  <speed>4.060000</speed>
</trkpt>
<trkpt lat="32.626792908" lon="35.110885620">
  <ele>114.545532</ele>
  <time>2011-11-22T18:11:18Z</time>
  <speed>4.240000</speed>
</trkpt>
<trkpt lat="32.626804352" lon="35.110939026">
  <ele>115.703735</ele>
  <time>2011-11-22T18:11:19Z</time>
  <speed>4.180000</speed>
</trkpt>
<trkpt lat="32.626800537" lon="35.110980988">
  <ele>116.067017</ele>
  <time>2011-11-22T18:11:20Z</time>
  <speed>4.230000</speed>
</trkpt>
<trkpt lat="32.626804352" lon="35.111022949">
  <ele>116.451782</ele>
  <time>2011-11-22T18:11:21Z</time>
  <speed>4.470000</speed>
</trkpt>
<trkpt lat="32.626811981" lon="35.111072540">
  <ele>116.563110</ele>
  <time>2011-11-22T18:11:22Z</time>
  <speed>4.170000</speed>
</trkpt>
<trkpt lat="32.626804352" lon="35.111118317">
  <ele>116.721313</ele>
  <time>2011-11-22T18:11:23Z</time>
  <speed>4.010000</speed>
</trkpt>
<trkpt lat="32.626800537" lon="35.111160278">
  <ele>117.631470</ele>
  <time>2011-11-22T18:11:24Z</time>
  <speed>3.630000</speed>
</trkpt>
<trkpt lat="32.626785278" lon="35.111190796">
  <ele>117.772095</ele>
  <time>2011-11-22T18:11:25Z</time>
  <speed>2.930000</speed>
</trkpt>
<trkpt lat="32.626762390" lon="35.111232758">
  <ele>118.334595</ele>
  <time>2011-11-22T18:11:27Z</time>
  <speed>2.150000</speed>
</trkpt>
<trkpt lat="32.626724243" lon="35.111255646">
  <ele>118.215454</ele>
  <time>2011-11-22T18:11:29Z</time>
  <speed>1.610000</speed>
</trkpt>
<trkpt lat="32.626689911" lon="35.111270905">
  <ele>118.838501</ele>
  <time>2011-11-22T18:11:30Z</time>
  <speed>2.790000</speed>
</trkpt>
<trkpt lat="32.626644135" lon="35.111286163">
  <ele>118.766235</ele>
  <time>2011-11-22T18:11:31Z</time>
  <speed>2.710000</speed>
</trkpt>
<trkpt lat="32.626609802" lon="35.111289978">
  <ele>118.350220</ele>
  <time>2011-11-22T18:11:32Z</time>
  <speed>2.620000</speed>
</trkpt>
<trkpt lat="32.626567841" lon="35.111293793">
  <ele>117.627563</ele>
  <time>2011-11-22T18:11:33Z</time>
  <speed>2.450000</speed>
</trkpt>
<trkpt lat="32.626510620" lon="35.111301422">
  <ele>117.176392</ele>
  <time>2011-11-22T18:11:35Z</time>
  <speed>2.580000</speed>
</trkpt>
<trkpt lat="32.626483917" lon="35.111309052">
  <ele>116.654907</ele>
  <time>2011-11-22T18:11:36Z</time>
  <speed>2.710000</speed>
</trkpt>
<trkpt lat="32.626441956" lon="35.111339569">
  <ele>116.322876</ele>
  <time>2011-11-22T18:11:38Z</time>
  <speed>2.480000</speed>
</trkpt>
<trkpt lat="32.626396179" lon="35.111351013">
  <ele>116.154907</ele>
  <time>2011-11-22T18:11:40Z</time>
  <speed>2.780000</speed>
</trkpt>
<trkpt lat="32.626346588" lon="35.111381531">
  <ele>115.895142</ele>
  <time>2011-11-22T18:11:42Z</time>
  <speed>3.080000</speed>
</trkpt>
<trkpt lat="32.626319885" lon="35.111396790">
  <ele>115.869751</ele>
  <time>2011-11-22T18:11:43Z</time>
  <speed>2.920000</speed>
</trkpt>
<trkpt lat="32.626293182" lon="35.111412048">
  <ele>115.516235</ele>
  <time>2011-11-22T18:11:44Z</time>
  <speed>2.780000</speed>
</trkpt>
<trkpt lat="32.626247406" lon="35.111442566">
  <ele>115.100220</ele>
  <time>2011-11-22T18:11:46Z</time>
  <speed>2.450000</speed>
</trkpt>
<trkpt lat="32.626205444" lon="35.111476898">
  <ele>114.375610</ele>
  <time>2011-11-22T18:11:48Z</time>
  <speed>2.260000</speed>
</trkpt>
<trkpt lat="32.626186371" lon="35.111495972">
  <ele>114.174438</ele>
  <time>2011-11-22T18:11:49Z</time>
  <speed>2.230000</speed>
</trkpt>
<trkpt lat="32.626148224" lon="35.111530304">
  <ele>113.199829</ele>
  <time>2011-11-22T18:11:51Z</time>
  <speed>2.410000</speed>
</trkpt>
<trkpt lat="32.626106262" lon="35.111560822">
  <ele>112.549438</ele>
  <time>2011-11-22T18:11:53Z</time>
  <speed>1.970000</speed>
</trkpt>
<trkpt lat="32.626071930" lon="35.111576080">
  <ele>111.990845</ele>
  <time>2011-11-22T18:11:55Z</time>
  <speed>1.960000</speed>
</trkpt>
<trkpt lat="32.626033783" lon="35.111606598">
  <ele>110.574829</ele>
  <time>2011-11-22T18:11:57Z</time>
  <speed>2.570000</speed>
</trkpt>
<trkpt lat="32.626007080" lon="35.111621857">
  <ele>110.221313</ele>
  <time>2011-11-22T18:11:58Z</time>
  <speed>2.400000</speed>
</trkpt>
<trkpt lat="32.625980377" lon="35.111625671">
  <ele>109.672485</ele>
  <time>2011-11-22T18:11:59Z</time>
  <speed>2.520000</speed>
</trkpt>
<trkpt lat="32.625938416" lon="35.111625671">
  <ele>109.209595</ele>
  <time>2011-11-22T18:12:00Z</time>
  <speed>2.640000</speed>
</trkpt>
<trkpt lat="32.625896454" lon="35.111633301">
  <ele>108.984985</ele>
  <time>2011-11-22T18:12:01Z</time>
  <speed>2.640000</speed>
</trkpt>
<trkpt lat="32.625843048" lon="35.111640930">
  <ele>108.295532</ele>
  <time>2011-11-22T18:12:03Z</time>
  <speed>2.380000</speed>
</trkpt>
<trkpt lat="32.625797272" lon="35.111652374">
  <ele>107.697876</ele>
  <time>2011-11-22T18:12:05Z</time>
  <speed>2.260000</speed>
</trkpt>
<trkpt lat="32.625759125" lon="35.111663818">
  <ele>106.715454</ele>
  <time>2011-11-22T18:12:07Z</time>
  <speed>2.020000</speed>
</trkpt>
<trkpt lat="32.625717163" lon="35.111682892">
  <ele>105.596313</ele>
  <time>2011-11-22T18:12:09Z</time>
  <speed>2.160000</speed>
</trkpt>
<trkpt lat="32.625679016" lon="35.111694336">
  <ele>104.498657</ele>
  <time>2011-11-22T18:12:11Z</time>
  <speed>1.690000</speed>
</trkpt>
<trkpt lat="32.625637054" lon="35.111701965">
  <ele>103.178345</ele>
  <time>2011-11-22T18:12:13Z</time>
  <speed>2.140000</speed>
</trkpt>
<trkpt lat="32.625606537" lon="35.111705780">
  <ele>102.135376</ele>
  <time>2011-11-22T18:12:15Z</time>
  <speed>2.250000</speed>
</trkpt>
<trkpt lat="32.625579834" lon="35.111701965">
  <ele>101.826782</ele>
  <time>2011-11-22T18:12:16Z</time>
  <speed>2.240000</speed>
</trkpt>
<trkpt lat="32.625526428" lon="35.111743927">
  <ele>101.131470</ele>
  <time>2011-11-22T18:12:18Z</time>
  <speed>2.230000</speed>
</trkpt>
<trkpt lat="32.625480652" lon="35.111747742">
  <ele>100.838501</ele>
  <time>2011-11-22T18:12:20Z</time>
  <speed>2.090000</speed>
</trkpt>
<trkpt lat="32.625438690" lon="35.111774445">
  <ele>99.883423</ele>
  <time>2011-11-22T18:12:22Z</time>
  <speed>2.090000</speed>
</trkpt>
<trkpt lat="32.625408173" lon="35.111782074">
  <ele>98.705688</ele>
  <time>2011-11-22T18:12:24Z</time>
  <speed>1.430000</speed>
</trkpt>
<trkpt lat="32.625377655" lon="35.111793518">
  <ele>97.820923</ele>
  <time>2011-11-22T18:12:26Z</time>
  <speed>1.700000</speed>
</trkpt>
<trkpt lat="32.625350952" lon="35.111801147">
  <ele>97.143188</ele>
  <time>2011-11-22T18:12:28Z</time>
  <speed>1.500000</speed>
</trkpt>
<trkpt lat="32.625316620" lon="35.111804962">
  <ele>96.740845</ele>
  <time>2011-11-22T18:12:30Z</time>
  <speed>1.610000</speed>
</trkpt>
<trkpt lat="32.625289917" lon="35.111801147">
  <ele>96.822876</ele>
  <time>2011-11-22T18:12:31Z</time>
  <speed>1.690000</speed>
</trkpt>
<trkpt lat="32.625255585" lon="35.111801147">
  <ele>96.979126</ele>
  <time>2011-11-22T18:12:32Z</time>
  <speed>1.920000</speed>
</trkpt>
<trkpt lat="32.625225067" lon="35.111808777">
  <ele>97.033813</ele>
  <time>2011-11-22T18:12:33Z</time>
  <speed>1.470000</speed>
</trkpt>
<trkpt lat="32.625186920" lon="35.111812592">
  <ele>97.176392</ele>
  <time>2011-11-22T18:12:35Z</time>
  <speed>2.030000</speed>
</trkpt>
<trkpt lat="32.625160217" lon="35.111835480">
  <ele>96.953735</ele>
  <time>2011-11-22T18:12:37Z</time>
  <speed>1.770000</speed>
</trkpt>
<trkpt lat="32.625125885" lon="35.111862183">
  <ele>96.699829</ele>
  <time>2011-11-22T18:12:39Z</time>
  <speed>1.780000</speed>
</trkpt>
<trkpt lat="32.625102997" lon="35.111888885">
  <ele>96.629517</ele>
  <time>2011-11-22T18:12:41Z</time>
  <speed>1.330000</speed>
</trkpt>
<trkpt lat="32.625064850" lon="35.111911774">
  <ele>96.018188</ele>
  <time>2011-11-22T18:12:43Z</time>
  <speed>1.880000</speed>
</trkpt>
<trkpt lat="32.625034332" lon="35.111934662">
  <ele>95.195923</ele>
  <time>2011-11-22T18:12:45Z</time>
  <speed>1.710000</speed>
</trkpt>
<trkpt lat="32.625007629" lon="35.111961365">
  <ele>94.111938</ele>
  <time>2011-11-22T18:12:47Z</time>
  <speed>2.100000</speed>
</trkpt>
<trkpt lat="32.624973297" lon="35.111961365">
  <ele>95.447876</ele>
  <time>2011-11-22T18:12:49Z</time>
  <speed>1.850000</speed>
</trkpt>
<trkpt lat="32.624931335" lon="35.111957550">
  <ele>96.975220</ele>
  <time>2011-11-22T18:12:51Z</time>
  <speed>1.790000</speed>
</trkpt>
<trkpt lat="32.624904633" lon="35.111976624">
  <ele>97.326782</ele>
  <time>2011-11-22T18:12:53Z</time>
  <speed>1.860000</speed>
</trkpt>
<trkpt lat="32.624881744" lon="35.112007141">
  <ele>96.608032</ele>
  <time>2011-11-22T18:12:55Z</time>
  <speed>1.950000</speed>
</trkpt>
<trkpt lat="32.624855042" lon="35.112049103">
  <ele>96.139282</ele>
  <time>2011-11-22T18:12:57Z</time>
  <speed>1.760000</speed>
</trkpt>
<trkpt lat="32.624820709" lon="35.112071991">
  <ele>95.943970</ele>
  <time>2011-11-22T18:12:59Z</time>
  <speed>1.870000</speed>
</trkpt>
<trkpt lat="32.624797821" lon="35.112102509">
  <ele>96.332642</ele>
  <time>2011-11-22T18:13:01Z</time>
  <speed>1.910000</speed>
</trkpt>
<trkpt lat="32.624759674" lon="35.112129211">
  <ele>96.817017</ele>
  <time>2011-11-22T18:13:03Z</time>
  <speed>1.960000</speed>
</trkpt>
<trkpt lat="32.624740601" lon="35.112171173">
  <ele>96.551392</ele>
  <time>2011-11-22T18:13:05Z</time>
  <speed>1.990000</speed>
</trkpt>
<trkpt lat="32.624729156" lon="35.112216949">
  <ele>95.541626</ele>
  <time>2011-11-22T18:13:07Z</time>
  <speed>1.900000</speed>
</trkpt>
<trkpt lat="32.624698639" lon="35.112247467">
  <ele>94.707642</ele>
  <time>2011-11-22T18:13:09Z</time>
  <speed>1.440000</speed>
</trkpt>
<trkpt lat="32.624679565" lon="35.112277985">
  <ele>93.541626</ele>
  <time>2011-11-22T18:13:11Z</time>
  <speed>2.010000</speed>
</trkpt>
<trkpt lat="32.624656677" lon="35.112312317">
  <ele>92.500610</ele>
  <time>2011-11-22T18:13:13Z</time>
  <speed>1.880000</speed>
</trkpt>
<trkpt lat="32.624629974" lon="35.112339020">
  <ele>91.770142</ele>
  <time>2011-11-22T18:13:15Z</time>
  <speed>1.590000</speed>
</trkpt>
<trkpt lat="32.624599457" lon="35.112358093">
  <ele>92.385376</ele>
  <time>2011-11-22T18:13:18Z</time>
  <speed>1.660000</speed>
</trkpt>
<trkpt lat="32.624565125" lon="35.112369537">
  <ele>92.627563</ele>
  <time>2011-11-22T18:13:20Z</time>
  <speed>1.790000</speed>
</trkpt>
<trkpt lat="32.624538422" lon="35.112400055">
  <ele>92.838501</ele>
  <time>2011-11-22T18:13:22Z</time>
  <speed>1.860000</speed>
</trkpt>
<trkpt lat="32.624507904" lon="35.112426758">
  <ele>94.209595</ele>
  <time>2011-11-22T18:13:24Z</time>
  <speed>1.640000</speed>
</trkpt>
<trkpt lat="32.624488831" lon="35.112461090">
  <ele>95.705688</ele>
  <time>2011-11-22T18:13:25Z</time>
  <speed>1.670000</speed>
</trkpt>
<trkpt lat="32.624465942" lon="35.112480164">
  <ele>95.994751</ele>
  <time>2011-11-22T18:13:27Z</time>
  <speed>1.470000</speed>
</trkpt>
<trkpt lat="32.624454498" lon="35.112518311">
  <ele>96.697876</ele>
  <time>2011-11-22T18:13:29Z</time>
  <speed>1.720000</speed>
</trkpt>
<trkpt lat="32.624427795" lon="35.112548828">
  <ele>96.473267</ele>
  <time>2011-11-22T18:13:31Z</time>
  <speed>1.760000</speed>
</trkpt>
<trkpt lat="32.624404907" lon="35.112575531">
  <ele>96.869751</ele>
  <time>2011-11-22T18:13:33Z</time>
  <speed>1.220000</speed>
</trkpt>
<trkpt lat="32.624378204" lon="35.112602234">
  <ele>96.953735</ele>
  <time>2011-11-22T18:13:36Z</time>
  <speed>1.450000</speed>
</trkpt>
<trkpt lat="32.624362946" lon="35.112636566">
  <ele>97.303345</ele>
  <time>2011-11-22T18:13:38Z</time>
  <speed>1.460000</speed>
</trkpt>
<trkpt lat="32.624347687" lon="35.112667084">
  <ele>97.369751</ele>
  <time>2011-11-22T18:13:40Z</time>
  <speed>1.520000</speed>
</trkpt>
<trkpt lat="32.624332428" lon="35.112693787">
  <ele>98.990845</ele>
  <time>2011-11-22T18:13:42Z</time>
  <speed>1.380000</speed>
</trkpt>
<trkpt lat="32.624309540" lon="35.112739563">
  <ele>101.156860</ele>
  <time>2011-11-22T18:13:43Z</time>
  <speed>1.530000</speed>
</trkpt>
<trkpt lat="32.624294281" lon="35.112762451">
  <ele>102.594360</ele>
  <time>2011-11-22T18:13:45Z</time>
  <speed>1.590000</speed>
</trkpt>
<trkpt lat="32.624271393" lon="35.112792969">
  <ele>104.350220</ele>
  <time>2011-11-22T18:13:47Z</time>
  <speed>1.790000</speed>
</trkpt>
<trkpt lat="32.624244690" lon="35.112827301">
  <ele>105.594360</ele>
  <time>2011-11-22T18:13:49Z</time>
  <speed>1.820000</speed>
</trkpt>
<trkpt lat="32.624217987" lon="35.112857819">
  <ele>106.471313</ele>
  <time>2011-11-22T18:13:51Z</time>
  <speed>1.760000</speed>
</trkpt>
<trkpt lat="32.624195099" lon="35.112888336">
  <ele>107.572876</ele>
  <time>2011-11-22T18:13:53Z</time>
  <speed>1.520000</speed>
</trkpt>
<trkpt lat="32.624176025" lon="35.112918854">
  <ele>108.834595</ele>
  <time>2011-11-22T18:13:55Z</time>
  <speed>1.660000</speed>
</trkpt>
<trkpt lat="32.624156952" lon="35.112957001">
  <ele>110.818970</ele>
  <time>2011-11-22T18:13:57Z</time>
  <speed>1.780000</speed>
</trkpt>
<trkpt lat="32.624130249" lon="35.112987518">
  <ele>112.049438</ele>
  <time>2011-11-22T18:13:59Z</time>
  <speed>1.500000</speed>
</trkpt>
<trkpt lat="32.624118805" lon="35.113018036">
  <ele>113.178345</ele>
  <time>2011-11-22T18:14:01Z</time>
  <speed>1.470000</speed>
</trkpt>
<trkpt lat="32.624092102" lon="35.113040924">
  <ele>114.822876</ele>
  <time>2011-11-22T18:14:03Z</time>
  <speed>1.480000</speed>
</trkpt>
<trkpt lat="32.624061584" lon="35.113071442">
  <ele>116.649048</ele>
  <time>2011-11-22T18:14:06Z</time>
  <speed>1.590000</speed>
</trkpt>
<trkpt lat="32.624038696" lon="35.113098145">
  <ele>117.996704</ele>
  <time>2011-11-22T18:14:08Z</time>
  <speed>1.570000</speed>
</trkpt>
<trkpt lat="32.624011993" lon="35.113117218">
  <ele>118.912720</ele>
  <time>2011-11-22T18:14:10Z</time>
  <speed>1.820000</speed>
</trkpt>
<trkpt lat="32.623985291" lon="35.113143921">
  <ele>120.473267</ele>
  <time>2011-11-22T18:14:12Z</time>
  <speed>1.270000</speed>
</trkpt>
<trkpt lat="32.623954773" lon="35.113170624">
  <ele>121.615845</ele>
  <time>2011-11-22T18:14:15Z</time>
  <speed>1.390000</speed>
</trkpt>
<trkpt lat="32.623912811" lon="35.113189697">
  <ele>123.233032</ele>
  <time>2011-11-22T18:14:18Z</time>
  <speed>1.450000</speed>
</trkpt>
<trkpt lat="32.623889923" lon="35.113204956">
  <ele>125.004517</ele>
  <time>2011-11-22T18:14:20Z</time>
  <speed>1.930000</speed>
</trkpt>
<trkpt lat="32.623874664" lon="35.113231659">
  <ele>126.873657</ele>
  <time>2011-11-22T18:14:22Z</time>
  <speed>2.020000</speed>
</trkpt>
<trkpt lat="32.623847961" lon="35.113258362">
  <ele>128.204346</ele>
  <time>2011-11-22T18:14:24Z</time>
  <speed>1.810000</speed>
</trkpt>
<trkpt lat="32.623825073" lon="35.113285065">
  <ele>130.575439</ele>
  <time>2011-11-22T18:14:26Z</time>
  <speed>1.630000</speed>
</trkpt>
<trkpt lat="32.623806000" lon="35.113288879">
  <ele>132.669189</ele>
  <time>2011-11-22T18:14:27Z</time>
  <speed>1.670000</speed>
</trkpt>
<trkpt lat="32.623786926" lon="35.113311768">
  <ele>133.887939</ele>
  <time>2011-11-22T18:14:29Z</time>
  <speed>1.370000</speed>
</trkpt>
<trkpt lat="32.623760223" lon="35.113334656">
  <ele>135.614502</ele>
  <time>2011-11-22T18:14:31Z</time>
  <speed>1.700000</speed>
</trkpt>
<trkpt lat="32.623722076" lon="35.113349915">
  <ele>137.403564</ele>
  <time>2011-11-22T18:14:33Z</time>
  <speed>1.620000</speed>
</trkpt>
<trkpt lat="32.623699188" lon="35.113372803">
  <ele>138.688721</ele>
  <time>2011-11-22T18:14:35Z</time>
  <speed>1.560000</speed>
</trkpt>
<trkpt lat="32.623668671" lon="35.113391876">
  <ele>140.716064</ele>
  <time>2011-11-22T18:14:37Z</time>
  <speed>1.460000</speed>
</trkpt>
<trkpt lat="32.623649597" lon="35.113418579">
  <ele>141.868408</ele>
  <time>2011-11-22T18:14:39Z</time>
  <speed>1.890000</speed>
</trkpt>
<trkpt lat="32.623626709" lon="35.113445282">
  <ele>143.559814</ele>
  <time>2011-11-22T18:14:41Z</time>
  <speed>1.540000</speed>
</trkpt>
<trkpt lat="32.623607635" lon="35.113464355">
  <ele>145.161377</ele>
  <time>2011-11-22T18:14:43Z</time>
  <speed>1.380000</speed>
</trkpt>
<trkpt lat="32.623577118" lon="35.113502502">
  <ele>147.173096</ele>
  <time>2011-11-22T18:14:45Z</time>
  <speed>1.830000</speed>
</trkpt>
<trkpt lat="32.623561859" lon="35.113536835">
  <ele>149.177002</ele>
  <time>2011-11-22T18:14:47Z</time>
  <speed>2.170000</speed>
</trkpt>
<trkpt lat="32.623535156" lon="35.113582611">
  <ele>149.837158</ele>
  <time>2011-11-22T18:14:49Z</time>
  <speed>1.610000</speed>
</trkpt>
<trkpt lat="32.623519897" lon="35.113613129">
  <ele>151.024658</ele>
  <time>2011-11-22T18:14:51Z</time>
  <speed>1.670000</speed>
</trkpt>
<trkpt lat="32.623493195" lon="35.113632202">
  <ele>153.985596</ele>
  <time>2011-11-22T18:14:54Z</time>
  <speed>1.220000</speed>
</trkpt>
<trkpt lat="32.623466492" lon="35.113666534">
  <ele>154.407471</ele>
  <time>2011-11-22T18:14:57Z</time>
  <speed>1.700000</speed>
</trkpt>
<trkpt lat="32.623451233" lon="35.113700867">
  <ele>155.114502</ele>
  <time>2011-11-22T18:14:59Z</time>
  <speed>1.850000</speed>
</trkpt>
<trkpt lat="32.623416901" lon="35.113704681">
  <ele>155.466064</ele>
  <time>2011-11-22T18:15:00Z</time>
  <speed>1.690000</speed>
</trkpt>
<trkpt lat="32.623390198" lon="35.113723755">
  <ele>156.395752</ele>
  <time>2011-11-22T18:15:02Z</time>
  <speed>1.890000</speed>
</trkpt>
<trkpt lat="32.623355865" lon="35.113746643">
  <ele>157.134033</ele>
  <time>2011-11-22T18:15:04Z</time>
  <speed>1.760000</speed>
</trkpt>
<trkpt lat="32.623336792" lon="35.113777161">
  <ele>157.876221</ele>
  <time>2011-11-22T18:15:06Z</time>
  <speed>1.900000</speed>
</trkpt>
<trkpt lat="32.623302460" lon="35.113788605">
  <ele>157.973877</ele>
  <time>2011-11-22T18:15:08Z</time>
  <speed>1.700000</speed>
</trkpt>
<trkpt lat="32.623268127" lon="35.113807678">
  <ele>159.161377</ele>
  <time>2011-11-22T18:15:10Z</time>
  <speed>1.750000</speed>
</trkpt>
<trkpt lat="32.623229980" lon="35.113815308">
  <ele>158.829346</ele>
  <time>2011-11-22T18:15:12Z</time>
  <speed>1.440000</speed>
</trkpt>
<trkpt lat="32.623195648" lon="35.113819122">
  <ele>158.509033</ele>
  <time>2011-11-22T18:15:14Z</time>
  <speed>1.720000</speed>
</trkpt>
<trkpt lat="32.623165131" lon="35.113834381">
  <ele>158.450439</ele>
  <time>2011-11-22T18:15:16Z</time>
  <speed>1.820000</speed>
</trkpt>
<trkpt lat="32.623130798" lon="35.113834381">
  <ele>158.899658</ele>
  <time>2011-11-22T18:15:18Z</time>
  <speed>1.840000</speed>
</trkpt>
<trkpt lat="32.623100281" lon="35.113830566">
  <ele>157.571533</ele>
  <time>2011-11-22T18:15:20Z</time>
  <speed>1.850000</speed>
</trkpt>
<trkpt lat="32.623065948" lon="35.113826752">
  <ele>157.973877</ele>
  <time>2011-11-22T18:15:22Z</time>
  <speed>1.840000</speed>
</trkpt>
<trkpt lat="32.623031616" lon="35.113830566">
  <ele>157.598877</ele>
  <time>2011-11-22T18:15:24Z</time>
  <speed>1.930000</speed>
</trkpt>
<trkpt lat="32.623001099" lon="35.113830566">
  <ele>156.919189</ele>
  <time>2011-11-22T18:15:26Z</time>
  <speed>1.750000</speed>
</trkpt>
<trkpt lat="32.622962952" lon="35.113830566">
  <ele>158.602783</ele>
  <time>2011-11-22T18:15:28Z</time>
  <speed>1.790000</speed>
</trkpt>
<trkpt lat="32.622932434" lon="35.113826752">
  <ele>158.802002</ele>
  <time>2011-11-22T18:15:30Z</time>
  <speed>1.770000</speed>
</trkpt>
<trkpt lat="32.622905731" lon="35.113830566">
  <ele>159.067627</ele>
  <time>2011-11-22T18:15:32Z</time>
  <speed>1.780000</speed>
</trkpt>
<trkpt lat="32.622879028" lon="35.113830566">
  <ele>159.243408</ele>
  <time>2011-11-22T18:15:34Z</time>
  <speed>1.740000</speed>
</trkpt>
<trkpt lat="32.622844696" lon="35.113826752">
  <ele>158.669189</ele>
  <time>2011-11-22T18:15:36Z</time>
  <speed>1.790000</speed>
</trkpt>
<trkpt lat="32.622814178" lon="35.113826752">
  <ele>158.903564</ele>
  <time>2011-11-22T18:15:38Z</time>
  <speed>1.680000</speed>
</trkpt>
<trkpt lat="32.622787476" lon="35.113830566">
  <ele>159.446533</ele>
  <time>2011-11-22T18:15:40Z</time>
  <speed>1.800000</speed>
</trkpt>
<trkpt lat="32.622745514" lon="35.113822937">
  <ele>159.727783</ele>
  <time>2011-11-22T18:15:43Z</time>
  <speed>1.680000</speed>
</trkpt>
<trkpt lat="32.622714996" lon="35.113822937">
  <ele>159.946533</ele>
  <time>2011-11-22T18:15:45Z</time>
  <speed>1.790000</speed>
</trkpt>
<trkpt lat="32.622688293" lon="35.113819122">
  <ele>160.048096</ele>
  <time>2011-11-22T18:15:47Z</time>
  <speed>1.630000</speed>
</trkpt>
<trkpt lat="32.622653961" lon="35.113815308">
  <ele>159.891846</ele>
  <time>2011-11-22T18:15:49Z</time>
  <speed>1.690000</speed>
</trkpt>
<trkpt lat="32.622623444" lon="35.113815308">
  <ele>160.516846</ele>
  <time>2011-11-22T18:15:51Z</time>
  <speed>1.610000</speed>
</trkpt>
<trkpt lat="32.622592926" lon="35.113815308">
  <ele>160.688721</ele>
  <time>2011-11-22T18:15:53Z</time>
  <speed>1.490000</speed>
</trkpt>
<trkpt lat="32.622566223" lon="35.113822937">
  <ele>160.614502</ele>
  <time>2011-11-22T18:15:55Z</time>
  <speed>1.720000</speed>
</trkpt>
<trkpt lat="32.622531891" lon="35.113830566">
  <ele>162.106689</ele>
  <time>2011-11-22T18:15:57Z</time>
  <speed>1.170000</speed>
</trkpt>
<trkpt lat="32.622505188" lon="35.113830566">
  <ele>161.813721</ele>
  <time>2011-11-22T18:15:59Z</time>
  <speed>1.560000</speed>
</trkpt>
<trkpt lat="32.622478485" lon="35.113819122">
  <ele>162.544189</ele>
  <time>2011-11-22T18:16:01Z</time>
  <speed>1.000000</speed>
</trkpt>
<trkpt lat="32.622451782" lon="35.113807678">
  <ele>162.786377</ele>
  <time>2011-11-22T18:16:03Z</time>
  <speed>1.400000</speed>
</trkpt>
<trkpt lat="32.622425079" lon="35.113780975">
  <ele>162.466064</ele>
  <time>2011-11-22T18:16:05Z</time>
  <speed>1.540000</speed>
</trkpt>
<trkpt lat="32.622394562" lon="35.113765717">
  <ele>162.704346</ele>
  <time>2011-11-22T18:16:08Z</time>
  <speed>1.670000</speed>
</trkpt>
<trkpt lat="32.622352600" lon="35.113769531">
  <ele>161.786377</ele>
  <time>2011-11-22T18:16:11Z</time>
  <speed>1.610000</speed>
</trkpt>
<trkpt lat="32.622322083" lon="35.113765717">
  <ele>162.165283</ele>
  <time>2011-11-22T18:16:14Z</time>
  <speed>0.920000</speed>
</trkpt>
<trkpt lat="32.622291565" lon="35.113773346">
  <ele>162.333252</ele>
  <time>2011-11-22T18:16:17Z</time>
  <speed>1.440000</speed>
</trkpt>
<trkpt lat="32.622238159" lon="35.113815308">
  <ele>166.231689</ele>
  <time>2011-11-22T18:16:18Z</time>
  <speed>1.330000</speed>
</trkpt>
<trkpt lat="32.622200012" lon="35.113815308">
  <ele>166.774658</ele>
  <time>2011-11-22T18:16:20Z</time>
  <speed>1.470000</speed>
</trkpt>
<trkpt lat="32.622161865" lon="35.113796234">
  <ele>168.036377</ele>
  <time>2011-11-22T18:16:22Z</time>
  <speed>1.170000</speed>
</trkpt>
<trkpt lat="32.622127533" lon="35.113807678">
  <ele>168.102783</ele>
  <time>2011-11-22T18:16:24Z</time>
  <speed>1.630000</speed>
</trkpt>
<trkpt lat="32.622100830" lon="35.113815308">
  <ele>169.196533</ele>
  <time>2011-11-22T18:16:26Z</time>
  <speed>1.080000</speed>
</trkpt>
<trkpt lat="32.622066498" lon="35.113807678">
  <ele>170.071533</ele>
  <time>2011-11-22T18:16:29Z</time>
  <speed>1.580000</speed>
</trkpt>
<trkpt lat="32.622035980" lon="35.113815308">
  <ele>171.501221</ele>
  <time>2011-11-22T18:16:31Z</time>
  <speed>1.490000</speed>
</trkpt>
<trkpt lat="32.622005463" lon="35.113819122">
  <ele>172.587158</ele>
  <time>2011-11-22T18:16:33Z</time>
  <speed>1.460000</speed>
</trkpt>
<trkpt lat="32.621967316" lon="35.113822937">
  <ele>172.880127</ele>
  <time>2011-11-22T18:16:36Z</time>
  <speed>1.370000</speed>
</trkpt>
<trkpt lat="32.621936798" lon="35.113830566">
  <ele>173.079346</ele>
  <time>2011-11-22T18:16:38Z</time>
  <speed>1.440000</speed>
</trkpt>
<trkpt lat="32.621902466" lon="35.113845825">
  <ele>173.716064</ele>
  <time>2011-11-22T18:16:41Z</time>
  <speed>1.300000</speed>
</trkpt>
<trkpt lat="32.621868134" lon="35.113861084">
  <ele>173.423096</ele>
  <time>2011-11-22T18:16:44Z</time>
  <speed>0.780000</speed>
</trkpt>
<trkpt lat="32.621829987" lon="35.113857269">
  <ele>175.227783</ele>
  <time>2011-11-22T18:16:46Z</time>
  <speed>1.010000</speed>
</trkpt>
<trkpt lat="32.621784210" lon="35.113868713">
  <ele>177.997314</ele>
  <time>2011-11-22T18:16:48Z</time>
  <speed>0.900000</speed>
</trkpt>
<trkpt lat="32.621757507" lon="35.113883972">
  <ele>178.231689</ele>
  <time>2011-11-22T18:16:51Z</time>
  <speed>1.240000</speed>
</trkpt>
<trkpt lat="32.621726990" lon="35.113899231">
  <ele>179.403564</ele>
  <time>2011-11-22T18:16:54Z</time>
  <speed>0.670000</speed>
</trkpt>
<trkpt lat="32.621692657" lon="35.113895416">
  <ele>179.723877</ele>
  <time>2011-11-22T18:16:57Z</time>
  <speed>1.220000</speed>
</trkpt>
<trkpt lat="32.621669769" lon="35.113922119">
  <ele>180.032471</ele>
  <time>2011-11-22T18:16:59Z</time>
  <speed>1.080000</speed>
</trkpt>
<trkpt lat="32.621639252" lon="35.113933563">
  <ele>181.262939</ele>
  <time>2011-11-22T18:17:01Z</time>
  <speed>1.130000</speed>
</trkpt>
<trkpt lat="32.621616364" lon="35.113945007">
  <ele>180.536377</ele>
  <time>2011-11-22T18:17:03Z</time>
  <speed>1.220000</speed>
</trkpt>
<trkpt lat="32.621585846" lon="35.113960266">
  <ele>181.243408</ele>
  <time>2011-11-22T18:17:05Z</time>
  <speed>1.250000</speed>
</trkpt>
<trkpt lat="32.621551514" lon="35.113983154">
  <ele>181.395752</ele>
  <time>2011-11-22T18:17:08Z</time>
  <speed>1.340000</speed>
</trkpt>
<trkpt lat="32.621536255" lon="35.114017487">
  <ele>181.048096</ele>
  <time>2011-11-22T18:17:10Z</time>
  <speed>1.170000</speed>
</trkpt>
<trkpt lat="32.621505737" lon="35.114040375">
  <ele>180.196533</ele>
  <time>2011-11-22T18:17:13Z</time>
  <speed>1.150000</speed>
</trkpt>
<trkpt lat="32.621486664" lon="35.114055634">
  <ele>181.622314</ele>
  <time>2011-11-22T18:17:14Z</time>
  <speed>1.350000</speed>
</trkpt>
<trkpt lat="32.621459961" lon="35.114067078">
  <ele>181.622314</ele>
  <time>2011-11-22T18:17:17Z</time>
  <speed>0.850000</speed>
</trkpt>
<trkpt lat="32.621437073" lon="35.114078522">
  <ele>180.251221</ele>
  <time>2011-11-22T18:17:19Z</time>
  <speed>1.100000</speed>
</trkpt>
<trkpt lat="32.621406555" lon="35.114101410">
  <ele>180.411377</ele>
  <time>2011-11-22T18:17:22Z</time>
  <speed>1.190000</speed>
</trkpt>
<trkpt lat="32.621376038" lon="35.114101410">
  <ele>180.469971</ele>
  <time>2011-11-22T18:17:24Z</time>
  <speed>1.090000</speed>
</trkpt>
<trkpt lat="32.621349335" lon="35.114120483">
  <ele>182.173096</ele>
  <time>2011-11-22T18:17:27Z</time>
  <speed>1.250000</speed>
</trkpt>
<trkpt lat="32.621326447" lon="35.114139557">
  <ele>182.919189</ele>
  <time>2011-11-22T18:17:29Z</time>
  <speed>1.110000</speed>
</trkpt>
<trkpt lat="32.621299744" lon="35.114158630">
  <ele>184.134033</ele>
  <time>2011-11-22T18:17:31Z</time>
  <speed>0.950000</speed>
</trkpt>
<trkpt lat="32.621273041" lon="35.114162445">
  <ele>185.071533</ele>
  <time>2011-11-22T18:17:33Z</time>
  <speed>1.130000</speed>
</trkpt>
<trkpt lat="32.621246338" lon="35.114177704">
  <ele>186.927002</ele>
  <time>2011-11-22T18:17:35Z</time>
  <speed>0.920000</speed>
</trkpt>
<trkpt lat="32.621215820" lon="35.114204407">
  <ele>188.102783</ele>
  <time>2011-11-22T18:17:38Z</time>
  <speed>1.100000</speed>
</trkpt>
<trkpt lat="32.621204376" lon="35.114234924">
  <ele>188.993408</ele>
  <time>2011-11-22T18:17:41Z</time>
  <speed>1.020000</speed>
</trkpt>
<trkpt lat="32.621185303" lon="35.114265442">
  <ele>188.466064</ele>
  <time>2011-11-22T18:17:44Z</time>
  <speed>1.200000</speed>
</trkpt>
<trkpt lat="32.621162415" lon="35.114284515">
  <ele>187.489502</ele>
  <time>2011-11-22T18:17:46Z</time>
  <speed>1.090000</speed>
</trkpt>
<trkpt lat="32.621135712" lon="35.114315033">
  <ele>186.802002</ele>
  <time>2011-11-22T18:17:49Z</time>
  <speed>1.160000</speed>
</trkpt>
<trkpt lat="32.621105194" lon="35.114318848">
  <ele>186.145752</ele>
  <time>2011-11-22T18:17:51Z</time>
  <speed>1.600000</speed>
</trkpt>
<trkpt lat="32.621074677" lon="35.114330292">
  <ele>186.177002</ele>
  <time>2011-11-22T18:17:53Z</time>
  <speed>1.420000</speed>
</trkpt>
<trkpt lat="32.621059418" lon="35.114360809">
  <ele>186.341064</ele>
  <time>2011-11-22T18:17:55Z</time>
  <speed>1.450000</speed>
</trkpt>
<trkpt lat="32.621093750" lon="35.114364624">
  <ele>187.559814</ele>
  <time>2011-11-22T18:18:00Z</time>
  <speed>0.810000</speed>
</trkpt>
<trkpt lat="32.621120453" lon="35.114341736">
  <ele>188.427002</ele>
  <time>2011-11-22T18:18:02Z</time>
  <speed>1.430000</speed>
</trkpt>
<trkpt lat="32.621120453" lon="35.114303589">
  <ele>189.169189</ele>
  <time>2011-11-22T18:18:04Z</time>
  <speed>1.470000</speed>
</trkpt>
<trkpt lat="32.621089935" lon="35.114273071">
  <ele>187.798096</ele>
  <time>2011-11-22T18:18:06Z</time>
  <speed>1.690000</speed>
</trkpt>
<trkpt lat="32.621059418" lon="35.114257813">
  <ele>187.602783</ele>
  <time>2011-11-22T18:18:08Z</time>
  <speed>1.500000</speed>
</trkpt>
<trkpt lat="32.621040344" lon="35.114280701">
  <ele>187.212158</ele>
  <time>2011-11-22T18:18:10Z</time>
  <speed>1.650000</speed>
</trkpt>
<trkpt lat="32.621025085" lon="35.114311218">
  <ele>188.427002</ele>
  <time>2011-11-22T18:18:11Z</time>
  <speed>2.050000</speed>
</trkpt>
<trkpt lat="32.621036530" lon="35.114349365">
  <ele>189.419189</ele>
  <time>2011-11-22T18:18:13Z</time>
  <speed>1.680000</speed>
</trkpt>
<trkpt lat="32.621070862" lon="35.114360809">
  <ele>190.204346</ele>
  <time>2011-11-22T18:18:16Z</time>
  <speed>1.090000</speed>
</trkpt>
<trkpt lat="32.621097565" lon="35.114376068">
  <ele>190.665283</ele>
  <time>2011-11-22T18:18:19Z</time>
  <speed>0.540000</speed>
</trkpt>
<trkpt lat="32.621116638" lon="35.114345551">
  <ele>191.415283</ele>
  <time>2011-11-22T18:18:22Z</time>
  <speed>1.330000</speed>
</trkpt>
<trkpt lat="32.621086121" lon="35.114315033">
  <ele>191.598877</ele>
  <time>2011-11-22T18:18:24Z</time>
  <speed>1.680000</speed>
</trkpt>
<trkpt lat="32.621040344" lon="35.114311218">
  <ele>190.282471</ele>
  <time>2011-11-22T18:18:26Z</time>
  <speed>1.730000</speed>
</trkpt>
<trkpt lat="32.621002197" lon="35.114299774">
  <ele>190.266846</ele>
  <time>2011-11-22T18:18:28Z</time>
  <speed>2.250000</speed>
</trkpt>
<trkpt lat="32.620967865" lon="35.114265442">
  <ele>190.239502</ele>
  <time>2011-11-22T18:18:30Z</time>
  <speed>2.330000</speed>
</trkpt>
<trkpt lat="32.620933533" lon="35.114231110">
  <ele>190.091064</ele>
  <time>2011-11-22T18:18:32Z</time>
  <speed>2.600000</speed>
</trkpt>
<trkpt lat="32.620899200" lon="35.114189148">
  <ele>189.692627</ele>
  <time>2011-11-22T18:18:34Z</time>
  <speed>2.250000</speed>
</trkpt>
<trkpt lat="32.620872498" lon="35.114162445">
  <ele>188.770752</ele>
  <time>2011-11-22T18:18:36Z</time>
  <speed>2.130000</speed>
</trkpt>
<trkpt lat="32.620845795" lon="35.114128113">
  <ele>188.477783</ele>
  <time>2011-11-22T18:18:38Z</time>
  <speed>1.910000</speed>
</trkpt>
<trkpt lat="32.620819092" lon="35.114093781">
  <ele>188.110596</ele>
  <time>2011-11-22T18:18:40Z</time>
  <speed>2.030000</speed>
</trkpt>
<trkpt lat="32.620784760" lon="35.114063263">
  <ele>187.813721</ele>
  <time>2011-11-22T18:18:42Z</time>
  <speed>2.020000</speed>
</trkpt>
<trkpt lat="32.620761871" lon="35.114032745">
  <ele>187.134033</ele>
  <time>2011-11-22T18:18:44Z</time>
  <speed>2.010000</speed>
</trkpt>
<trkpt lat="32.620731354" lon="35.114013672">
  <ele>187.184814</ele>
  <time>2011-11-22T18:18:46Z</time>
  <speed>1.860000</speed>
</trkpt>
<trkpt lat="32.620700836" lon="35.113986969">
  <ele>186.805908</ele>
  <time>2011-11-22T18:18:48Z</time>
  <speed>2.000000</speed>
</trkpt>
<trkpt lat="32.620677948" lon="35.113960266">
  <ele>187.052002</ele>
  <time>2011-11-22T18:18:50Z</time>
  <speed>1.670000</speed>
</trkpt>
<trkpt lat="32.620662689" lon="35.113922119">
  <ele>187.118408</ele>
  <time>2011-11-22T18:18:52Z</time>
  <speed>1.760000</speed>
</trkpt>
<trkpt lat="32.620635986" lon="35.113887787">
  <ele>186.930908</ele>
  <time>2011-11-22T18:18:54Z</time>
  <speed>1.940000</speed>
</trkpt>
<trkpt lat="32.620609283" lon="35.113857269">
  <ele>187.813721</ele>
  <time>2011-11-22T18:18:56Z</time>
  <speed>1.880000</speed>
</trkpt>
<trkpt lat="32.620578766" lon="35.113834381">
  <ele>187.493408</ele>
  <time>2011-11-22T18:18:58Z</time>
  <speed>1.870000</speed>
</trkpt>
<trkpt lat="32.620548248" lon="35.113807678">
  <ele>187.692627</ele>
  <time>2011-11-22T18:19:00Z</time>
  <speed>1.910000</speed>
</trkpt>
<trkpt lat="32.620525360" lon="35.113777161">
  <ele>187.567627</ele>
  <time>2011-11-22T18:19:02Z</time>
  <speed>1.790000</speed>
</trkpt>
<trkpt lat="32.620506287" lon="35.113746643">
  <ele>187.434814</ele>
  <time>2011-11-22T18:19:04Z</time>
  <speed>1.770000</speed>
</trkpt>
<trkpt lat="32.620491028" lon="35.113723755">
  <ele>187.110596</ele>
  <time>2011-11-22T18:19:06Z</time>
  <speed>1.640000</speed>
</trkpt>
<trkpt lat="32.620471954" lon="35.113689423">
  <ele>186.278564</ele>
  <time>2011-11-22T18:19:09Z</time>
  <speed>1.650000</speed>
</trkpt>
<trkpt lat="32.620471954" lon="35.113655090">
  <ele>186.462158</ele>
  <time>2011-11-22T18:19:11Z</time>
  <speed>1.750000</speed>
</trkpt>
<trkpt lat="32.620468140" lon="35.113616943">
  <ele>187.286377</ele>
  <time>2011-11-22T18:19:13Z</time>
  <speed>1.710000</speed>
</trkpt>
<trkpt lat="32.620479584" lon="35.113582611">
  <ele>187.239502</ele>
  <time>2011-11-22T18:19:15Z</time>
  <speed>1.810000</speed>
</trkpt>
<trkpt lat="32.620475769" lon="35.113548279">
  <ele>187.915283</ele>
  <time>2011-11-22T18:19:17Z</time>
  <speed>2.050000</speed>
</trkpt>
<trkpt lat="32.620483398" lon="35.113510132">
  <ele>188.075439</ele>
  <time>2011-11-22T18:19:19Z</time>
  <speed>1.790000</speed>
</trkpt>
<trkpt lat="32.620491028" lon="35.113460541">
  <ele>189.255127</ele>
  <time>2011-11-22T18:19:22Z</time>
  <speed>1.770000</speed>
</trkpt>
<trkpt lat="32.620498657" lon="35.113430023">
  <ele>189.302002</ele>
  <time>2011-11-22T18:19:24Z</time>
  <speed>1.600000</speed>
</trkpt>
<trkpt lat="32.620491028" lon="35.113395691">
  <ele>189.864502</ele>
  <time>2011-11-22T18:19:26Z</time>
  <speed>1.310000</speed>
</trkpt>
<trkpt lat="32.620479584" lon="35.113353729">
  <ele>190.665283</ele>
  <time>2011-11-22T18:19:28Z</time>
  <speed>1.800000</speed>
</trkpt>
<trkpt lat="32.620471954" lon="35.113319397">
  <ele>190.040283</ele>
  <time>2011-11-22T18:19:30Z</time>
  <speed>1.750000</speed>
</trkpt>
<trkpt lat="32.620468140" lon="35.113285065">
  <ele>189.704346</ele>
  <time>2011-11-22T18:19:32Z</time>
  <speed>1.760000</speed>
</trkpt>
<trkpt lat="32.620452881" lon="35.113243103">
  <ele>189.489502</ele>
  <time>2011-11-22T18:19:34Z</time>
  <speed>1.890000</speed>
</trkpt>
<trkpt lat="32.620437622" lon="35.113212585">
  <ele>188.509033</ele>
  <time>2011-11-22T18:19:36Z</time>
  <speed>1.510000</speed>
</trkpt>
<trkpt lat="32.620422363" lon="35.113182068">
  <ele>188.055908</ele>
  <time>2011-11-22T18:19:38Z</time>
  <speed>1.410000</speed>
</trkpt>
<trkpt lat="32.620403290" lon="35.113155365">
  <ele>187.735596</ele>
  <time>2011-11-22T18:19:40Z</time>
  <speed>1.700000</speed>
</trkpt>
<trkpt lat="32.620384216" lon="35.113121033">
  <ele>187.930908</ele>
  <time>2011-11-22T18:19:42Z</time>
  <speed>1.580000</speed>
</trkpt>
<trkpt lat="32.620372772" lon="35.113090515">
  <ele>187.364502</ele>
  <time>2011-11-22T18:19:44Z</time>
  <speed>1.890000</speed>
</trkpt>
<trkpt lat="32.620334625" lon="35.113071442">
  <ele>186.427002</ele>
  <time>2011-11-22T18:19:46Z</time>
  <speed>2.240000</speed>
</trkpt>
<trkpt lat="32.620296478" lon="35.113037109">
  <ele>187.137939</ele>
  <time>2011-11-22T18:19:48Z</time>
  <speed>2.350000</speed>
</trkpt>
<trkpt lat="32.620265961" lon="35.113002777">
  <ele>187.091064</ele>
  <time>2011-11-22T18:19:50Z</time>
  <speed>2.060000</speed>
</trkpt>
<trkpt lat="32.620227814" lon="35.112968445">
  <ele>187.329346</ele>
  <time>2011-11-22T18:19:52Z</time>
  <speed>2.330000</speed>
</trkpt>
<trkpt lat="32.620189667" lon="35.112945557">
  <ele>187.895752</ele>
  <time>2011-11-22T18:19:54Z</time>
  <speed>2.140000</speed>
</trkpt>
<trkpt lat="32.620155334" lon="35.112911224">
  <ele>188.598877</ele>
  <time>2011-11-22T18:19:56Z</time>
  <speed>2.230000</speed>
</trkpt>
<trkpt lat="32.620132446" lon="35.112884521">
  <ele>189.509033</ele>
  <time>2011-11-22T18:19:58Z</time>
  <speed>1.960000</speed>
</trkpt>
<trkpt lat="32.620113373" lon="35.112846375">
  <ele>189.356689</ele>
  <time>2011-11-22T18:20:00Z</time>
  <speed>2.270000</speed>
</trkpt>
<trkpt lat="32.620109558" lon="35.112796783">
  <ele>189.716064</ele>
  <time>2011-11-22T18:20:02Z</time>
  <speed>2.040000</speed>
</trkpt>
<trkpt lat="32.620094299" lon="35.112758636">
  <ele>190.962158</ele>
  <time>2011-11-22T18:20:04Z</time>
  <speed>1.970000</speed>
</trkpt>
<trkpt lat="32.620082855" lon="35.112720490">
  <ele>190.856689</ele>
  <time>2011-11-22T18:20:06Z</time>
  <speed>1.680000</speed>
</trkpt>
<trkpt lat="32.620067596" lon="35.112678528">
  <ele>191.165283</ele>
  <time>2011-11-22T18:20:08Z</time>
  <speed>2.080000</speed>
</trkpt>
<trkpt lat="32.620063782" lon="35.112640381">
  <ele>191.630127</ele>
  <time>2011-11-22T18:20:10Z</time>
  <speed>2.230000</speed>
</trkpt>
<trkpt lat="32.620052338" lon="35.112598419">
  <ele>192.934814</ele>
  <time>2011-11-22T18:20:12Z</time>
  <speed>2.120000</speed>
</trkpt>
<trkpt lat="32.620033264" lon="35.112552643">
  <ele>193.262939</ele>
  <time>2011-11-22T18:20:14Z</time>
  <speed>2.290000</speed>
</trkpt>
<trkpt lat="32.620014191" lon="35.112514496">
  <ele>193.223877</ele>
  <time>2011-11-22T18:20:16Z</time>
  <speed>1.980000</speed>
</trkpt>
<trkpt lat="32.619995117" lon="35.112480164">
  <ele>192.880127</ele>
  <time>2011-11-22T18:20:18Z</time>
  <speed>1.950000</speed>
</trkpt>
<trkpt lat="32.619979858" lon="35.112430573">
  <ele>192.665283</ele>
  <time>2011-11-22T18:20:20Z</time>
  <speed>2.000000</speed>
</trkpt>
<trkpt lat="32.619956970" lon="35.112392426">
  <ele>192.223877</ele>
  <time>2011-11-22T18:20:22Z</time>
  <speed>2.050000</speed>
</trkpt>
<trkpt lat="32.619926453" lon="35.112365723">
  <ele>191.309814</ele>
  <time>2011-11-22T18:20:24Z</time>
  <speed>2.120000</speed>
</trkpt>
<trkpt lat="32.619888306" lon="35.112339020">
  <ele>191.927002</ele>
  <time>2011-11-22T18:20:26Z</time>
  <speed>2.210000</speed>
</trkpt>
<trkpt lat="32.619865417" lon="35.112308502">
  <ele>191.200439</ele>
  <time>2011-11-22T18:20:28Z</time>
  <speed>2.000000</speed>
</trkpt>
<trkpt lat="32.619834900" lon="35.112274170">
  <ele>192.450439</ele>
  <time>2011-11-22T18:20:30Z</time>
  <speed>1.710000</speed>
</trkpt>
<trkpt lat="32.619808197" lon="35.112251282">
  <ele>192.032471</ele>
  <time>2011-11-22T18:20:32Z</time>
  <speed>1.770000</speed>
</trkpt>
<trkpt lat="32.619758606" lon="35.112236023">
  <ele>191.653564</ele>
  <time>2011-11-22T18:20:34Z</time>
  <speed>2.580000</speed>
</trkpt>
<trkpt lat="32.619731903" lon="35.112232208">
  <ele>190.930908</ele>
  <time>2011-11-22T18:20:35Z</time>
  <speed>3.090000</speed>
</trkpt>
<trkpt lat="32.619697571" lon="35.112232208">
  <ele>190.860596</ele>
  <time>2011-11-22T18:20:36Z</time>
  <speed>3.230000</speed>
</trkpt>
<trkpt lat="32.619667053" lon="35.112232208">
  <ele>190.364502</ele>
  <time>2011-11-22T18:20:37Z</time>
  <speed>3.350000</speed>
</trkpt>
<trkpt lat="32.619636536" lon="35.112236023">
  <ele>189.876221</ele>
  <time>2011-11-22T18:20:38Z</time>
  <speed>3.390000</speed>
</trkpt>
<trkpt lat="32.619602203" lon="35.112239838">
  <ele>189.817627</ele>
  <time>2011-11-22T18:20:39Z</time>
  <speed>3.070000</speed>
</trkpt>
<trkpt lat="32.619552612" lon="35.112258911">
  <ele>188.622314</ele>
  <time>2011-11-22T18:20:41Z</time>
  <speed>3.230000</speed>
</trkpt>
<trkpt lat="32.619518280" lon="35.112274170">
  <ele>188.657471</ele>
  <time>2011-11-22T18:20:42Z</time>
  <speed>3.910000</speed>
</trkpt>
<trkpt lat="32.619483948" lon="35.112293243">
  <ele>188.372314</ele>
  <time>2011-11-22T18:20:43Z</time>
  <speed>4.300000</speed>
</trkpt>
<trkpt lat="32.619449615" lon="35.112312317">
  <ele>188.317627</ele>
  <time>2011-11-22T18:20:44Z</time>
  <speed>3.680000</speed>
</trkpt>
<trkpt lat="32.619419098" lon="35.112327576">
  <ele>188.110596</ele>
  <time>2011-11-22T18:20:45Z</time>
  <speed>4.010000</speed>
</trkpt>
<trkpt lat="32.619377136" lon="35.112350464">
  <ele>187.536377</ele>
  <time>2011-11-22T18:20:46Z</time>
  <speed>4.600000</speed>
</trkpt>
<trkpt lat="32.619323730" lon="35.112377167">
  <ele>186.594971</ele>
  <time>2011-11-22T18:20:47Z</time>
  <speed>5.510000</speed>
</trkpt>
<trkpt lat="32.619274139" lon="35.112403870">
  <ele>186.243408</ele>
  <time>2011-11-22T18:20:48Z</time>
  <speed>5.860000</speed>
</trkpt>
<trkpt lat="32.619216919" lon="35.112430573">
  <ele>186.083252</ele>
  <time>2011-11-22T18:20:49Z</time>
  <speed>6.520000</speed>
</trkpt>
<trkpt lat="32.619163513" lon="35.112453461">
  <ele>184.993408</ele>
  <time>2011-11-22T18:20:50Z</time>
  <speed>6.800000</speed>
</trkpt>
<trkpt lat="32.619110107" lon="35.112472534">
  <ele>183.684814</ele>
  <time>2011-11-22T18:20:51Z</time>
  <speed>6.680000</speed>
</trkpt>
<trkpt lat="32.619045258" lon="35.112487793">
  <ele>183.673096</ele>
  <time>2011-11-22T18:20:52Z</time>
  <speed>6.720000</speed>
</trkpt>
<trkpt lat="32.618995667" lon="35.112487793">
  <ele>181.962158</ele>
  <time>2011-11-22T18:20:53Z</time>
  <speed>6.150000</speed>
</trkpt>
<trkpt lat="32.618938446" lon="35.112472534">
  <ele>181.809814</ele>
  <time>2011-11-22T18:20:54Z</time>
  <speed>6.070000</speed>
</trkpt>
<trkpt lat="32.618885040" lon="35.112442017">
  <ele>182.637939</ele>
  <time>2011-11-22T18:20:55Z</time>
  <speed>5.820000</speed>
</trkpt>
<trkpt lat="32.618843079" lon="35.112411499">
  <ele>183.255127</ele>
  <time>2011-11-22T18:20:56Z</time>
  <speed>5.560000</speed>
</trkpt>
<trkpt lat="32.618808746" lon="35.112365723">
  <ele>182.899658</ele>
  <time>2011-11-22T18:20:57Z</time>
  <speed>5.740000</speed>
</trkpt>
<trkpt lat="32.618778229" lon="35.112316132">
  <ele>181.927002</ele>
  <time>2011-11-22T18:20:58Z</time>
  <speed>5.630000</speed>
</trkpt>
<trkpt lat="32.618755341" lon="35.112270355">
  <ele>181.208252</ele>
  <time>2011-11-22T18:20:59Z</time>
  <speed>5.650000</speed>
</trkpt>
<trkpt lat="32.618717194" lon="35.112220764">
  <ele>181.587158</ele>
  <time>2011-11-22T18:21:00Z</time>
  <speed>5.430000</speed>
</trkpt>
<trkpt lat="32.618690491" lon="35.112171173">
  <ele>181.071533</ele>
  <time>2011-11-22T18:21:01Z</time>
  <speed>5.680000</speed>
</trkpt>
<trkpt lat="32.618667603" lon="35.112121582">
  <ele>179.669189</ele>
  <time>2011-11-22T18:21:02Z</time>
  <speed>5.620000</speed>
</trkpt>
<trkpt lat="32.618648529" lon="35.112060547">
  <ele>179.079346</ele>
  <time>2011-11-22T18:21:03Z</time>
  <speed>6.070000</speed>
</trkpt>
<trkpt lat="32.618625641" lon="35.111999512">
  <ele>178.825439</ele>
  <time>2011-11-22T18:21:04Z</time>
  <speed>5.760000</speed>
</trkpt>
<trkpt lat="32.618602753" lon="35.111938477">
  <ele>178.665283</ele>
  <time>2011-11-22T18:21:05Z</time>
  <speed>6.060000</speed>
</trkpt>
<trkpt lat="32.618576050" lon="35.111873627">
  <ele>179.278564</ele>
  <time>2011-11-22T18:21:06Z</time>
  <speed>6.410000</speed>
</trkpt>
<trkpt lat="32.618553162" lon="35.111804962">
  <ele>179.634033</ele>
  <time>2011-11-22T18:21:07Z</time>
  <speed>6.540000</speed>
</trkpt>
<trkpt lat="32.618537903" lon="35.111740112">
  <ele>179.735596</ele>
  <time>2011-11-22T18:21:08Z</time>
  <speed>6.280000</speed>
</trkpt>
<trkpt lat="32.618526459" lon="35.111679077">
  <ele>180.044189</ele>
  <time>2011-11-22T18:21:09Z</time>
  <speed>5.610000</speed>
</trkpt>
<trkpt lat="32.618518829" lon="35.111625671">
  <ele>180.325439</ele>
  <time>2011-11-22T18:21:10Z</time>
  <speed>5.150000</speed>
</trkpt>
<trkpt lat="32.618507385" lon="35.111568451">
  <ele>180.880127</ele>
  <time>2011-11-22T18:21:11Z</time>
  <speed>5.340000</speed>
</trkpt>
<trkpt lat="32.618499756" lon="35.111507416">
  <ele>181.684814</ele>
  <time>2011-11-22T18:21:12Z</time>
  <speed>5.400000</speed>
</trkpt>
<trkpt lat="32.618499756" lon="35.111450195">
  <ele>181.622314</ele>
  <time>2011-11-22T18:21:13Z</time>
  <speed>5.170000</speed>
</trkpt>
<trkpt lat="32.618499756" lon="35.111392975">
  <ele>181.731689</ele>
  <time>2011-11-22T18:21:14Z</time>
  <speed>5.360000</speed>
</trkpt>
<trkpt lat="32.618495941" lon="35.111335754">
  <ele>181.677002</ele>
  <time>2011-11-22T18:21:15Z</time>
  <speed>5.550000</speed>
</trkpt>
<trkpt lat="32.618492126" lon="35.111282349">
  <ele>181.481689</ele>
  <time>2011-11-22T18:21:16Z</time>
  <speed>5.100000</speed>
</trkpt>
<trkpt lat="32.618488312" lon="35.111228943">
  <ele>181.477783</ele>
  <time>2011-11-22T18:21:17Z</time>
  <speed>4.670000</speed>
</trkpt>
<trkpt lat="32.618484497" lon="35.111171722">
  <ele>181.286377</ele>
  <time>2011-11-22T18:21:18Z</time>
  <speed>4.950000</speed>
</trkpt>
<trkpt lat="32.618488312" lon="35.111106873">
  <ele>181.274658</ele>
  <time>2011-11-22T18:21:19Z</time>
  <speed>5.560000</speed>
</trkpt>
<trkpt lat="32.618488312" lon="35.111049652">
  <ele>181.516846</ele>
  <time>2011-11-22T18:21:20Z</time>
  <speed>5.630000</speed>
</trkpt>
<trkpt lat="32.618480682" lon="35.110988617">
  <ele>181.466064</ele>
  <time>2011-11-22T18:21:21Z</time>
  <speed>5.640000</speed>
</trkpt>
<trkpt lat="32.618473053" lon="35.110927582">
  <ele>181.227783</ele>
  <time>2011-11-22T18:21:22Z</time>
  <speed>5.270000</speed>
</trkpt>
<trkpt lat="32.618461609" lon="35.110874176">
  <ele>181.255127</ele>
  <time>2011-11-22T18:21:23Z</time>
  <speed>4.730000</speed>
</trkpt>
<trkpt lat="32.618446350" lon="35.110816956">
  <ele>181.016846</ele>
  <time>2011-11-22T18:21:24Z</time>
  <speed>4.590000</speed>
</trkpt>
<trkpt lat="32.618434906" lon="35.110748291">
  <ele>181.266846</ele>
  <time>2011-11-22T18:21:25Z</time>
  <speed>4.370000</speed>
</trkpt>
<trkpt lat="32.618415833" lon="35.110698700">
  <ele>181.219971</ele>
  <time>2011-11-22T18:21:26Z</time>
  <speed>3.330000</speed>
</trkpt>
<trkpt lat="32.618404388" lon="35.110660553">
  <ele>180.692627</ele>
  <time>2011-11-22T18:21:27Z</time>
  <speed>2.270000</speed>
</trkpt>
<trkpt lat="32.618396759" lon="35.110630035">
  <ele>180.423096</ele>
  <time>2011-11-22T18:21:28Z</time>
  <speed>1.860000</speed>
</trkpt>
<trkpt lat="32.618373871" lon="35.110610962">
  <ele>179.032471</ele>
  <time>2011-11-22T18:21:30Z</time>
  <speed>1.430000</speed>
</trkpt>
<trkpt lat="32.618343353" lon="35.110614777">
  <ele>178.626221</ele>
  <time>2011-11-22T18:21:32Z</time>
  <speed>1.450000</speed>
</trkpt>
<trkpt lat="32.618309021" lon="35.110637665">
  <ele>178.352783</ele>
  <time>2011-11-22T18:21:34Z</time>
  <speed>1.400000</speed>
</trkpt>
<trkpt lat="32.618278503" lon="35.110687256">
  <ele>178.544189</ele>
  <time>2011-11-22T18:21:36Z</time>
  <speed>2.410000</speed>
</trkpt>
<trkpt lat="32.618267059" lon="35.110717773">
  <ele>177.958252</ele>
  <time>2011-11-22T18:21:38Z</time>
  <speed>0.480000</speed>
</trkpt>
<trkpt lat="32.618255615" lon="35.110748291">
  <ele>177.606689</ele>
  <time>2011-11-22T18:22:00Z</time>
  <speed>0.810000</speed>
</trkpt>
<trkpt lat="32.618236542" lon="35.110790253">
  <ele>177.704346</ele>
  <time>2011-11-22T18:22:02Z</time>
  <speed>3.210000</speed>
</trkpt>
<trkpt lat="32.618221283" lon="35.110836029">
  <ele>178.161377</ele>
  <time>2011-11-22T18:22:03Z</time>
  <speed>3.790000</speed>
</trkpt>
<trkpt lat="32.618217468" lon="35.110881805">
  <ele>178.712158</ele>
  <time>2011-11-22T18:22:04Z</time>
  <speed>5.050000</speed>
</trkpt>
<trkpt lat="32.618206024" lon="35.110939026">
  <ele>179.169189</ele>
  <time>2011-11-22T18:22:05Z</time>
  <speed>5.340000</speed>
</trkpt>
<trkpt lat="32.618194580" lon="35.111003876">
  <ele>178.966064</ele>
  <time>2011-11-22T18:22:06Z</time>
  <speed>6.250000</speed>
</trkpt>
<trkpt lat="32.618167877" lon="35.111064911">
  <ele>178.868408</ele>
  <time>2011-11-22T18:22:07Z</time>
  <speed>6.160000</speed>
</trkpt>
<trkpt lat="32.618148804" lon="35.111129761">
  <ele>178.419189</ele>
  <time>2011-11-22T18:22:08Z</time>
  <speed>6.300000</speed>
</trkpt>
<trkpt lat="32.618129730" lon="35.111202240">
  <ele>177.661377</ele>
  <time>2011-11-22T18:22:09Z</time>
  <speed>6.470000</speed>
</trkpt>
<trkpt lat="32.618110657" lon="35.111270905">
  <ele>176.884033</ele>
  <time>2011-11-22T18:22:10Z</time>
  <speed>7.150000</speed>
</trkpt>
<trkpt lat="32.618091583" lon="35.111351013">
  <ele>175.673096</ele>
  <time>2011-11-22T18:22:11Z</time>
  <speed>7.550000</speed>
</trkpt>
<trkpt lat="32.618068695" lon="35.111434937">
  <ele>174.489502</ele>
  <time>2011-11-22T18:22:12Z</time>
  <speed>8.160000</speed>
</trkpt>
<trkpt lat="32.618045807" lon="35.111522675">
  <ele>173.313721</ele>
  <time>2011-11-22T18:22:13Z</time>
  <speed>8.750000</speed>
</trkpt>
<trkpt lat="32.618019104" lon="35.111614227">
  <ele>172.251221</ele>
  <time>2011-11-22T18:22:14Z</time>
  <speed>8.880000</speed>
</trkpt>
<trkpt lat="32.617996216" lon="35.111709595">
  <ele>171.266846</ele>
  <time>2011-11-22T18:22:15Z</time>
  <speed>9.090000</speed>
</trkpt>
<trkpt lat="32.617977142" lon="35.111804962">
  <ele>170.739502</ele>
  <time>2011-11-22T18:22:16Z</time>
  <speed>9.130000</speed>
</trkpt>
<trkpt lat="32.617958069" lon="35.111900330">
  <ele>169.704346</ele>
  <time>2011-11-22T18:22:17Z</time>
  <speed>9.220000</speed>
</trkpt>
<trkpt lat="32.617946625" lon="35.112003326">
  <ele>168.731689</ele>
  <time>2011-11-22T18:22:18Z</time>
  <speed>9.290000</speed>
</trkpt>
<trkpt lat="32.617938995" lon="35.112110138">
  <ele>167.782471</ele>
  <time>2011-11-22T18:22:19Z</time>
  <speed>9.640000</speed>
</trkpt>
<trkpt lat="32.617938995" lon="35.112216949">
  <ele>167.169189</ele>
  <time>2011-11-22T18:22:20Z</time>
  <speed>9.660000</speed>
</trkpt>
<trkpt lat="32.617935181" lon="35.112331390">
  <ele>166.559814</ele>
  <time>2011-11-22T18:22:21Z</time>
  <speed>9.810001</speed>
</trkpt>
<trkpt lat="32.617942810" lon="35.112438202">
  <ele>165.696533</ele>
  <time>2011-11-22T18:22:22Z</time>
  <speed>10.390000</speed>
</trkpt>
<trkpt lat="32.617942810" lon="35.112548828">
  <ele>164.677002</ele>
  <time>2011-11-22T18:22:23Z</time>
  <speed>9.900000</speed>
</trkpt>
<trkpt lat="32.617938995" lon="35.112674713">
  <ele>163.430908</ele>
  <time>2011-11-22T18:22:24Z</time>
  <speed>11.430000</speed>
</trkpt>
<trkpt lat="32.617931366" lon="35.112800598">
  <ele>162.364502</ele>
  <time>2011-11-22T18:22:25Z</time>
  <speed>11.810000</speed>
</trkpt>
<trkpt lat="32.617919922" lon="35.112937927">
  <ele>161.075439</ele>
  <time>2011-11-22T18:22:26Z</time>
  <speed>12.640000</speed>
</trkpt>
<trkpt lat="32.617900848" lon="35.113086700">
  <ele>160.598877</ele>
  <time>2011-11-22T18:22:27Z</time>
  <speed>13.170000</speed>
</trkpt>
<trkpt lat="32.617874146" lon="35.113216400">
  <ele>159.352783</ele>
  <time>2011-11-22T18:22:28Z</time>
  <speed>12.850000</speed>
</trkpt>
<trkpt lat="32.617855072" lon="35.113349915">
  <ele>158.321533</ele>
  <time>2011-11-22T18:22:29Z</time>
  <speed>12.530000</speed>
</trkpt>
<trkpt lat="32.617839813" lon="35.113475800">
  <ele>157.266846</ele>
  <time>2011-11-22T18:22:30Z</time>
  <speed>12.050000</speed>
</trkpt>
<trkpt lat="32.617824554" lon="35.113601685">
  <ele>156.544189</ele>
  <time>2011-11-22T18:22:31Z</time>
  <speed>11.280000</speed>
</trkpt>
<trkpt lat="32.617828369" lon="35.113712311">
  <ele>155.731689</ele>
  <time>2011-11-22T18:22:32Z</time>
  <speed>10.610000</speed>
</trkpt>
<trkpt lat="32.617839813" lon="35.113815308">
  <ele>155.114502</ele>
  <time>2011-11-22T18:22:33Z</time>
  <speed>10.530000</speed>
</trkpt>
<trkpt lat="32.617855072" lon="35.113929749">
  <ele>154.036377</ele>
  <time>2011-11-22T18:22:34Z</time>
  <speed>10.640000</speed>
</trkpt>
<trkpt lat="32.617870331" lon="35.114040375">
  <ele>153.016846</ele>
  <time>2011-11-22T18:22:35Z</time>
  <speed>10.370000</speed>
</trkpt>
<trkpt lat="32.617870331" lon="35.114166260">
  <ele>151.387939</ele>
  <time>2011-11-22T18:22:36Z</time>
  <speed>11.140000</speed>
</trkpt>
<trkpt lat="32.617893219" lon="35.114299774">
  <ele>150.098877</ele>
  <time>2011-11-22T18:22:37Z</time>
  <speed>11.760000</speed>
</trkpt>
<trkpt lat="32.617900848" lon="35.114433289">
  <ele>149.528564</ele>
  <time>2011-11-22T18:22:38Z</time>
  <speed>12.220000</speed>
</trkpt>
<trkpt lat="32.617908478" lon="35.114562988">
  <ele>148.505127</ele>
  <time>2011-11-22T18:22:39Z</time>
  <speed>12.170000</speed>
</trkpt>
<trkpt lat="32.617927551" lon="35.114696503">
  <ele>147.813721</ele>
  <time>2011-11-22T18:22:40Z</time>
  <speed>12.670000</speed>
</trkpt>
<trkpt lat="32.617942810" lon="35.114826202">
  <ele>146.786377</ele>
  <time>2011-11-22T18:22:41Z</time>
  <speed>12.620000</speed>
</trkpt>
<trkpt lat="32.617961884" lon="35.114974976">
  <ele>145.653564</ele>
  <time>2011-11-22T18:22:42Z</time>
  <speed>13.130000</speed>
</trkpt>
<trkpt lat="32.617977142" lon="35.115093231">
  <ele>143.954346</ele>
  <time>2011-11-22T18:22:43Z</time>
  <speed>12.870000</speed>
</trkpt>
<trkpt lat="32.617996216" lon="35.115242004">
  <ele>142.360596</ele>
  <time>2011-11-22T18:22:44Z</time>
  <speed>13.090000</speed>
</trkpt>
<trkpt lat="32.618003845" lon="35.115375519">
  <ele>141.161377</ele>
  <time>2011-11-22T18:22:45Z</time>
  <speed>13.040000</speed>
</trkpt>
<trkpt lat="32.618007660" lon="35.115512848">
  <ele>139.782471</ele>
  <time>2011-11-22T18:22:46Z</time>
  <speed>12.740000</speed>
</trkpt>
<trkpt lat="32.618015289" lon="35.115646362">
  <ele>138.251221</ele>
  <time>2011-11-22T18:22:47Z</time>
  <speed>12.720000</speed>
</trkpt>
<trkpt lat="32.618045807" lon="35.115798950">
  <ele>136.704346</ele>
  <time>2011-11-22T18:22:48Z</time>
  <speed>13.260000</speed>
</trkpt>
<trkpt lat="32.618068695" lon="35.115936279">
  <ele>135.067627</ele>
  <time>2011-11-22T18:22:49Z</time>
  <speed>13.340000</speed>
</trkpt>
<trkpt lat="32.618091583" lon="35.116085052">
  <ele>134.302002</ele>
  <time>2011-11-22T18:22:50Z</time>
  <speed>13.810000</speed>
</trkpt>
<trkpt lat="32.618110657" lon="35.116218567">
  <ele>133.102783</ele>
  <time>2011-11-22T18:22:51Z</time>
  <speed>13.150000</speed>
</trkpt>
<trkpt lat="32.618125916" lon="35.116355896">
  <ele>132.204346</ele>
  <time>2011-11-22T18:22:52Z</time>
  <speed>12.980000</speed>
</trkpt>
<trkpt lat="32.618125916" lon="35.116485596">
  <ele>130.942627</ele>
  <time>2011-11-22T18:22:53Z</time>
  <speed>12.590000</speed>
</trkpt>
<trkpt lat="32.618114471" lon="35.116615295">
  <ele>130.075439</ele>
  <time>2011-11-22T18:22:54Z</time>
  <speed>12.130000</speed>
</trkpt>
<trkpt lat="32.618125916" lon="35.116748810">
  <ele>129.091064</ele>
  <time>2011-11-22T18:22:55Z</time>
  <speed>12.130000</speed>
</trkpt>
<trkpt lat="32.618122101" lon="35.116870880">
  <ele>127.971313</ele>
  <time>2011-11-22T18:22:56Z</time>
  <speed>11.920000</speed>
</trkpt>
<trkpt lat="32.618137360" lon="35.117000580">
  <ele>126.285767</ele>
  <time>2011-11-22T18:22:57Z</time>
  <speed>11.430000</speed>
</trkpt>
<trkpt lat="32.618144989" lon="35.117118835">
  <ele>124.856079</ele>
  <time>2011-11-22T18:22:58Z</time>
  <speed>10.860000</speed>
</trkpt>
<trkpt lat="32.618167877" lon="35.117233276">
  <ele>123.401001</ele>
  <time>2011-11-22T18:22:59Z</time>
  <speed>8.700000</speed>
</trkpt>
<trkpt lat="32.618175507" lon="35.117317200">
  <ele>122.082642</ele>
  <time>2011-11-22T18:23:00Z</time>
  <speed>7.290000</speed>
</trkpt>
<trkpt lat="32.618183136" lon="35.117366791">
  <ele>120.877563</ele>
  <time>2011-11-22T18:23:01Z</time>
  <speed>5.780000</speed>
</trkpt>
<trkpt lat="32.618190765" lon="35.117397308">
  <ele>118.211548</ele>
  <time>2011-11-22T18:23:02Z</time>
  <speed>4.580000</speed>
</trkpt>
<trkpt lat="32.618202209" lon="35.117443085">
  <ele>117.623657</ele>
  <time>2011-11-22T18:23:03Z</time>
  <speed>4.770000</speed>
</trkpt>
<trkpt lat="32.618198395" lon="35.117481232">
  <ele>116.401001</ele>
  <time>2011-11-22T18:23:04Z</time>
  <speed>4.510000</speed>
</trkpt>
<trkpt lat="32.618202209" lon="35.117538452">
  <ele>115.811157</ele>
  <time>2011-11-22T18:23:05Z</time>
  <speed>4.610000</speed>
</trkpt>
<trkpt lat="32.618225098" lon="35.117614746">
  <ele>116.776001</ele>
  <time>2011-11-22T18:23:06Z</time>
  <speed>4.660000</speed>
</trkpt>
<trkpt lat="32.618221283" lon="35.117664337">
  <ele>116.858032</ele>
  <time>2011-11-22T18:23:07Z</time>
  <speed>4.200000</speed>
</trkpt>
<trkpt lat="32.618213654" lon="35.117706299">
  <ele>116.514282</ele>
  <time>2011-11-22T18:23:08Z</time>
  <speed>3.760000</speed>
</trkpt>
<trkpt lat="32.618213654" lon="35.117752075">
  <ele>116.227173</ele>
  <time>2011-11-22T18:23:09Z</time>
  <speed>3.600000</speed>
</trkpt>
<trkpt lat="32.618217468" lon="35.117794037">
  <ele>116.379517</ele>
  <time>2011-11-22T18:23:10Z</time>
  <speed>3.530000</speed>
</trkpt>
<trkpt lat="32.618236542" lon="35.117835999">
  <ele>116.225220</ele>
  <time>2011-11-22T18:23:11Z</time>
  <speed>3.720000</speed>
</trkpt>
<trkpt lat="32.618247986" lon="35.117874146">
  <ele>116.145142</ele>
  <time>2011-11-22T18:23:12Z</time>
  <speed>3.680000</speed>
</trkpt>
<trkpt lat="32.618263245" lon="35.117908478">
  <ele>116.002563</ele>
  <time>2011-11-22T18:23:13Z</time>
  <speed>3.210000</speed>
</trkpt>
<trkpt lat="32.618286133" lon="35.117942810">
  <ele>115.633423</ele>
  <time>2011-11-22T18:23:14Z</time>
  <speed>2.760000</speed>
</trkpt>
<trkpt lat="32.618282318" lon="35.118000031">
  <ele>115.756470</ele>
  <time>2011-11-22T18:23:16Z</time>
  <speed>2.450000</speed>
</trkpt>
<trkpt lat="32.618263245" lon="35.118034363">
  <ele>115.719360</ele>
  <time>2011-11-22T18:23:18Z</time>
  <speed>2.000000</speed>
</trkpt>
<trkpt lat="32.618221283" lon="35.118038177">
  <ele>114.975220</ele>
  <time>2011-11-22T18:23:20Z</time>
  <speed>1.710000</speed>
</trkpt>
<trkpt lat="32.618186951" lon="35.118038177">
  <ele>114.459595</ele>
  <time>2011-11-22T18:23:22Z</time>
  <speed>1.470000</speed>
</trkpt>
<trkpt lat="32.618156433" lon="35.118041992">
  <ele>114.484985</ele>
  <time>2011-11-22T18:23:24Z</time>
  <speed>1.520000</speed>
</trkpt>
<trkpt lat="32.618122101" lon="35.118026733">
  <ele>114.174438</ele>
  <time>2011-11-22T18:23:26Z</time>
  <speed>1.840000</speed>
</trkpt>
<trkpt lat="32.618068695" lon="35.118053436">
  <ele>115.848267</ele>
  <time>2011-11-22T18:23:28Z</time>
  <speed>1.930000</speed>
</trkpt>
<trkpt lat="32.618026733" lon="35.118057251">
  <ele>115.664673</ele>
  <time>2011-11-22T18:23:30Z</time>
  <speed>2.300000</speed>
</trkpt>
<trkpt lat="32.617980957" lon="35.118076324">
  <ele>114.977173</ele>
  <time>2011-11-22T18:23:32Z</time>
  <speed>2.170000</speed>
</trkpt>
<trkpt lat="32.617942810" lon="35.118091583">
  <ele>114.629517</ele>
  <time>2011-11-22T18:23:34Z</time>
  <speed>1.950000</speed>
</trkpt>
<trkpt lat="32.617897034" lon="35.118103027">
  <ele>114.520142</ele>
  <time>2011-11-22T18:23:36Z</time>
  <speed>2.230000</speed>
</trkpt>
<trkpt lat="32.617855072" lon="35.118122101">
  <ele>114.406860</ele>
  <time>2011-11-22T18:23:38Z</time>
  <speed>2.040000</speed>
</trkpt>
<trkpt lat="32.617820740" lon="35.118141174">
  <ele>114.330688</ele>
  <time>2011-11-22T18:23:40Z</time>
  <speed>1.860000</speed>
</trkpt>
<trkpt lat="32.617790222" lon="35.118175507">
  <ele>114.234985</ele>
  <time>2011-11-22T18:23:42Z</time>
  <speed>2.090000</speed>
</trkpt>
<trkpt lat="32.617755890" lon="35.118206024">
  <ele>114.262329</ele>
  <time>2011-11-22T18:23:44Z</time>
  <speed>1.550000</speed>
</trkpt>
<trkpt lat="32.617733002" lon="35.118232727">
  <ele>114.067017</ele>
  <time>2011-11-22T18:23:45Z</time>
  <speed>2.190000</speed>
</trkpt>
<trkpt lat="32.617710114" lon="35.118278503">
  <ele>113.098267</ele>
  <time>2011-11-22T18:23:47Z</time>
  <speed>1.880000</speed>
</trkpt>
<trkpt lat="32.617675781" lon="35.118320465">
  <ele>114.328735</ele>
  <time>2011-11-22T18:23:50Z</time>
  <speed>1.580000</speed>
</trkpt>
<trkpt lat="32.617664337" lon="35.118362427">
  <ele>114.670532</ele>
  <time>2011-11-22T18:23:52Z</time>
  <speed>1.850000</speed>
</trkpt>
<trkpt lat="32.617641449" lon="35.118412018">
  <ele>115.625610</ele>
  <time>2011-11-22T18:23:54Z</time>
  <speed>2.090000</speed>
</trkpt>
<trkpt lat="32.617626190" lon="35.118442535">
  <ele>115.621704</ele>
  <time>2011-11-22T18:23:55Z</time>
  <speed>2.840000</speed>
</trkpt>
<trkpt lat="32.617591858" lon="35.118461609">
  <ele>116.188110</ele>
  <time>2011-11-22T18:23:56Z</time>
  <speed>2.280000</speed>
</trkpt>
<trkpt lat="32.617568970" lon="35.118499756">
  <ele>116.227173</ele>
  <time>2011-11-22T18:23:58Z</time>
  <speed>2.190000</speed>
</trkpt>
<trkpt lat="32.617561340" lon="35.118537903">
  <ele>116.020142</ele>
  <time>2011-11-22T18:23:59Z</time>
  <speed>2.040000</speed>
</trkpt>
<trkpt lat="32.617546082" lon="35.118587494">
  <ele>116.533813</ele>
  <time>2011-11-22T18:24:01Z</time>
  <speed>2.550000</speed>
</trkpt>
<trkpt lat="32.617523193" lon="35.118637085">
  <ele>117.022095</ele>
  <time>2011-11-22T18:24:03Z</time>
  <speed>1.540000</speed>
</trkpt>
<trkpt lat="32.617496490" lon="35.118679047">
  <ele>117.322876</ele>
  <time>2011-11-22T18:24:05Z</time>
  <speed>1.900000</speed>
</trkpt>
<trkpt lat="32.617485046" lon="35.118743896">
  <ele>117.010376</ele>
  <time>2011-11-22T18:24:06Z</time>
  <speed>2.210000</speed>
</trkpt>
<trkpt lat="32.617473602" lon="35.118785858">
  <ele>117.305298</ele>
  <time>2011-11-22T18:24:08Z</time>
  <speed>1.550000</speed>
</trkpt>
<trkpt lat="32.617462158" lon="35.118824005">
  <ele>117.027954</ele>
  <time>2011-11-22T18:24:10Z</time>
  <speed>1.880000</speed>
</trkpt>
<trkpt lat="32.617427826" lon="35.118877411">
  <ele>116.889282</ele>
  <time>2011-11-22T18:24:11Z</time>
  <speed>3.320000</speed>
</trkpt>
<trkpt lat="32.617416382" lon="35.118911743">
  <ele>117.348267</ele>
  <time>2011-11-22T18:24:12Z</time>
  <speed>2.210000</speed>
</trkpt>
<trkpt lat="32.617401123" lon="35.118949890">
  <ele>117.223267</ele>
  <time>2011-11-22T18:24:13Z</time>
  <speed>1.850000</speed>
</trkpt>
<trkpt lat="32.617378235" lon="35.118988037">
  <ele>116.955688</ele>
  <time>2011-11-22T18:24:14Z</time>
  <speed>2.480000</speed>
</trkpt>
<trkpt lat="32.617359161" lon="35.119014740">
  <ele>117.184204</ele>
  <time>2011-11-22T18:24:15Z</time>
  <speed>2.530000</speed>
</trkpt>
<trkpt lat="32.617321014" lon="35.119056702">
  <ele>117.604126</ele>
  <time>2011-11-22T18:24:17Z</time>
  <speed>2.030000</speed>
</trkpt>
<trkpt lat="32.617286682" lon="35.119075775">
  <ele>117.002563</ele>
  <time>2011-11-22T18:24:19Z</time>
  <speed>1.950000</speed>
</trkpt>
<trkpt lat="32.617248535" lon="35.119079590">
  <ele>117.174438</ele>
  <time>2011-11-22T18:24:21Z</time>
  <speed>2.760000</speed>
</trkpt>
<trkpt lat="32.617218018" lon="35.119098663">
  <ele>116.953735</ele>
  <time>2011-11-22T18:24:22Z</time>
  <speed>2.550000</speed>
</trkpt>
<trkpt lat="32.617168427" lon="35.119110107">
  <ele>117.438110</ele>
  <time>2011-11-22T18:24:23Z</time>
  <speed>3.250000</speed>
</trkpt>
<trkpt lat="32.617145538" lon="35.119136810">
  <ele>117.192017</ele>
  <time>2011-11-22T18:24:24Z</time>
  <speed>3.240000</speed>
</trkpt>
<trkpt lat="32.617103577" lon="35.119155884">
  <ele>116.692017</ele>
  <time>2011-11-22T18:24:25Z</time>
  <speed>3.380000</speed>
</trkpt>
<trkpt lat="32.617073059" lon="35.119163513">
  <ele>116.754517</ele>
  <time>2011-11-22T18:24:26Z</time>
  <speed>2.920000</speed>
</trkpt>
<trkpt lat="32.617034912" lon="35.119174957">
  <ele>116.824829</ele>
  <time>2011-11-22T18:24:27Z</time>
  <speed>3.230000</speed>
</trkpt>
<trkpt lat="32.616996765" lon="35.119182587">
  <ele>117.244751</ele>
  <time>2011-11-22T18:24:28Z</time>
  <speed>2.910000</speed>
</trkpt>
<trkpt lat="32.616950989" lon="35.119182587">
  <ele>118.180298</ele>
  <time>2011-11-22T18:24:30Z</time>
  <speed>2.370000</speed>
</trkpt>
<trkpt lat="32.616909027" lon="35.119190216">
  <ele>118.123657</ele>
  <time>2011-11-22T18:24:32Z</time>
  <speed>2.290000</speed>
</trkpt>
<trkpt lat="32.616855621" lon="35.119205475">
  <ele>118.555298</ele>
  <time>2011-11-22T18:24:34Z</time>
  <speed>2.860000</speed>
</trkpt>
<trkpt lat="32.616821289" lon="35.119216919">
  <ele>118.422485</ele>
  <time>2011-11-22T18:24:35Z</time>
  <speed>2.750000</speed>
</trkpt>
<trkpt lat="32.616786957" lon="35.119216919">
  <ele>118.764282</ele>
  <time>2011-11-22T18:24:36Z</time>
  <speed>2.710000</speed>
</trkpt>
<trkpt lat="32.616741180" lon="35.119216919">
  <ele>119.436157</ele>
  <time>2011-11-22T18:24:38Z</time>
  <speed>2.540000</speed>
</trkpt>
<trkpt lat="32.616710663" lon="35.119213104">
  <ele>119.799438</ele>
  <time>2011-11-22T18:24:39Z</time>
  <speed>2.820000</speed>
</trkpt>
<trkpt lat="32.616672516" lon="35.119251251">
  <ele>119.797485</ele>
  <time>2011-11-22T18:24:40Z</time>
  <speed>2.890000</speed>
</trkpt>
<trkpt lat="32.616641998" lon="35.119243622">
  <ele>119.895142</ele>
  <time>2011-11-22T18:24:41Z</time>
  <speed>2.940000</speed>
</trkpt>
<trkpt lat="32.616619110" lon="35.119232178">
  <ele>120.350220</ele>
  <time>2011-11-22T18:24:42Z</time>
  <speed>2.860000</speed>
</trkpt>
<trkpt lat="32.616580963" lon="35.119216919">
  <ele>120.246704</ele>
  <time>2011-11-22T18:24:43Z</time>
  <speed>3.170000</speed>
</trkpt>
<trkpt lat="32.616550446" lon="35.119201660">
  <ele>120.447876</ele>
  <time>2011-11-22T18:24:44Z</time>
  <speed>3.920000</speed>
</trkpt>
<trkpt lat="32.616512299" lon="35.119186401">
  <ele>120.723267</ele>
  <time>2011-11-22T18:24:45Z</time>
  <speed>3.530000</speed>
</trkpt>
<trkpt lat="32.616474152" lon="35.119182587">
  <ele>122.029907</ele>
  <time>2011-11-22T18:24:46Z</time>
  <speed>3.070000</speed>
</trkpt>
<trkpt lat="32.616439819" lon="35.119194031">
  <ele>121.676392</ele>
  <time>2011-11-22T18:24:47Z</time>
  <speed>2.510000</speed>
</trkpt>
<trkpt lat="32.616413116" lon="35.119178772">
  <ele>122.000610</ele>
  <time>2011-11-22T18:24:48Z</time>
  <speed>2.870000</speed>
</trkpt>
<trkpt lat="32.616386414" lon="35.119159698">
  <ele>122.221313</ele>
  <time>2011-11-22T18:24:49Z</time>
  <speed>2.810000</speed>
</trkpt>
<trkpt lat="32.616344452" lon="35.119125366">
  <ele>122.631470</ele>
  <time>2011-11-22T18:24:51Z</time>
  <speed>2.740000</speed>
</trkpt>
<trkpt lat="32.616317749" lon="35.119106293">
  <ele>122.832642</ele>
  <time>2011-11-22T18:24:52Z</time>
  <speed>2.630000</speed>
</trkpt>
<trkpt lat="32.616283417" lon="35.119079590">
  <ele>123.678345</ele>
  <time>2011-11-22T18:24:54Z</time>
  <speed>2.600000</speed>
</trkpt>
<trkpt lat="32.616252899" lon="35.119068146">
  <ele>124.272095</ele>
  <time>2011-11-22T18:24:55Z</time>
  <speed>2.660000</speed>
</trkpt>
<trkpt lat="32.616218567" lon="35.119056702">
  <ele>125.236938</ele>
  <time>2011-11-22T18:24:56Z</time>
  <speed>3.080000</speed>
</trkpt>
<trkpt lat="32.616188049" lon="35.119033813">
  <ele>128.223877</ele>
  <time>2011-11-22T18:24:57Z</time>
  <speed>2.350000</speed>
</trkpt>
<trkpt lat="32.616157532" lon="35.119010925">
  <ele>128.739502</ele>
  <time>2011-11-22T18:24:58Z</time>
  <speed>3.150000</speed>
</trkpt>
<trkpt lat="32.616127014" lon="35.118984222">
  <ele>129.216064</ele>
  <time>2011-11-22T18:24:59Z</time>
  <speed>3.260000</speed>
</trkpt>
<trkpt lat="32.616092682" lon="35.118972778">
  <ele>129.766846</ele>
  <time>2011-11-22T18:25:00Z</time>
  <speed>3.020000</speed>
</trkpt>
<trkpt lat="32.616062164" lon="35.118953705">
  <ele>130.036377</ele>
  <time>2011-11-22T18:25:01Z</time>
  <speed>3.170000</speed>
</trkpt>
<trkpt lat="32.616031647" lon="35.118938446">
  <ele>130.727783</ele>
  <time>2011-11-22T18:25:02Z</time>
  <speed>3.060000</speed>
</trkpt>
<trkpt lat="32.616001129" lon="35.118930817">
  <ele>130.536377</ele>
  <time>2011-11-22T18:25:03Z</time>
  <speed>3.170000</speed>
</trkpt>
<trkpt lat="32.615966797" lon="35.118942261">
  <ele>129.305908</ele>
  <time>2011-11-22T18:25:04Z</time>
  <speed>3.340000</speed>
</trkpt>
<trkpt lat="32.615932465" lon="35.118942261">
  <ele>129.598877</ele>
  <time>2011-11-22T18:25:05Z</time>
  <speed>3.210000</speed>
</trkpt>
<trkpt lat="32.615905762" lon="35.118938446">
  <ele>129.485596</ele>
  <time>2011-11-22T18:25:06Z</time>
  <speed>2.890000</speed>
</trkpt>
<trkpt lat="32.615871429" lon="35.118923187">
  <ele>130.481689</ele>
  <time>2011-11-22T18:25:07Z</time>
  <speed>3.100000</speed>
</trkpt>
<trkpt lat="32.615844727" lon="35.118919373">
  <ele>130.880127</ele>
  <time>2011-11-22T18:25:08Z</time>
  <speed>3.160000</speed>
</trkpt>
<trkpt lat="32.615814209" lon="35.118927002">
  <ele>130.489502</ele>
  <time>2011-11-22T18:25:09Z</time>
  <speed>2.880000</speed>
</trkpt>
<trkpt lat="32.615783691" lon="35.118923187">
  <ele>131.165283</ele>
  <time>2011-11-22T18:25:10Z</time>
  <speed>3.180000</speed>
</trkpt>
<trkpt lat="32.615756989" lon="35.118927002">
  <ele>130.891846</ele>
  <time>2011-11-22T18:25:11Z</time>
  <speed>3.150000</speed>
</trkpt>
<trkpt lat="32.615726471" lon="35.118927002">
  <ele>130.954346</ele>
  <time>2011-11-22T18:25:12Z</time>
  <speed>3.180000</speed>
</trkpt>
<trkpt lat="32.615695953" lon="35.118927002">
  <ele>130.946533</ele>
  <time>2011-11-22T18:25:13Z</time>
  <speed>2.990000</speed>
</trkpt>
<trkpt lat="32.615665436" lon="35.118919373">
  <ele>131.430908</ele>
  <time>2011-11-22T18:25:14Z</time>
  <speed>2.900000</speed>
</trkpt>
<trkpt lat="32.615634918" lon="35.118915558">
  <ele>131.469971</ele>
  <time>2011-11-22T18:25:15Z</time>
  <speed>3.080000</speed>
</trkpt>
<trkpt lat="32.615600586" lon="35.118915558">
  <ele>131.927002</ele>
  <time>2011-11-22T18:25:16Z</time>
  <speed>2.990000</speed>
</trkpt>
<trkpt lat="32.615570068" lon="35.118915558">
  <ele>132.106689</ele>
  <time>2011-11-22T18:25:17Z</time>
  <speed>3.310000</speed>
</trkpt>
<trkpt lat="32.615543365" lon="35.118923187">
  <ele>132.227783</ele>
  <time>2011-11-22T18:25:18Z</time>
  <speed>3.170000</speed>
</trkpt>
<trkpt lat="32.615512848" lon="35.118930817">
  <ele>131.973877</ele>
  <time>2011-11-22T18:25:19Z</time>
  <speed>3.150000</speed>
</trkpt>
<trkpt lat="32.615482330" lon="35.118927002">
  <ele>132.372314</ele>
  <time>2011-11-22T18:25:20Z</time>
  <speed>3.140000</speed>
</trkpt>
<trkpt lat="32.615432739" lon="35.118946075">
  <ele>131.860596</ele>
  <time>2011-11-22T18:25:22Z</time>
  <speed>2.680000</speed>
</trkpt>
<trkpt lat="32.615386963" lon="35.118961334">
  <ele>132.235596</ele>
  <time>2011-11-22T18:25:24Z</time>
  <speed>2.410000</speed>
</trkpt>
<trkpt lat="32.615341187" lon="35.118976593">
  <ele>131.985596</ele>
  <time>2011-11-22T18:25:26Z</time>
  <speed>2.580000</speed>
</trkpt>
<trkpt lat="32.615314484" lon="35.118980408">
  <ele>132.141846</ele>
  <time>2011-11-22T18:25:27Z</time>
  <speed>2.750000</speed>
</trkpt>
<trkpt lat="32.615264893" lon="35.118972778">
  <ele>132.762939</ele>
  <time>2011-11-22T18:25:29Z</time>
  <speed>2.490000</speed>
</trkpt>
<trkpt lat="32.615219116" lon="35.118968964">
  <ele>133.680908</ele>
  <time>2011-11-22T18:25:31Z</time>
  <speed>2.130000</speed>
</trkpt>
<trkpt lat="32.615177155" lon="35.118980408">
  <ele>134.137939</ele>
  <time>2011-11-22T18:25:33Z</time>
  <speed>2.460000</speed>
</trkpt>
<trkpt lat="32.615123749" lon="35.119007111">
  <ele>135.083252</ele>
  <time>2011-11-22T18:25:35Z</time>
  <speed>2.440000</speed>
</trkpt>
<trkpt lat="32.615081787" lon="35.119026184">
  <ele>134.989502</ele>
  <time>2011-11-22T18:25:37Z</time>
  <speed>2.650000</speed>
</trkpt>
<trkpt lat="32.615039825" lon="35.119041443">
  <ele>134.618408</ele>
  <time>2011-11-22T18:25:39Z</time>
  <speed>2.350000</speed>
</trkpt>
<trkpt lat="32.614994049" lon="35.119060516">
  <ele>135.243408</ele>
  <time>2011-11-22T18:25:41Z</time>
  <speed>2.570000</speed>
</trkpt>
<trkpt lat="32.614963531" lon="35.119060516">
  <ele>135.243408</ele>
  <time>2011-11-22T18:25:42Z</time>
  <speed>2.650000</speed>
</trkpt>
<trkpt lat="32.614910126" lon="35.119068146">
  <ele>135.583252</ele>
  <time>2011-11-22T18:25:44Z</time>
  <speed>3.030000</speed>
</trkpt>
<trkpt lat="32.614860535" lon="35.119060516">
  <ele>136.798096</ele>
  <time>2011-11-22T18:25:46Z</time>
  <speed>2.630000</speed>
</trkpt>
<trkpt lat="32.614807129" lon="35.119056702">
  <ele>137.118408</ele>
  <time>2011-11-22T18:25:48Z</time>
  <speed>2.670000</speed>
</trkpt>
<trkpt lat="32.614780426" lon="35.119056702">
  <ele>137.356689</ele>
  <time>2011-11-22T18:25:49Z</time>
  <speed>2.620000</speed>
</trkpt>
<trkpt lat="32.614753723" lon="35.119068146">
  <ele>137.731689</ele>
  <time>2011-11-22T18:25:50Z</time>
  <speed>2.610000</speed>
</trkpt>
<trkpt lat="32.614704132" lon="35.119056702">
  <ele>138.075439</ele>
  <time>2011-11-22T18:25:52Z</time>
  <speed>2.230000</speed>
</trkpt>
<trkpt lat="32.614673615" lon="35.119064331">
  <ele>138.200439</ele>
  <time>2011-11-22T18:25:53Z</time>
  <speed>2.900000</speed>
</trkpt>
<trkpt lat="32.614635468" lon="35.119071960">
  <ele>138.219971</ele>
  <time>2011-11-22T18:25:54Z</time>
  <speed>3.120000</speed>
</trkpt>
<trkpt lat="32.614601135" lon="35.119083405">
  <ele>138.063721</ele>
  <time>2011-11-22T18:25:55Z</time>
  <speed>3.550000</speed>
</trkpt>
<trkpt lat="32.614570618" lon="35.119094849">
  <ele>138.184814</ele>
  <time>2011-11-22T18:25:56Z</time>
  <speed>3.100000</speed>
</trkpt>
<trkpt lat="32.614536285" lon="35.119110107">
  <ele>138.399658</ele>
  <time>2011-11-22T18:25:57Z</time>
  <speed>2.700000</speed>
</trkpt>
<trkpt lat="32.614509583" lon="35.119121552">
  <ele>138.282471</ele>
  <time>2011-11-22T18:25:58Z</time>
  <speed>2.560000</speed>
</trkpt>
<trkpt lat="32.614456177" lon="35.119148254">
  <ele>138.329346</ele>
  <time>2011-11-22T18:26:00Z</time>
  <speed>2.760000</speed>
</trkpt>
<trkpt lat="32.614429474" lon="35.119163513">
  <ele>137.993408</ele>
  <time>2011-11-22T18:26:01Z</time>
  <speed>2.750000</speed>
</trkpt>
<trkpt lat="32.614376068" lon="35.119186401">
  <ele>138.083252</ele>
  <time>2011-11-22T18:26:03Z</time>
  <speed>2.570000</speed>
</trkpt>
<trkpt lat="32.614330292" lon="35.119205475">
  <ele>138.704346</ele>
  <time>2011-11-22T18:26:05Z</time>
  <speed>2.590000</speed>
</trkpt>
<trkpt lat="32.614303589" lon="35.119220734">
  <ele>138.723877</ele>
  <time>2011-11-22T18:26:06Z</time>
  <speed>2.340000</speed>
</trkpt>
<trkpt lat="32.614276886" lon="35.119232178">
  <ele>138.243408</ele>
  <time>2011-11-22T18:26:07Z</time>
  <speed>2.350000</speed>
</trkpt>
<trkpt lat="32.614253998" lon="35.119251251">
  <ele>138.040283</ele>
  <time>2011-11-22T18:26:08Z</time>
  <speed>2.190000</speed>
</trkpt>
<trkpt lat="32.614219666" lon="35.119270325">
  <ele>138.649658</ele>
  <time>2011-11-22T18:26:10Z</time>
  <speed>2.210000</speed>
</trkpt>
<trkpt lat="32.614204407" lon="35.119304657">
  <ele>138.094971</ele>
  <time>2011-11-22T18:26:11Z</time>
  <speed>2.390000</speed>
</trkpt>
<trkpt lat="32.614173889" lon="35.119331360">
  <ele>138.653564</ele>
  <time>2011-11-22T18:26:13Z</time>
  <speed>1.690000</speed>
</trkpt>
<trkpt lat="32.614147186" lon="35.119369507">
  <ele>139.778564</ele>
  <time>2011-11-22T18:26:15Z</time>
  <speed>1.500000</speed>
</trkpt>
<trkpt lat="32.614139557" lon="35.119411469">
  <ele>139.337158</ele>
  <time>2011-11-22T18:26:17Z</time>
  <speed>1.620000</speed>
</trkpt>
<trkpt lat="32.614120483" lon="35.119434357">
  <ele>138.161377</ele>
  <time>2011-11-22T18:26:19Z</time>
  <speed>1.380000</speed>
</trkpt>
<trkpt lat="32.614089966" lon="35.119457245">
  <ele>137.540283</ele>
  <time>2011-11-22T18:26:21Z</time>
  <speed>1.750000</speed>
</trkpt>
<trkpt lat="32.614067078" lon="35.119476318">
  <ele>136.075439</ele>
  <time>2011-11-22T18:26:23Z</time>
  <speed>1.250000</speed>
</trkpt>
<trkpt lat="32.614040375" lon="35.119491577">
  <ele>135.216064</ele>
  <time>2011-11-22T18:26:25Z</time>
  <speed>1.380000</speed>
</trkpt>
<trkpt lat="32.614002228" lon="35.119503021">
  <ele>134.829346</ele>
  <time>2011-11-22T18:26:27Z</time>
  <speed>1.740000</speed>
</trkpt>
<trkpt lat="32.613971710" lon="35.119499207">
  <ele>135.665283</ele>
  <time>2011-11-22T18:26:28Z</time>
  <speed>1.790000</speed>
</trkpt>
<trkpt lat="32.613945007" lon="35.119480133">
  <ele>135.716064</ele>
  <time>2011-11-22T18:26:29Z</time>
  <speed>2.470000</speed>
</trkpt>
<trkpt lat="32.613891602" lon="35.119464874">
  <ele>135.602783</ele>
  <time>2011-11-22T18:26:31Z</time>
  <speed>2.660000</speed>
</trkpt>
<trkpt lat="32.613857269" lon="35.119453430">
  <ele>135.641846</ele>
  <time>2011-11-22T18:26:32Z</time>
  <speed>3.400000</speed>
</trkpt>
<trkpt lat="32.613822937" lon="35.119441986">
  <ele>135.341064</ele>
  <time>2011-11-22T18:26:33Z</time>
  <speed>3.600000</speed>
</trkpt>
<trkpt lat="32.613788605" lon="35.119438171">
  <ele>135.313721</ele>
  <time>2011-11-22T18:26:34Z</time>
  <speed>3.580000</speed>
</trkpt>
<trkpt lat="32.613754272" lon="35.119434357">
  <ele>135.274658</ele>
  <time>2011-11-22T18:26:35Z</time>
  <speed>3.260000</speed>
</trkpt>
<trkpt lat="32.613723755" lon="35.119441986">
  <ele>134.903564</ele>
  <time>2011-11-22T18:26:36Z</time>
  <speed>2.870000</speed>
</trkpt>
<trkpt lat="32.613689423" lon="35.119441986">
  <ele>135.235596</ele>
  <time>2011-11-22T18:26:37Z</time>
  <speed>3.000000</speed>
</trkpt>
<trkpt lat="32.613655090" lon="35.119457245">
  <ele>135.298096</ele>
  <time>2011-11-22T18:26:38Z</time>
  <speed>2.790000</speed>
</trkpt>
<trkpt lat="32.613594055" lon="35.119464874">
  <ele>134.844971</ele>
  <time>2011-11-22T18:26:40Z</time>
  <speed>2.410000</speed>
</trkpt>
<trkpt lat="32.613544464" lon="35.119491577">
  <ele>134.868408</ele>
  <time>2011-11-22T18:26:42Z</time>
  <speed>2.340000</speed>
</trkpt>
<trkpt lat="32.613517761" lon="35.119506836">
  <ele>135.294189</ele>
  <time>2011-11-22T18:26:43Z</time>
  <speed>2.380000</speed>
</trkpt>
<trkpt lat="32.613479614" lon="35.119514465">
  <ele>136.177002</ele>
  <time>2011-11-22T18:26:44Z</time>
  <speed>2.390000</speed>
</trkpt>
<trkpt lat="32.613445282" lon="35.119548798">
  <ele>135.684814</ele>
  <time>2011-11-22T18:26:45Z</time>
  <speed>2.290000</speed>
</trkpt>
<trkpt lat="32.613407135" lon="35.119571686">
  <ele>135.126221</ele>
  <time>2011-11-22T18:26:46Z</time>
  <speed>2.750000</speed>
</trkpt>
<trkpt lat="32.613357544" lon="35.119575500">
  <ele>135.098877</ele>
  <time>2011-11-22T18:26:48Z</time>
  <speed>2.080000</speed>
</trkpt>
<trkpt lat="32.613330841" lon="35.119583130">
  <ele>135.134033</ele>
  <time>2011-11-22T18:26:49Z</time>
  <speed>2.250000</speed>
</trkpt>
<trkpt lat="32.613285065" lon="35.119598389">
  <ele>135.762939</ele>
  <time>2011-11-22T18:26:51Z</time>
  <speed>1.670000</speed>
</trkpt>
<trkpt lat="32.613250732" lon="35.119617462">
  <ele>135.802002</ele>
  <time>2011-11-22T18:26:52Z</time>
  <speed>2.500000</speed>
</trkpt>
<trkpt lat="32.613204956" lon="35.119651794">
  <ele>135.817627</ele>
  <time>2011-11-22T18:26:54Z</time>
  <speed>2.360000</speed>
</trkpt>
<trkpt lat="32.613155365" lon="35.119663239">
  <ele>136.356689</ele>
  <time>2011-11-22T18:26:56Z</time>
  <speed>2.270000</speed>
</trkpt>
<trkpt lat="32.613105774" lon="35.119689941">
  <ele>136.825439</ele>
  <time>2011-11-22T18:26:58Z</time>
  <speed>2.070000</speed>
</trkpt>
<trkpt lat="32.613082886" lon="35.119709015">
  <ele>137.344971</ele>
  <time>2011-11-22T18:26:59Z</time>
  <speed>2.600000</speed>
</trkpt>
<trkpt lat="32.613048553" lon="35.119731903">
  <ele>137.509033</ele>
  <time>2011-11-22T18:27:00Z</time>
  <speed>2.610000</speed>
</trkpt>
<trkpt lat="32.613025665" lon="35.119747162">
  <ele>137.669189</ele>
  <time>2011-11-22T18:27:01Z</time>
  <speed>2.640000</speed>
</trkpt>
<trkpt lat="32.612987518" lon="35.119785309">
  <ele>137.704346</ele>
  <time>2011-11-22T18:27:03Z</time>
  <speed>2.740000</speed>
</trkpt>
<trkpt lat="32.612960815" lon="35.119804382">
  <ele>138.794189</ele>
  <time>2011-11-22T18:27:04Z</time>
  <speed>2.700000</speed>
</trkpt>
<trkpt lat="32.612937927" lon="35.119819641">
  <ele>138.915283</ele>
  <time>2011-11-22T18:27:05Z</time>
  <speed>2.780000</speed>
</trkpt>
<trkpt lat="32.612903595" lon="35.119831085">
  <ele>139.333252</ele>
  <time>2011-11-22T18:27:06Z</time>
  <speed>2.990000</speed>
</trkpt>
<trkpt lat="32.612880707" lon="35.119850159">
  <ele>139.430908</ele>
  <time>2011-11-22T18:27:07Z</time>
  <speed>3.070000</speed>
</trkpt>
<trkpt lat="32.612842560" lon="35.119857788">
  <ele>139.059814</ele>
  <time>2011-11-22T18:27:08Z</time>
  <speed>3.440000</speed>
</trkpt>
<trkpt lat="32.612808228" lon="35.119876862">
  <ele>139.997314</ele>
  <time>2011-11-22T18:27:09Z</time>
  <speed>3.550000</speed>
</trkpt>
<trkpt lat="32.612773895" lon="35.119892120">
  <ele>141.247314</ele>
  <time>2011-11-22T18:27:10Z</time>
  <speed>3.020000</speed>
</trkpt>
<trkpt lat="32.612751007" lon="35.119918823">
  <ele>141.692627</ele>
  <time>2011-11-22T18:27:11Z</time>
  <speed>3.060000</speed>
</trkpt>
<trkpt lat="32.612731934" lon="35.119941711">
  <ele>141.173096</ele>
  <time>2011-11-22T18:27:12Z</time>
  <speed>3.040000</speed>
</trkpt>
<trkpt lat="32.612705231" lon="35.119964600">
  <ele>141.641846</ele>
  <time>2011-11-22T18:27:13Z</time>
  <speed>2.290000</speed>
</trkpt>
<trkpt lat="32.612667084" lon="35.120006561">
  <ele>143.509033</ele>
  <time>2011-11-22T18:27:15Z</time>
  <speed>2.940000</speed>
</trkpt>
<trkpt lat="32.612640381" lon="35.120040894">
  <ele>142.723877</ele>
  <time>2011-11-22T18:27:16Z</time>
  <speed>3.260000</speed>
</trkpt>
<trkpt lat="32.612628937" lon="35.120075226">
  <ele>140.747314</ele>
  <time>2011-11-22T18:27:17Z</time>
  <speed>3.000000</speed>
</trkpt>
<trkpt lat="32.612609863" lon="35.120113373">
  <ele>140.809814</ele>
  <time>2011-11-22T18:27:18Z</time>
  <speed>2.420000</speed>
</trkpt>
<trkpt lat="32.612594604" lon="35.120140076">
  <ele>141.802002</ele>
  <time>2011-11-22T18:27:19Z</time>
  <speed>2.140000</speed>
</trkpt>
<trkpt lat="32.612564087" lon="35.120178223">
  <ele>140.622314</ele>
  <time>2011-11-22T18:27:21Z</time>
  <speed>2.470000</speed>
</trkpt>
<trkpt lat="32.612552643" lon="35.120212555">
  <ele>138.954346</ele>
  <time>2011-11-22T18:27:22Z</time>
  <speed>2.690000</speed>
</trkpt>
<trkpt lat="32.612541199" lon="35.120246887">
  <ele>139.180908</ele>
  <time>2011-11-22T18:27:23Z</time>
  <speed>2.960000</speed>
</trkpt>
<trkpt lat="32.612533569" lon="35.120285034">
  <ele>140.098877</ele>
  <time>2011-11-22T18:27:24Z</time>
  <speed>2.670000</speed>
</trkpt>
<trkpt lat="32.612525940" lon="35.120326996">
  <ele>142.063721</ele>
  <time>2011-11-22T18:27:25Z</time>
  <speed>2.440000</speed>
</trkpt>
<trkpt lat="32.612506866" lon="35.120380402">
  <ele>142.126221</ele>
  <time>2011-11-22T18:27:27Z</time>
  <speed>2.310000</speed>
</trkpt>
<trkpt lat="32.612506866" lon="35.120429993">
  <ele>141.786377</ele>
  <time>2011-11-22T18:27:29Z</time>
  <speed>1.860000</speed>
</trkpt>
<trkpt lat="32.612495422" lon="35.120471954">
  <ele>142.516846</ele>
  <time>2011-11-22T18:27:31Z</time>
  <speed>1.690000</speed>
</trkpt>
<trkpt lat="32.612472534" lon="35.120510101">
  <ele>142.985596</ele>
  <time>2011-11-22T18:27:33Z</time>
  <speed>1.870000</speed>
</trkpt>
<trkpt lat="32.612442017" lon="35.120529175">
  <ele>142.860596</ele>
  <time>2011-11-22T18:27:35Z</time>
  <speed>1.580000</speed>
</trkpt>
<trkpt lat="32.612407684" lon="35.120552063">
  <ele>143.239502</ele>
  <time>2011-11-22T18:27:37Z</time>
  <speed>2.000000</speed>
</trkpt>
<trkpt lat="32.612373352" lon="35.120555878">
  <ele>142.981689</ele>
  <time>2011-11-22T18:27:39Z</time>
  <speed>1.880000</speed>
</trkpt>
<trkpt lat="32.612342834" lon="35.120559692">
  <ele>145.880127</ele>
  <time>2011-11-22T18:27:40Z</time>
  <speed>1.210000</speed>
</trkpt>
<trkpt lat="32.612316132" lon="35.120548248">
  <ele>145.930908</ele>
  <time>2011-11-22T18:27:42Z</time>
  <speed>1.450000</speed>
</trkpt>
<trkpt lat="32.612274170" lon="35.120521545">
  <ele>145.313721</ele>
  <time>2011-11-22T18:27:44Z</time>
  <speed>2.230000</speed>
</trkpt>
<trkpt lat="32.612239838" lon="35.120494843">
  <ele>145.653564</ele>
  <time>2011-11-22T18:27:46Z</time>
  <speed>2.100000</speed>
</trkpt>
<trkpt lat="32.612201691" lon="35.120468140">
  <ele>145.387939</ele>
  <time>2011-11-22T18:27:48Z</time>
  <speed>1.980000</speed>
</trkpt>
<trkpt lat="32.612174988" lon="35.120429993">
  <ele>144.751221</ele>
  <time>2011-11-22T18:27:50Z</time>
  <speed>1.290000</speed>
</trkpt>
<trkpt lat="32.612155914" lon="35.120399475">
  <ele>145.157471</ele>
  <time>2011-11-22T18:27:52Z</time>
  <speed>1.170000</speed>
</trkpt>
<trkpt lat="32.612121582" lon="35.120384216">
  <ele>145.391846</ele>
  <time>2011-11-22T18:27:54Z</time>
  <speed>1.360000</speed>
</trkpt>
<trkpt lat="32.612083435" lon="35.120361328">
  <ele>146.130127</ele>
  <time>2011-11-22T18:27:56Z</time>
  <speed>1.600000</speed>
</trkpt>
<trkpt lat="32.612037659" lon="35.120342255">
  <ele>145.946533</ele>
  <time>2011-11-22T18:27:58Z</time>
  <speed>1.990000</speed>
</trkpt>
<trkpt lat="32.611995697" lon="35.120326996">
  <ele>146.532471</ele>
  <time>2011-11-22T18:28:00Z</time>
  <speed>1.670000</speed>
</trkpt>
<trkpt lat="32.611953735" lon="35.120311737">
  <ele>146.376221</ele>
  <time>2011-11-22T18:28:02Z</time>
  <speed>0.970000</speed>
</trkpt>
<trkpt lat="32.611915588" lon="35.120296478">
  <ele>146.852783</ele>
  <time>2011-11-22T18:28:04Z</time>
  <speed>0.770000</speed>
</trkpt>
<trkpt lat="32.611896515" lon="35.120262146">
  <ele>147.829346</ele>
  <time>2011-11-22T18:28:06Z</time>
  <speed>1.770000</speed>
</trkpt>
<trkpt lat="32.611885071" lon="35.120223999">
  <ele>147.962158</ele>
  <time>2011-11-22T18:28:08Z</time>
  <speed>1.520000</speed>
</trkpt>
<trkpt lat="32.611900330" lon="35.120189667">
  <ele>149.098877</ele>
  <time>2011-11-22T18:28:10Z</time>
  <speed>1.840000</speed>
</trkpt>
<trkpt lat="32.611938477" lon="35.120155334">
  <ele>148.962158</ele>
  <time>2011-11-22T18:28:12Z</time>
  <speed>3.150000</speed>
</trkpt>
<trkpt lat="32.611961365" lon="35.120124817">
  <ele>148.571533</ele>
  <time>2011-11-22T18:28:13Z</time>
  <speed>3.800000</speed>
</trkpt>
<trkpt lat="32.611980438" lon="35.120094299">
  <ele>147.907471</ele>
  <time>2011-11-22T18:28:14Z</time>
  <speed>3.630000</speed>
</trkpt>
<trkpt lat="32.612007141" lon="35.120040894">
  <ele>148.481689</ele>
  <time>2011-11-22T18:28:15Z</time>
  <speed>5.730000</speed>
</trkpt>
<trkpt lat="32.612033844" lon="35.119991302">
  <ele>147.923096</ele>
  <time>2011-11-22T18:28:16Z</time>
  <speed>5.020000</speed>
</trkpt>
<trkpt lat="32.612064362" lon="35.119941711">
  <ele>147.376221</ele>
  <time>2011-11-22T18:28:17Z</time>
  <speed>5.480000</speed>
</trkpt>
<trkpt lat="32.612087250" lon="35.119861603">
  <ele>146.923096</ele>
  <time>2011-11-22T18:28:18Z</time>
  <speed>7.160000</speed>
</trkpt>
<trkpt lat="32.612113953" lon="35.119781494">
  <ele>146.024658</ele>
  <time>2011-11-22T18:28:19Z</time>
  <speed>7.790000</speed>
</trkpt>
<trkpt lat="32.612133026" lon="35.119705200">
  <ele>145.321533</ele>
  <time>2011-11-22T18:28:20Z</time>
  <speed>7.430000</speed>
</trkpt>
<trkpt lat="32.612129211" lon="35.119613647">
  <ele>144.848877</ele>
  <time>2011-11-22T18:28:21Z</time>
  <speed>6.960000</speed>
</trkpt>
<trkpt lat="32.612129211" lon="35.119537354">
  <ele>144.262939</ele>
  <time>2011-11-22T18:28:22Z</time>
  <speed>6.370000</speed>
</trkpt>
<trkpt lat="32.612125397" lon="35.119464874">
  <ele>143.712158</ele>
  <time>2011-11-22T18:28:23Z</time>
  <speed>6.380000</speed>
</trkpt>
<trkpt lat="32.612117767" lon="35.119400024">
  <ele>143.083252</ele>
  <time>2011-11-22T18:28:24Z</time>
  <speed>6.120000</speed>
</trkpt>
<trkpt lat="32.612102509" lon="35.119335175">
  <ele>142.376221</ele>
  <time>2011-11-22T18:28:25Z</time>
  <speed>6.290000</speed>
</trkpt>
<trkpt lat="32.612087250" lon="35.119270325">
  <ele>141.723877</ele>
  <time>2011-11-22T18:28:26Z</time>
  <speed>6.010000</speed>
</trkpt>
<trkpt lat="32.612068176" lon="35.119205475">
  <ele>141.087158</ele>
  <time>2011-11-22T18:28:27Z</time>
  <speed>5.940000</speed>
</trkpt>
<trkpt lat="32.612045288" lon="35.119144440">
  <ele>140.423096</ele>
  <time>2011-11-22T18:28:28Z</time>
  <speed>6.030000</speed>
</trkpt>
<trkpt lat="32.612022400" lon="35.119071960">
  <ele>139.915283</ele>
  <time>2011-11-22T18:28:29Z</time>
  <speed>6.040000</speed>
</trkpt>
<trkpt lat="32.611999512" lon="35.119014740">
  <ele>139.180908</ele>
  <time>2011-11-22T18:28:30Z</time>
  <speed>6.320000</speed>
</trkpt>
<trkpt lat="32.611949921" lon="35.118930817">
  <ele>138.106689</ele>
  <time>2011-11-22T18:28:31Z</time>
  <speed>6.260000</speed>
</trkpt>
<trkpt lat="32.611927032" lon="35.118869781">
  <ele>137.466064</ele>
  <time>2011-11-22T18:28:32Z</time>
  <speed>5.960000</speed>
</trkpt>
<trkpt lat="32.611904144" lon="35.118797302">
  <ele>136.907471</ele>
  <time>2011-11-22T18:28:33Z</time>
  <speed>5.460000</speed>
</trkpt>
<trkpt lat="32.611877441" lon="35.118743896">
  <ele>136.458252</ele>
  <time>2011-11-22T18:28:34Z</time>
  <speed>5.380000</speed>
</trkpt>
<trkpt lat="32.611858368" lon="35.118690491">
  <ele>135.766846</ele>
  <time>2011-11-22T18:28:35Z</time>
  <speed>4.920000</speed>
</trkpt>
<trkpt lat="32.611835480" lon="35.118648529">
  <ele>135.505127</ele>
  <time>2011-11-22T18:28:36Z</time>
  <speed>3.890000</speed>
</trkpt>
<trkpt lat="32.611816406" lon="35.118614197">
  <ele>135.071533</ele>
  <time>2011-11-22T18:28:37Z</time>
  <speed>2.840000</speed>
</trkpt>
<trkpt lat="32.611801147" lon="35.118583679">
  <ele>134.473877</ele>
  <time>2011-11-22T18:28:38Z</time>
  <speed>2.540000</speed>
</trkpt>
<trkpt lat="32.611785889" lon="35.118553162">
  <ele>133.962158</ele>
  <time>2011-11-22T18:28:39Z</time>
  <speed>2.270000</speed>
</trkpt>
<trkpt lat="32.611763000" lon="35.118530273">
  <ele>133.575439</ele>
  <time>2011-11-22T18:28:40Z</time>
  <speed>2.030000</speed>
</trkpt>
<trkpt lat="32.611740112" lon="35.118507385">
  <ele>133.110596</ele>
  <time>2011-11-22T18:28:41Z</time>
  <speed>2.260000</speed>
</trkpt>
<trkpt lat="32.611705780" lon="35.118461609">
  <ele>131.958252</ele>
  <time>2011-11-22T18:28:43Z</time>
  <speed>2.150000</speed>
</trkpt>
<trkpt lat="32.611671448" lon="35.118442535">
  <ele>131.196533</ele>
  <time>2011-11-22T18:28:44Z</time>
  <speed>2.660000</speed>
</trkpt>
<trkpt lat="32.611644745" lon="35.118423462">
  <ele>130.677002</ele>
  <time>2011-11-22T18:28:45Z</time>
  <speed>2.870000</speed>
</trkpt>
<trkpt lat="32.611625671" lon="35.118400574">
  <ele>129.899658</ele>
  <time>2011-11-22T18:28:46Z</time>
  <speed>2.640000</speed>
</trkpt>
<trkpt lat="32.611602783" lon="35.118377686">
  <ele>129.360596</ele>
  <time>2011-11-22T18:28:47Z</time>
  <speed>2.790000</speed>
</trkpt>
<trkpt lat="32.611576080" lon="35.118354797">
  <ele>128.692627</ele>
  <time>2011-11-22T18:28:48Z</time>
  <speed>2.780000</speed>
</trkpt>
<trkpt lat="32.611545563" lon="35.118331909">
  <ele>127.834595</ele>
  <time>2011-11-22T18:28:49Z</time>
  <speed>3.250000</speed>
</trkpt>
<trkpt lat="32.611522675" lon="35.118297577">
  <ele>127.154907</ele>
  <time>2011-11-22T18:28:50Z</time>
  <speed>2.840000</speed>
</trkpt>
<trkpt lat="32.611499786" lon="35.118274689">
  <ele>126.781860</ele>
  <time>2011-11-22T18:28:51Z</time>
  <speed>2.450000</speed>
</trkpt>
<trkpt lat="32.611450195" lon="35.118221283">
  <ele>125.475220</ele>
  <time>2011-11-22T18:28:53Z</time>
  <speed>2.550000</speed>
</trkpt>
<trkpt lat="32.611415863" lon="35.118183136">
  <ele>124.268188</ele>
  <time>2011-11-22T18:28:55Z</time>
  <speed>2.230000</speed>
</trkpt>
<trkpt lat="32.611400604" lon="35.118156433">
  <ele>123.838501</ele>
  <time>2011-11-22T18:28:56Z</time>
  <speed>1.930000</speed>
</trkpt>
<trkpt lat="32.611370087" lon="35.118106842">
  <ele>122.942017</ele>
  <time>2011-11-22T18:28:59Z</time>
  <speed>2.130000</speed>
</trkpt>
<trkpt lat="32.611347198" lon="35.118083954">
  <ele>122.797485</ele>
  <time>2011-11-22T18:29:00Z</time>
  <speed>2.100000</speed>
</trkpt>
<trkpt lat="32.611312866" lon="35.118034363">
  <ele>122.084595</ele>
  <time>2011-11-22T18:29:02Z</time>
  <speed>1.980000</speed>
</trkpt>
<trkpt lat="32.611301422" lon="35.117984772">
  <ele>121.483032</ele>
  <time>2011-11-22T18:29:03Z</time>
  <speed>2.180000</speed>
</trkpt>
<trkpt lat="32.611282349" lon="35.117958069">
  <ele>121.111938</ele>
  <time>2011-11-22T18:29:04Z</time>
  <speed>1.860000</speed>
</trkpt>
<trkpt lat="32.611251831" lon="35.117889404">
  <ele>120.529907</ele>
  <time>2011-11-22T18:29:06Z</time>
  <speed>2.340000</speed>
</trkpt>
<trkpt lat="32.611240387" lon="35.117832184">
  <ele>119.875610</ele>
  <time>2011-11-22T18:29:08Z</time>
  <speed>1.870000</speed>
</trkpt>
<trkpt lat="32.611213684" lon="35.117794037">
  <ele>119.354126</ele>
  <time>2011-11-22T18:29:10Z</time>
  <speed>1.360000</speed>
</trkpt>
<trkpt lat="32.611194611" lon="35.117733002">
  <ele>119.233032</ele>
  <time>2011-11-22T18:29:12Z</time>
  <speed>1.700000</speed>
</trkpt>
<trkpt lat="32.611160278" lon="35.117713928">
  <ele>118.543579</ele>
  <time>2011-11-22T18:29:13Z</time>
  <speed>1.920000</speed>
</trkpt>
<trkpt lat="32.611133575" lon="35.117675781">
  <ele>117.617798</ele>
  <time>2011-11-22T18:29:15Z</time>
  <speed>2.090000</speed>
</trkpt>
<trkpt lat="32.611106873" lon="35.117649078">
  <ele>117.684204</ele>
  <time>2011-11-22T18:29:16Z</time>
  <speed>2.240000</speed>
</trkpt>
<trkpt lat="32.611091614" lon="35.117607117">
  <ele>117.639282</ele>
  <time>2011-11-22T18:29:17Z</time>
  <speed>2.270000</speed>
</trkpt>
<trkpt lat="32.611053467" lon="35.117576599">
  <ele>117.955688</ele>
  <time>2011-11-22T18:29:18Z</time>
  <speed>2.220000</speed>
</trkpt>
<trkpt lat="32.611019135" lon="35.117538452">
  <ele>117.504517</ele>
  <time>2011-11-22T18:29:20Z</time>
  <speed>2.040000</speed>
</trkpt>
<trkpt lat="32.611000061" lon="35.117507935">
  <ele>116.961548</ele>
  <time>2011-11-22T18:29:21Z</time>
  <speed>2.050000</speed>
</trkpt>
<trkpt lat="32.610954285" lon="35.117477417">
  <ele>117.953735</ele>
  <time>2011-11-22T18:29:23Z</time>
  <speed>1.700000</speed>
</trkpt>
<trkpt lat="32.610908508" lon="35.117454529">
  <ele>120.285767</ele>
  <time>2011-11-22T18:29:25Z</time>
  <speed>1.780000</speed>
</trkpt>
<trkpt lat="32.610885620" lon="35.117427826">
  <ele>120.438110</ele>
  <time>2011-11-22T18:29:26Z</time>
  <speed>1.820000</speed>
</trkpt>
<trkpt lat="32.610866547" lon="35.117401123">
  <ele>120.518188</ele>
  <time>2011-11-22T18:29:27Z</time>
  <speed>2.070000</speed>
</trkpt>
<trkpt lat="32.610828400" lon="35.117370605">
  <ele>120.037720</ele>
  <time>2011-11-22T18:29:29Z</time>
  <speed>2.420000</speed>
</trkpt>
<trkpt lat="32.610797882" lon="35.117343903">
  <ele>119.967407</ele>
  <time>2011-11-22T18:29:30Z</time>
  <speed>2.880000</speed>
</trkpt>
<trkpt lat="32.610755920" lon="35.117321014">
  <ele>120.006470</ele>
  <time>2011-11-22T18:29:31Z</time>
  <speed>2.810000</speed>
</trkpt>
<trkpt lat="32.610725403" lon="35.117294312">
  <ele>119.629517</ele>
  <time>2011-11-22T18:29:32Z</time>
  <speed>3.530000</speed>
</trkpt>
<trkpt lat="32.610698700" lon="35.117271423">
  <ele>118.904907</ele>
  <time>2011-11-22T18:29:33Z</time>
  <speed>3.520000</speed>
</trkpt>
<trkpt lat="32.610652924" lon="35.117244720">
  <ele>118.776001</ele>
  <time>2011-11-22T18:29:34Z</time>
  <speed>3.900000</speed>
</trkpt>
<trkpt lat="32.610614777" lon="35.117221832">
  <ele>118.389282</ele>
  <time>2011-11-22T18:29:35Z</time>
  <speed>4.100000</speed>
</trkpt>
<trkpt lat="32.610572815" lon="35.117214203">
  <ele>118.219360</ele>
  <time>2011-11-22T18:29:36Z</time>
  <speed>3.600000</speed>
</trkpt>
<trkpt lat="32.610538483" lon="35.117202759">
  <ele>117.969360</ele>
  <time>2011-11-22T18:29:37Z</time>
  <speed>2.820000</speed>
</trkpt>
<trkpt lat="32.610507965" lon="35.117198944">
  <ele>118.010376</ele>
  <time>2011-11-22T18:29:38Z</time>
  <speed>2.910000</speed>
</trkpt>
<trkpt lat="32.610469818" lon="35.117195129">
  <ele>118.117798</ele>
  <time>2011-11-22T18:29:39Z</time>
  <speed>3.020000</speed>
</trkpt>
<trkpt lat="32.610435486" lon="35.117191315">
  <ele>117.842407</ele>
  <time>2011-11-22T18:29:40Z</time>
  <speed>3.070000</speed>
</trkpt>
<trkpt lat="32.610404968" lon="35.117187500">
  <ele>117.539673</ele>
  <time>2011-11-22T18:29:41Z</time>
  <speed>2.980000</speed>
</trkpt>
<trkpt lat="32.610370636" lon="35.117187500">
  <ele>116.760376</ele>
  <time>2011-11-22T18:29:42Z</time>
  <speed>2.830000</speed>
</trkpt>
<trkpt lat="32.610321045" lon="35.117187500">
  <ele>115.529907</ele>
  <time>2011-11-22T18:29:44Z</time>
  <speed>1.980000</speed>
</trkpt>
<trkpt lat="32.610271454" lon="35.117176056">
  <ele>113.889282</ele>
  <time>2011-11-22T18:29:46Z</time>
  <speed>2.790000</speed>
</trkpt>
<trkpt lat="32.610237122" lon="35.117172241">
  <ele>113.588501</ele>
  <time>2011-11-22T18:29:47Z</time>
  <speed>2.370000</speed>
</trkpt>
<trkpt lat="32.610206604" lon="35.117183685">
  <ele>113.047485</ele>
  <time>2011-11-22T18:29:48Z</time>
  <speed>2.460000</speed>
</trkpt>
<trkpt lat="32.610157013" lon="35.117198944">
  <ele>111.949829</ele>
  <time>2011-11-22T18:29:50Z</time>
  <speed>2.690000</speed>
</trkpt>
<trkpt lat="32.610115051" lon="35.117214203">
  <ele>110.678345</ele>
  <time>2011-11-22T18:29:52Z</time>
  <speed>2.110000</speed>
</trkpt>
<trkpt lat="32.610065460" lon="35.117221832">
  <ele>110.156860</ele>
  <time>2011-11-22T18:29:54Z</time>
  <speed>2.200000</speed>
</trkpt>
<trkpt lat="32.610012054" lon="35.117259979">
  <ele>109.418579</ele>
  <time>2011-11-22T18:29:56Z</time>
  <speed>1.750000</speed>
</trkpt>
<trkpt lat="32.609962463" lon="35.117263794">
  <ele>109.108032</ele>
  <time>2011-11-22T18:29:58Z</time>
  <speed>1.480000</speed>
</trkpt>
<trkpt lat="32.609909058" lon="35.117275238">
  <ele>108.301392</ele>
  <time>2011-11-22T18:30:00Z</time>
  <speed>2.200000</speed>
</trkpt>
<trkpt lat="32.609859467" lon="35.117282867">
  <ele>107.207642</ele>
  <time>2011-11-22T18:30:02Z</time>
  <speed>2.390000</speed>
</trkpt>
<trkpt lat="32.609806061" lon="35.117279053">
  <ele>107.170532</ele>
  <time>2011-11-22T18:30:04Z</time>
  <speed>1.940000</speed>
</trkpt>
<trkpt lat="32.609775543" lon="35.117275238">
  <ele>107.690063</ele>
  <time>2011-11-22T18:30:05Z</time>
  <speed>2.270000</speed>
</trkpt>
<trkpt lat="32.609748840" lon="35.117267609">
  <ele>108.477173</ele>
  <time>2011-11-22T18:30:06Z</time>
  <speed>2.120000</speed>
</trkpt>
<trkpt lat="32.609699249" lon="35.117271423">
  <ele>107.342407</ele>
  <time>2011-11-22T18:30:08Z</time>
  <speed>2.020000</speed>
</trkpt>
<trkpt lat="32.609645844" lon="35.117282867">
  <ele>106.322876</ele>
  <time>2011-11-22T18:30:10Z</time>
  <speed>2.340000</speed>
</trkpt>
<trkpt lat="32.609615326" lon="35.117282867">
  <ele>107.178345</ele>
  <time>2011-11-22T18:30:11Z</time>
  <speed>2.310000</speed>
</trkpt>
<trkpt lat="32.609580994" lon="35.117275238">
  <ele>108.010376</ele>
  <time>2011-11-22T18:30:12Z</time>
  <speed>2.440000</speed>
</trkpt>
<trkpt lat="32.609550476" lon="35.117271423">
  <ele>107.543579</ele>
  <time>2011-11-22T18:30:13Z</time>
  <speed>2.450000</speed>
</trkpt>
<trkpt lat="32.609519958" lon="35.117271423">
  <ele>107.701782</ele>
  <time>2011-11-22T18:30:14Z</time>
  <speed>2.320000</speed>
</trkpt>
<trkpt lat="32.609485626" lon="35.117267609">
  <ele>108.852173</ele>
  <time>2011-11-22T18:30:15Z</time>
  <speed>2.240000</speed>
</trkpt>
<trkpt lat="32.609439850" lon="35.117294312">
  <ele>109.381470</ele>
  <time>2011-11-22T18:30:16Z</time>
  <speed>2.650000</speed>
</trkpt>
<trkpt lat="32.609405518" lon="35.117279053">
  <ele>109.557251</ele>
  <time>2011-11-22T18:30:17Z</time>
  <speed>2.920000</speed>
</trkpt>
<trkpt lat="32.609371185" lon="35.117275238">
  <ele>109.629517</ele>
  <time>2011-11-22T18:30:18Z</time>
  <speed>2.970000</speed>
</trkpt>
<trkpt lat="32.609340668" lon="35.117267609">
  <ele>109.414673</ele>
  <time>2011-11-22T18:30:19Z</time>
  <speed>2.670000</speed>
</trkpt>
<trkpt lat="32.609310150" lon="35.117263794">
  <ele>109.875610</ele>
  <time>2011-11-22T18:30:20Z</time>
  <speed>2.640000</speed>
</trkpt>
<trkpt lat="32.609275818" lon="35.117256165">
  <ele>110.908813</ele>
  <time>2011-11-22T18:30:21Z</time>
  <speed>2.870000</speed>
</trkpt>
<trkpt lat="32.609249115" lon="35.117252350">
  <ele>110.481079</ele>
  <time>2011-11-22T18:30:22Z</time>
  <speed>2.910000</speed>
</trkpt>
<trkpt lat="32.609214783" lon="35.117240906">
  <ele>110.455688</ele>
  <time>2011-11-22T18:30:23Z</time>
  <speed>2.780000</speed>
</trkpt>
<trkpt lat="32.609188080" lon="35.117237091">
  <ele>110.156860</ele>
  <time>2011-11-22T18:30:24Z</time>
  <speed>2.660000</speed>
</trkpt>
<trkpt lat="32.609161377" lon="35.117240906">
  <ele>109.994751</ele>
  <time>2011-11-22T18:30:25Z</time>
  <speed>2.390000</speed>
</trkpt>
<trkpt lat="32.609107971" lon="35.117256165">
  <ele>109.242798</ele>
  <time>2011-11-22T18:30:27Z</time>
  <speed>2.130000</speed>
</trkpt>
<trkpt lat="32.609069824" lon="35.117256165">
  <ele>108.963501</ele>
  <time>2011-11-22T18:30:29Z</time>
  <speed>1.740000</speed>
</trkpt>
<trkpt lat="32.609027863" lon="35.117267609">
  <ele>108.998657</ele>
  <time>2011-11-22T18:30:31Z</time>
  <speed>1.710000</speed>
</trkpt>
<trkpt lat="32.608989716" lon="35.117271423">
  <ele>108.281860</ele>
  <time>2011-11-22T18:30:33Z</time>
  <speed>1.500000</speed>
</trkpt>
<trkpt lat="32.608955383" lon="35.117275238">
  <ele>108.731079</ele>
  <time>2011-11-22T18:30:34Z</time>
  <speed>1.980000</speed>
</trkpt>
<trkpt lat="32.608921051" lon="35.117294312">
  <ele>108.846313</ele>
  <time>2011-11-22T18:30:35Z</time>
  <speed>1.700000</speed>
</trkpt>
<trkpt lat="32.608863831" lon="35.117317200">
  <ele>108.838501</ele>
  <time>2011-11-22T18:30:37Z</time>
  <speed>1.870000</speed>
</trkpt>
<trkpt lat="32.608818054" lon="35.117321014">
  <ele>108.031860</ele>
  <time>2011-11-22T18:30:39Z</time>
  <speed>2.130000</speed>
</trkpt>
<trkpt lat="32.608787537" lon="35.117324829">
  <ele>107.838501</ele>
  <time>2011-11-22T18:30:40Z</time>
  <speed>2.390000</speed>
</trkpt>
<trkpt lat="32.608757019" lon="35.117332458">
  <ele>107.652954</ele>
  <time>2011-11-22T18:30:41Z</time>
  <speed>2.120000</speed>
</trkpt>
<trkpt lat="32.608726501" lon="35.117343903">
  <ele>107.375610</ele>
  <time>2011-11-22T18:30:42Z</time>
  <speed>1.990000</speed>
</trkpt>
<trkpt lat="32.608707428" lon="35.117366791">
  <ele>107.078735</ele>
  <time>2011-11-22T18:30:43Z</time>
  <speed>2.110000</speed>
</trkpt>
<trkpt lat="32.608673096" lon="35.117435455">
  <ele>106.434204</ele>
  <time>2011-11-22T18:30:45Z</time>
  <speed>2.230000</speed>
</trkpt>
<trkpt lat="32.608627319" lon="35.117454529">
  <ele>105.473267</ele>
  <time>2011-11-22T18:30:47Z</time>
  <speed>2.220000</speed>
</trkpt>
<trkpt lat="32.608596802" lon="35.117446899">
  <ele>104.805298</ele>
  <time>2011-11-22T18:30:48Z</time>
  <speed>2.260000</speed>
</trkpt>
<trkpt lat="32.608551025" lon="35.117424011">
  <ele>103.707642</ele>
  <time>2011-11-22T18:30:50Z</time>
  <speed>1.980000</speed>
</trkpt>
<trkpt lat="32.608501434" lon="35.117427826">
  <ele>103.246704</ele>
  <time>2011-11-22T18:30:52Z</time>
  <speed>2.040000</speed>
</trkpt>
<trkpt lat="32.608470917" lon="35.117420197">
  <ele>102.828735</ele>
  <time>2011-11-22T18:30:53Z</time>
  <speed>2.230000</speed>
</trkpt>
<trkpt lat="32.608444214" lon="35.117412567">
  <ele>102.109985</ele>
  <time>2011-11-22T18:30:54Z</time>
  <speed>2.230000</speed>
</trkpt>
<trkpt lat="32.608394623" lon="35.117401123">
  <ele>101.156860</ele>
  <time>2011-11-22T18:30:56Z</time>
  <speed>2.390000</speed>
</trkpt>
<trkpt lat="32.608348846" lon="35.117397308">
  <ele>99.951782</ele>
  <time>2011-11-22T18:30:58Z</time>
  <speed>2.450000</speed>
</trkpt>
<trkpt lat="32.608325958" lon="35.117374420">
  <ele>99.988892</ele>
  <time>2011-11-22T18:30:59Z</time>
  <speed>2.600000</speed>
</trkpt>
<trkpt lat="32.608295441" lon="35.117366791">
  <ele>100.022095</ele>
  <time>2011-11-22T18:31:00Z</time>
  <speed>2.900000</speed>
</trkpt>
<trkpt lat="32.608264923" lon="35.117366791">
  <ele>100.029907</ele>
  <time>2011-11-22T18:31:01Z</time>
  <speed>2.840000</speed>
</trkpt>
<trkpt lat="32.608234406" lon="35.117362976">
  <ele>99.949829</ele>
  <time>2011-11-22T18:31:02Z</time>
  <speed>2.890000</speed>
</trkpt>
<trkpt lat="32.608181000" lon="35.117359161">
  <ele>99.139282</ele>
  <time>2011-11-22T18:31:04Z</time>
  <speed>3.060000</speed>
</trkpt>
<trkpt lat="32.608154297" lon="35.117343903">
  <ele>98.748657</ele>
  <time>2011-11-22T18:31:05Z</time>
  <speed>2.910000</speed>
</trkpt>
<trkpt lat="32.608127594" lon="35.117336273">
  <ele>98.303345</ele>
  <time>2011-11-22T18:31:06Z</time>
  <speed>3.070000</speed>
</trkpt>
<trkpt lat="32.608089447" lon="35.117305756">
  <ele>98.867798</ele>
  <time>2011-11-22T18:31:07Z</time>
  <speed>3.060000</speed>
</trkpt>
<trkpt lat="32.608062744" lon="35.117290497">
  <ele>99.553345</ele>
  <time>2011-11-22T18:31:08Z</time>
  <speed>2.920000</speed>
</trkpt>
<trkpt lat="32.608028412" lon="35.117282867">
  <ele>99.707642</ele>
  <time>2011-11-22T18:31:09Z</time>
  <speed>3.080000</speed>
</trkpt>
<trkpt lat="32.607990265" lon="35.117279053">
  <ele>99.209595</ele>
  <time>2011-11-22T18:31:10Z</time>
  <speed>3.220000</speed>
</trkpt>
<trkpt lat="32.607959747" lon="35.117267609">
  <ele>98.893188</ele>
  <time>2011-11-22T18:31:11Z</time>
  <speed>3.470000</speed>
</trkpt>
<trkpt lat="32.607929230" lon="35.117259979">
  <ele>98.262329</ele>
  <time>2011-11-22T18:31:12Z</time>
  <speed>3.260000</speed>
</trkpt>
<trkpt lat="32.607894897" lon="35.117256165">
  <ele>98.613892</ele>
  <time>2011-11-22T18:31:13Z</time>
  <speed>2.880000</speed>
</trkpt>
<trkpt lat="32.607856750" lon="35.117237091">
  <ele>98.162720</ele>
  <time>2011-11-22T18:31:14Z</time>
  <speed>2.820000</speed>
</trkpt>
<trkpt lat="32.607826233" lon="35.117202759">
  <ele>97.463501</ele>
  <time>2011-11-22T18:31:16Z</time>
  <speed>3.030000</speed>
</trkpt>
<trkpt lat="32.607803345" lon="35.117179871">
  <ele>98.764282</ele>
  <time>2011-11-22T18:31:17Z</time>
  <speed>3.170000</speed>
</trkpt>
<trkpt lat="32.607761383" lon="35.117095947">
  <ele>103.590454</ele>
  <time>2011-11-22T18:31:18Z</time>
  <speed>3.130000</speed>
</trkpt>
<trkpt lat="32.607738495" lon="35.117084503">
  <ele>104.031860</ele>
  <time>2011-11-22T18:31:19Z</time>
  <speed>3.310000</speed>
</trkpt>
<trkpt lat="32.607696533" lon="35.117069244">
  <ele>104.891235</ele>
  <time>2011-11-22T18:31:21Z</time>
  <speed>2.920000</speed>
</trkpt>
<trkpt lat="32.607662201" lon="35.117019653">
  <ele>104.723267</ele>
  <time>2011-11-22T18:31:23Z</time>
  <speed>2.760000</speed>
</trkpt>
<trkpt lat="32.607643127" lon="35.117000580">
  <ele>105.152954</ele>
  <time>2011-11-22T18:31:24Z</time>
  <speed>3.060000</speed>
</trkpt>
<trkpt lat="32.607620239" lon="35.116970062">
  <ele>105.318970</ele>
  <time>2011-11-22T18:31:25Z</time>
  <speed>3.000000</speed>
</trkpt>
<trkpt lat="32.607597351" lon="35.116947174">
  <ele>105.178345</ele>
  <time>2011-11-22T18:31:26Z</time>
  <speed>2.930000</speed>
</trkpt>
<trkpt lat="32.607570648" lon="35.116924286">
  <ele>105.158813</ele>
  <time>2011-11-22T18:31:27Z</time>
  <speed>3.240000</speed>
</trkpt>
<trkpt lat="32.607540131" lon="35.116901398">
  <ele>104.471313</ele>
  <time>2011-11-22T18:31:28Z</time>
  <speed>3.600000</speed>
</trkpt>
<trkpt lat="32.607517242" lon="35.116882324">
  <ele>104.533813</ele>
  <time>2011-11-22T18:31:29Z</time>
  <speed>3.350000</speed>
</trkpt>
<trkpt lat="32.607486725" lon="35.116859436">
  <ele>104.754517</ele>
  <time>2011-11-22T18:31:30Z</time>
  <speed>3.220000</speed>
</trkpt>
<trkpt lat="32.607460022" lon="35.116851807">
  <ele>104.506470</ele>
  <time>2011-11-22T18:31:31Z</time>
  <speed>2.990000</speed>
</trkpt>
<trkpt lat="32.607429504" lon="35.116840363">
  <ele>104.557251</ele>
  <time>2011-11-22T18:31:32Z</time>
  <speed>3.110000</speed>
</trkpt>
<trkpt lat="32.607383728" lon="35.116775513">
  <ele>110.375610</ele>
  <time>2011-11-22T18:31:33Z</time>
  <speed>3.350000</speed>
</trkpt>
<trkpt lat="32.607349396" lon="35.116764069">
  <ele>111.262329</ele>
  <time>2011-11-22T18:31:34Z</time>
  <speed>3.160000</speed>
</trkpt>
<trkpt lat="32.607315063" lon="35.116744995">
  <ele>111.516235</ele>
  <time>2011-11-22T18:31:35Z</time>
  <speed>3.140000</speed>
</trkpt>
<trkpt lat="32.607288361" lon="35.116725922">
  <ele>111.590454</ele>
  <time>2011-11-22T18:31:36Z</time>
  <speed>3.240000</speed>
</trkpt>
<trkpt lat="32.607254028" lon="35.116703033">
  <ele>111.795532</ele>
  <time>2011-11-22T18:31:37Z</time>
  <speed>3.260000</speed>
</trkpt>
<trkpt lat="32.607227325" lon="35.116687775">
  <ele>111.418579</ele>
  <time>2011-11-22T18:31:38Z</time>
  <speed>3.060000</speed>
</trkpt>
<trkpt lat="32.607196808" lon="35.116676331">
  <ele>111.469360</ele>
  <time>2011-11-22T18:31:39Z</time>
  <speed>3.020000</speed>
</trkpt>
<trkpt lat="32.607166290" lon="35.116645813">
  <ele>113.531860</ele>
  <time>2011-11-22T18:31:40Z</time>
  <speed>3.240000</speed>
</trkpt>
<trkpt lat="32.607139587" lon="35.116622925">
  <ele>113.705688</ele>
  <time>2011-11-22T18:31:41Z</time>
  <speed>3.050000</speed>
</trkpt>
<trkpt lat="32.607109070" lon="35.116611481">
  <ele>114.172485</ele>
  <time>2011-11-22T18:31:42Z</time>
  <speed>3.210000</speed>
</trkpt>
<trkpt lat="32.607082367" lon="35.116592407">
  <ele>114.561157</ele>
  <time>2011-11-22T18:31:43Z</time>
  <speed>2.790000</speed>
</trkpt>
<trkpt lat="32.607036591" lon="35.116573334">
  <ele>114.850220</ele>
  <time>2011-11-22T18:31:45Z</time>
  <speed>2.620000</speed>
</trkpt>
<trkpt lat="32.606983185" lon="35.116539001">
  <ele>116.945923</ele>
  <time>2011-11-22T18:31:47Z</time>
  <speed>2.620000</speed>
</trkpt>
<trkpt lat="32.606956482" lon="35.116535187">
  <ele>117.916626</ele>
  <time>2011-11-22T18:31:48Z</time>
  <speed>2.530000</speed>
</trkpt>
<trkpt lat="32.606914520" lon="35.116546631">
  <ele>118.797485</ele>
  <time>2011-11-22T18:31:49Z</time>
  <speed>2.390000</speed>
</trkpt>
<trkpt lat="32.606887817" lon="35.116542816">
  <ele>119.279907</ele>
  <time>2011-11-22T18:31:50Z</time>
  <speed>2.830000</speed>
</trkpt>
<trkpt lat="32.606834412" lon="35.116527557">
  <ele>120.149048</ele>
  <time>2011-11-22T18:31:52Z</time>
  <speed>2.660000</speed>
</trkpt>
<trkpt lat="32.606784821" lon="35.116516113">
  <ele>120.160767</ele>
  <time>2011-11-22T18:31:54Z</time>
  <speed>1.760000</speed>
</trkpt>
<trkpt lat="32.606754303" lon="35.116508484">
  <ele>121.988892</ele>
  <time>2011-11-22T18:31:55Z</time>
  <speed>1.790000</speed>
</trkpt>
<trkpt lat="32.606727600" lon="35.116497040">
  <ele>122.293579</ele>
  <time>2011-11-22T18:31:57Z</time>
  <speed>1.670000</speed>
</trkpt>
<trkpt lat="32.606700897" lon="35.116477966">
  <ele>122.904907</ele>
  <time>2011-11-22T18:31:58Z</time>
  <speed>2.070000</speed>
</trkpt>
<trkpt lat="32.606658936" lon="35.116447449">
  <ele>124.176392</ele>
  <time>2011-11-22T18:32:00Z</time>
  <speed>1.880000</speed>
</trkpt>
<trkpt lat="32.606632233" lon="35.116432190">
  <ele>125.252563</ele>
  <time>2011-11-22T18:32:01Z</time>
  <speed>2.110000</speed>
</trkpt>
<trkpt lat="32.606590271" lon="35.116416931">
  <ele>126.008423</ele>
  <time>2011-11-22T18:32:03Z</time>
  <speed>1.860000</speed>
</trkpt>
<trkpt lat="32.606555939" lon="35.116397858">
  <ele>125.910767</ele>
  <time>2011-11-22T18:32:05Z</time>
  <speed>1.930000</speed>
</trkpt>
<trkpt lat="32.606521606" lon="35.116382599">
  <ele>126.240845</ele>
  <time>2011-11-22T18:32:07Z</time>
  <speed>1.970000</speed>
</trkpt>
<trkpt lat="32.606475830" lon="35.116382599">
  <ele>126.266235</ele>
  <time>2011-11-22T18:32:09Z</time>
  <speed>1.940000</speed>
</trkpt>
<trkpt lat="32.606437683" lon="35.116359711">
  <ele>126.609985</ele>
  <time>2011-11-22T18:32:11Z</time>
  <speed>2.230000</speed>
</trkpt>
<trkpt lat="32.606399536" lon="35.116336823">
  <ele>127.059204</ele>
  <time>2011-11-22T18:32:13Z</time>
  <speed>2.210000</speed>
</trkpt>
<trkpt lat="32.606365204" lon="35.116310120">
  <ele>127.330688</ele>
  <time>2011-11-22T18:32:15Z</time>
  <speed>2.130000</speed>
</trkpt>
<trkpt lat="32.606323242" lon="35.116287231">
  <ele>128.266846</ele>
  <time>2011-11-22T18:32:17Z</time>
  <speed>2.010000</speed>
</trkpt>
<trkpt lat="32.606285095" lon="35.116271973">
  <ele>128.977783</ele>
  <time>2011-11-22T18:32:19Z</time>
  <speed>1.950000</speed>
</trkpt>
<trkpt lat="32.606254578" lon="35.116245270">
  <ele>129.473877</ele>
  <time>2011-11-22T18:32:21Z</time>
  <speed>2.030000</speed>
</trkpt>
<trkpt lat="32.606231689" lon="35.116210938">
  <ele>130.559814</ele>
  <time>2011-11-22T18:32:22Z</time>
  <speed>2.530000</speed>
</trkpt>
<trkpt lat="32.606208801" lon="35.116191864">
  <ele>131.313721</ele>
  <time>2011-11-22T18:32:23Z</time>
  <speed>2.520000</speed>
</trkpt>
<trkpt lat="32.606174469" lon="35.116149902">
  <ele>132.579346</ele>
  <time>2011-11-22T18:32:25Z</time>
  <speed>2.290000</speed>
</trkpt>
<trkpt lat="32.606136322" lon="35.116111755">
  <ele>133.063721</ele>
  <time>2011-11-22T18:32:27Z</time>
  <speed>2.340000</speed>
</trkpt>
<trkpt lat="32.606109619" lon="35.116085052">
  <ele>132.950439</ele>
  <time>2011-11-22T18:32:29Z</time>
  <speed>2.070000</speed>
</trkpt>
<trkpt lat="32.606082916" lon="35.116069794">
  <ele>133.665283</ele>
  <time>2011-11-22T18:32:30Z</time>
  <speed>2.110000</speed>
</trkpt>
<trkpt lat="32.606044769" lon="35.116050720">
  <ele>134.829346</ele>
  <time>2011-11-22T18:32:32Z</time>
  <speed>1.840000</speed>
</trkpt>
<trkpt lat="32.606014252" lon="35.116027832">
  <ele>135.645752</ele>
  <time>2011-11-22T18:32:34Z</time>
  <speed>1.680000</speed>
</trkpt>
<trkpt lat="32.605972290" lon="35.116016388">
  <ele>136.462158</ele>
  <time>2011-11-22T18:32:36Z</time>
  <speed>1.720000</speed>
</trkpt>
<trkpt lat="32.605918884" lon="35.116008759">
  <ele>138.157471</ele>
  <time>2011-11-22T18:32:38Z</time>
  <speed>1.710000</speed>
</trkpt>
<trkpt lat="32.605880737" lon="35.115993500">
  <ele>138.899658</ele>
  <time>2011-11-22T18:32:40Z</time>
  <speed>1.660000</speed>
</trkpt>
<trkpt lat="32.605834961" lon="35.115982056">
  <ele>139.841064</ele>
  <time>2011-11-22T18:32:42Z</time>
  <speed>2.180000</speed>
</trkpt>
<trkpt lat="32.605804443" lon="35.115966797">
  <ele>140.458252</ele>
  <time>2011-11-22T18:32:43Z</time>
  <speed>2.190000</speed>
</trkpt>
<trkpt lat="32.605777740" lon="35.115966797">
  <ele>141.774658</ele>
  <time>2011-11-22T18:32:44Z</time>
  <speed>2.220000</speed>
</trkpt>
<trkpt lat="32.605751038" lon="35.115951538">
  <ele>141.657471</ele>
  <time>2011-11-22T18:32:45Z</time>
  <speed>2.260000</speed>
</trkpt>
<trkpt lat="32.605716705" lon="35.115936279">
  <ele>142.677002</ele>
  <time>2011-11-22T18:32:46Z</time>
  <speed>2.210000</speed>
</trkpt>
<trkpt lat="32.605690002" lon="35.115921021">
  <ele>144.481689</ele>
  <time>2011-11-22T18:32:47Z</time>
  <speed>2.360000</speed>
</trkpt>
<trkpt lat="32.605632782" lon="35.115894318">
  <ele>145.825439</ele>
  <time>2011-11-22T18:32:49Z</time>
  <speed>2.480000</speed>
</trkpt>
<trkpt lat="32.605609894" lon="35.115875244">
  <ele>147.376221</ele>
  <time>2011-11-22T18:32:50Z</time>
  <speed>2.580000</speed>
</trkpt>
<trkpt lat="32.605579376" lon="35.115859985">
  <ele>148.602783</ele>
  <time>2011-11-22T18:32:51Z</time>
  <speed>2.650000</speed>
</trkpt>
<trkpt lat="32.605552673" lon="35.115848541">
  <ele>149.251221</ele>
  <time>2011-11-22T18:32:52Z</time>
  <speed>3.010000</speed>
</trkpt>
<trkpt lat="32.605525970" lon="35.115833282">
  <ele>149.946533</ele>
  <time>2011-11-22T18:32:53Z</time>
  <speed>2.990000</speed>
</trkpt>
<trkpt lat="32.605499268" lon="35.115814209">
  <ele>150.997314</ele>
  <time>2011-11-22T18:32:54Z</time>
  <speed>2.910000</speed>
</trkpt>
<trkpt lat="32.605453491" lon="35.115791321">
  <ele>150.817627</ele>
  <time>2011-11-22T18:32:56Z</time>
  <speed>2.770000</speed>
</trkpt>
<trkpt lat="32.605426788" lon="35.115779877">
  <ele>151.606689</ele>
  <time>2011-11-22T18:32:57Z</time>
  <speed>2.940000</speed>
</trkpt>
<trkpt lat="32.605373383" lon="35.115768433">
  <ele>150.145752</ele>
  <time>2011-11-22T18:32:59Z</time>
  <speed>3.260000</speed>
</trkpt>
<trkpt lat="32.605339050" lon="35.115764618">
  <ele>150.188721</ele>
  <time>2011-11-22T18:33:00Z</time>
  <speed>3.610000</speed>
</trkpt>
<trkpt lat="32.605304718" lon="35.115760803">
  <ele>150.770752</ele>
  <time>2011-11-22T18:33:01Z</time>
  <speed>3.400000</speed>
</trkpt>
<trkpt lat="32.605270386" lon="35.115760803">
  <ele>151.067627</ele>
  <time>2011-11-22T18:33:02Z</time>
  <speed>3.320000</speed>
</trkpt>
<trkpt lat="32.605239868" lon="35.115764618">
  <ele>150.719971</ele>
  <time>2011-11-22T18:33:03Z</time>
  <speed>3.010000</speed>
</trkpt>
<trkpt lat="32.605213165" lon="35.115764618">
  <ele>150.696533</ele>
  <time>2011-11-22T18:33:04Z</time>
  <speed>3.000000</speed>
</trkpt>
<trkpt lat="32.605182648" lon="35.115764618">
  <ele>150.430908</ele>
  <time>2011-11-22T18:33:05Z</time>
  <speed>2.970000</speed>
</trkpt>
<trkpt lat="32.605152130" lon="35.115764618">
  <ele>150.477783</ele>
  <time>2011-11-22T18:33:06Z</time>
  <speed>2.880000</speed>
</trkpt>
<trkpt lat="32.605125427" lon="35.115772247">
  <ele>150.262939</ele>
  <time>2011-11-22T18:33:07Z</time>
  <speed>2.910000</speed>
</trkpt>
<trkpt lat="32.605094910" lon="35.115768433">
  <ele>150.364502</ele>
  <time>2011-11-22T18:33:08Z</time>
  <speed>2.970000</speed>
</trkpt>
<trkpt lat="32.605060577" lon="35.115760803">
  <ele>151.317627</ele>
  <time>2011-11-22T18:33:09Z</time>
  <speed>2.960000</speed>
</trkpt>
<trkpt lat="32.605022430" lon="35.115768433">
  <ele>151.594971</ele>
  <time>2011-11-22T18:33:10Z</time>
  <speed>2.780000</speed>
</trkpt>
<trkpt lat="32.604991913" lon="35.115760803">
  <ele>152.161377</ele>
  <time>2011-11-22T18:33:11Z</time>
  <speed>2.480000</speed>
</trkpt>
<trkpt lat="32.604946136" lon="35.115756989">
  <ele>152.395752</ele>
  <time>2011-11-22T18:33:13Z</time>
  <speed>1.970000</speed>
</trkpt>
<trkpt lat="32.604904175" lon="35.115749359">
  <ele>152.606689</ele>
  <time>2011-11-22T18:33:15Z</time>
  <speed>1.710000</speed>
</trkpt>
<trkpt lat="32.604854584" lon="35.115756989">
  <ele>153.255127</ele>
  <time>2011-11-22T18:33:17Z</time>
  <speed>2.120000</speed>
</trkpt>
<trkpt lat="32.604808807" lon="35.115753174">
  <ele>153.489502</ele>
  <time>2011-11-22T18:33:19Z</time>
  <speed>1.850000</speed>
</trkpt>
<trkpt lat="32.604763031" lon="35.115756989">
  <ele>153.458252</ele>
  <time>2011-11-22T18:33:21Z</time>
  <speed>1.830000</speed>
</trkpt>
<trkpt lat="32.604721069" lon="35.115760803">
  <ele>152.719971</ele>
  <time>2011-11-22T18:33:23Z</time>
  <speed>1.990000</speed>
</trkpt>
<trkpt lat="32.604682922" lon="35.115764618">
  <ele>152.591064</ele>
  <time>2011-11-22T18:33:25Z</time>
  <speed>1.590000</speed>
</trkpt>
<trkpt lat="32.604644775" lon="35.115768433">
  <ele>152.141846</ele>
  <time>2011-11-22T18:33:27Z</time>
  <speed>1.680000</speed>
</trkpt>
<trkpt lat="32.604610443" lon="35.115768433">
  <ele>151.942627</ele>
  <time>2011-11-22T18:33:29Z</time>
  <speed>1.320000</speed>
</trkpt>
<trkpt lat="32.604576111" lon="35.115776062">
  <ele>151.852783</ele>
  <time>2011-11-22T18:33:31Z</time>
  <speed>1.480000</speed>
</trkpt>
<trkpt lat="32.604537964" lon="35.115783691">
  <ele>151.669189</ele>
  <time>2011-11-22T18:33:33Z</time>
  <speed>1.720000</speed>
</trkpt>
<trkpt lat="32.604507446" lon="35.115783691">
  <ele>151.969971</ele>
  <time>2011-11-22T18:33:34Z</time>
  <speed>1.700000</speed>
</trkpt>
<trkpt lat="32.604476929" lon="35.115772247">
  <ele>153.044189</ele>
  <time>2011-11-22T18:33:36Z</time>
  <speed>1.170000</speed>
</trkpt>
<trkpt lat="32.604438782" lon="35.115787506">
  <ele>153.782471</ele>
  <time>2011-11-22T18:33:38Z</time>
  <speed>1.630000</speed>
</trkpt>
<trkpt lat="32.604400635" lon="35.115791321">
  <ele>153.903564</ele>
  <time>2011-11-22T18:33:40Z</time>
  <speed>1.890000</speed>
</trkpt>
<trkpt lat="32.604358673" lon="35.115806580">
  <ele>153.977783</ele>
  <time>2011-11-22T18:33:42Z</time>
  <speed>1.950000</speed>
</trkpt>
<trkpt lat="32.604316711" lon="35.115810394">
  <ele>154.145752</ele>
  <time>2011-11-22T18:33:44Z</time>
  <speed>1.830000</speed>
</trkpt>
<trkpt lat="32.604282379" lon="35.115818024">
  <ele>153.930908</ele>
  <time>2011-11-22T18:33:46Z</time>
  <speed>1.460000</speed>
</trkpt>
<trkpt lat="32.604244232" lon="35.115806580">
  <ele>153.907471</ele>
  <time>2011-11-22T18:33:48Z</time>
  <speed>1.790000</speed>
</trkpt>
<trkpt lat="32.604209900" lon="35.115814209">
  <ele>154.161377</ele>
  <time>2011-11-22T18:33:50Z</time>
  <speed>1.480000</speed>
</trkpt>
<trkpt lat="32.604171753" lon="35.115818024">
  <ele>154.337158</ele>
  <time>2011-11-22T18:33:52Z</time>
  <speed>1.590000</speed>
</trkpt>
<trkpt lat="32.604129791" lon="35.115814209">
  <ele>154.313721</ele>
  <time>2011-11-22T18:33:54Z</time>
  <speed>1.850000</speed>
</trkpt>
<trkpt lat="32.604080200" lon="35.115806580">
  <ele>154.696533</ele>
  <time>2011-11-22T18:33:56Z</time>
  <speed>2.030000</speed>
</trkpt>
<trkpt lat="32.604049683" lon="35.115818024">
  <ele>154.731689</ele>
  <time>2011-11-22T18:33:57Z</time>
  <speed>2.070000</speed>
</trkpt>
<trkpt lat="32.604011536" lon="35.115806580">
  <ele>154.876221</ele>
  <time>2011-11-22T18:33:59Z</time>
  <speed>2.100000</speed>
</trkpt>
<trkpt lat="32.603977203" lon="35.115806580">
  <ele>154.270752</ele>
  <time>2011-11-22T18:34:01Z</time>
  <speed>1.390000</speed>
</trkpt>
<trkpt lat="32.603931427" lon="35.115818024">
  <ele>154.055908</ele>
  <time>2011-11-22T18:34:03Z</time>
  <speed>1.810000</speed>
</trkpt>
<trkpt lat="32.603885651" lon="35.115833282">
  <ele>154.048096</ele>
  <time>2011-11-22T18:34:05Z</time>
  <speed>1.740000</speed>
</trkpt>
<trkpt lat="32.603855133" lon="35.115833282">
  <ele>154.106689</ele>
  <time>2011-11-22T18:34:06Z</time>
  <speed>2.150000</speed>
</trkpt>
<trkpt lat="32.603809357" lon="35.115833282">
  <ele>153.958252</ele>
  <time>2011-11-22T18:34:08Z</time>
  <speed>1.850000</speed>
</trkpt>
<trkpt lat="32.603778839" lon="35.115837097">
  <ele>153.864502</ele>
  <time>2011-11-22T18:34:09Z</time>
  <speed>2.380000</speed>
</trkpt>
<trkpt lat="32.603713989" lon="35.115844727">
  <ele>154.274658</ele>
  <time>2011-11-22T18:34:11Z</time>
  <speed>2.470000</speed>
</trkpt>
<trkpt lat="32.603660583" lon="35.115840912">
  <ele>153.938721</ele>
  <time>2011-11-22T18:34:13Z</time>
  <speed>2.490000</speed>
</trkpt>
<trkpt lat="32.603626251" lon="35.115840912">
  <ele>153.880127</ele>
  <time>2011-11-22T18:34:14Z</time>
  <speed>2.420000</speed>
</trkpt>
<trkpt lat="32.603584290" lon="35.115844727">
  <ele>152.673096</ele>
  <time>2011-11-22T18:34:16Z</time>
  <speed>2.180000</speed>
</trkpt>
<trkpt lat="32.603557587" lon="35.115829468">
  <ele>152.692627</ele>
  <time>2011-11-22T18:34:17Z</time>
  <speed>2.250000</speed>
</trkpt>
<trkpt lat="32.603523254" lon="35.115825653">
  <ele>153.094971</ele>
  <time>2011-11-22T18:34:18Z</time>
  <speed>2.770000</speed>
</trkpt>
<trkpt lat="32.603496552" lon="35.115821838">
  <ele>153.149658</ele>
  <time>2011-11-22T18:34:19Z</time>
  <speed>2.340000</speed>
</trkpt>
<trkpt lat="32.603454590" lon="35.115821838">
  <ele>153.032471</ele>
  <time>2011-11-22T18:34:21Z</time>
  <speed>2.150000</speed>
</trkpt>
<trkpt lat="32.603416443" lon="35.115818024">
  <ele>153.118408</ele>
  <time>2011-11-22T18:34:23Z</time>
  <speed>2.200000</speed>
</trkpt>
<trkpt lat="32.603366852" lon="35.115825653">
  <ele>153.114502</ele>
  <time>2011-11-22T18:34:25Z</time>
  <speed>2.460000</speed>
</trkpt>
<trkpt lat="32.603347778" lon="35.115798950">
  <ele>153.887939</ele>
  <time>2011-11-22T18:34:26Z</time>
  <speed>2.300000</speed>
</trkpt>
<trkpt lat="32.603313446" lon="35.115764618">
  <ele>155.528564</ele>
  <time>2011-11-22T18:34:27Z</time>
  <speed>2.520000</speed>
</trkpt>
<trkpt lat="32.603286743" lon="35.115756989">
  <ele>156.134033</ele>
  <time>2011-11-22T18:34:28Z</time>
  <speed>2.630000</speed>
</trkpt>
<trkpt lat="32.603256226" lon="35.115760803">
  <ele>156.817627</ele>
  <time>2011-11-22T18:34:29Z</time>
  <speed>2.730000</speed>
</trkpt>
<trkpt lat="32.603225708" lon="35.115764618">
  <ele>157.794189</ele>
  <time>2011-11-22T18:34:30Z</time>
  <speed>2.640000</speed>
</trkpt>
<trkpt lat="32.603179932" lon="35.115760803">
  <ele>158.770752</ele>
  <time>2011-11-22T18:34:32Z</time>
  <speed>2.540000</speed>
</trkpt>
<trkpt lat="32.603126526" lon="35.115749359">
  <ele>159.298096</ele>
  <time>2011-11-22T18:34:34Z</time>
  <speed>2.570000</speed>
</trkpt>
<trkpt lat="32.603080750" lon="35.115741730">
  <ele>159.528564</ele>
  <time>2011-11-22T18:34:36Z</time>
  <speed>2.360000</speed>
</trkpt>
<trkpt lat="32.603046417" lon="35.115726471">
  <ele>159.997314</ele>
  <time>2011-11-22T18:34:38Z</time>
  <speed>1.140000</speed>
</trkpt>
<trkpt lat="32.603057861" lon="35.115753174">
  <ele>161.032471</ele>
  <time>2011-11-22T18:34:43Z</time>
  <speed>0.440000</speed>
</trkpt>
<trkpt lat="32.603080750" lon="35.115768433">
  <ele>160.341064</ele>
  <time>2011-11-22T18:34:55Z</time>
  <speed>0.180000</speed>
</trkpt>
<trkpt lat="32.603122711" lon="35.115764618">
  <ele>160.532471</ele>
  <time>2011-11-22T18:35:02Z</time>
  <speed>1.890000</speed>
</trkpt>
<trkpt lat="32.603168488" lon="35.115768433">
  <ele>160.774658</ele>
  <time>2011-11-22T18:35:03Z</time>
  <speed>1.860000</speed>
</trkpt>
<trkpt lat="32.603202820" lon="35.115768433">
  <ele>159.704346</ele>
  <time>2011-11-22T18:35:05Z</time>
  <speed>2.470000</speed>
</trkpt>
<trkpt lat="32.603206635" lon="35.115734100">
  <ele>159.423096</ele>
  <time>2011-11-22T18:35:06Z</time>
  <speed>2.980000</speed>
</trkpt>
<trkpt lat="32.603221893" lon="35.115692139">
  <ele>160.509033</ele>
  <time>2011-11-22T18:35:07Z</time>
  <speed>2.970000</speed>
</trkpt>
<trkpt lat="32.603233337" lon="35.115634918">
  <ele>161.415283</ele>
  <time>2011-11-22T18:35:08Z</time>
  <speed>3.240000</speed>
</trkpt>
<trkpt lat="32.603237152" lon="35.115589142">
  <ele>162.743408</ele>
  <time>2011-11-22T18:35:09Z</time>
  <speed>3.270000</speed>
</trkpt>
<trkpt lat="32.603252411" lon="35.115547180">
  <ele>163.415283</ele>
  <time>2011-11-22T18:35:10Z</time>
  <speed>3.950000</speed>
</trkpt>
<trkpt lat="32.603252411" lon="35.115486145">
  <ele>164.161377</ele>
  <time>2011-11-22T18:35:11Z</time>
  <speed>3.580000</speed>
</trkpt>
<trkpt lat="32.603260040" lon="35.115417480">
  <ele>164.727783</ele>
  <time>2011-11-22T18:35:12Z</time>
  <speed>3.560000</speed>
</trkpt>
<trkpt lat="32.603267670" lon="35.115371704">
  <ele>165.126221</ele>
  <time>2011-11-22T18:35:13Z</time>
  <speed>2.730000</speed>
</trkpt>
<trkpt lat="32.603279114" lon="35.115333557">
  <ele>165.325439</ele>
  <time>2011-11-22T18:35:14Z</time>
  <speed>2.320000</speed>
</trkpt>
<trkpt lat="32.603317261" lon="35.115295410">
  <ele>164.528564</ele>
  <time>2011-11-22T18:35:16Z</time>
  <speed>2.340000</speed>
</trkpt>
<trkpt lat="32.603359222" lon="35.115264893">
  <ele>163.841064</ele>
  <time>2011-11-22T18:35:18Z</time>
  <speed>2.070000</speed>
</trkpt>
<trkpt lat="32.603393555" lon="35.115242004">
  <ele>162.899658</ele>
  <time>2011-11-22T18:35:20Z</time>
  <speed>1.490000</speed>
</trkpt>
<trkpt lat="32.603404999" lon="35.115203857">
  <ele>163.751221</ele>
  <time>2011-11-22T18:35:21Z</time>
  <speed>0.970000</speed>
</trkpt>
<trkpt lat="32.603424072" lon="35.115180969">
  <ele>163.087158</ele>
  <time>2011-11-22T18:35:23Z</time>
  <speed>1.360000</speed>
</trkpt>
<trkpt lat="32.603458405" lon="35.115161896">
  <ele>161.962158</ele>
  <time>2011-11-22T18:35:25Z</time>
  <speed>2.040000</speed>
</trkpt>
<trkpt lat="32.603481293" lon="35.115135193">
  <ele>160.966064</ele>
  <time>2011-11-22T18:35:27Z</time>
  <speed>1.150000</speed>
</trkpt>
<trkpt lat="32.603523254" lon="35.115127563">
  <ele>160.122314</ele>
  <time>2011-11-22T18:35:29Z</time>
  <speed>2.350000</speed>
</trkpt>
<trkpt lat="32.603565216" lon="35.115119934">
  <ele>158.829346</ele>
  <time>2011-11-22T18:35:31Z</time>
  <speed>2.000000</speed>
</trkpt>
<trkpt lat="32.603599548" lon="35.115127563">
  <ele>158.454346</ele>
  <time>2011-11-22T18:35:32Z</time>
  <speed>2.240000</speed>
</trkpt>
<trkpt lat="32.603641510" lon="35.115104675">
  <ele>156.637939</ele>
  <time>2011-11-22T18:35:34Z</time>
  <speed>2.890000</speed>
</trkpt>
<trkpt lat="32.603672028" lon="35.115100861">
  <ele>155.927002</ele>
  <time>2011-11-22T18:35:35Z</time>
  <speed>2.810000</speed>
</trkpt>
<trkpt lat="32.603702545" lon="35.115100861">
  <ele>155.157471</ele>
  <time>2011-11-22T18:35:36Z</time>
  <speed>3.530000</speed>
</trkpt>
<trkpt lat="32.603771210" lon="35.115123749">
  <ele>154.989502</ele>
  <time>2011-11-22T18:35:37Z</time>
  <speed>4.800000</speed>
</trkpt>
<trkpt lat="32.603820801" lon="35.115127563">
  <ele>154.673096</ele>
  <time>2011-11-22T18:35:38Z</time>
  <speed>4.620000</speed>
</trkpt>
<trkpt lat="32.603878021" lon="35.115161896">
  <ele>156.009033</ele>
  <time>2011-11-22T18:35:39Z</time>
  <speed>4.970000</speed>
</trkpt>
<trkpt lat="32.603931427" lon="35.115158081">
  <ele>156.036377</ele>
  <time>2011-11-22T18:35:40Z</time>
  <speed>4.850000</speed>
</trkpt>
<trkpt lat="32.603988647" lon="35.115158081">
  <ele>155.813721</ele>
  <time>2011-11-22T18:35:41Z</time>
  <speed>4.860000</speed>
</trkpt>
<trkpt lat="32.604038239" lon="35.115161896">
  <ele>155.884033</ele>
  <time>2011-11-22T18:35:42Z</time>
  <speed>4.360000</speed>
</trkpt>
<trkpt lat="32.604103088" lon="35.115180969">
  <ele>155.876221</ele>
  <time>2011-11-22T18:35:43Z</time>
  <speed>4.690000</speed>
</trkpt>
<trkpt lat="32.604171753" lon="35.115188599">
  <ele>156.844971</ele>
  <time>2011-11-22T18:35:44Z</time>
  <speed>5.910000</speed>
</trkpt>
<trkpt lat="32.604248047" lon="35.115200043">
  <ele>157.762939</ele>
  <time>2011-11-22T18:35:45Z</time>
  <speed>5.380000</speed>
</trkpt>
<trkpt lat="32.604324341" lon="35.115215302">
  <ele>158.661377</ele>
  <time>2011-11-22T18:35:46Z</time>
  <speed>4.660000</speed>
</trkpt>
<trkpt lat="32.604377747" lon="35.115230560">
  <ele>158.399658</ele>
  <time>2011-11-22T18:35:47Z</time>
  <speed>3.650000</speed>
</trkpt>
<trkpt lat="32.604415894" lon="35.115226746">
  <ele>158.415283</ele>
  <time>2011-11-22T18:35:48Z</time>
  <speed>2.630000</speed>
</trkpt>
<trkpt lat="32.604442596" lon="35.115222931">
  <ele>158.649658</ele>
  <time>2011-11-22T18:35:49Z</time>
  <speed>2.350000</speed>
</trkpt>
<trkpt lat="32.604473114" lon="35.115215302">
  <ele>158.708252</ele>
  <time>2011-11-22T18:35:50Z</time>
  <speed>2.140000</speed>
</trkpt>
<trkpt lat="32.604507446" lon="35.115222931">
  <ele>159.719971</ele>
  <time>2011-11-22T18:35:51Z</time>
  <speed>2.220000</speed>
</trkpt>
<trkpt lat="32.604530334" lon="35.115215302">
  <ele>161.489502</ele>
  <time>2011-11-22T18:35:52Z</time>
  <speed>2.820000</speed>
</trkpt>
<trkpt lat="32.604560852" lon="35.115207672">
  <ele>161.673096</ele>
  <time>2011-11-22T18:35:53Z</time>
  <speed>2.670000</speed>
</trkpt>
<trkpt lat="32.604587555" lon="35.115196228">
  <ele>162.591064</ele>
  <time>2011-11-22T18:35:54Z</time>
  <speed>2.380000</speed>
</trkpt>
<trkpt lat="32.604614258" lon="35.115184784">
  <ele>163.520752</ele>
  <time>2011-11-22T18:35:55Z</time>
  <speed>2.390000</speed>
</trkpt>
<trkpt lat="32.604656219" lon="35.115169525">
  <ele>164.782471</ele>
  <time>2011-11-22T18:35:57Z</time>
  <speed>2.000000</speed>
</trkpt>
<trkpt lat="32.604679108" lon="35.115139008">
  <ele>167.067627</ele>
  <time>2011-11-22T18:35:59Z</time>
  <speed>2.070000</speed>
</trkpt>
<trkpt lat="32.604717255" lon="35.115119934">
  <ele>170.055908</ele>
  <time>2011-11-22T18:36:01Z</time>
  <speed>2.610000</speed>
</trkpt>
<trkpt lat="32.604755402" lon="35.115093231">
  <ele>171.587158</ele>
  <time>2011-11-22T18:36:03Z</time>
  <speed>2.720000</speed>
</trkpt>
<trkpt lat="32.604782104" lon="35.115074158">
  <ele>171.696533</ele>
  <time>2011-11-22T18:36:04Z</time>
  <speed>3.390000</speed>
</trkpt>
<trkpt lat="32.604808807" lon="35.115047455">
  <ele>170.387939</ele>
  <time>2011-11-22T18:36:05Z</time>
  <speed>3.400000</speed>
</trkpt>
<trkpt lat="32.604839325" lon="35.115024567">
  <ele>170.462158</ele>
  <time>2011-11-22T18:36:06Z</time>
  <speed>3.340000</speed>
</trkpt>
<trkpt lat="32.604866028" lon="35.115009308">
  <ele>170.653564</ele>
  <time>2011-11-22T18:36:07Z</time>
  <speed>3.310000</speed>
</trkpt>
<trkpt lat="32.604888916" lon="35.114986420">
  <ele>170.802002</ele>
  <time>2011-11-22T18:36:08Z</time>
  <speed>2.880000</speed>
</trkpt>
<trkpt lat="32.604915619" lon="35.114971161">
  <ele>170.887939</ele>
  <time>2011-11-22T18:36:09Z</time>
  <speed>2.860000</speed>
</trkpt>
<trkpt lat="32.604938507" lon="35.114955902">
  <ele>170.692627</ele>
  <time>2011-11-22T18:36:10Z</time>
  <speed>2.640000</speed>
</trkpt>
<trkpt lat="32.604980469" lon="35.114925385">
  <ele>170.048096</ele>
  <time>2011-11-22T18:36:12Z</time>
  <speed>1.940000</speed>
</trkpt>
<trkpt lat="32.605022430" lon="35.114894867">
  <ele>169.446533</ele>
  <time>2011-11-22T18:36:14Z</time>
  <speed>1.730000</speed>
</trkpt>
<trkpt lat="32.605045319" lon="35.114860535">
  <ele>170.376221</ele>
  <time>2011-11-22T18:36:16Z</time>
  <speed>1.460000</speed>
</trkpt>
<trkpt lat="32.605068207" lon="35.114833832">
  <ele>170.489502</ele>
  <time>2011-11-22T18:36:18Z</time>
  <speed>1.780000</speed>
</trkpt>
<trkpt lat="32.605102539" lon="35.114810944">
  <ele>170.223877</ele>
  <time>2011-11-22T18:36:20Z</time>
  <speed>1.970000</speed>
</trkpt>
<trkpt lat="32.605136871" lon="35.114784241">
  <ele>170.200439</ele>
  <time>2011-11-22T18:36:22Z</time>
  <speed>2.100000</speed>
</trkpt>
<trkpt lat="32.605175018" lon="35.114757538">
  <ele>170.536377</ele>
  <time>2011-11-22T18:36:24Z</time>
  <speed>2.360000</speed>
</trkpt>
<trkpt lat="32.605236053" lon="35.114749908">
  <ele>170.571533</ele>
  <time>2011-11-22T18:36:26Z</time>
  <speed>3.680000</speed>
</trkpt>
<trkpt lat="32.605278015" lon="35.114727020">
  <ele>171.177002</ele>
  <time>2011-11-22T18:36:27Z</time>
  <speed>3.600000</speed>
</trkpt>
<trkpt lat="32.605312347" lon="35.114711761">
  <ele>171.106689</ele>
  <time>2011-11-22T18:36:28Z</time>
  <speed>4.080000</speed>
</trkpt>
<trkpt lat="32.605354309" lon="35.114700317">
  <ele>170.829346</ele>
  <time>2011-11-22T18:36:29Z</time>
  <speed>4.450000</speed>
</trkpt>
<trkpt lat="32.605388641" lon="35.114696503">
  <ele>170.380127</ele>
  <time>2011-11-22T18:36:30Z</time>
  <speed>3.760000</speed>
</trkpt>
<trkpt lat="32.605426788" lon="35.114692688">
  <ele>169.973877</ele>
  <time>2011-11-22T18:36:31Z</time>
  <speed>3.460000</speed>
</trkpt>
<trkpt lat="32.605461121" lon="35.114692688">
  <ele>169.290283</ele>
  <time>2011-11-22T18:36:32Z</time>
  <speed>3.350000</speed>
</trkpt>
<trkpt lat="32.605495453" lon="35.114688873">
  <ele>168.247314</ele>
  <time>2011-11-22T18:36:33Z</time>
  <speed>2.850000</speed>
</trkpt>
<trkpt lat="32.605529785" lon="35.114685059">
  <ele>167.825439</ele>
  <time>2011-11-22T18:36:35Z</time>
  <speed>2.050000</speed>
</trkpt>
<trkpt lat="32.605556488" lon="35.114685059">
  <ele>167.001221</ele>
  <time>2011-11-22T18:36:37Z</time>
  <speed>1.250000</speed>
</trkpt>
<trkpt lat="32.605579376" lon="35.114669800">
  <ele>165.634033</ele>
  <time>2011-11-22T18:36:39Z</time>
  <speed>1.630000</speed>
</trkpt>
<trkpt lat="32.605606079" lon="35.114662170">
  <ele>164.419189</ele>
  <time>2011-11-22T18:36:41Z</time>
  <speed>1.390000</speed>
</trkpt>
<trkpt lat="32.605632782" lon="35.114654541">
  <ele>163.927002</ele>
  <time>2011-11-22T18:36:43Z</time>
  <speed>2.020000</speed>
</trkpt>
<trkpt lat="32.605659485" lon="35.114650726">
  <ele>162.821533</ele>
  <time>2011-11-22T18:36:44Z</time>
  <speed>2.860000</speed>
</trkpt>
<trkpt lat="32.605701447" lon="35.114624023">
  <ele>162.173096</ele>
  <time>2011-11-22T18:36:46Z</time>
  <speed>2.480000</speed>
</trkpt>
<trkpt lat="32.605735779" lon="35.114604950">
  <ele>161.079346</ele>
  <time>2011-11-22T18:36:48Z</time>
  <speed>1.590000</speed>
</trkpt>
<trkpt lat="32.605770111" lon="35.114597321">
  <ele>160.266846</ele>
  <time>2011-11-22T18:36:50Z</time>
  <speed>1.620000</speed>
</trkpt>
<trkpt lat="32.605796814" lon="35.114612579">
  <ele>159.184814</ele>
  <time>2011-11-22T18:36:52Z</time>
  <speed>1.350000</speed>
</trkpt>
<trkpt lat="32.605815887" lon="35.114635468">
  <ele>158.755127</ele>
  <time>2011-11-22T18:36:54Z</time>
  <speed>0.840000</speed>
</trkpt>
<trkpt lat="32.605831146" lon="35.114692688">
  <ele>159.130127</ele>
  <time>2011-11-22T18:36:57Z</time>
  <speed>1.660000</speed>
</trkpt>
<trkpt lat="32.605823517" lon="35.114734650">
  <ele>158.985596</ele>
  <time>2011-11-22T18:36:59Z</time>
  <speed>1.830000</speed>
</trkpt>
<trkpt lat="32.605819702" lon="35.114772797">
  <ele>158.442627</ele>
  <time>2011-11-22T18:37:00Z</time>
  <speed>2.000000</speed>
</trkpt>
<trkpt lat="32.605838776" lon="35.114814758">
  <ele>157.587158</ele>
  <time>2011-11-22T18:37:02Z</time>
  <speed>1.640000</speed>
</trkpt>
<trkpt lat="32.605854034" lon="35.114856720">
  <ele>157.313721</ele>
  <time>2011-11-22T18:37:04Z</time>
  <speed>2.270000</speed>
</trkpt>
<trkpt lat="32.605865479" lon="35.114891052">
  <ele>157.286377</ele>
  <time>2011-11-22T18:37:05Z</time>
  <speed>1.970000</speed>
</trkpt>
<trkpt lat="32.605880737" lon="35.114917755">
  <ele>157.344971</ele>
  <time>2011-11-22T18:37:06Z</time>
  <speed>1.880000</speed>
</trkpt>
<trkpt lat="32.605915070" lon="35.114952087">
  <ele>156.462158</ele>
  <time>2011-11-22T18:37:08Z</time>
  <speed>1.380000</speed>
</trkpt>
<trkpt lat="32.605941772" lon="35.114986420">
  <ele>155.876221</ele>
  <time>2011-11-22T18:37:10Z</time>
  <speed>1.280000</speed>
</trkpt>
<trkpt lat="32.605979919" lon="35.115020752">
  <ele>155.712158</ele>
  <time>2011-11-22T18:37:12Z</time>
  <speed>1.140000</speed>
</trkpt>
<trkpt lat="32.606018066" lon="35.115032196">
  <ele>156.794189</ele>
  <time>2011-11-22T18:37:13Z</time>
  <speed>1.190000</speed>
</trkpt>
<trkpt lat="32.606056213" lon="35.115077972">
  <ele>157.692627</ele>
  <time>2011-11-22T18:37:15Z</time>
  <speed>1.320000</speed>
</trkpt>
<trkpt lat="32.606086731" lon="35.115085602">
  <ele>157.719971</ele>
  <time>2011-11-22T18:37:16Z</time>
  <speed>1.620000</speed>
</trkpt>
<trkpt lat="32.606121063" lon="35.115142822">
  <ele>157.774658</ele>
  <time>2011-11-22T18:37:18Z</time>
  <speed>2.210000</speed>
</trkpt>
<trkpt lat="32.606140137" lon="35.115173340">
  <ele>157.661377</ele>
  <time>2011-11-22T18:37:19Z</time>
  <speed>2.860000</speed>
</trkpt>
<trkpt lat="32.606170654" lon="35.115207672">
  <ele>156.954346</ele>
  <time>2011-11-22T18:37:21Z</time>
  <speed>1.680000</speed>
</trkpt>
<trkpt lat="32.606197357" lon="35.115249634">
  <ele>157.216064</ele>
  <time>2011-11-22T18:37:23Z</time>
  <speed>1.860000</speed>
</trkpt>
<trkpt lat="32.606231689" lon="35.115283966">
  <ele>156.575439</ele>
  <time>2011-11-22T18:37:25Z</time>
  <speed>2.190000</speed>
</trkpt>
<trkpt lat="32.606266022" lon="35.115322113">
  <ele>156.325439</ele>
  <time>2011-11-22T18:37:27Z</time>
  <speed>1.720000</speed>
</trkpt>
<trkpt lat="32.606292725" lon="35.115360260">
  <ele>155.813721</ele>
  <time>2011-11-22T18:37:29Z</time>
  <speed>1.620000</speed>
</trkpt>
<trkpt lat="32.606323242" lon="35.115394592">
  <ele>155.548096</ele>
  <time>2011-11-22T18:37:31Z</time>
  <speed>1.890000</speed>
</trkpt>
<trkpt lat="32.606369019" lon="35.115428925">
  <ele>153.821533</ele>
  <time>2011-11-22T18:37:33Z</time>
  <speed>2.340000</speed>
</trkpt>
<trkpt lat="32.606410980" lon="35.115459442">
  <ele>152.966064</ele>
  <time>2011-11-22T18:37:35Z</time>
  <speed>2.360000</speed>
</trkpt>
<trkpt lat="32.606449127" lon="35.115489960">
  <ele>152.442627</ele>
  <time>2011-11-22T18:37:37Z</time>
  <speed>2.280000</speed>
</trkpt>
<trkpt lat="32.606475830" lon="35.115512848">
  <ele>151.880127</ele>
  <time>2011-11-22T18:37:38Z</time>
  <speed>2.230000</speed>
</trkpt>
<trkpt lat="32.606502533" lon="35.115543365">
  <ele>150.786377</ele>
  <time>2011-11-22T18:37:40Z</time>
  <speed>1.940000</speed>
</trkpt>
<trkpt lat="32.606540680" lon="35.115592957">
  <ele>148.809814</ele>
  <time>2011-11-22T18:37:42Z</time>
  <speed>2.450000</speed>
</trkpt>
<trkpt lat="32.606559753" lon="35.115623474">
  <ele>147.696533</ele>
  <time>2011-11-22T18:37:43Z</time>
  <speed>2.410000</speed>
</trkpt>
<trkpt lat="32.606636047" lon="35.115657806">
  <ele>144.809814</ele>
  <time>2011-11-22T18:37:45Z</time>
  <speed>4.810000</speed>
</trkpt>
<trkpt lat="32.606685638" lon="35.115692139">
  <ele>144.610596</ele>
  <time>2011-11-22T18:37:46Z</time>
  <speed>3.420000</speed>
</trkpt>
<trkpt lat="32.606739044" lon="35.115745544">
  <ele>143.446533</ele>
  <time>2011-11-22T18:37:47Z</time>
  <speed>4.750000</speed>
</trkpt>
<trkpt lat="32.606781006" lon="35.115795135">
  <ele>142.637939</ele>
  <time>2011-11-22T18:37:48Z</time>
  <speed>4.740000</speed>
</trkpt>
<trkpt lat="32.606838226" lon="35.115818024">
  <ele>141.192627</ele>
  <time>2011-11-22T18:37:49Z</time>
  <speed>3.830000</speed>
</trkpt>
<trkpt lat="32.606887817" lon="35.115852356">
  <ele>140.204346</ele>
  <time>2011-11-22T18:37:50Z</time>
  <speed>4.390000</speed>
</trkpt>
<trkpt lat="32.606929779" lon="35.115909576">
  <ele>139.559814</ele>
  <time>2011-11-22T18:37:51Z</time>
  <speed>3.550000</speed>
</trkpt>
<trkpt lat="32.606964111" lon="35.115943909">
  <ele>139.360596</ele>
  <time>2011-11-22T18:37:52Z</time>
  <speed>2.160000</speed>
</trkpt>
<trkpt lat="32.606990814" lon="35.115962982">
  <ele>138.798096</ele>
  <time>2011-11-22T18:37:53Z</time>
  <speed>1.960000</speed>
</trkpt>
<trkpt lat="32.607017517" lon="35.116050720">
  <ele>140.376221</ele>
  <time>2011-11-22T18:37:54Z</time>
  <speed>2.360000</speed>
</trkpt>
<trkpt lat="32.607044220" lon="35.116058350">
  <ele>139.356689</ele>
  <time>2011-11-22T18:37:55Z</time>
  <speed>1.650000</speed>
</trkpt>
<trkpt lat="32.607086182" lon="35.116077423">
  <ele>138.032471</ele>
  <time>2011-11-22T18:37:57Z</time>
  <speed>1.550000</speed>
</trkpt>
<trkpt lat="32.607116699" lon="35.116096497">
  <ele>137.782471</ele>
  <time>2011-11-22T18:37:58Z</time>
  <speed>2.210000</speed>
</trkpt>
<trkpt lat="32.607143402" lon="35.116107941">
  <ele>137.262939</ele>
  <time>2011-11-22T18:37:59Z</time>
  <speed>2.360000</speed>
</trkpt>
<trkpt lat="32.607185364" lon="35.116115570">
  <ele>137.059814</ele>
  <time>2011-11-22T18:38:00Z</time>
  <speed>2.510000</speed>
</trkpt>
<trkpt lat="32.607219696" lon="35.116138458">
  <ele>136.528564</ele>
  <time>2011-11-22T18:38:01Z</time>
  <speed>2.150000</speed>
</trkpt>
<trkpt lat="32.607242584" lon="35.116168976">
  <ele>135.743408</ele>
  <time>2011-11-22T18:38:02Z</time>
  <speed>2.070000</speed>
</trkpt>
<trkpt lat="32.607265472" lon="35.116210938">
  <ele>135.802002</ele>
  <time>2011-11-22T18:38:03Z</time>
  <speed>2.280000</speed>
</trkpt>
<trkpt lat="32.607311249" lon="35.116210938">
  <ele>134.063721</ele>
  <time>2011-11-22T18:38:05Z</time>
  <speed>1.420000</speed>
</trkpt>
<trkpt lat="32.607353210" lon="35.116195679">
  <ele>132.169189</ele>
  <time>2011-11-22T18:38:06Z</time>
  <speed>1.180000</speed>
</trkpt>
<trkpt lat="32.607383728" lon="35.116180420">
  <ele>130.755127</ele>
  <time>2011-11-22T18:38:07Z</time>
  <speed>0.970000</speed>
</trkpt>
<trkpt lat="32.607421875" lon="35.116195679">
  <ele>129.169189</ele>
  <time>2011-11-22T18:38:09Z</time>
  <speed>1.670000</speed>
</trkpt>
<trkpt lat="32.607460022" lon="35.116218567">
  <ele>127.965454</ele>
  <time>2011-11-22T18:38:11Z</time>
  <speed>2.020000</speed>
</trkpt>
<trkpt lat="32.607501984" lon="35.116237640">
  <ele>126.680298</ele>
  <time>2011-11-22T18:38:13Z</time>
  <speed>1.860000</speed>
</trkpt>
<trkpt lat="32.607521057" lon="35.116260529">
  <ele>125.479126</ele>
  <time>2011-11-22T18:38:15Z</time>
  <speed>0.950000</speed>
</trkpt>
<trkpt lat="32.607555389" lon="35.116279602">
  <ele>124.274048</ele>
  <time>2011-11-22T18:38:17Z</time>
  <speed>1.970000</speed>
</trkpt>
<trkpt lat="32.607616425" lon="35.116355896">
  <ele>124.608032</ele>
  <time>2011-11-22T18:38:19Z</time>
  <speed>2.300000</speed>
</trkpt>
<trkpt lat="32.607688904" lon="35.116363525">
  <ele>125.576782</ele>
  <time>2011-11-22T18:38:20Z</time>
  <speed>2.230000</speed>
</trkpt>
<trkpt lat="32.607723236" lon="35.116413116">
  <ele>125.844360</ele>
  <time>2011-11-22T18:38:21Z</time>
  <speed>2.250000</speed>
</trkpt>
<trkpt lat="32.607765198" lon="35.116405487">
  <ele>124.744751</ele>
  <time>2011-11-22T18:38:23Z</time>
  <speed>1.520000</speed>
</trkpt>
<trkpt lat="32.607833862" lon="35.116394043">
  <ele>125.289673</ele>
  <time>2011-11-22T18:38:24Z</time>
  <speed>2.300000</speed>
</trkpt>
<trkpt lat="32.607875824" lon="35.116405487">
  <ele>124.830688</ele>
  <time>2011-11-22T18:38:26Z</time>
  <speed>1.490000</speed>
</trkpt>
<trkpt lat="32.607906342" lon="35.116409302">
  <ele>124.457642</ele>
  <time>2011-11-22T18:38:27Z</time>
  <speed>2.350000</speed>
</trkpt>
<trkpt lat="32.607952118" lon="35.116447449">
  <ele>124.453735</ele>
  <time>2011-11-22T18:38:29Z</time>
  <speed>1.410000</speed>
</trkpt>
<trkpt lat="32.608032227" lon="35.116477966">
  <ele>125.475220</ele>
  <time>2011-11-22T18:38:31Z</time>
  <speed>1.660000</speed>
</trkpt>
<trkpt lat="32.608085632" lon="35.116516113">
  <ele>125.045532</ele>
  <time>2011-11-22T18:38:33Z</time>
  <speed>1.930000</speed>
</trkpt>
<trkpt lat="32.608173370" lon="35.116554260">
  <ele>126.465454</ele>
  <time>2011-11-22T18:38:34Z</time>
  <speed>2.460000</speed>
</trkpt>
<trkpt lat="32.608226776" lon="35.116569519">
  <ele>127.156860</ele>
  <time>2011-11-22T18:38:35Z</time>
  <speed>2.350000</speed>
</trkpt>
<trkpt lat="32.608257294" lon="35.116565704">
  <ele>127.307251</ele>
  <time>2011-11-22T18:38:36Z</time>
  <speed>1.650000</speed>
</trkpt>
<trkpt lat="32.608291626" lon="35.116565704">
  <ele>127.365845</ele>
  <time>2011-11-22T18:38:38Z</time>
  <speed>2.330000</speed>
</trkpt>
<trkpt lat="32.608386993" lon="35.116607666">
  <ele>126.967407</ele>
  <time>2011-11-22T18:38:40Z</time>
  <speed>3.190000</speed>
</trkpt>
<trkpt lat="32.608474731" lon="35.116619110">
  <ele>127.197876</ele>
  <time>2011-11-22T18:38:41Z</time>
  <speed>3.340000</speed>
</trkpt>
<trkpt lat="32.608551025" lon="35.116653442">
  <ele>128.505127</ele>
  <time>2011-11-22T18:38:42Z</time>
  <speed>4.970000</speed>
</trkpt>
<trkpt lat="32.608638763" lon="35.116676331">
  <ele>129.469971</ele>
  <time>2011-11-22T18:38:43Z</time>
  <speed>4.760000</speed>
</trkpt>
<trkpt lat="32.608715057" lon="35.116687775">
  <ele>130.395752</ele>
  <time>2011-11-22T18:38:44Z</time>
  <speed>3.830000</speed>
</trkpt>
<trkpt lat="32.608795166" lon="35.116710663">
  <ele>131.165283</ele>
  <time>2011-11-22T18:38:45Z</time>
  <speed>3.170000</speed>
</trkpt>
<trkpt lat="32.608844757" lon="35.116714478">
  <ele>131.356689</ele>
  <time>2011-11-22T18:38:46Z</time>
  <speed>2.850000</speed>
</trkpt>
<trkpt lat="32.608890533" lon="35.116722107">
  <ele>131.751221</ele>
  <time>2011-11-22T18:38:47Z</time>
  <speed>2.990000</speed>
</trkpt>
<trkpt lat="32.608936310" lon="35.116706848">
  <ele>132.169189</ele>
  <time>2011-11-22T18:38:48Z</time>
  <speed>2.920000</speed>
</trkpt>
<trkpt lat="32.608970642" lon="35.116703033">
  <ele>132.094971</ele>
  <time>2011-11-22T18:38:49Z</time>
  <speed>2.260000</speed>
</trkpt>
<trkpt lat="32.609035492" lon="35.116714478">
  <ele>133.141846</ele>
  <time>2011-11-22T18:38:50Z</time>
  <speed>4.040000</speed>
</trkpt>
<trkpt lat="32.609088898" lon="35.116714478">
  <ele>134.169189</ele>
  <time>2011-11-22T18:38:51Z</time>
  <speed>4.490000</speed>
</trkpt>
<trkpt lat="32.609142303" lon="35.116718292">
  <ele>135.126221</ele>
  <time>2011-11-22T18:38:52Z</time>
  <speed>3.740000</speed>
</trkpt>
<trkpt lat="32.609195709" lon="35.116718292">
  <ele>136.274658</ele>
  <time>2011-11-22T18:38:53Z</time>
  <speed>3.750000</speed>
</trkpt>
<trkpt lat="32.609237671" lon="35.116710663">
  <ele>136.177002</ele>
  <time>2011-11-22T18:38:54Z</time>
  <speed>3.260000</speed>
</trkpt>
<trkpt lat="32.609291077" lon="35.116710663">
  <ele>139.098877</ele>
  <time>2011-11-22T18:38:55Z</time>
  <speed>3.240000</speed>
</trkpt>
<trkpt lat="32.609329224" lon="35.116706848">
  <ele>141.700439</ele>
  <time>2011-11-22T18:38:56Z</time>
  <speed>2.280000</speed>
</trkpt>
<trkpt lat="32.609359741" lon="35.116695404">
  <ele>143.610596</ele>
  <time>2011-11-22T18:38:57Z</time>
  <speed>2.280000</speed>
</trkpt>
<trkpt lat="32.609394073" lon="35.116691589">
  <ele>145.188721</ele>
  <time>2011-11-22T18:38:58Z</time>
  <speed>2.800000</speed>
</trkpt>
<trkpt lat="32.609439850" lon="35.116695404">
  <ele>147.477783</ele>
  <time>2011-11-22T18:38:59Z</time>
  <speed>2.760000</speed>
</trkpt>
<trkpt lat="32.609481812" lon="35.116687775">
  <ele>146.731689</ele>
  <time>2011-11-22T18:39:00Z</time>
  <speed>3.080000</speed>
</trkpt>
<trkpt lat="32.609519958" lon="35.116676331">
  <ele>146.028564</ele>
  <time>2011-11-22T18:39:01Z</time>
  <speed>3.060000</speed>
</trkpt>
<trkpt lat="32.609558105" lon="35.116661072">
  <ele>145.395752</ele>
  <time>2011-11-22T18:39:02Z</time>
  <speed>2.850000</speed>
</trkpt>
<trkpt lat="32.609596252" lon="35.116653442">
  <ele>145.868408</ele>
  <time>2011-11-22T18:39:03Z</time>
  <speed>3.080000</speed>
</trkpt>
<trkpt lat="32.609630585" lon="35.116638184">
  <ele>146.583252</ele>
  <time>2011-11-22T18:39:04Z</time>
  <speed>2.670000</speed>
</trkpt>
<trkpt lat="32.609680176" lon="35.116645813">
  <ele>149.118408</ele>
  <time>2011-11-22T18:39:05Z</time>
  <speed>3.160000</speed>
</trkpt>
<trkpt lat="32.609722137" lon="35.116653442">
  <ele>149.969971</ele>
  <time>2011-11-22T18:39:06Z</time>
  <speed>2.780000</speed>
</trkpt>
<trkpt lat="32.609752655" lon="35.116649628">
  <ele>151.360596</ele>
  <time>2011-11-22T18:39:07Z</time>
  <speed>2.670000</speed>
</trkpt>
<trkpt lat="32.609783173" lon="35.116645813">
  <ele>152.403564</ele>
  <time>2011-11-22T18:39:08Z</time>
  <speed>2.620000</speed>
</trkpt>
<trkpt lat="32.609817505" lon="35.116641998">
  <ele>152.380127</ele>
  <time>2011-11-22T18:39:09Z</time>
  <speed>3.390000</speed>
</trkpt>
<trkpt lat="32.609855652" lon="35.116641998">
  <ele>152.462158</ele>
  <time>2011-11-22T18:39:10Z</time>
  <speed>3.580000</speed>
</trkpt>
<trkpt lat="32.609889984" lon="35.116657257">
  <ele>153.259033</ele>
  <time>2011-11-22T18:39:11Z</time>
  <speed>2.980000</speed>
</trkpt>
<trkpt lat="32.609931946" lon="35.116661072">
  <ele>153.270752</ele>
  <time>2011-11-22T18:39:12Z</time>
  <speed>3.180000</speed>
</trkpt>
<trkpt lat="32.609977722" lon="35.116668701">
  <ele>152.962158</ele>
  <time>2011-11-22T18:39:13Z</time>
  <speed>3.440000</speed>
</trkpt>
<trkpt lat="32.610027313" lon="35.116668701">
  <ele>151.696533</ele>
  <time>2011-11-22T18:39:14Z</time>
  <speed>2.910000</speed>
</trkpt>
<trkpt lat="32.610069275" lon="35.116676331">
  <ele>150.915283</ele>
  <time>2011-11-22T18:39:15Z</time>
  <speed>3.610000</speed>
</trkpt>
<trkpt lat="32.610134125" lon="35.116699219">
  <ele>146.606689</ele>
  <time>2011-11-22T18:39:16Z</time>
  <speed>3.650000</speed>
</trkpt>
<trkpt lat="32.610183716" lon="35.116741180">
  <ele>146.145752</ele>
  <time>2011-11-22T18:39:17Z</time>
  <speed>3.550000</speed>
</trkpt>
<trkpt lat="32.610221863" lon="35.116760254">
  <ele>145.665283</ele>
  <time>2011-11-22T18:39:18Z</time>
  <speed>2.970000</speed>
</trkpt>
<trkpt lat="32.610260010" lon="35.116771698">
  <ele>145.239502</ele>
  <time>2011-11-22T18:39:19Z</time>
  <speed>2.190000</speed>
</trkpt>
<trkpt lat="32.610324860" lon="35.116748810">
  <ele>143.274658</ele>
  <time>2011-11-22T18:39:20Z</time>
  <speed>1.750000</speed>
</trkpt>
<trkpt lat="32.610351563" lon="35.116756439">
  <ele>142.805908</ele>
  <time>2011-11-22T18:39:21Z</time>
  <speed>1.740000</speed>
</trkpt>
<trkpt lat="32.610382080" lon="35.116764069">
  <ele>142.958252</ele>
  <time>2011-11-22T18:39:22Z</time>
  <speed>2.080000</speed>
</trkpt>
<trkpt lat="32.610424042" lon="35.116767883">
  <ele>142.731689</ele>
  <time>2011-11-22T18:39:23Z</time>
  <speed>2.970000</speed>
</trkpt>
<trkpt lat="32.610458374" lon="35.116775513">
  <ele>144.528564</ele>
  <time>2011-11-22T18:39:24Z</time>
  <speed>2.470000</speed>
</trkpt>
<trkpt lat="32.610500336" lon="35.116783142">
  <ele>144.219971</ele>
  <time>2011-11-22T18:39:25Z</time>
  <speed>3.230000</speed>
</trkpt>
<trkpt lat="32.610546112" lon="35.116802216">
  <ele>145.005127</ele>
  <time>2011-11-22T18:39:26Z</time>
  <speed>3.180000</speed>
</trkpt>
<trkpt lat="32.610591888" lon="35.116817474">
  <ele>145.282471</ele>
  <time>2011-11-22T18:39:27Z</time>
  <speed>3.370000</speed>
</trkpt>
<trkpt lat="32.610649109" lon="35.116832733">
  <ele>145.298096</ele>
  <time>2011-11-22T18:39:28Z</time>
  <speed>4.370000</speed>
</trkpt>
<trkpt lat="32.610691071" lon="35.116851807">
  <ele>147.341064</ele>
  <time>2011-11-22T18:39:29Z</time>
  <speed>4.130000</speed>
</trkpt>
<trkpt lat="32.610736847" lon="35.116859436">
  <ele>147.020752</ele>
  <time>2011-11-22T18:39:30Z</time>
  <speed>3.170000</speed>
</trkpt>
<trkpt lat="32.610782623" lon="35.116863251">
  <ele>148.341064</ele>
  <time>2011-11-22T18:39:31Z</time>
  <speed>2.890000</speed>
</trkpt>
<trkpt lat="32.610824585" lon="35.116867065">
  <ele>148.552002</ele>
  <time>2011-11-22T18:39:32Z</time>
  <speed>2.090000</speed>
</trkpt>
<trkpt lat="32.610855103" lon="35.116870880">
  <ele>148.196533</ele>
  <time>2011-11-22T18:39:33Z</time>
  <speed>1.680000</speed>
</trkpt>
<trkpt lat="32.610904694" lon="35.116889954">
  <ele>145.606689</ele>
  <time>2011-11-22T18:39:34Z</time>
  <speed>1.070000</speed>
</trkpt>
<trkpt lat="32.610950470" lon="35.116909027">
  <ele>145.028564</ele>
  <time>2011-11-22T18:39:35Z</time>
  <speed>1.460000</speed>
</trkpt>
<trkpt lat="32.610992432" lon="35.116920471">
  <ele>145.684814</ele>
  <time>2011-11-22T18:39:36Z</time>
  <speed>1.400000</speed>
</trkpt>
<trkpt lat="32.611015320" lon="35.116939545">
  <ele>146.180908</ele>
  <time>2011-11-22T18:39:37Z</time>
  <speed>1.440000</speed>
</trkpt>
<trkpt lat="32.611042023" lon="35.116962433">
  <ele>146.278564</ele>
  <time>2011-11-22T18:39:38Z</time>
  <speed>1.550000</speed>
</trkpt>
<trkpt lat="32.611083984" lon="35.116981506">
  <ele>145.641846</ele>
  <time>2011-11-22T18:39:40Z</time>
  <speed>1.030000</speed>
</trkpt>
<trkpt lat="32.611122131" lon="35.116985321">
  <ele>145.501221</ele>
  <time>2011-11-22T18:39:42Z</time>
  <speed>0.680000</speed>
</trkpt>
<trkpt lat="32.611156464" lon="35.116985321">
  <ele>143.696533</ele>
  <time>2011-11-22T18:39:44Z</time>
  <speed>0.640000</speed>
</trkpt>
<trkpt lat="32.611179352" lon="35.116996765">
  <ele>141.309814</ele>
  <time>2011-11-22T18:39:48Z</time>
  <speed>0.780000</speed>
</trkpt>
<trkpt lat="32.611186981" lon="35.117031097">
  <ele>140.809814</ele>
  <time>2011-11-22T18:39:50Z</time>
  <speed>1.490000</speed>
</trkpt>
<trkpt lat="32.611175537" lon="35.117076874">
  <ele>142.016846</ele>
  <time>2011-11-22T18:39:52Z</time>
  <speed>1.500000</speed>
</trkpt>
<trkpt lat="32.611175537" lon="35.117111206">
  <ele>142.477783</ele>
  <time>2011-11-22T18:39:54Z</time>
  <speed>0.700000</speed>
</trkpt>
<trkpt lat="32.611190796" lon="35.117088318">
  <ele>144.266846</ele>
  <time>2011-11-22T18:40:04Z</time>
  <speed>0.630000</speed>
</trkpt>
<trkpt lat="32.611217499" lon="35.117050171">
  <ele>145.075439</ele>
  <time>2011-11-22T18:40:08Z</time>
  <speed>0.860000</speed>
</trkpt>
<trkpt lat="32.611255646" lon="35.117053986">
  <ele>145.231689</ele>
  <time>2011-11-22T18:40:10Z</time>
  <speed>1.270000</speed>
</trkpt>
<trkpt lat="32.611293793" lon="35.117095947">
  <ele>145.782471</ele>
  <time>2011-11-22T18:40:13Z</time>
  <speed>2.340000</speed>
</trkpt>
<trkpt lat="32.611309052" lon="35.117122650">
  <ele>145.762939</ele>
  <time>2011-11-22T18:40:14Z</time>
  <speed>2.480000</speed>
</trkpt>
<trkpt lat="32.611324310" lon="35.117164612">
  <ele>145.895752</ele>
  <time>2011-11-22T18:40:16Z</time>
  <speed>2.210000</speed>
</trkpt>
<trkpt lat="32.611343384" lon="35.117195129">
  <ele>145.837158</ele>
  <time>2011-11-22T18:40:18Z</time>
  <speed>1.290000</speed>
</trkpt>
<trkpt lat="32.611358643" lon="35.117229462">
  <ele>146.208252</ele>
  <time>2011-11-22T18:40:20Z</time>
  <speed>1.540000</speed>
</trkpt>
<trkpt lat="32.611366272" lon="35.117267609">
  <ele>146.419189</ele>
  <time>2011-11-22T18:40:22Z</time>
  <speed>1.270000</speed>
</trkpt>
<trkpt lat="32.611381531" lon="35.117317200">
  <ele>146.786377</ele>
  <time>2011-11-22T18:40:24Z</time>
  <speed>1.050000</speed>
</trkpt>
<trkpt lat="32.611400604" lon="35.117362976">
  <ele>147.235596</ele>
  <time>2011-11-22T18:40:26Z</time>
  <speed>1.510000</speed>
</trkpt>
<trkpt lat="32.611396790" lon="35.117416382">
  <ele>146.755127</ele>
  <time>2011-11-22T18:40:28Z</time>
  <speed>2.030000</speed>
</trkpt>
<trkpt lat="32.611423492" lon="35.117454529">
  <ele>146.024658</ele>
  <time>2011-11-22T18:40:30Z</time>
  <speed>2.800000</speed>
</trkpt>
<trkpt lat="32.611469269" lon="35.117511749">
  <ele>145.196533</ele>
  <time>2011-11-22T18:40:32Z</time>
  <speed>2.750000</speed>
</trkpt>
<trkpt lat="32.611495972" lon="35.117546082">
  <ele>144.434814</ele>
  <time>2011-11-22T18:40:33Z</time>
  <speed>2.260000</speed>
</trkpt>
<trkpt lat="32.611530304" lon="35.117565155">
  <ele>143.657471</ele>
  <time>2011-11-22T18:40:34Z</time>
  <speed>1.500000</speed>
</trkpt>
<trkpt lat="32.611568451" lon="35.117595673">
  <ele>143.462158</ele>
  <time>2011-11-22T18:40:35Z</time>
  <speed>1.690000</speed>
</trkpt>
<trkpt lat="32.611598969" lon="35.117622375">
  <ele>144.091064</ele>
  <time>2011-11-22T18:40:36Z</time>
  <speed>1.400000</speed>
</trkpt>
<trkpt lat="32.611614227" lon="35.117652893">
  <ele>143.286377</ele>
  <time>2011-11-22T18:40:38Z</time>
  <speed>1.070000</speed>
</trkpt>
<trkpt lat="32.611640930" lon="35.117675781">
  <ele>143.610596</ele>
  <time>2011-11-22T18:40:39Z</time>
  <speed>1.180000</speed>
</trkpt>
<trkpt lat="32.611667633" lon="35.117687225">
  <ele>143.919189</ele>
  <time>2011-11-22T18:40:40Z</time>
  <speed>1.140000</speed>
</trkpt>
<trkpt lat="32.611724854" lon="35.117721558">
  <ele>144.680908</ele>
  <time>2011-11-22T18:40:42Z</time>
  <speed>1.010000</speed>
</trkpt>
<trkpt lat="32.611759186" lon="35.117744446">
  <ele>144.844971</ele>
  <time>2011-11-22T18:40:44Z</time>
  <speed>0.950000</speed>
</trkpt>
<trkpt lat="32.611801147" lon="35.117763519">
  <ele>144.825439</ele>
  <time>2011-11-22T18:40:46Z</time>
  <speed>1.020000</speed>
</trkpt>
<trkpt lat="32.611831665" lon="35.117786407">
  <ele>144.712158</ele>
  <time>2011-11-22T18:40:48Z</time>
  <speed>1.650000</speed>
</trkpt>
<trkpt lat="32.611846924" lon="35.117832184">
  <ele>144.302002</ele>
  <time>2011-11-22T18:40:49Z</time>
  <speed>1.780000</speed>
</trkpt>
<trkpt lat="32.611873627" lon="35.117855072">
  <ele>143.876221</ele>
  <time>2011-11-22T18:40:51Z</time>
  <speed>1.420000</speed>
</trkpt>
<trkpt lat="32.611923218" lon="35.117893219">
  <ele>143.458252</ele>
  <time>2011-11-22T18:40:53Z</time>
  <speed>1.340000</speed>
</trkpt>
<trkpt lat="32.611949921" lon="35.117916107">
  <ele>143.852783</ele>
  <time>2011-11-22T18:40:55Z</time>
  <speed>1.060000</speed>
</trkpt>
<trkpt lat="32.611972809" lon="35.117950439">
  <ele>144.927002</ele>
  <time>2011-11-22T18:40:57Z</time>
  <speed>1.150000</speed>
</trkpt>
<trkpt lat="32.611995697" lon="35.117961884">
  <ele>144.446533</ele>
  <time>2011-11-22T18:40:58Z</time>
  <speed>1.030000</speed>
</trkpt>
<trkpt lat="32.612041473" lon="35.118003845">
  <ele>145.305908</ele>
  <time>2011-11-22T18:41:00Z</time>
  <speed>1.520000</speed>
</trkpt>
<trkpt lat="32.612079620" lon="35.118041992">
  <ele>145.333252</ele>
  <time>2011-11-22T18:41:02Z</time>
  <speed>1.490000</speed>
</trkpt>
<trkpt lat="32.612102509" lon="35.118091583">
  <ele>145.489502</ele>
  <time>2011-11-22T18:41:04Z</time>
  <speed>1.560000</speed>
</trkpt>
<trkpt lat="32.612136841" lon="35.118129730">
  <ele>146.985596</ele>
  <time>2011-11-22T18:41:06Z</time>
  <speed>1.610000</speed>
</trkpt>
<trkpt lat="32.612167358" lon="35.118152618">
  <ele>147.212158</ele>
  <time>2011-11-22T18:41:08Z</time>
  <speed>1.460000</speed>
</trkpt>
<trkpt lat="32.612186432" lon="35.118186951">
  <ele>147.266846</ele>
  <time>2011-11-22T18:41:10Z</time>
  <speed>1.380000</speed>
</trkpt>
<trkpt lat="32.612228394" lon="35.118221283">
  <ele>148.052002</ele>
  <time>2011-11-22T18:41:12Z</time>
  <speed>1.670000</speed>
</trkpt>
<trkpt lat="32.612243652" lon="35.118263245">
  <ele>147.821533</ele>
  <time>2011-11-22T18:41:14Z</time>
  <speed>1.650000</speed>
</trkpt>
<trkpt lat="32.612270355" lon="35.118305206">
  <ele>146.868408</ele>
  <time>2011-11-22T18:41:16Z</time>
  <speed>2.030000</speed>
</trkpt>
<trkpt lat="32.612319946" lon="35.118358612">
  <ele>148.204346</ele>
  <time>2011-11-22T18:41:17Z</time>
  <speed>2.280000</speed>
</trkpt>
<trkpt lat="32.612342834" lon="35.118396759">
  <ele>148.524658</ele>
  <time>2011-11-22T18:41:19Z</time>
  <speed>1.730000</speed>
</trkpt>
<trkpt lat="32.612369537" lon="35.118431091">
  <ele>148.165283</ele>
  <time>2011-11-22T18:41:21Z</time>
  <speed>1.680000</speed>
</trkpt>
<trkpt lat="32.612388611" lon="35.118473053">
  <ele>147.973877</ele>
  <time>2011-11-22T18:41:23Z</time>
  <speed>2.170000</speed>
</trkpt>
<trkpt lat="32.612403870" lon="35.118511200">
  <ele>147.591064</ele>
  <time>2011-11-22T18:41:25Z</time>
  <speed>1.140000</speed>
</trkpt>
<trkpt lat="32.612411499" lon="35.118568420">
  <ele>146.954346</ele>
  <time>2011-11-22T18:41:28Z</time>
  <speed>1.900000</speed>
</trkpt>
<trkpt lat="32.612442017" lon="35.118614197">
  <ele>146.430908</ele>
  <time>2011-11-22T18:41:30Z</time>
  <speed>1.700000</speed>
</trkpt>
<trkpt lat="32.612461090" lon="35.118637085">
  <ele>146.118408</ele>
  <time>2011-11-22T18:41:31Z</time>
  <speed>2.370000</speed>
</trkpt>
<trkpt lat="32.612480164" lon="35.118682861">
  <ele>146.177002</ele>
  <time>2011-11-22T18:41:32Z</time>
  <speed>2.450000</speed>
</trkpt>
<trkpt lat="32.612487793" lon="35.118717194">
  <ele>145.969971</ele>
  <time>2011-11-22T18:41:33Z</time>
  <speed>2.310000</speed>
</trkpt>
<trkpt lat="32.612525940" lon="35.118759155">
  <ele>145.477783</ele>
  <time>2011-11-22T18:41:35Z</time>
  <speed>2.010000</speed>
</trkpt>
<trkpt lat="32.612560272" lon="35.118789673">
  <ele>144.802002</ele>
  <time>2011-11-22T18:41:37Z</time>
  <speed>1.370000</speed>
</trkpt>
<trkpt lat="32.612606049" lon="35.118804932">
  <ele>144.536377</ele>
  <time>2011-11-22T18:41:38Z</time>
  <speed>2.430000</speed>
</trkpt>
<trkpt lat="32.612632751" lon="35.118816376">
  <ele>144.243408</ele>
  <time>2011-11-22T18:41:39Z</time>
  <speed>1.660000</speed>
</trkpt>
<trkpt lat="32.612686157" lon="35.118850708">
  <ele>144.161377</ele>
  <time>2011-11-22T18:41:41Z</time>
  <speed>1.890000</speed>
</trkpt>
<trkpt lat="32.612712860" lon="35.118862152">
  <ele>144.212158</ele>
  <time>2011-11-22T18:41:42Z</time>
  <speed>1.740000</speed>
</trkpt>
<trkpt lat="32.612766266" lon="35.118892670">
  <ele>144.372314</ele>
  <time>2011-11-22T18:41:44Z</time>
  <speed>2.150000</speed>
</trkpt>
<trkpt lat="32.612804413" lon="35.118904114">
  <ele>143.594971</ele>
  <time>2011-11-22T18:41:46Z</time>
  <speed>1.540000</speed>
</trkpt>
<trkpt lat="32.612884521" lon="35.118923187">
  <ele>143.911377</ele>
  <time>2011-11-22T18:41:48Z</time>
  <speed>2.550000</speed>
</trkpt>
<trkpt lat="32.612922668" lon="35.118934631">
  <ele>143.719971</ele>
  <time>2011-11-22T18:41:49Z</time>
  <speed>3.080000</speed>
</trkpt>
<trkpt lat="32.612957001" lon="35.118942261">
  <ele>143.610596</ele>
  <time>2011-11-22T18:41:50Z</time>
  <speed>2.870000</speed>
</trkpt>
<trkpt lat="32.613006592" lon="35.118942261">
  <ele>143.126221</ele>
  <time>2011-11-22T18:41:51Z</time>
  <speed>2.790000</speed>
</trkpt>
<trkpt lat="32.613048553" lon="35.118942261">
  <ele>143.087158</ele>
  <time>2011-11-22T18:41:52Z</time>
  <speed>2.280000</speed>
</trkpt>
<trkpt lat="32.613094330" lon="35.118942261">
  <ele>143.048096</ele>
  <time>2011-11-22T18:41:54Z</time>
  <speed>1.880000</speed>
</trkpt>
<trkpt lat="32.613140106" lon="35.118942261">
  <ele>143.290283</ele>
  <time>2011-11-22T18:41:56Z</time>
  <speed>1.610000</speed>
</trkpt>
<trkpt lat="32.613185883" lon="35.118930817">
  <ele>143.524658</ele>
  <time>2011-11-22T18:41:58Z</time>
  <speed>2.190000</speed>
</trkpt>
<trkpt lat="32.613235474" lon="35.118907928">
  <ele>144.024658</ele>
  <time>2011-11-22T18:42:00Z</time>
  <speed>2.400000</speed>
</trkpt>
<trkpt lat="32.613300323" lon="35.118904114">
  <ele>144.157471</ele>
  <time>2011-11-22T18:42:02Z</time>
  <speed>3.010000</speed>
</trkpt>
<trkpt lat="32.613334656" lon="35.118896484">
  <ele>144.610596</ele>
  <time>2011-11-22T18:42:03Z</time>
  <speed>3.280000</speed>
</trkpt>
<trkpt lat="32.613372803" lon="35.118888855">
  <ele>145.337158</ele>
  <time>2011-11-22T18:42:04Z</time>
  <speed>3.730000</speed>
</trkpt>
<trkpt lat="32.613403320" lon="35.118881226">
  <ele>145.591064</ele>
  <time>2011-11-22T18:42:05Z</time>
  <speed>3.630000</speed>
</trkpt>
<trkpt lat="32.613445282" lon="35.118873596">
  <ele>145.798096</ele>
  <time>2011-11-22T18:42:06Z</time>
  <speed>4.260000</speed>
</trkpt>
<trkpt lat="32.613494873" lon="35.118873596">
  <ele>145.884033</ele>
  <time>2011-11-22T18:42:07Z</time>
  <speed>4.860000</speed>
</trkpt>
<trkpt lat="32.613555908" lon="35.118869781">
  <ele>146.274658</ele>
  <time>2011-11-22T18:42:08Z</time>
  <speed>5.290000</speed>
</trkpt>
<trkpt lat="32.613620758" lon="35.118862152">
  <ele>145.688721</ele>
  <time>2011-11-22T18:42:09Z</time>
  <speed>5.540000</speed>
</trkpt>
<trkpt lat="32.613685608" lon="35.118862152">
  <ele>146.407471</ele>
  <time>2011-11-22T18:42:10Z</time>
  <speed>6.140000</speed>
</trkpt>
<trkpt lat="32.613758087" lon="35.118858337">
  <ele>146.415283</ele>
  <time>2011-11-22T18:42:11Z</time>
  <speed>6.590000</speed>
</trkpt>
<trkpt lat="32.613830566" lon="35.118846893">
  <ele>146.942627</ele>
  <time>2011-11-22T18:42:12Z</time>
  <speed>6.790000</speed>
</trkpt>
<trkpt lat="32.613891602" lon="35.118843079">
  <ele>147.380127</ele>
  <time>2011-11-22T18:42:13Z</time>
  <speed>6.760000</speed>
</trkpt>
<trkpt lat="32.613952637" lon="35.118846893">
  <ele>147.774658</ele>
  <time>2011-11-22T18:42:14Z</time>
  <speed>5.790000</speed>
</trkpt>
<trkpt lat="32.614009857" lon="35.118846893">
  <ele>147.657471</ele>
  <time>2011-11-22T18:42:15Z</time>
  <speed>5.550000</speed>
</trkpt>
<trkpt lat="32.614089966" lon="35.118831635">
  <ele>145.794189</ele>
  <time>2011-11-22T18:42:16Z</time>
  <speed>5.780000</speed>
</trkpt>
<trkpt lat="32.614162445" lon="35.118831635">
  <ele>145.118408</ele>
  <time>2011-11-22T18:42:17Z</time>
  <speed>7.000000</speed>
</trkpt>
<trkpt lat="32.614231110" lon="35.118827820">
  <ele>145.348877</ele>
  <time>2011-11-22T18:42:18Z</time>
  <speed>6.610000</speed>
</trkpt>
<trkpt lat="32.614307404" lon="35.118831635">
  <ele>146.098877</ele>
  <time>2011-11-22T18:42:19Z</time>
  <speed>6.300000</speed>
</trkpt>
<trkpt lat="32.614364624" lon="35.118827820">
  <ele>146.950439</ele>
  <time>2011-11-22T18:42:20Z</time>
  <speed>6.080000</speed>
</trkpt>
<trkpt lat="32.614425659" lon="35.118808746">
  <ele>144.614502</ele>
  <time>2011-11-22T18:42:21Z</time>
  <speed>4.920000</speed>
</trkpt>
<trkpt lat="32.614471436" lon="35.118804932">
  <ele>146.274658</ele>
  <time>2011-11-22T18:42:22Z</time>
  <speed>4.250000</speed>
</trkpt>
<trkpt lat="32.614536285" lon="35.118743896">
  <ele>143.602783</ele>
  <time>2011-11-22T18:42:23Z</time>
  <speed>4.510000</speed>
</trkpt>
<trkpt lat="32.614589691" lon="35.118732452">
  <ele>143.555908</ele>
  <time>2011-11-22T18:42:24Z</time>
  <speed>4.530000</speed>
</trkpt>
<trkpt lat="32.614635468" lon="35.118713379">
  <ele>143.012939</ele>
  <time>2011-11-22T18:42:25Z</time>
  <speed>4.770000</speed>
</trkpt>
<trkpt lat="32.614692688" lon="35.118701935">
  <ele>143.278564</ele>
  <time>2011-11-22T18:42:26Z</time>
  <speed>4.250000</speed>
</trkpt>
<trkpt lat="32.614738464" lon="35.118690491">
  <ele>143.645752</ele>
  <time>2011-11-22T18:42:27Z</time>
  <speed>4.210000</speed>
</trkpt>
<trkpt lat="32.614776611" lon="35.118686676">
  <ele>143.673096</ele>
  <time>2011-11-22T18:42:28Z</time>
  <speed>4.070000</speed>
</trkpt>
<trkpt lat="32.614818573" lon="35.118663788">
  <ele>143.598877</ele>
  <time>2011-11-22T18:42:29Z</time>
  <speed>3.700000</speed>
</trkpt>
<trkpt lat="32.614860535" lon="35.118656158">
  <ele>143.696533</ele>
  <time>2011-11-22T18:42:30Z</time>
  <speed>3.130000</speed>
</trkpt>
<trkpt lat="32.614910126" lon="35.118625641">
  <ele>143.052002</ele>
  <time>2011-11-22T18:42:31Z</time>
  <speed>3.870000</speed>
</trkpt>
<trkpt lat="32.614940643" lon="35.118610382">
  <ele>142.950439</ele>
  <time>2011-11-22T18:42:32Z</time>
  <speed>3.330000</speed>
</trkpt>
<trkpt lat="32.615001678" lon="35.118610382">
  <ele>143.727783</ele>
  <time>2011-11-22T18:42:33Z</time>
  <speed>3.190000</speed>
</trkpt>
<trkpt lat="32.615062714" lon="35.118618011">
  <ele>145.134033</ele>
  <time>2011-11-22T18:42:34Z</time>
  <speed>2.840000</speed>
</trkpt>
<trkpt lat="32.615131378" lon="35.118606567">
  <ele>144.583252</ele>
  <time>2011-11-22T18:42:35Z</time>
  <speed>2.430000</speed>
</trkpt>
<trkpt lat="32.615188599" lon="35.118598938">
  <ele>145.434814</ele>
  <time>2011-11-22T18:42:36Z</time>
  <speed>2.850000</speed>
</trkpt>
<trkpt lat="32.615242004" lon="35.118602753">
  <ele>147.208252</ele>
  <time>2011-11-22T18:42:37Z</time>
  <speed>3.900000</speed>
</trkpt>
<trkpt lat="32.615325928" lon="35.118621826">
  <ele>149.110596</ele>
  <time>2011-11-22T18:42:38Z</time>
  <speed>4.350000</speed>
</trkpt>
<trkpt lat="32.615375519" lon="35.118606567">
  <ele>149.567627</ele>
  <time>2011-11-22T18:42:39Z</time>
  <speed>4.590000</speed>
</trkpt>
<trkpt lat="32.615425110" lon="35.118591309">
  <ele>148.442627</ele>
  <time>2011-11-22T18:42:40Z</time>
  <speed>4.280000</speed>
</trkpt>
<trkpt lat="32.615489960" lon="35.118587494">
  <ele>148.630127</ele>
  <time>2011-11-22T18:42:41Z</time>
  <speed>4.550000</speed>
</trkpt>
<trkpt lat="32.615573883" lon="35.118618011">
  <ele>150.512939</ele>
  <time>2011-11-22T18:42:42Z</time>
  <speed>3.920000</speed>
</trkpt>
<trkpt lat="32.615612030" lon="35.118618011">
  <ele>152.052002</ele>
  <time>2011-11-22T18:42:43Z</time>
  <speed>3.340000</speed>
</trkpt>
<trkpt lat="32.615653992" lon="35.118618011">
  <ele>152.661377</ele>
  <time>2011-11-22T18:42:44Z</time>
  <speed>2.710000</speed>
</trkpt>
<trkpt lat="32.615695953" lon="35.118618011">
  <ele>152.212158</ele>
  <time>2011-11-22T18:42:45Z</time>
  <speed>2.490000</speed>
</trkpt>
<trkpt lat="32.615734100" lon="35.118614197">
  <ele>152.594971</ele>
  <time>2011-11-22T18:42:46Z</time>
  <speed>3.490000</speed>
</trkpt>
<trkpt lat="32.615783691" lon="35.118606567">
  <ele>152.177002</ele>
  <time>2011-11-22T18:42:47Z</time>
  <speed>4.160000</speed>
</trkpt>
<trkpt lat="32.615829468" lon="35.118598938">
  <ele>152.352783</ele>
  <time>2011-11-22T18:42:48Z</time>
  <speed>3.960000</speed>
</trkpt>
<trkpt lat="32.615879059" lon="35.118572235">
  <ele>150.009033</ele>
  <time>2011-11-22T18:42:49Z</time>
  <speed>3.360000</speed>
</trkpt>
<trkpt lat="32.615955353" lon="35.118556976">
  <ele>144.196533</ele>
  <time>2011-11-22T18:42:50Z</time>
  <speed>2.430000</speed>
</trkpt>
<trkpt lat="32.616001129" lon="35.118537903">
  <ele>140.669189</ele>
  <time>2011-11-22T18:42:51Z</time>
  <speed>2.310000</speed>
</trkpt>
<trkpt lat="32.616039276" lon="35.118522644">
  <ele>140.114502</ele>
  <time>2011-11-22T18:42:52Z</time>
  <speed>2.260000</speed>
</trkpt>
<trkpt lat="32.616077423" lon="35.118480682">
  <ele>140.055908</ele>
  <time>2011-11-22T18:42:54Z</time>
  <speed>1.390000</speed>
</trkpt>
<trkpt lat="32.616100311" lon="35.118450165">
  <ele>139.813721</ele>
  <time>2011-11-22T18:42:56Z</time>
  <speed>1.100000</speed>
</trkpt>
<trkpt lat="32.616119385" lon="35.118419647">
  <ele>139.747314</ele>
  <time>2011-11-22T18:42:58Z</time>
  <speed>0.790000</speed>
</trkpt>
<trkpt lat="32.616146088" lon="35.118392944">
  <ele>139.251221</ele>
  <time>2011-11-22T18:43:00Z</time>
  <speed>1.010000</speed>
</trkpt>
<trkpt lat="32.616168976" lon="35.118354797">
  <ele>139.255127</ele>
  <time>2011-11-22T18:43:03Z</time>
  <speed>0.550000</speed>
</trkpt>
<trkpt lat="32.616165161" lon="35.118385315">
  <ele>138.173096</ele>
  <time>2011-11-22T18:43:09Z</time>
  <speed>1.050000</speed>
</trkpt>
<trkpt lat="32.616188049" lon="35.118434906">
  <ele>137.837158</ele>
  <time>2011-11-22T18:43:11Z</time>
  <speed>1.460000</speed>
</trkpt>
<trkpt lat="32.616226196" lon="35.118465424">
  <ele>138.016846</ele>
  <time>2011-11-22T18:43:12Z</time>
  <speed>1.810000</speed>
</trkpt>
<trkpt lat="32.616264343" lon="35.118484497">
  <ele>137.649658</ele>
  <time>2011-11-22T18:43:14Z</time>
  <speed>2.470000</speed>
</trkpt>
<trkpt lat="32.616310120" lon="35.118518829">
  <ele>137.973877</ele>
  <time>2011-11-22T18:43:15Z</time>
  <speed>1.890000</speed>
</trkpt>
<trkpt lat="32.616340637" lon="35.118530273">
  <ele>138.204346</ele>
  <time>2011-11-22T18:43:16Z</time>
  <speed>1.800000</speed>
</trkpt>
<trkpt lat="32.616378784" lon="35.118549347">
  <ele>138.239502</ele>
  <time>2011-11-22T18:43:18Z</time>
  <speed>1.590000</speed>
</trkpt>
<trkpt lat="32.616409302" lon="35.118572235">
  <ele>138.399658</ele>
  <time>2011-11-22T18:43:20Z</time>
  <speed>1.670000</speed>
</trkpt>
<trkpt lat="32.616451263" lon="35.118587494">
  <ele>138.118408</ele>
  <time>2011-11-22T18:43:23Z</time>
  <speed>1.870000</speed>
</trkpt>
<trkpt lat="32.616485596" lon="35.118614197">
  <ele>139.048096</ele>
  <time>2011-11-22T18:43:25Z</time>
  <speed>1.780000</speed>
</trkpt>
<trkpt lat="32.616531372" lon="35.118598938">
  <ele>138.098877</ele>
  <time>2011-11-22T18:43:28Z</time>
  <speed>2.320000</speed>
</trkpt>
<trkpt lat="32.616577148" lon="35.118606567">
  <ele>137.825439</ele>
  <time>2011-11-22T18:43:29Z</time>
  <speed>4.120000</speed>
</trkpt>
<trkpt lat="32.616680145" lon="35.118610382">
  <ele>138.169189</ele>
  <time>2011-11-22T18:43:30Z</time>
  <speed>4.050000</speed>
</trkpt>
<trkpt lat="32.616722107" lon="35.118583679">
  <ele>137.864502</ele>
  <time>2011-11-22T18:43:31Z</time>
  <speed>3.310000</speed>
</trkpt>
<trkpt lat="32.616760254" lon="35.118568420">
  <ele>138.407471</ele>
  <time>2011-11-22T18:43:32Z</time>
  <speed>3.400000</speed>
</trkpt>
<trkpt lat="32.616806030" lon="35.118553162">
  <ele>137.927002</ele>
  <time>2011-11-22T18:43:33Z</time>
  <speed>3.540000</speed>
</trkpt>
<trkpt lat="32.616844177" lon="35.118522644">
  <ele>137.864502</ele>
  <time>2011-11-22T18:43:34Z</time>
  <speed>3.570000</speed>
</trkpt>
<trkpt lat="32.616874695" lon="35.118476868">
  <ele>135.962158</ele>
  <time>2011-11-22T18:43:35Z</time>
  <speed>3.040000</speed>
</trkpt>
<trkpt lat="32.616897583" lon="35.118446350">
  <ele>135.591064</ele>
  <time>2011-11-22T18:43:36Z</time>
  <speed>3.250000</speed>
</trkpt>
<trkpt lat="32.616912842" lon="35.118404388">
  <ele>133.653564</ele>
  <time>2011-11-22T18:43:37Z</time>
  <speed>3.090000</speed>
</trkpt>
<trkpt lat="32.616935730" lon="35.118366241">
  <ele>132.942627</ele>
  <time>2011-11-22T18:43:38Z</time>
  <speed>3.680000</speed>
</trkpt>
<trkpt lat="32.616970062" lon="35.118335724">
  <ele>131.790283</ele>
  <time>2011-11-22T18:43:39Z</time>
  <speed>3.170000</speed>
</trkpt>
<trkpt lat="32.616992950" lon="35.118293762">
  <ele>130.962158</ele>
  <time>2011-11-22T18:43:40Z</time>
  <speed>3.050000</speed>
</trkpt>
<trkpt lat="32.617019653" lon="35.118259430">
  <ele>130.673096</ele>
  <time>2011-11-22T18:43:41Z</time>
  <speed>3.210000</speed>
</trkpt>
<trkpt lat="32.617027283" lon="35.118206024">
  <ele>131.036377</ele>
  <time>2011-11-22T18:43:42Z</time>
  <speed>3.160000</speed>
</trkpt>
<trkpt lat="32.617053986" lon="35.118152618">
  <ele>130.348877</ele>
  <time>2011-11-22T18:43:43Z</time>
  <speed>3.260000</speed>
</trkpt>
<trkpt lat="32.617069244" lon="35.118114471">
  <ele>129.665283</ele>
  <time>2011-11-22T18:43:44Z</time>
  <speed>2.960000</speed>
</trkpt>
<trkpt lat="32.617088318" lon="35.118064880">
  <ele>129.001221</ele>
  <time>2011-11-22T18:43:46Z</time>
  <speed>1.530000</speed>
</trkpt>
<trkpt lat="32.617122650" lon="35.118015289">
  <ele>128.719971</ele>
  <time>2011-11-22T18:43:48Z</time>
  <speed>1.370000</speed>
</trkpt>
<trkpt lat="32.617153168" lon="35.117965698">
  <ele>128.501221</ele>
  <time>2011-11-22T18:43:50Z</time>
  <speed>2.410000</speed>
</trkpt>
<trkpt lat="32.617179871" lon="35.117935181">
  <ele>128.833252</ele>
  <time>2011-11-22T18:43:51Z</time>
  <speed>1.790000</speed>
</trkpt>
<trkpt lat="32.617214203" lon="35.117889404">
  <ele>128.302002</ele>
  <time>2011-11-22T18:43:53Z</time>
  <speed>2.330000</speed>
</trkpt>
<trkpt lat="32.617279053" lon="35.117835999">
  <ele>128.298096</ele>
  <time>2011-11-22T18:43:55Z</time>
  <speed>2.970000</speed>
</trkpt>
<trkpt lat="32.617313385" lon="35.117794037">
  <ele>128.391846</ele>
  <time>2011-11-22T18:43:56Z</time>
  <speed>3.520000</speed>
</trkpt>
<trkpt lat="32.617340088" lon="35.117748260">
  <ele>127.225220</ele>
  <time>2011-11-22T18:43:57Z</time>
  <speed>2.920000</speed>
</trkpt>
<trkpt lat="32.617412567" lon="35.117706299">
  <ele>127.453735</ele>
  <time>2011-11-22T18:43:58Z</time>
  <speed>3.740000</speed>
</trkpt>
<trkpt lat="32.617458344" lon="35.117694855">
  <ele>126.858032</ele>
  <time>2011-11-22T18:43:59Z</time>
  <speed>2.870000</speed>
</trkpt>
<trkpt lat="32.617481232" lon="35.117671967">
  <ele>126.924438</ele>
  <time>2011-11-22T18:44:00Z</time>
  <speed>2.680000</speed>
</trkpt>
<trkpt lat="32.617519379" lon="35.117656708">
  <ele>125.951782</ele>
  <time>2011-11-22T18:44:01Z</time>
  <speed>2.830000</speed>
</trkpt>
<trkpt lat="32.617557526" lon="35.117637634">
  <ele>124.576782</ele>
  <time>2011-11-22T18:44:02Z</time>
  <speed>2.650000</speed>
</trkpt>
<trkpt lat="32.617588043" lon="35.117622375">
  <ele>124.680298</ele>
  <time>2011-11-22T18:44:03Z</time>
  <speed>2.270000</speed>
</trkpt>
<trkpt lat="32.617626190" lon="35.117591858">
  <ele>124.565063</ele>
  <time>2011-11-22T18:44:05Z</time>
  <speed>1.650000</speed>
</trkpt>
<trkpt lat="32.617660522" lon="35.117565155">
  <ele>124.834595</ele>
  <time>2011-11-22T18:44:07Z</time>
  <speed>1.640000</speed>
</trkpt>
<trkpt lat="32.617702484" lon="35.117549896">
  <ele>124.981079</ele>
  <time>2011-11-22T18:44:08Z</time>
  <speed>2.310000</speed>
</trkpt>
<trkpt lat="32.617755890" lon="35.117515564">
  <ele>125.414673</ele>
  <time>2011-11-22T18:44:09Z</time>
  <speed>3.200000</speed>
</trkpt>
<trkpt lat="32.617786407" lon="35.117488861">
  <ele>125.090454</ele>
  <time>2011-11-22T18:44:10Z</time>
  <speed>3.330000</speed>
</trkpt>
<trkpt lat="32.617843628" lon="35.117465973">
  <ele>123.012329</ele>
  <time>2011-11-22T18:44:11Z</time>
  <speed>3.180000</speed>
</trkpt>
<trkpt lat="32.617893219" lon="35.117443085">
  <ele>121.877563</ele>
  <time>2011-11-22T18:44:12Z</time>
  <speed>3.650000</speed>
</trkpt>
<trkpt lat="32.617923737" lon="35.117420197">
  <ele>121.076782</ele>
  <time>2011-11-22T18:44:13Z</time>
  <speed>3.550000</speed>
</trkpt>
<trkpt lat="32.617954254" lon="35.117408752">
  <ele>121.684204</ele>
  <time>2011-11-22T18:44:14Z</time>
  <speed>3.570000</speed>
</trkpt>
<trkpt lat="32.617977142" lon="35.117389679">
  <ele>121.811157</ele>
  <time>2011-11-22T18:44:15Z</time>
  <speed>3.020000</speed>
</trkpt>
<trkpt lat="32.618011475" lon="35.117378235">
  <ele>121.867798</ele>
  <time>2011-11-22T18:44:16Z</time>
  <speed>3.010000</speed>
</trkpt>
<trkpt lat="32.618038177" lon="35.117362976">
  <ele>122.039673</ele>
  <time>2011-11-22T18:44:17Z</time>
  <speed>2.290000</speed>
</trkpt>
<trkpt lat="32.618072510" lon="35.117336273">
  <ele>122.760376</ele>
  <time>2011-11-22T18:44:18Z</time>
  <speed>3.620000</speed>
</trkpt>
<trkpt lat="32.618099213" lon="35.117309570">
  <ele>122.971313</ele>
  <time>2011-11-22T18:44:19Z</time>
  <speed>2.870000</speed>
</trkpt>
<trkpt lat="32.618133545" lon="35.117286682">
  <ele>123.143188</ele>
  <time>2011-11-22T18:44:21Z</time>
  <speed>1.460000</speed>
</trkpt>
<trkpt lat="32.618164063" lon="35.117267609">
  <ele>123.121704</ele>
  <time>2011-11-22T18:44:23Z</time>
  <speed>1.800000</speed>
</trkpt>
<trkpt lat="32.618194580" lon="35.117252350">
  <ele>123.371704</ele>
  <time>2011-11-22T18:44:25Z</time>
  <speed>1.080000</speed>
</trkpt>
<trkpt lat="32.618206024" lon="35.117282867">
  <ele>123.471313</ele>
  <time>2011-11-22T18:44:54Z</time>
  <speed>0.040000</speed>
</trkpt>
<trkpt lat="32.618209839" lon="35.117252350">
  <ele>124.531860</ele>
  <time>2011-11-22T18:45:01Z</time>
  <speed>0.110000</speed>
</trkpt>
<trkpt lat="32.618194580" lon="35.117225647">
  <ele>125.906860</ele>
  <time>2011-11-22T18:45:09Z</time>
  <speed>0.060000</speed>
</trkpt>
<trkpt lat="32.618217468" lon="35.117187500">
  <ele>126.350220</ele>
  <time>2011-11-22T18:45:17Z</time>
  <speed>1.590000</speed>
</trkpt>
<trkpt lat="32.618236542" lon="35.117149353">
  <ele>126.865845</ele>
  <time>2011-11-22T18:45:19Z</time>
  <speed>2.180000</speed>
</trkpt>
<trkpt lat="32.618247986" lon="35.117095947">
  <ele>127.076782</ele>
  <time>2011-11-22T18:45:21Z</time>
  <speed>2.370000</speed>
</trkpt>
<trkpt lat="32.618274689" lon="35.117042542">
  <ele>127.016235</ele>
  <time>2011-11-22T18:45:23Z</time>
  <speed>2.280000</speed>
</trkpt>
<trkpt lat="32.618293762" lon="35.117019653">
  <ele>126.932251</ele>
  <time>2011-11-22T18:45:24Z</time>
  <speed>2.100000</speed>
</trkpt>
<trkpt lat="32.618309021" lon="35.116992950">
  <ele>126.984985</ele>
  <time>2011-11-22T18:45:26Z</time>
  <speed>1.440000</speed>
</trkpt>
<trkpt lat="32.618301392" lon="35.117034912">
  <ele>126.688110</ele>
  <time>2011-11-22T18:45:30Z</time>
  <speed>0.780000</speed>
</trkpt>
<trkpt lat="32.618274689" lon="35.117069244">
  <ele>126.684204</ele>
  <time>2011-11-22T18:45:32Z</time>
  <speed>1.850000</speed>
</trkpt>
<trkpt lat="32.618301392" lon="35.117118835">
  <ele>126.371704</ele>
  <time>2011-11-22T18:45:33Z</time>
  <speed>4.560000</speed>
</trkpt>
<trkpt lat="32.618312836" lon="35.117176056">
  <ele>126.012329</ele>
  <time>2011-11-22T18:45:34Z</time>
  <speed>5.540000</speed>
</trkpt>
<trkpt lat="32.618320465" lon="35.117229462">
  <ele>125.871704</ele>
  <time>2011-11-22T18:45:35Z</time>
  <speed>5.560000</speed>
</trkpt>
<trkpt lat="32.618328094" lon="35.117286682">
  <ele>125.676392</ele>
  <time>2011-11-22T18:45:36Z</time>
  <speed>5.450000</speed>
</trkpt>
<trkpt lat="32.618331909" lon="35.117336273">
  <ele>125.438110</ele>
  <time>2011-11-22T18:45:37Z</time>
  <speed>4.970000</speed>
</trkpt>
<trkpt lat="32.618320465" lon="35.117385864">
  <ele>124.981079</ele>
  <time>2011-11-22T18:45:38Z</time>
  <speed>3.040000</speed>
</trkpt>
<trkpt lat="32.618297577" lon="35.117412567">
  <ele>124.682251</ele>
  <time>2011-11-22T18:45:39Z</time>
  <speed>3.110000</speed>
</trkpt>
<trkpt lat="32.618278503" lon="35.117439270">
  <ele>124.494751</ele>
  <time>2011-11-22T18:45:40Z</time>
  <speed>2.220000</speed>
</trkpt>
<trkpt lat="32.618221283" lon="35.117393494">
  <ele>122.305298</ele>
  <time>2011-11-22T18:45:44Z</time>
  <speed>1.990000</speed>
</trkpt>
<trkpt lat="32.618221283" lon="35.117336273">
  <ele>121.750610</ele>
  <time>2011-11-22T18:45:46Z</time>
  <speed>2.140000</speed>
</trkpt>
<trkpt lat="32.618213654" lon="35.117301941">
  <ele>121.920532</ele>
  <time>2011-11-22T18:45:47Z</time>
  <speed>2.720000</speed>
</trkpt>
<trkpt lat="32.618217468" lon="35.117267609">
  <ele>123.193970</ele>
  <time>2011-11-22T18:45:48Z</time>
  <speed>2.940000</speed>
</trkpt>
<trkpt lat="32.618221283" lon="35.117198944">
  <ele>123.641235</ele>
  <time>2011-11-22T18:45:50Z</time>
  <speed>2.800000</speed>
</trkpt>
<trkpt lat="32.618228912" lon="35.117145538">
  <ele>124.010376</ele>
  <time>2011-11-22T18:45:52Z</time>
  <speed>2.820000</speed>
</trkpt>
<trkpt lat="32.618236542" lon="35.117115021">
  <ele>124.109985</ele>
  <time>2011-11-22T18:45:53Z</time>
  <speed>2.750000</speed>
</trkpt>
<trkpt lat="32.618244171" lon="35.117050171">
  <ele>123.686157</ele>
  <time>2011-11-22T18:45:55Z</time>
  <speed>2.820000</speed>
</trkpt>
<trkpt lat="32.618259430" lon="35.116992950">
  <ele>123.576782</ele>
  <time>2011-11-22T18:45:57Z</time>
  <speed>2.150000</speed>
</trkpt>
<trkpt lat="32.618270874" lon="35.116950989">
  <ele>123.662720</ele>
  <time>2011-11-22T18:45:59Z</time>
  <speed>1.020000</speed>
</trkpt>
<trkpt lat="32.618259430" lon="35.117000580">
  <ele>124.068970</ele>
  <time>2011-11-22T18:46:04Z</time>
  <speed>1.820000</speed>
</trkpt>
<trkpt lat="32.618267059" lon="35.117073059">
  <ele>123.707642</ele>
  <time>2011-11-22T18:46:06Z</time>
  <speed>4.380000</speed>
</trkpt>
<trkpt lat="32.618293762" lon="35.117134094">
  <ele>123.529907</ele>
  <time>2011-11-22T18:46:07Z</time>
  <speed>5.830000</speed>
</trkpt>
<trkpt lat="32.618309021" lon="35.117195129">
  <ele>123.246704</ele>
  <time>2011-11-22T18:46:08Z</time>
  <speed>6.140000</speed>
</trkpt>
<trkpt lat="32.618324280" lon="35.117267609">
  <ele>122.779907</ele>
  <time>2011-11-22T18:46:09Z</time>
  <speed>6.930000</speed>
</trkpt>
<trkpt lat="32.618324280" lon="35.117321014">
  <ele>121.863892</ele>
  <time>2011-11-22T18:46:10Z</time>
  <speed>5.450000</speed>
</trkpt>
<trkpt lat="32.618316650" lon="35.117385864">
  <ele>122.389282</ele>
  <time>2011-11-22T18:46:11Z</time>
  <speed>3.500000</speed>
</trkpt>
<trkpt lat="32.618312836" lon="35.117424011">
  <ele>121.445923</ele>
  <time>2011-11-22T18:46:12Z</time>
  <speed>3.090000</speed>
</trkpt>
<trkpt lat="32.618289948" lon="35.117458344">
  <ele>119.623657</ele>
  <time>2011-11-22T18:46:14Z</time>
  <speed>1.450000</speed>
</trkpt>
<trkpt lat="32.618282318" lon="35.117424011">
  <ele>117.969360</ele>
  <time>2011-11-22T18:46:17Z</time>
  <speed>1.300000</speed>
</trkpt>
<trkpt lat="32.618301392" lon="35.117385864">
  <ele>117.096313</ele>
  <time>2011-11-22T18:46:20Z</time>
  <speed>0.770000</speed>
</trkpt>
<trkpt lat="32.618289948" lon="35.117351532">
  <ele>117.496704</ele>
  <time>2011-11-22T18:46:22Z</time>
  <speed>0.730000</speed>
</trkpt>
<trkpt lat="32.618293762" lon="35.117317200">
  <ele>117.197876</ele>
  <time>2011-11-22T18:46:25Z</time>
  <speed>0.650000</speed>
</trkpt>
<trkpt lat="32.618270874" lon="35.117298126">
  <ele>114.733032</ele>
  <time>2011-11-22T18:46:31Z</time>
  <speed>0.790000</speed>
</trkpt>
<trkpt lat="32.618293762" lon="35.117324829">
  <ele>115.469360</ele>
  <time>2011-11-22T18:46:33Z</time>
  <speed>0.380000</speed>
</trkpt>
<trkpt lat="32.618324280" lon="35.117340088">
  <ele>116.922485</ele>
  <time>2011-11-22T18:46:58Z</time>
  <speed>0.090000</speed>
</trkpt>
<trkpt lat="32.618350983" lon="35.117351532">
  <ele>117.225220</ele>
  <time>2011-11-22T18:47:00Z</time>
  <speed>0.140000</speed>
</trkpt>
<trkpt lat="32.618320465" lon="35.117328644">
  <ele>118.738892</ele>
  <time>2011-11-22T18:47:07Z</time>
  <speed>0.080000</speed>
</trkpt>
<trkpt lat="32.618312836" lon="35.117340088">
  <ele>121.861938</ele>
  <time>2011-11-22T18:47:13Z</time>
  <speed>0.030000</speed>
</trkpt>
<trkpt lat="32.618282318" lon="35.117347717">
  <ele>122.498657</ele>
  <time>2011-11-22T18:47:16Z</time>
  <speed>0.190000</speed>
</trkpt>
<trkpt lat="32.618259430" lon="35.117378235">
  <ele>122.889282</ele>
  <time>2011-11-22T18:47:18Z</time>
  <speed>1.880000</speed>
</trkpt>
<trkpt lat="32.618251801" lon="35.117427826">
  <ele>122.990845</ele>
  <time>2011-11-22T18:47:20Z</time>
  <speed>2.100000</speed>
</trkpt>
<trkpt lat="32.618232727" lon="35.117481232">
  <ele>122.787720</ele>
  <time>2011-11-22T18:47:22Z</time>
  <speed>2.050000</speed>
</trkpt>
<trkpt lat="32.618236542" lon="35.117515564">
  <ele>122.660767</ele>
  <time>2011-11-22T18:47:23Z</time>
  <speed>2.650000</speed>
</trkpt>
<trkpt lat="32.618232727" lon="35.117553711">
  <ele>123.225220</ele>
  <time>2011-11-22T18:47:24Z</time>
  <speed>2.860000</speed>
</trkpt>
<trkpt lat="32.618232727" lon="35.117591858">
  <ele>123.572876</ele>
  <time>2011-11-22T18:47:25Z</time>
  <speed>3.070000</speed>
</trkpt>
<trkpt lat="32.618232727" lon="35.117630005">
  <ele>123.795532</ele>
  <time>2011-11-22T18:47:26Z</time>
  <speed>3.270000</speed>
</trkpt>
<trkpt lat="32.618225098" lon="35.117668152">
  <ele>123.990845</ele>
  <time>2011-11-22T18:47:27Z</time>
  <speed>3.330000</speed>
</trkpt>
<trkpt lat="32.618225098" lon="35.117706299">
  <ele>124.090454</ele>
  <time>2011-11-22T18:47:28Z</time>
  <speed>3.810000</speed>
</trkpt>
<trkpt lat="32.618236542" lon="35.117748260">
  <ele>124.395142</ele>
  <time>2011-11-22T18:47:29Z</time>
  <speed>4.070000</speed>
</trkpt>
<trkpt lat="32.618247986" lon="35.117794037">
  <ele>124.285767</ele>
  <time>2011-11-22T18:47:30Z</time>
  <speed>3.800000</speed>
</trkpt>
<trkpt lat="32.618259430" lon="35.117832184">
  <ele>124.236938</ele>
  <time>2011-11-22T18:47:31Z</time>
  <speed>3.800000</speed>
</trkpt>
<trkpt lat="32.618286133" lon="35.117881775">
  <ele>124.617798</ele>
  <time>2011-11-22T18:47:32Z</time>
  <speed>3.820000</speed>
</trkpt>
<trkpt lat="32.618312836" lon="35.117919922">
  <ele>124.838501</ele>
  <time>2011-11-22T18:47:33Z</time>
  <speed>3.650000</speed>
</trkpt>
<trkpt lat="32.618335724" lon="35.117950439">
  <ele>124.705688</ele>
  <time>2011-11-22T18:47:34Z</time>
  <speed>3.270000</speed>
</trkpt>
<trkpt lat="32.618358612" lon="35.117973328">
  <ele>124.656860</ele>
  <time>2011-11-22T18:47:35Z</time>
  <speed>3.150000</speed>
</trkpt>
<trkpt lat="32.618389130" lon="35.117992401">
  <ele>124.867798</ele>
  <time>2011-11-22T18:47:36Z</time>
  <speed>3.490000</speed>
</trkpt>
<trkpt lat="32.618415833" lon="35.118003845">
  <ele>125.010376</ele>
  <time>2011-11-22T18:47:37Z</time>
  <speed>2.910000</speed>
</trkpt>
<trkpt lat="32.618446350" lon="35.118019104">
  <ele>125.061157</ele>
  <time>2011-11-22T18:47:38Z</time>
  <speed>3.380000</speed>
</trkpt>
<trkpt lat="32.618476868" lon="35.118026733">
  <ele>124.910767</ele>
  <time>2011-11-22T18:47:39Z</time>
  <speed>3.300000</speed>
</trkpt>
<trkpt lat="32.618507385" lon="35.118041992">
  <ele>124.850220</ele>
  <time>2011-11-22T18:47:40Z</time>
  <speed>3.140000</speed>
</trkpt>
<trkpt lat="32.618537903" lon="35.118049622">
  <ele>125.002563</ele>
  <time>2011-11-22T18:47:41Z</time>
  <speed>2.770000</speed>
</trkpt>
<trkpt lat="32.618579865" lon="35.118057251">
  <ele>125.090454</ele>
  <time>2011-11-22T18:47:43Z</time>
  <speed>2.300000</speed>
</trkpt>
<trkpt lat="32.618610382" lon="35.118061066">
  <ele>125.428345</ele>
  <time>2011-11-22T18:47:44Z</time>
  <speed>3.060000</speed>
</trkpt>
<trkpt lat="32.618637085" lon="35.118064880">
  <ele>125.506470</ele>
  <time>2011-11-22T18:47:45Z</time>
  <speed>3.300000</speed>
</trkpt>
<trkpt lat="32.618671417" lon="35.118072510">
  <ele>125.611938</ele>
  <time>2011-11-22T18:47:46Z</time>
  <speed>3.630000</speed>
</trkpt>
<trkpt lat="32.618701935" lon="35.118072510">
  <ele>125.658813</ele>
  <time>2011-11-22T18:47:47Z</time>
  <speed>3.250000</speed>
</trkpt>
<trkpt lat="32.618736267" lon="35.118080139">
  <ele>125.604126</ele>
  <time>2011-11-22T18:47:48Z</time>
  <speed>3.410000</speed>
</trkpt>
<trkpt lat="32.618762970" lon="35.118087769">
  <ele>126.361938</ele>
  <time>2011-11-22T18:47:49Z</time>
  <speed>3.270000</speed>
</trkpt>
<trkpt lat="32.618801117" lon="35.118087769">
  <ele>126.143188</ele>
  <time>2011-11-22T18:47:50Z</time>
  <speed>3.850000</speed>
</trkpt>
<trkpt lat="32.618839264" lon="35.118087769">
  <ele>126.375610</ele>
  <time>2011-11-22T18:47:51Z</time>
  <speed>4.230000</speed>
</trkpt>
<trkpt lat="32.618888855" lon="35.118087769">
  <ele>126.074829</ele>
  <time>2011-11-22T18:47:52Z</time>
  <speed>5.080000</speed>
</trkpt>
<trkpt lat="32.618942261" lon="35.118091583">
  <ele>126.002563</ele>
  <time>2011-11-22T18:47:53Z</time>
  <speed>5.410000</speed>
</trkpt>
<trkpt lat="32.618999481" lon="35.118087769">
  <ele>125.039673</ele>
  <time>2011-11-22T18:47:54Z</time>
  <speed>6.000000</speed>
</trkpt>
<trkpt lat="32.619052887" lon="35.118099213">
  <ele>124.643188</ele>
  <time>2011-11-22T18:47:55Z</time>
  <speed>5.530000</speed>
</trkpt>
<trkpt lat="32.619110107" lon="35.118118286">
  <ele>124.647095</ele>
  <time>2011-11-22T18:47:56Z</time>
  <speed>6.260000</speed>
</trkpt>
<trkpt lat="32.619163513" lon="35.118156433">
  <ele>123.820923</ele>
  <time>2011-11-22T18:47:57Z</time>
  <speed>6.160000</speed>
</trkpt>
<trkpt lat="32.619216919" lon="35.118190765">
  <ele>123.322876</ele>
  <time>2011-11-22T18:47:58Z</time>
  <speed>6.470000</speed>
</trkpt>
<trkpt lat="32.619266510" lon="35.118225098">
  <ele>122.861938</ele>
  <time>2011-11-22T18:47:59Z</time>
  <speed>5.820000</speed>
</trkpt>
<trkpt lat="32.619338989" lon="35.118293762">
  <ele>121.238892</ele>
  <time>2011-11-22T18:48:00Z</time>
  <speed>7.350000</speed>
</trkpt>
<trkpt lat="32.619388580" lon="35.118389130">
  <ele>121.111938</ele>
  <time>2011-11-22T18:48:01Z</time>
  <speed>8.190000</speed>
</trkpt>
<trkpt lat="32.619457245" lon="35.118461609">
  <ele>120.283813</ele>
  <time>2011-11-22T18:48:02Z</time>
  <speed>9.090000</speed>
</trkpt>
<trkpt lat="32.619525909" lon="35.118541718">
  <ele>119.584595</ele>
  <time>2011-11-22T18:48:03Z</time>
  <speed>9.990000</speed>
</trkpt>
<trkpt lat="32.619613647" lon="35.118625641">
  <ele>120.135376</ele>
  <time>2011-11-22T18:48:04Z</time>
  <speed>10.600000</speed>
</trkpt>
<trkpt lat="32.619689941" lon="35.118732452">
  <ele>120.621704</ele>
  <time>2011-11-22T18:48:05Z</time>
  <speed>11.290000</speed>
</trkpt>
<trkpt lat="32.619758606" lon="35.118820190">
  <ele>120.082642</ele>
  <time>2011-11-22T18:48:06Z</time>
  <speed>11.020000</speed>
</trkpt>
<trkpt lat="32.619823456" lon="35.118911743">
  <ele>119.496704</ele>
  <time>2011-11-22T18:48:07Z</time>
  <speed>10.800000</speed>
</trkpt>
<trkpt lat="32.619892120" lon="35.119003296">
  <ele>119.109985</ele>
  <time>2011-11-22T18:48:08Z</time>
  <speed>11.070000</speed>
</trkpt>
<trkpt lat="32.619960785" lon="35.119094849">
  <ele>118.432251</ele>
  <time>2011-11-22T18:48:09Z</time>
  <speed>11.020000</speed>
</trkpt>
<trkpt lat="32.620040894" lon="35.119201660">
  <ele>119.027954</ele>
  <time>2011-11-22T18:48:10Z</time>
  <speed>11.420000</speed>
</trkpt>
<trkpt lat="32.620121002" lon="35.119304657">
  <ele>119.229126</ele>
  <time>2011-11-22T18:48:11Z</time>
  <speed>11.950000</speed>
</trkpt>
<trkpt lat="32.620185852" lon="35.119403839">
  <ele>118.949829</ele>
  <time>2011-11-22T18:48:12Z</time>
  <speed>11.870000</speed>
</trkpt>
<trkpt lat="32.620246887" lon="35.119503021">
  <ele>118.678345</ele>
  <time>2011-11-22T18:48:13Z</time>
  <speed>11.100000</speed>
</trkpt>
<trkpt lat="32.620311737" lon="35.119598389">
  <ele>118.176392</ele>
  <time>2011-11-22T18:48:14Z</time>
  <speed>10.440000</speed>
</trkpt>
<trkpt lat="32.620349884" lon="35.119693756">
  <ele>117.664673</ele>
  <time>2011-11-22T18:48:15Z</time>
  <speed>10.290000</speed>
</trkpt>
<trkpt lat="32.620403290" lon="35.119796753">
  <ele>116.514282</ele>
  <time>2011-11-22T18:48:16Z</time>
  <speed>10.180000</speed>
</trkpt>
<trkpt lat="32.620449066" lon="35.119884491">
  <ele>115.983032</ele>
  <time>2011-11-22T18:48:17Z</time>
  <speed>9.890000</speed>
</trkpt>
<trkpt lat="32.620498657" lon="35.119979858">
  <ele>115.488892</ele>
  <time>2011-11-22T18:48:18Z</time>
  <speed>10.200000</speed>
</trkpt>
<trkpt lat="32.620552063" lon="35.120067596">
  <ele>114.820923</ele>
  <time>2011-11-22T18:48:19Z</time>
  <speed>9.600000</speed>
</trkpt>
<trkpt lat="32.620597839" lon="35.120151520">
  <ele>114.279907</ele>
  <time>2011-11-22T18:48:20Z</time>
  <speed>9.380000</speed>
</trkpt>
<trkpt lat="32.620639801" lon="35.120243073">
  <ele>113.539673</ele>
  <time>2011-11-22T18:48:21Z</time>
  <speed>9.440000</speed>
</trkpt>
<trkpt lat="32.620689392" lon="35.120326996">
  <ele>112.963501</ele>
  <time>2011-11-22T18:48:22Z</time>
  <speed>9.380000</speed>
</trkpt>
<trkpt lat="32.620742798" lon="35.120399475">
  <ele>112.197876</ele>
  <time>2011-11-22T18:48:23Z</time>
  <speed>8.460000</speed>
</trkpt>
<trkpt lat="32.620822906" lon="35.120456696">
  <ele>112.203735</ele>
  <time>2011-11-22T18:48:24Z</time>
  <speed>9.490000</speed>
</trkpt>
<trkpt lat="32.620906830" lon="35.120502472">
  <ele>112.186157</ele>
  <time>2011-11-22T18:48:25Z</time>
  <speed>9.260000</speed>
</trkpt>
<trkpt lat="32.620979309" lon="35.120552063">
  <ele>111.852173</ele>
  <time>2011-11-22T18:48:26Z</time>
  <speed>8.890000</speed>
</trkpt>
<trkpt lat="32.621055603" lon="35.120597839">
  <ele>111.609985</ele>
  <time>2011-11-22T18:48:27Z</time>
  <speed>8.670000</speed>
</trkpt>
<trkpt lat="32.621143341" lon="35.120655060">
  <ele>111.869751</ele>
  <time>2011-11-22T18:48:28Z</time>
  <speed>8.930000</speed>
</trkpt>
<trkpt lat="32.621215820" lon="35.120697021">
  <ele>111.561157</ele>
  <time>2011-11-22T18:48:29Z</time>
  <speed>8.830000</speed>
</trkpt>
<trkpt lat="32.621292114" lon="35.120742798">
  <ele>111.647095</ele>
  <time>2011-11-22T18:48:30Z</time>
  <speed>8.470000</speed>
</trkpt>
<trkpt lat="32.621364594" lon="35.120780945">
  <ele>111.156860</ele>
  <time>2011-11-22T18:48:31Z</time>
  <speed>8.800000</speed>
</trkpt>
<trkpt lat="32.621433258" lon="35.120819092">
  <ele>110.408813</ele>
  <time>2011-11-22T18:48:32Z</time>
  <speed>8.540000</speed>
</trkpt>
<trkpt lat="32.621505737" lon="35.120857239">
  <ele>109.881470</ele>
  <time>2011-11-22T18:48:33Z</time>
  <speed>7.880000</speed>
</trkpt>
<trkpt lat="32.621574402" lon="35.120895386">
  <ele>109.406860</ele>
  <time>2011-11-22T18:48:34Z</time>
  <speed>7.960000</speed>
</trkpt>
<trkpt lat="32.621654510" lon="35.120944977">
  <ele>108.682251</ele>
  <time>2011-11-22T18:48:35Z</time>
  <speed>9.070000</speed>
</trkpt>
<trkpt lat="32.621734619" lon="35.120986938">
  <ele>108.213501</ele>
  <time>2011-11-22T18:48:36Z</time>
  <speed>9.540000</speed>
</trkpt>
<trkpt lat="32.621818542" lon="35.121028900">
  <ele>107.713501</ele>
  <time>2011-11-22T18:48:37Z</time>
  <speed>9.920001</speed>
</trkpt>
<trkpt lat="32.621898651" lon="35.121074677">
  <ele>107.274048</ele>
  <time>2011-11-22T18:48:38Z</time>
  <speed>9.140000</speed>
</trkpt>
<trkpt lat="32.621982574" lon="35.121124268">
  <ele>106.668579</ele>
  <time>2011-11-22T18:48:39Z</time>
  <speed>10.160000</speed>
</trkpt>
<trkpt lat="32.622062683" lon="35.121185303">
  <ele>106.199829</ele>
  <time>2011-11-22T18:48:40Z</time>
  <speed>10.210000</speed>
</trkpt>
<trkpt lat="32.622131348" lon="35.121238708">
  <ele>105.768188</ele>
  <time>2011-11-22T18:48:41Z</time>
  <speed>9.590000</speed>
</trkpt>
<trkpt lat="32.622196198" lon="35.121311188">
  <ele>105.055298</ele>
  <time>2011-11-22T18:48:42Z</time>
  <speed>9.890000</speed>
</trkpt>
<trkpt lat="32.622245789" lon="35.121356964">
  <ele>105.781860</ele>
  <time>2011-11-22T18:48:43Z</time>
  <speed>9.710000</speed>
</trkpt>
<trkpt lat="32.622291565" lon="35.121444702">
  <ele>104.643188</ele>
  <time>2011-11-22T18:48:44Z</time>
  <speed>9.960000</speed>
</trkpt>
<trkpt lat="32.622344971" lon="35.121532440">
  <ele>103.832642</ele>
  <time>2011-11-22T18:48:45Z</time>
  <speed>9.760000</speed>
</trkpt>
<trkpt lat="32.622398376" lon="35.121623993">
  <ele>102.852173</ele>
  <time>2011-11-22T18:48:46Z</time>
  <speed>9.690000</speed>
</trkpt>
<trkpt lat="32.622459412" lon="35.121742249">
  <ele>102.508423</ele>
  <time>2011-11-22T18:48:47Z</time>
  <speed>10.360000</speed>
</trkpt>
<trkpt lat="32.622531891" lon="35.121837616">
  <ele>102.445923</ele>
  <time>2011-11-22T18:48:48Z</time>
  <speed>10.600000</speed>
</trkpt>
<trkpt lat="32.622600555" lon="35.121944427">
  <ele>102.276001</ele>
  <time>2011-11-22T18:48:49Z</time>
  <speed>10.870000</speed>
</trkpt>
<trkpt lat="32.622657776" lon="35.122047424">
  <ele>102.412720</ele>
  <time>2011-11-22T18:48:50Z</time>
  <speed>11.000000</speed>
</trkpt>
<trkpt lat="32.622718811" lon="35.122146606">
  <ele>102.449829</ele>
  <time>2011-11-22T18:48:51Z</time>
  <speed>10.890000</speed>
</trkpt>
<trkpt lat="32.622772217" lon="35.122241974">
  <ele>101.777954</ele>
  <time>2011-11-22T18:48:52Z</time>
  <speed>10.860000</speed>
</trkpt>
<trkpt lat="32.622825623" lon="35.122333527">
  <ele>102.529907</ele>
  <time>2011-11-22T18:48:53Z</time>
  <speed>10.470000</speed>
</trkpt>
<trkpt lat="32.622879028" lon="35.122428894">
  <ele>102.234985</ele>
  <time>2011-11-22T18:48:54Z</time>
  <speed>10.390000</speed>
</trkpt>
<trkpt lat="32.622936249" lon="35.122520447">
  <ele>101.067017</ele>
  <time>2011-11-22T18:48:55Z</time>
  <speed>10.530000</speed>
</trkpt>
<trkpt lat="32.622989655" lon="35.122615814">
  <ele>100.729126</ele>
  <time>2011-11-22T18:48:56Z</time>
  <speed>9.660000</speed>
</trkpt>
<trkpt lat="32.623020172" lon="35.122707367">
  <ele>101.108032</ele>
  <time>2011-11-22T18:48:57Z</time>
  <speed>9.360000</speed>
</trkpt>
<trkpt lat="32.623054504" lon="35.122802734">
  <ele>100.781860</ele>
  <time>2011-11-22T18:48:58Z</time>
  <speed>9.480000</speed>
</trkpt>
<trkpt lat="32.623077393" lon="35.122909546">
  <ele>101.776001</ele>
  <time>2011-11-22T18:48:59Z</time>
  <speed>9.750000</speed>
</trkpt>
<trkpt lat="32.623088837" lon="35.123020172">
  <ele>102.254517</ele>
  <time>2011-11-22T18:49:00Z</time>
  <speed>9.950000</speed>
</trkpt>
<trkpt lat="32.623111725" lon="35.123142242">
  <ele>102.912720</ele>
  <time>2011-11-22T18:49:01Z</time>
  <speed>10.400000</speed>
</trkpt>
<trkpt lat="32.623134613" lon="35.123260498">
  <ele>102.820923</ele>
  <time>2011-11-22T18:49:02Z</time>
  <speed>10.320000</speed>
</trkpt>
<trkpt lat="32.623146057" lon="35.123374939">
  <ele>102.629517</ele>
  <time>2011-11-22T18:49:03Z</time>
  <speed>10.520000</speed>
</trkpt>
<trkpt lat="32.623168945" lon="35.123489380">
  <ele>102.887329</ele>
  <time>2011-11-22T18:49:04Z</time>
  <speed>10.540000</speed>
</trkpt>
<trkpt lat="32.623184204" lon="35.123600006">
  <ele>102.578735</ele>
  <time>2011-11-22T18:49:05Z</time>
  <speed>10.400000</speed>
</trkpt>
<trkpt lat="32.623199463" lon="35.123710632">
  <ele>102.317017</ele>
  <time>2011-11-22T18:49:06Z</time>
  <speed>10.020000</speed>
</trkpt>
<trkpt lat="32.623207092" lon="35.123817444">
  <ele>102.067017</ele>
  <time>2011-11-22T18:49:07Z</time>
  <speed>9.730000</speed>
</trkpt>
<trkpt lat="32.623214722" lon="35.123916626">
  <ele>101.654907</ele>
  <time>2011-11-22T18:49:08Z</time>
  <speed>9.440000</speed>
</trkpt>
<trkpt lat="32.623226166" lon="35.124015808">
  <ele>101.473267</ele>
  <time>2011-11-22T18:49:09Z</time>
  <speed>9.380000</speed>
</trkpt>
<trkpt lat="32.623241425" lon="35.124111176">
  <ele>101.533813</ele>
  <time>2011-11-22T18:49:10Z</time>
  <speed>8.950000</speed>
</trkpt>
<trkpt lat="32.623249054" lon="35.124202728">
  <ele>100.594360</ele>
  <time>2011-11-22T18:49:11Z</time>
  <speed>9.030000</speed>
</trkpt>
<trkpt lat="32.623264313" lon="35.124313354">
  <ele>101.652954</ele>
  <time>2011-11-22T18:49:12Z</time>
  <speed>9.210000</speed>
</trkpt>
<trkpt lat="32.623275757" lon="35.124412537">
  <ele>101.258423</ele>
  <time>2011-11-22T18:49:13Z</time>
  <speed>9.250000</speed>
</trkpt>
<trkpt lat="32.623298645" lon="35.124511719">
  <ele>100.916626</ele>
  <time>2011-11-22T18:49:14Z</time>
  <speed>9.190000</speed>
</trkpt>
<trkpt lat="32.623310089" lon="35.124610901">
  <ele>100.854126</ele>
  <time>2011-11-22T18:49:15Z</time>
  <speed>9.450000</speed>
</trkpt>
<trkpt lat="32.623325348" lon="35.124710083">
  <ele>100.615845</ele>
  <time>2011-11-22T18:49:16Z</time>
  <speed>9.450000</speed>
</trkpt>
<trkpt lat="32.623344421" lon="35.124801636">
  <ele>99.744751</ele>
  <time>2011-11-22T18:49:17Z</time>
  <speed>9.520000</speed>
</trkpt>
<trkpt lat="32.623359680" lon="35.124893188">
  <ele>99.082642</ele>
  <time>2011-11-22T18:49:18Z</time>
  <speed>9.460000</speed>
</trkpt>
<trkpt lat="32.623382568" lon="35.124992371">
  <ele>99.143188</ele>
  <time>2011-11-22T18:49:19Z</time>
  <speed>9.480000</speed>
</trkpt>
<trkpt lat="32.623405457" lon="35.125091553">
  <ele>99.902954</ele>
  <time>2011-11-22T18:49:20Z</time>
  <speed>9.400000</speed>
</trkpt>
<trkpt lat="32.623428345" lon="35.125186920">
  <ele>99.223267</ele>
  <time>2011-11-22T18:49:21Z</time>
  <speed>9.450000</speed>
</trkpt>
<trkpt lat="32.623458862" lon="35.125289917">
  <ele>99.442017</ele>
  <time>2011-11-22T18:49:22Z</time>
  <speed>9.490000</speed>
</trkpt>
<trkpt lat="32.623485565" lon="35.125389099">
  <ele>99.272095</ele>
  <time>2011-11-22T18:49:23Z</time>
  <speed>9.630000</speed>
</trkpt>
<trkpt lat="32.623516083" lon="35.125484467">
  <ele>99.217407</ele>
  <time>2011-11-22T18:49:24Z</time>
  <speed>9.560000</speed>
</trkpt>
<trkpt lat="32.623546600" lon="35.125583649">
  <ele>99.264282</ele>
  <time>2011-11-22T18:49:25Z</time>
  <speed>9.530000</speed>
</trkpt>
<trkpt lat="32.623580933" lon="35.125682831">
  <ele>99.438110</ele>
  <time>2011-11-22T18:49:26Z</time>
  <speed>9.500000</speed>
</trkpt>
<trkpt lat="32.623607635" lon="35.125778198">
  <ele>99.758423</ele>
  <time>2011-11-22T18:49:27Z</time>
  <speed>9.440000</speed>
</trkpt>
<trkpt lat="32.623641968" lon="35.125873566">
  <ele>99.940063</ele>
  <time>2011-11-22T18:49:28Z</time>
  <speed>9.480000</speed>
</trkpt>
<trkpt lat="32.623672485" lon="35.125976563">
  <ele>100.514282</ele>
  <time>2011-11-22T18:49:29Z</time>
  <speed>9.300000</speed>
</trkpt>
<trkpt lat="32.623703003" lon="35.126068115">
  <ele>101.672485</ele>
  <time>2011-11-22T18:49:30Z</time>
  <speed>9.270000</speed>
</trkpt>
<trkpt lat="32.623729706" lon="35.126167297">
  <ele>100.836548</ele>
  <time>2011-11-22T18:49:31Z</time>
  <speed>9.500000</speed>
</trkpt>
<trkpt lat="32.623752594" lon="35.126266479">
  <ele>100.121704</ele>
  <time>2011-11-22T18:49:32Z</time>
  <speed>9.270000</speed>
</trkpt>
<trkpt lat="32.623771667" lon="35.126361847">
  <ele>100.901001</ele>
  <time>2011-11-22T18:49:33Z</time>
  <speed>8.870000</speed>
</trkpt>
<trkpt lat="32.623783112" lon="35.126449585">
  <ele>99.770142</ele>
  <time>2011-11-22T18:49:34Z</time>
  <speed>9.070000</speed>
</trkpt>
<trkpt lat="32.623786926" lon="35.126541138">
  <ele>98.889282</ele>
  <time>2011-11-22T18:49:35Z</time>
  <speed>8.950000</speed>
</trkpt>
<trkpt lat="32.623779297" lon="35.126640320">
  <ele>99.043579</ele>
  <time>2011-11-22T18:49:36Z</time>
  <speed>8.970000</speed>
</trkpt>
<trkpt lat="32.623771667" lon="35.126735687">
  <ele>98.789673</ele>
  <time>2011-11-22T18:49:37Z</time>
  <speed>9.190000</speed>
</trkpt>
<trkpt lat="32.623760223" lon="35.126834869">
  <ele>98.527954</ele>
  <time>2011-11-22T18:49:38Z</time>
  <speed>9.350000</speed>
</trkpt>
<trkpt lat="32.623744965" lon="35.126934052">
  <ele>97.666626</ele>
  <time>2011-11-22T18:49:39Z</time>
  <speed>9.580000</speed>
</trkpt>
<trkpt lat="32.623733521" lon="35.127040863">
  <ele>97.192017</ele>
  <time>2011-11-22T18:49:40Z</time>
  <speed>9.660000</speed>
</trkpt>
<trkpt lat="32.623722076" lon="35.127140045">
  <ele>96.320923</ele>
  <time>2011-11-22T18:49:41Z</time>
  <speed>9.900000</speed>
</trkpt>
<trkpt lat="32.623718262" lon="35.127246857">
  <ele>95.803345</ele>
  <time>2011-11-22T18:49:42Z</time>
  <speed>9.860000</speed>
</trkpt>
<trkpt lat="32.623725891" lon="35.127353668">
  <ele>96.004517</ele>
  <time>2011-11-22T18:49:43Z</time>
  <speed>9.940000</speed>
</trkpt>
<trkpt lat="32.623748779" lon="35.127456665">
  <ele>95.834595</ele>
  <time>2011-11-22T18:49:44Z</time>
  <speed>10.130000</speed>
</trkpt>
<trkpt lat="32.623775482" lon="35.127552032">
  <ele>94.936157</ele>
  <time>2011-11-22T18:49:45Z</time>
  <speed>9.950000</speed>
</trkpt>
<trkpt lat="32.623809814" lon="35.127643585">
  <ele>94.576782</ele>
  <time>2011-11-22T18:49:46Z</time>
  <speed>9.560000</speed>
</trkpt>
<trkpt lat="32.623847961" lon="35.127731323">
  <ele>94.158813</ele>
  <time>2011-11-22T18:49:47Z</time>
  <speed>9.470000</speed>
</trkpt>
<trkpt lat="32.623897552" lon="35.127819061">
  <ele>93.910767</ele>
  <time>2011-11-22T18:49:48Z</time>
  <speed>10.090000</speed>
</trkpt>
<trkpt lat="32.623954773" lon="35.127902985">
  <ele>93.750610</ele>
  <time>2011-11-22T18:49:49Z</time>
  <speed>10.130000</speed>
</trkpt>
<trkpt lat="32.624008179" lon="35.127990723">
  <ele>93.139282</ele>
  <time>2011-11-22T18:49:50Z</time>
  <speed>10.560000</speed>
</trkpt>
<trkpt lat="32.624069214" lon="35.128082275">
  <ele>93.026001</ele>
  <time>2011-11-22T18:49:51Z</time>
  <speed>10.600000</speed>
</trkpt>
<trkpt lat="32.624130249" lon="35.128170013">
  <ele>92.875610</ele>
  <time>2011-11-22T18:49:52Z</time>
  <speed>10.900000</speed>
</trkpt>
<trkpt lat="32.624191284" lon="35.128257751">
  <ele>92.178345</ele>
  <time>2011-11-22T18:49:53Z</time>
  <speed>10.750000</speed>
</trkpt>
<trkpt lat="32.624256134" lon="35.128341675">
  <ele>91.768188</ele>
  <time>2011-11-22T18:49:54Z</time>
  <speed>11.050000</speed>
</trkpt>
<trkpt lat="32.624324799" lon="35.128433228">
  <ele>91.053345</ele>
  <time>2011-11-22T18:49:55Z</time>
  <speed>11.360000</speed>
</trkpt>
<trkpt lat="32.624393463" lon="35.128520966">
  <ele>90.670532</ele>
  <time>2011-11-22T18:49:56Z</time>
  <speed>11.320000</speed>
</trkpt>
<trkpt lat="32.624473572" lon="35.128597260">
  <ele>89.623657</ele>
  <time>2011-11-22T18:49:57Z</time>
  <speed>11.120000</speed>
</trkpt>
<trkpt lat="32.624553680" lon="35.128669739">
  <ele>89.221313</ele>
  <time>2011-11-22T18:49:58Z</time>
  <speed>10.720000</speed>
</trkpt>
<trkpt lat="32.624637604" lon="35.128726959">
  <ele>88.162720</ele>
  <time>2011-11-22T18:49:59Z</time>
  <speed>10.910000</speed>
</trkpt>
<trkpt lat="32.624729156" lon="35.128761292">
  <ele>86.531860</ele>
  <time>2011-11-22T18:50:00Z</time>
  <speed>10.500000</speed>
</trkpt>
<trkpt lat="32.624824524" lon="35.128787994">
  <ele>85.412720</ele>
  <time>2011-11-22T18:50:01Z</time>
  <speed>11.230000</speed>
</trkpt>
<trkpt lat="32.624923706" lon="35.128826141">
  <ele>83.717407</ele>
  <time>2011-11-22T18:50:02Z</time>
  <speed>11.710000</speed>
</trkpt>
<trkpt lat="32.625015259" lon="35.128871918">
  <ele>83.461548</ele>
  <time>2011-11-22T18:50:03Z</time>
  <speed>11.260000</speed>
</trkpt>
<trkpt lat="32.625083923" lon="35.128932953">
  <ele>83.067017</ele>
  <time>2011-11-22T18:50:04Z</time>
  <speed>10.130000</speed>
</trkpt>
<trkpt lat="32.625141144" lon="35.129005432">
  <ele>82.000610</ele>
  <time>2011-11-22T18:50:05Z</time>
  <speed>9.870000</speed>
</trkpt>
<trkpt lat="32.625190735" lon="35.129093170">
  <ele>81.557251</ele>
  <time>2011-11-22T18:50:06Z</time>
  <speed>9.870000</speed>
</trkpt>
<trkpt lat="32.625232697" lon="35.129188538">
  <ele>81.336548</ele>
  <time>2011-11-22T18:50:07Z</time>
  <speed>9.840000</speed>
</trkpt>
<trkpt lat="32.625274658" lon="35.129291534">
  <ele>80.447876</ele>
  <time>2011-11-22T18:50:08Z</time>
  <speed>10.210000</speed>
</trkpt>
<trkpt lat="32.625316620" lon="35.129390717">
  <ele>80.164673</ele>
  <time>2011-11-22T18:50:09Z</time>
  <speed>10.520000</speed>
</trkpt>
<trkpt lat="32.625370026" lon="35.129482269">
  <ele>79.641235</ele>
  <time>2011-11-22T18:50:10Z</time>
  <speed>9.750000</speed>
</trkpt>
<trkpt lat="32.625427246" lon="35.129550934">
  <ele>79.533813</ele>
  <time>2011-11-22T18:50:11Z</time>
  <speed>8.860000</speed>
</trkpt>
<trkpt lat="32.625480652" lon="35.129615784">
  <ele>78.938110</ele>
  <time>2011-11-22T18:50:12Z</time>
  <speed>8.930000</speed>
</trkpt>
<trkpt lat="32.625537872" lon="35.129680634">
  <ele>78.295532</ele>
  <time>2011-11-22T18:50:13Z</time>
  <speed>8.610000</speed>
</trkpt>
<trkpt lat="32.625595093" lon="35.129737854">
  <ele>77.969360</ele>
  <time>2011-11-22T18:50:14Z</time>
  <speed>8.420000</speed>
</trkpt>
<trkpt lat="32.625648499" lon="35.129810333">
  <ele>77.408813</ele>
  <time>2011-11-22T18:50:15Z</time>
  <speed>8.610000</speed>
</trkpt>
<trkpt lat="32.625694275" lon="35.129886627">
  <ele>76.914673</ele>
  <time>2011-11-22T18:50:16Z</time>
  <speed>8.990000</speed>
</trkpt>
<trkpt lat="32.625736237" lon="35.129966736">
  <ele>76.871704</ele>
  <time>2011-11-22T18:50:17Z</time>
  <speed>8.910000</speed>
</trkpt>
<trkpt lat="32.625766754" lon="35.130062103">
  <ele>75.840454</ele>
  <time>2011-11-22T18:50:18Z</time>
  <speed>9.110000</speed>
</trkpt>
<trkpt lat="32.625801086" lon="35.130157471">
  <ele>75.670532</ele>
  <time>2011-11-22T18:50:19Z</time>
  <speed>9.040000</speed>
</trkpt>
<trkpt lat="32.625816345" lon="35.130252838">
  <ele>75.143188</ele>
  <time>2011-11-22T18:50:20Z</time>
  <speed>9.400000</speed>
</trkpt>
<trkpt lat="32.625846863" lon="35.130348206">
  <ele>74.623657</ele>
  <time>2011-11-22T18:50:21Z</time>
  <speed>9.570000</speed>
</trkpt>
<trkpt lat="32.625873566" lon="35.130447388">
  <ele>73.733032</ele>
  <time>2011-11-22T18:50:22Z</time>
  <speed>9.830000</speed>
</trkpt>
<trkpt lat="32.625907898" lon="35.130546570">
  <ele>73.287720</ele>
  <time>2011-11-22T18:50:23Z</time>
  <speed>10.060000</speed>
</trkpt>
<trkpt lat="32.625946045" lon="35.130645752">
  <ele>73.131470</ele>
  <time>2011-11-22T18:50:24Z</time>
  <speed>10.520000</speed>
</trkpt>
<trkpt lat="32.625991821" lon="35.130744934">
  <ele>72.889282</ele>
  <time>2011-11-22T18:50:25Z</time>
  <speed>10.400000</speed>
</trkpt>
<trkpt lat="32.626041412" lon="35.130836487">
  <ele>72.094360</ele>
  <time>2011-11-22T18:50:26Z</time>
  <speed>10.070000</speed>
</trkpt>
<trkpt lat="32.626098633" lon="35.130916595">
  <ele>72.342407</ele>
  <time>2011-11-22T18:50:27Z</time>
  <speed>10.360000</speed>
</trkpt>
<trkpt lat="32.626171112" lon="35.131008148">
  <ele>72.297485</ele>
  <time>2011-11-22T18:50:28Z</time>
  <speed>10.660000</speed>
</trkpt>
<trkpt lat="32.626247406" lon="35.131092072">
  <ele>72.367798</ele>
  <time>2011-11-22T18:50:29Z</time>
  <speed>10.690000</speed>
</trkpt>
<trkpt lat="32.626323700" lon="35.131164551">
  <ele>71.723267</ele>
  <time>2011-11-22T18:50:30Z</time>
  <speed>10.250000</speed>
</trkpt>
<trkpt lat="32.626396179" lon="35.131229401">
  <ele>71.559204</ele>
  <time>2011-11-22T18:50:31Z</time>
  <speed>9.940000</speed>
</trkpt>
<trkpt lat="32.626472473" lon="35.131301880">
  <ele>71.963501</ele>
  <time>2011-11-22T18:50:32Z</time>
  <speed>9.530000</speed>
</trkpt>
<trkpt lat="32.626544952" lon="35.131355286">
  <ele>71.139282</ele>
  <time>2011-11-22T18:50:33Z</time>
  <speed>9.420000</speed>
</trkpt>
<trkpt lat="32.626609802" lon="35.131412506">
  <ele>70.793579</ele>
  <time>2011-11-22T18:50:34Z</time>
  <speed>9.000000</speed>
</trkpt>
<trkpt lat="32.626678467" lon="35.131477356">
  <ele>70.633423</ele>
  <time>2011-11-22T18:50:35Z</time>
  <speed>9.020000</speed>
</trkpt>
<trkpt lat="32.626762390" lon="35.131538391">
  <ele>71.535767</ele>
  <time>2011-11-22T18:50:36Z</time>
  <speed>8.760000</speed>
</trkpt>
<trkpt lat="32.626831055" lon="35.131610870">
  <ele>73.115845</ele>
  <time>2011-11-22T18:50:37Z</time>
  <speed>8.230000</speed>
</trkpt>
<trkpt lat="32.626869202" lon="35.131675720">
  <ele>72.158813</ele>
  <time>2011-11-22T18:50:38Z</time>
  <speed>7.540000</speed>
</trkpt>
<trkpt lat="32.626907349" lon="35.131732941">
  <ele>72.549438</ele>
  <time>2011-11-22T18:50:39Z</time>
  <speed>6.770000</speed>
</trkpt>
<trkpt lat="32.626941681" lon="35.131790161">
  <ele>72.490845</ele>
  <time>2011-11-22T18:50:40Z</time>
  <speed>6.670000</speed>
</trkpt>
<trkpt lat="32.626960754" lon="35.131855011">
  <ele>73.240845</ele>
  <time>2011-11-22T18:50:41Z</time>
  <speed>6.700000</speed>
</trkpt>
<trkpt lat="32.626983643" lon="35.131919861">
  <ele>73.305298</ele>
  <time>2011-11-22T18:50:42Z</time>
  <speed>6.640000</speed>
</trkpt>
<trkpt lat="32.627014160" lon="35.131977081">
  <ele>73.074829</ele>
  <time>2011-11-22T18:50:43Z</time>
  <speed>6.670000</speed>
</trkpt>
<trkpt lat="32.627040863" lon="35.132041931">
  <ele>73.527954</ele>
  <time>2011-11-22T18:50:44Z</time>
  <speed>7.180000</speed>
</trkpt>
<trkpt lat="32.627071381" lon="35.132106781">
  <ele>72.971313</ele>
  <time>2011-11-22T18:50:45Z</time>
  <speed>7.230000</speed>
</trkpt>
<trkpt lat="32.627101898" lon="35.132175446">
  <ele>72.358032</ele>
  <time>2011-11-22T18:50:46Z</time>
  <speed>6.550000</speed>
</trkpt>
<trkpt lat="32.627117157" lon="35.132240295">
  <ele>72.192017</ele>
  <time>2011-11-22T18:50:47Z</time>
  <speed>6.310000</speed>
</trkpt>
<trkpt lat="32.627128601" lon="35.132305145">
  <ele>72.201782</ele>
  <time>2011-11-22T18:50:48Z</time>
  <speed>6.450000</speed>
</trkpt>
<trkpt lat="32.627143860" lon="35.132366180">
  <ele>72.211548</ele>
  <time>2011-11-22T18:50:49Z</time>
  <speed>6.070000</speed>
</trkpt>
<trkpt lat="32.627166748" lon="35.132415771">
  <ele>72.543579</ele>
  <time>2011-11-22T18:50:50Z</time>
  <speed>5.260000</speed>
</trkpt>
<trkpt lat="32.627197266" lon="35.132453918">
  <ele>73.168579</ele>
  <time>2011-11-22T18:50:51Z</time>
  <speed>5.490000</speed>
</trkpt>
<trkpt lat="32.627231598" lon="35.132476807">
  <ele>72.623657</ele>
  <time>2011-11-22T18:50:52Z</time>
  <speed>4.610000</speed>
</trkpt>
<trkpt lat="32.627269745" lon="35.132492065">
  <ele>72.545532</ele>
  <time>2011-11-22T18:50:53Z</time>
  <speed>4.240000</speed>
</trkpt>
<trkpt lat="32.627304077" lon="35.132488251">
  <ele>73.242798</ele>
  <time>2011-11-22T18:50:54Z</time>
  <speed>4.080000</speed>
</trkpt>
<trkpt lat="32.627330780" lon="35.132472992">
  <ele>72.822876</ele>
  <time>2011-11-22T18:50:55Z</time>
  <speed>3.900000</speed>
</trkpt>
<trkpt lat="32.627380371" lon="35.132461548">
  <ele>74.076782</ele>
  <time>2011-11-22T18:50:56Z</time>
  <speed>3.600000</speed>
</trkpt>
<trkpt lat="32.627403259" lon="35.132442474">
  <ele>73.971313</ele>
  <time>2011-11-22T18:50:57Z</time>
  <speed>2.680000</speed>
</trkpt>
<trkpt lat="32.627426147" lon="35.132396698">
  <ele>74.045532</ele>
  <time>2011-11-22T18:50:59Z</time>
  <speed>2.360000</speed>
</trkpt>
<trkpt lat="32.627449036" lon="35.132347107">
  <ele>74.533813</ele>
  <time>2011-11-22T18:51:01Z</time>
  <speed>2.440000</speed>
</trkpt>
<trkpt lat="32.627483368" lon="35.132312775">
  <ele>74.977173</ele>
  <time>2011-11-22T18:51:03Z</time>
  <speed>2.230000</speed>
</trkpt>
<trkpt lat="32.627502441" lon="35.132266998">
  <ele>75.940063</ele>
  <time>2011-11-22T18:51:05Z</time>
  <speed>2.230000</speed>
</trkpt>
<trkpt lat="32.627529144" lon="35.132217407">
  <ele>76.125610</ele>
  <time>2011-11-22T18:51:07Z</time>
  <speed>2.490000</speed>
</trkpt>
<trkpt lat="32.627559662" lon="35.132164001">
  <ele>76.527954</ele>
  <time>2011-11-22T18:51:09Z</time>
  <speed>2.600000</speed>
</trkpt>
<trkpt lat="32.627563477" lon="35.132129669">
  <ele>77.672485</ele>
  <time>2011-11-22T18:51:10Z</time>
  <speed>2.500000</speed>
</trkpt>
<trkpt lat="32.627578735" lon="35.132076263">
  <ele>79.151001</ele>
  <time>2011-11-22T18:51:12Z</time>
  <speed>2.420000</speed>
</trkpt>
<trkpt lat="32.627582550" lon="35.132041931">
  <ele>80.067017</ele>
  <time>2011-11-22T18:51:13Z</time>
  <speed>2.510000</speed>
</trkpt>
<trkpt lat="32.627597809" lon="35.131996155">
  <ele>80.334595</ele>
  <time>2011-11-22T18:51:15Z</time>
  <speed>2.430000</speed>
</trkpt>
<trkpt lat="32.627601624" lon="35.131961823">
  <ele>81.453735</ele>
  <time>2011-11-22T18:51:16Z</time>
  <speed>2.500000</speed>
</trkpt>
<trkpt lat="32.627620697" lon="35.131916046">
  <ele>81.984985</ele>
  <time>2011-11-22T18:51:18Z</time>
  <speed>2.120000</speed>
</trkpt>
<trkpt lat="32.627639771" lon="35.131874084">
  <ele>83.106079</ele>
  <time>2011-11-22T18:51:20Z</time>
  <speed>2.200000</speed>
</trkpt>
<trkpt lat="32.627658844" lon="35.131824493">
  <ele>83.781860</ele>
  <time>2011-11-22T18:51:22Z</time>
  <speed>2.370000</speed>
</trkpt>
<trkpt lat="32.627685547" lon="35.131771088">
  <ele>84.820923</ele>
  <time>2011-11-22T18:51:24Z</time>
  <speed>2.870000</speed>
</trkpt>
<trkpt lat="32.627700806" lon="35.131744385">
  <ele>85.277954</ele>
  <time>2011-11-22T18:51:25Z</time>
  <speed>2.930000</speed>
</trkpt>
<trkpt lat="32.627719879" lon="35.131690979">
  <ele>85.768188</ele>
  <time>2011-11-22T18:51:27Z</time>
  <speed>3.030000</speed>
</trkpt>
<trkpt lat="32.627727509" lon="35.131656647">
  <ele>85.969360</ele>
  <time>2011-11-22T18:51:28Z</time>
  <speed>2.620000</speed>
</trkpt>
<trkpt lat="32.627754211" lon="35.131610870">
  <ele>86.563110</ele>
  <time>2011-11-22T18:51:30Z</time>
  <speed>2.900000</speed>
</trkpt>
<trkpt lat="32.627769470" lon="35.131580353">
  <ele>87.205688</ele>
  <time>2011-11-22T18:51:31Z</time>
  <speed>2.940000</speed>
</trkpt>
<trkpt lat="32.627780914" lon="35.131546021">
  <ele>87.219360</ele>
  <time>2011-11-22T18:51:32Z</time>
  <speed>3.120000</speed>
</trkpt>
<trkpt lat="32.627796173" lon="35.131515503">
  <ele>87.611938</ele>
  <time>2011-11-22T18:51:33Z</time>
  <speed>2.960000</speed>
</trkpt>
<trkpt lat="32.627807617" lon="35.131484985">
  <ele>88.221313</ele>
  <time>2011-11-22T18:51:34Z</time>
  <speed>2.960000</speed>
</trkpt>
<trkpt lat="32.627826691" lon="35.131458282">
  <ele>88.158813</ele>
  <time>2011-11-22T18:51:35Z</time>
  <speed>3.080000</speed>
</trkpt>
<trkpt lat="32.627838135" lon="35.131427765">
  <ele>88.555298</ele>
  <time>2011-11-22T18:51:36Z</time>
  <speed>2.870000</speed>
</trkpt>
<trkpt lat="32.627857208" lon="35.131404877">
  <ele>88.459595</ele>
  <time>2011-11-22T18:51:37Z</time>
  <speed>2.950000</speed>
</trkpt>
<trkpt lat="32.627883911" lon="35.131385803">
  <ele>88.756470</ele>
  <time>2011-11-22T18:51:38Z</time>
  <speed>3.250000</speed>
</trkpt>
<trkpt lat="32.627910614" lon="35.131362915">
  <ele>89.121704</ele>
  <time>2011-11-22T18:51:39Z</time>
  <speed>3.200000</speed>
</trkpt>
<trkpt lat="32.627941132" lon="35.131340027">
  <ele>89.268188</ele>
  <time>2011-11-22T18:51:40Z</time>
  <speed>3.390000</speed>
</trkpt>
<trkpt lat="32.627967834" lon="35.131324768">
  <ele>89.529907</ele>
  <time>2011-11-22T18:51:41Z</time>
  <speed>3.200000</speed>
</trkpt>
<trkpt lat="32.627998352" lon="35.131313324">
  <ele>90.033813</ele>
  <time>2011-11-22T18:51:42Z</time>
  <speed>3.180000</speed>
</trkpt>
<trkpt lat="32.628028870" lon="35.131309509">
  <ele>90.168579</ele>
  <time>2011-11-22T18:51:43Z</time>
  <speed>3.190000</speed>
</trkpt>
<trkpt lat="32.628082275" lon="35.131301880">
  <ele>90.797485</ele>
  <time>2011-11-22T18:51:45Z</time>
  <speed>2.760000</speed>
</trkpt>
<trkpt lat="32.628112793" lon="35.131294250">
  <ele>90.240845</ele>
  <time>2011-11-22T18:51:46Z</time>
  <speed>2.860000</speed>
</trkpt>
<trkpt lat="32.628158569" lon="35.131278992">
  <ele>89.723267</ele>
  <time>2011-11-22T18:51:48Z</time>
  <speed>2.550000</speed>
</trkpt>
<trkpt lat="32.628204346" lon="35.131267548">
  <ele>89.381470</ele>
  <time>2011-11-22T18:51:50Z</time>
  <speed>2.380000</speed>
</trkpt>
<trkpt lat="32.628246307" lon="35.131263733">
  <ele>90.227173</ele>
  <time>2011-11-22T18:51:52Z</time>
  <speed>2.210000</speed>
</trkpt>
<trkpt lat="32.628288269" lon="35.131259918">
  <ele>89.848267</ele>
  <time>2011-11-22T18:51:54Z</time>
  <speed>1.960000</speed>
</trkpt>
<trkpt lat="32.628322601" lon="35.131244659">
  <ele>89.801392</ele>
  <time>2011-11-22T18:51:56Z</time>
  <speed>2.520000</speed>
</trkpt>
<trkpt lat="32.628372192" lon="35.131244659">
  <ele>90.125610</ele>
  <time>2011-11-22T18:51:58Z</time>
  <speed>2.290000</speed>
</trkpt>
<trkpt lat="32.628402710" lon="35.131229401">
  <ele>91.426392</ele>
  <time>2011-11-22T18:52:00Z</time>
  <speed>2.200000</speed>
</trkpt>
<trkpt lat="32.628437042" lon="35.131210327">
  <ele>91.588501</ele>
  <time>2011-11-22T18:52:02Z</time>
  <speed>2.500000</speed>
</trkpt>
<trkpt lat="32.628467560" lon="35.131202698">
  <ele>92.188110</ele>
  <time>2011-11-22T18:52:03Z</time>
  <speed>2.800000</speed>
</trkpt>
<trkpt lat="32.628509521" lon="35.131183624">
  <ele>92.285767</ele>
  <time>2011-11-22T18:52:05Z</time>
  <speed>2.940000</speed>
</trkpt>
<trkpt lat="32.628559113" lon="35.131172180">
  <ele>93.201782</ele>
  <time>2011-11-22T18:52:07Z</time>
  <speed>3.090000</speed>
</trkpt>
<trkpt lat="32.628585815" lon="35.131153107">
  <ele>93.283813</ele>
  <time>2011-11-22T18:52:08Z</time>
  <speed>3.290000</speed>
</trkpt>
<trkpt lat="32.628620148" lon="35.131149292">
  <ele>92.443970</ele>
  <time>2011-11-22T18:52:09Z</time>
  <speed>3.920000</speed>
</trkpt>
<trkpt lat="32.628650665" lon="35.131126404">
  <ele>92.949829</ele>
  <time>2011-11-22T18:52:10Z</time>
  <speed>3.630000</speed>
</trkpt>
<trkpt lat="32.628692627" lon="35.131107330">
  <ele>91.783813</ele>
  <time>2011-11-22T18:52:11Z</time>
  <speed>4.260000</speed>
</trkpt>
<trkpt lat="32.628730774" lon="35.131092072">
  <ele>91.682251</ele>
  <time>2011-11-22T18:52:12Z</time>
  <speed>4.680000</speed>
</trkpt>
<trkpt lat="32.628772736" lon="35.131072998">
  <ele>90.949829</ele>
  <time>2011-11-22T18:52:13Z</time>
  <speed>4.870000</speed>
</trkpt>
<trkpt lat="32.628810883" lon="35.131053925">
  <ele>91.375610</ele>
  <time>2011-11-22T18:52:14Z</time>
  <speed>5.280000</speed>
</trkpt>
<trkpt lat="32.628860474" lon="35.131034851">
  <ele>90.008423</ele>
  <time>2011-11-22T18:52:15Z</time>
  <speed>5.240000</speed>
</trkpt>
<trkpt lat="32.628906250" lon="35.131019592">
  <ele>89.959595</ele>
  <time>2011-11-22T18:52:16Z</time>
  <speed>5.740000</speed>
</trkpt>
<trkpt lat="32.628959656" lon="35.131004333">
  <ele>89.637329</ele>
  <time>2011-11-22T18:52:17Z</time>
  <speed>6.080000</speed>
</trkpt>
<trkpt lat="32.629016876" lon="35.130985260">
  <ele>88.922485</ele>
  <time>2011-11-22T18:52:18Z</time>
  <speed>6.470000</speed>
</trkpt>
<trkpt lat="32.629074097" lon="35.130966187">
  <ele>88.473267</ele>
  <time>2011-11-22T18:52:19Z</time>
  <speed>6.930000</speed>
</trkpt>
<trkpt lat="32.629131317" lon="35.130939484">
  <ele>87.785767</ele>
  <time>2011-11-22T18:52:20Z</time>
  <speed>7.190000</speed>
</trkpt>
<trkpt lat="32.629196167" lon="35.130908966">
  <ele>87.506470</ele>
  <time>2011-11-22T18:52:21Z</time>
  <speed>7.410000</speed>
</trkpt>
<trkpt lat="32.629257202" lon="35.130874634">
  <ele>87.180298</ele>
  <time>2011-11-22T18:52:22Z</time>
  <speed>7.680000</speed>
</trkpt>
<trkpt lat="32.629318237" lon="35.130836487">
  <ele>86.027954</ele>
  <time>2011-11-22T18:52:23Z</time>
  <speed>7.630000</speed>
</trkpt>
<trkpt lat="32.629379272" lon="35.130794525">
  <ele>85.891235</ele>
  <time>2011-11-22T18:52:24Z</time>
  <speed>7.790000</speed>
</trkpt>
<trkpt lat="32.629444122" lon="35.130760193">
  <ele>85.875610</ele>
  <time>2011-11-22T18:52:25Z</time>
  <speed>7.680000</speed>
</trkpt>
<trkpt lat="32.629512787" lon="35.130722046">
  <ele>85.764282</ele>
  <time>2011-11-22T18:52:26Z</time>
  <speed>7.650000</speed>
</trkpt>
<trkpt lat="32.629581451" lon="35.130687714">
  <ele>85.119751</ele>
  <time>2011-11-22T18:52:27Z</time>
  <speed>7.540000</speed>
</trkpt>
<trkpt lat="32.629642487" lon="35.130649567">
  <ele>84.520142</ele>
  <time>2011-11-22T18:52:28Z</time>
  <speed>7.290000</speed>
</trkpt>
<trkpt lat="32.629707336" lon="35.130611420">
  <ele>84.352173</ele>
  <time>2011-11-22T18:52:29Z</time>
  <speed>7.320000</speed>
</trkpt>
<trkpt lat="32.629764557" lon="35.130573273">
  <ele>83.793579</ele>
  <time>2011-11-22T18:52:30Z</time>
  <speed>7.220000</speed>
</trkpt>
<trkpt lat="32.629825592" lon="35.130531311">
  <ele>83.539673</ele>
  <time>2011-11-22T18:52:31Z</time>
  <speed>7.150000</speed>
</trkpt>
<trkpt lat="32.629882813" lon="35.130493164">
  <ele>83.604126</ele>
  <time>2011-11-22T18:52:32Z</time>
  <speed>6.980000</speed>
</trkpt>
<trkpt lat="32.629936218" lon="35.130451202">
  <ele>83.647095</ele>
  <time>2011-11-22T18:52:33Z</time>
  <speed>6.900000</speed>
</trkpt>
<trkpt lat="32.629981995" lon="35.130409241">
  <ele>83.637329</ele>
  <time>2011-11-22T18:52:34Z</time>
  <speed>6.790000</speed>
</trkpt>
<trkpt lat="32.630027771" lon="35.130359650">
  <ele>84.151001</ele>
  <time>2011-11-22T18:52:35Z</time>
  <speed>6.670000</speed>
</trkpt>
<trkpt lat="32.630081177" lon="35.130321503">
  <ele>83.871704</ele>
  <time>2011-11-22T18:52:36Z</time>
  <speed>6.540000</speed>
</trkpt>
<trkpt lat="32.630130768" lon="35.130283356">
  <ele>83.959595</ele>
  <time>2011-11-22T18:52:37Z</time>
  <speed>6.380000</speed>
</trkpt>
<trkpt lat="32.630172729" lon="35.130237579">
  <ele>83.832642</ele>
  <time>2011-11-22T18:52:38Z</time>
  <speed>6.250000</speed>
</trkpt>
<trkpt lat="32.630218506" lon="35.130199432">
  <ele>83.613892</ele>
  <time>2011-11-22T18:52:39Z</time>
  <speed>6.160000</speed>
</trkpt>
<trkpt lat="32.630264282" lon="35.130161285">
  <ele>83.471313</ele>
  <time>2011-11-22T18:52:40Z</time>
  <speed>5.980000</speed>
</trkpt>
<trkpt lat="32.630310059" lon="35.130123138">
  <ele>83.371704</ele>
  <time>2011-11-22T18:52:41Z</time>
  <speed>5.900000</speed>
</trkpt>
<trkpt lat="32.630352020" lon="35.130084991">
  <ele>83.639282</ele>
  <time>2011-11-22T18:52:42Z</time>
  <speed>5.850000</speed>
</trkpt>
<trkpt lat="32.630397797" lon="35.130054474">
  <ele>83.617798</ele>
  <time>2011-11-22T18:52:43Z</time>
  <speed>5.730000</speed>
</trkpt>
<trkpt lat="32.630435944" lon="35.130016327">
  <ele>84.026001</ele>
  <time>2011-11-22T18:52:44Z</time>
  <speed>5.510000</speed>
</trkpt>
<trkpt lat="32.630474091" lon="35.129981995">
  <ele>84.217407</ele>
  <time>2011-11-22T18:52:45Z</time>
  <speed>5.410000</speed>
</trkpt>
<trkpt lat="32.630516052" lon="35.129951477">
  <ele>83.983032</ele>
  <time>2011-11-22T18:52:46Z</time>
  <speed>5.260000</speed>
</trkpt>
<trkpt lat="32.630558014" lon="35.129928589">
  <ele>83.692017</ele>
  <time>2011-11-22T18:52:47Z</time>
  <speed>5.180000</speed>
</trkpt>
<trkpt lat="32.630592346" lon="35.129890442">
  <ele>83.578735</ele>
  <time>2011-11-22T18:52:48Z</time>
  <speed>4.990000</speed>
</trkpt>
<trkpt lat="32.630626678" lon="35.129856110">
  <ele>83.479126</ele>
  <time>2011-11-22T18:52:49Z</time>
  <speed>4.760000</speed>
</trkpt>
<trkpt lat="32.630664825" lon="35.129829407">
  <ele>83.065063</ele>
  <time>2011-11-22T18:52:50Z</time>
  <speed>4.650000</speed>
</trkpt>
<trkpt lat="32.630702972" lon="35.129806519">
  <ele>82.785767</ele>
  <time>2011-11-22T18:52:51Z</time>
  <speed>4.490000</speed>
</trkpt>
<trkpt lat="32.630737305" lon="35.129779816">
  <ele>82.895142</ele>
  <time>2011-11-22T18:52:52Z</time>
  <speed>4.370000</speed>
</trkpt>
<trkpt lat="32.630771637" lon="35.129756927">
  <ele>83.231079</ele>
  <time>2011-11-22T18:52:53Z</time>
  <speed>4.160000</speed>
</trkpt>
<trkpt lat="32.630802155" lon="35.129730225">
  <ele>83.158813</ele>
  <time>2011-11-22T18:52:54Z</time>
  <speed>4.160000</speed>
</trkpt>
<trkpt lat="32.630832672" lon="35.129703522">
  <ele>83.104126</ele>
  <time>2011-11-22T18:52:55Z</time>
  <speed>4.280000</speed>
</trkpt>
<trkpt lat="32.630867004" lon="35.129676819">
  <ele>82.633423</ele>
  <time>2011-11-22T18:52:56Z</time>
  <speed>4.530000</speed>
</trkpt>
<trkpt lat="32.630901337" lon="35.129646301">
  <ele>83.018188</ele>
  <time>2011-11-22T18:52:57Z</time>
  <speed>4.510000</speed>
</trkpt>
<trkpt lat="32.630931854" lon="35.129627228">
  <ele>83.063110</ele>
  <time>2011-11-22T18:52:58Z</time>
  <speed>4.400000</speed>
</trkpt>
<trkpt lat="32.630966187" lon="35.129600525">
  <ele>82.891235</ele>
  <time>2011-11-22T18:52:59Z</time>
  <speed>4.370000</speed>
</trkpt>
<trkpt lat="32.630996704" lon="35.129570007">
  <ele>83.000610</ele>
  <time>2011-11-22T18:53:00Z</time>
  <speed>4.340000</speed>
</trkpt>
<trkpt lat="32.631027222" lon="35.129543304">
  <ele>83.164673</ele>
  <time>2011-11-22T18:53:01Z</time>
  <speed>4.200000</speed>
</trkpt>
<trkpt lat="32.631057739" lon="35.129516602">
  <ele>83.152954</ele>
  <time>2011-11-22T18:53:02Z</time>
  <speed>4.130000</speed>
</trkpt>
<trkpt lat="32.631084442" lon="35.129489899">
  <ele>83.428345</ele>
  <time>2011-11-22T18:53:03Z</time>
  <speed>4.170000</speed>
</trkpt>
<trkpt lat="32.631118774" lon="35.129459381">
  <ele>83.127563</ele>
  <time>2011-11-22T18:53:04Z</time>
  <speed>4.240000</speed>
</trkpt>
<trkpt lat="32.631153107" lon="35.129436493">
  <ele>82.815063</ele>
  <time>2011-11-22T18:53:05Z</time>
  <speed>4.260000</speed>
</trkpt>
<trkpt lat="32.631187439" lon="35.129413605">
  <ele>83.018188</ele>
  <time>2011-11-22T18:53:06Z</time>
  <speed>4.070000</speed>
</trkpt>
<trkpt lat="32.631217957" lon="35.129390717">
  <ele>83.026001</ele>
  <time>2011-11-22T18:53:07Z</time>
  <speed>4.180000</speed>
</trkpt>
<trkpt lat="32.631252289" lon="35.129371643">
  <ele>82.693970</ele>
  <time>2011-11-22T18:53:08Z</time>
  <speed>4.260000</speed>
</trkpt>
<trkpt lat="32.631286621" lon="35.129348755">
  <ele>82.600220</ele>
  <time>2011-11-22T18:53:09Z</time>
  <speed>4.050000</speed>
</trkpt>
<trkpt lat="32.631313324" lon="35.129322052">
  <ele>82.520142</ele>
  <time>2011-11-22T18:53:10Z</time>
  <speed>3.930000</speed>
</trkpt>
<trkpt lat="32.631340027" lon="35.129295349">
  <ele>82.502563</ele>
  <time>2011-11-22T18:53:11Z</time>
  <speed>3.900000</speed>
</trkpt>
<trkpt lat="32.631366730" lon="35.129272461">
  <ele>82.813110</ele>
  <time>2011-11-22T18:53:12Z</time>
  <speed>3.730000</speed>
</trkpt>
<trkpt lat="32.631397247" lon="35.129249573">
  <ele>82.891235</ele>
  <time>2011-11-22T18:53:13Z</time>
  <speed>3.770000</speed>
</trkpt>
<trkpt lat="32.631423950" lon="35.129219055">
  <ele>83.012329</ele>
  <time>2011-11-22T18:53:14Z</time>
  <speed>3.530000</speed>
</trkpt>
<trkpt lat="32.631446838" lon="35.129192352">
  <ele>82.631470</ele>
  <time>2011-11-22T18:53:15Z</time>
  <speed>3.540000</speed>
</trkpt>
<trkpt lat="32.631469727" lon="35.129169464">
  <ele>82.526001</ele>
  <time>2011-11-22T18:53:16Z</time>
  <speed>3.460000</speed>
</trkpt>
<trkpt lat="32.631496429" lon="35.129150391">
  <ele>82.602173</ele>
  <time>2011-11-22T18:53:17Z</time>
  <speed>3.460000</speed>
</trkpt>
<trkpt lat="32.631519318" lon="35.129123688">
  <ele>82.535767</ele>
  <time>2011-11-22T18:53:18Z</time>
  <speed>3.370000</speed>
</trkpt>
<trkpt lat="32.631534576" lon="35.129100800">
  <ele>82.680298</ele>
  <time>2011-11-22T18:53:19Z</time>
  <speed>3.390000</speed>
</trkpt>
<trkpt lat="32.631557465" lon="35.129074097">
  <ele>82.842407</ele>
  <time>2011-11-22T18:53:20Z</time>
  <speed>3.740000</speed>
</trkpt>
<trkpt lat="32.631584167" lon="35.129039764">
  <ele>83.358032</ele>
  <time>2011-11-22T18:53:21Z</time>
  <speed>3.840000</speed>
</trkpt>
<trkpt lat="32.631607056" lon="35.129013062">
  <ele>83.383423</ele>
  <time>2011-11-22T18:53:22Z</time>
  <speed>3.890000</speed>
</trkpt>
<trkpt lat="32.631637573" lon="35.128982544">
  <ele>83.479126</ele>
  <time>2011-11-22T18:53:23Z</time>
  <speed>3.800000</speed>
</trkpt>
<trkpt lat="32.631660461" lon="35.128955841">
  <ele>83.729126</ele>
  <time>2011-11-22T18:53:24Z</time>
  <speed>3.680000</speed>
</trkpt>
<trkpt lat="32.631671906" lon="35.128925323">
  <ele>83.522095</ele>
  <time>2011-11-22T18:53:25Z</time>
  <speed>3.540000</speed>
</trkpt>
<trkpt lat="32.631687164" lon="35.128894806">
  <ele>83.346313</ele>
  <time>2011-11-22T18:53:26Z</time>
  <speed>3.350000</speed>
</trkpt>
<trkpt lat="32.631694794" lon="35.128860474">
  <ele>82.512329</ele>
  <time>2011-11-22T18:53:27Z</time>
  <speed>3.290000</speed>
</trkpt>
<trkpt lat="32.631679535" lon="35.128826141">
  <ele>82.402954</ele>
  <time>2011-11-22T18:53:28Z</time>
  <speed>2.970000</speed>
</trkpt>
<trkpt lat="32.631660461" lon="35.128799438">
  <ele>81.223267</ele>
  <time>2011-11-22T18:53:29Z</time>
  <speed>2.610000</speed>
</trkpt>
<trkpt lat="32.631637573" lon="35.128776550">
  <ele>80.748657</ele>
  <time>2011-11-22T18:53:30Z</time>
  <speed>2.620000</speed>
</trkpt>
<trkpt lat="32.631618500" lon="35.128753662">
  <ele>80.658813</ele>
  <time>2011-11-22T18:53:31Z</time>
  <speed>2.720000</speed>
</trkpt>
<trkpt lat="32.631599426" lon="35.128726959">
  <ele>80.842407</ele>
  <time>2011-11-22T18:53:32Z</time>
  <speed>2.710000</speed>
</trkpt>
<trkpt lat="32.631580353" lon="35.128700256">
  <ele>80.633423</ele>
  <time>2011-11-22T18:53:33Z</time>
  <speed>2.660000</speed>
</trkpt>
<trkpt lat="32.631542206" lon="35.128669739">
  <ele>80.186157</ele>
  <time>2011-11-22T18:53:35Z</time>
  <speed>2.020000</speed>
</trkpt>
<trkpt lat="32.631507874" lon="35.128639221">
  <ele>79.942017</ele>
  <time>2011-11-22T18:53:37Z</time>
  <speed>1.810000</speed>
</trkpt>
<trkpt lat="32.631477356" lon="35.128620148">
  <ele>80.774048</ele>
  <time>2011-11-22T18:53:39Z</time>
  <speed>1.420000</speed>
</trkpt>
<trkpt lat="32.631450653" lon="35.128589630">
  <ele>80.295532</ele>
  <time>2011-11-22T18:53:41Z</time>
  <speed>2.270000</speed>
</trkpt>
<trkpt lat="32.631423950" lon="35.128555298">
  <ele>79.483032</ele>
  <time>2011-11-22T18:53:43Z</time>
  <speed>2.320000</speed>
</trkpt>
<trkpt lat="32.631389618" lon="35.128524780">
  <ele>79.356079</ele>
  <time>2011-11-22T18:53:45Z</time>
  <speed>2.120000</speed>
</trkpt>
<trkpt lat="32.631359100" lon="35.128494263">
  <ele>79.744751</ele>
  <time>2011-11-22T18:53:47Z</time>
  <speed>2.020000</speed>
</trkpt>
<trkpt lat="32.631324768" lon="35.128467560">
  <ele>79.746704</ele>
  <time>2011-11-22T18:53:49Z</time>
  <speed>2.060000</speed>
</trkpt>
<trkpt lat="32.631298065" lon="35.128448486">
  <ele>80.817017</ele>
  <time>2011-11-22T18:53:51Z</time>
  <speed>2.010000</speed>
</trkpt>
<trkpt lat="32.631267548" lon="35.128414154">
  <ele>81.406860</ele>
  <time>2011-11-22T18:53:53Z</time>
  <speed>1.800000</speed>
</trkpt>
<trkpt lat="32.631248474" lon="35.128383636">
  <ele>81.635376</ele>
  <time>2011-11-22T18:53:55Z</time>
  <speed>1.650000</speed>
</trkpt>
<trkpt lat="32.631221771" lon="35.128364563">
  <ele>81.608032</ele>
  <time>2011-11-22T18:53:57Z</time>
  <speed>1.470000</speed>
</trkpt>
<trkpt lat="32.631195068" lon="35.128345490">
  <ele>81.108032</ele>
  <time>2011-11-22T18:53:59Z</time>
  <speed>1.570000</speed>
</trkpt>
<trkpt lat="32.631175995" lon="35.128318787">
  <ele>80.879517</ele>
  <time>2011-11-22T18:54:01Z</time>
  <speed>1.540000</speed>
</trkpt>
<trkpt lat="32.631156921" lon="35.128295898">
  <ele>80.309204</ele>
  <time>2011-11-22T18:54:03Z</time>
  <speed>1.300000</speed>
</trkpt>
<trkpt lat="32.631130219" lon="35.128273010">
  <ele>80.498657</ele>
  <time>2011-11-22T18:54:06Z</time>
  <speed>1.430000</speed>
</trkpt>
<trkpt lat="32.631111145" lon="35.128238678">
  <ele>80.801392</ele>
  <time>2011-11-22T18:54:09Z</time>
  <speed>1.660000</speed>
</trkpt>
<trkpt lat="32.631095886" lon="35.128200531">
  <ele>80.680298</ele>
  <time>2011-11-22T18:54:11Z</time>
  <speed>1.720000</speed>
</trkpt>
<trkpt lat="32.631072998" lon="35.128177643">
  <ele>80.346313</ele>
  <time>2011-11-22T18:54:13Z</time>
  <speed>1.650000</speed>
</trkpt>
<trkpt lat="32.631053925" lon="35.128139496">
  <ele>80.420532</ele>
  <time>2011-11-22T18:54:15Z</time>
  <speed>1.980000</speed>
</trkpt>
<trkpt lat="32.631038666" lon="35.128101349">
  <ele>81.359985</ele>
  <time>2011-11-22T18:54:17Z</time>
  <speed>1.990000</speed>
</trkpt>
<trkpt lat="32.631023407" lon="35.128067017">
  <ele>81.606079</ele>
  <time>2011-11-22T18:54:19Z</time>
  <speed>2.630000</speed>
</trkpt>
<trkpt lat="32.630996704" lon="35.128028870">
  <ele>82.033813</ele>
  <time>2011-11-22T18:54:21Z</time>
  <speed>2.620000</speed>
</trkpt>
<trkpt lat="32.630977631" lon="35.127986908">
  <ele>82.522095</ele>
  <time>2011-11-22T18:54:23Z</time>
  <speed>1.490000</speed>
</trkpt>
<trkpt lat="32.630954742" lon="35.127937317">
  <ele>83.502563</ele>
  <time>2011-11-22T18:54:26Z</time>
  <speed>1.410000</speed>
</trkpt>
<trkpt lat="32.630928040" lon="35.127902985">
  <ele>83.736938</ele>
  <time>2011-11-22T18:54:28Z</time>
  <speed>2.030000</speed>
</trkpt>
<trkpt lat="32.630901337" lon="35.127857208">
  <ele>84.022095</ele>
  <time>2011-11-22T18:54:30Z</time>
  <speed>1.630000</speed>
</trkpt>
<trkpt lat="32.630886078" lon="35.127822876">
  <ele>84.033813</ele>
  <time>2011-11-22T18:54:32Z</time>
  <speed>1.610000</speed>
</trkpt>
<trkpt lat="32.630867004" lon="35.127773285">
  <ele>84.108032</ele>
  <time>2011-11-22T18:54:34Z</time>
  <speed>1.730000</speed>
</trkpt>
<trkpt lat="32.630840302" lon="35.127738953">
  <ele>84.326782</ele>
  <time>2011-11-22T18:54:36Z</time>
  <speed>1.510000</speed>
</trkpt>
<trkpt lat="32.630817413" lon="35.127700806">
  <ele>84.320923</ele>
  <time>2011-11-22T18:54:38Z</time>
  <speed>1.630000</speed>
</trkpt>
<trkpt lat="32.630779266" lon="35.127658844">
  <ele>84.160767</ele>
  <time>2011-11-22T18:54:40Z</time>
  <speed>1.780000</speed>
</trkpt>
<trkpt lat="32.630760193" lon="35.127628326">
  <ele>84.035767</ele>
  <time>2011-11-22T18:54:42Z</time>
  <speed>1.320000</speed>
</trkpt>
<trkpt lat="32.630748749" lon="35.127593994">
  <ele>83.777954</ele>
  <time>2011-11-22T18:54:44Z</time>
  <speed>1.300000</speed>
</trkpt>
<trkpt lat="32.630737305" lon="35.127567291">
  <ele>83.955688</ele>
  <time>2011-11-22T18:54:46Z</time>
  <speed>1.290000</speed>
</trkpt>
<trkpt lat="32.630733490" lon="35.127525330">
  <ele>84.055298</ele>
  <time>2011-11-22T18:54:48Z</time>
  <speed>1.370000</speed>
</trkpt>
<trkpt lat="32.630702972" lon="35.127479553">
  <ele>83.500610</ele>
  <time>2011-11-22T18:54:50Z</time>
  <speed>1.330000</speed>
</trkpt>
<trkpt lat="32.630691528" lon="35.127441406">
  <ele>83.576782</ele>
  <time>2011-11-22T18:54:52Z</time>
  <speed>1.360000</speed>
</trkpt>
<trkpt lat="32.630687714" lon="35.127395630">
  <ele>83.764282</ele>
  <time>2011-11-22T18:54:54Z</time>
  <speed>1.510000</speed>
</trkpt>
<trkpt lat="32.630664825" lon="35.127357483">
  <ele>83.537720</ele>
  <time>2011-11-22T18:54:56Z</time>
  <speed>1.330000</speed>
</trkpt>
<trkpt lat="32.630653381" lon="35.127319336">
  <ele>82.861938</ele>
  <time>2011-11-22T18:54:58Z</time>
  <speed>1.620000</speed>
</trkpt>
<trkpt lat="32.630634308" lon="35.127281189">
  <ele>82.904907</ele>
  <time>2011-11-22T18:55:00Z</time>
  <speed>1.710000</speed>
</trkpt>
<trkpt lat="32.630619049" lon="35.127239227">
  <ele>83.020142</ele>
  <time>2011-11-22T18:55:02Z</time>
  <speed>1.520000</speed>
</trkpt>
<trkpt lat="32.630603790" lon="35.127208710">
  <ele>82.488892</ele>
  <time>2011-11-22T18:55:04Z</time>
  <speed>1.190000</speed>
</trkpt>
<trkpt lat="32.630588531" lon="35.127170563">
  <ele>81.867798</ele>
  <time>2011-11-22T18:55:06Z</time>
  <speed>1.500000</speed>
</trkpt>
<trkpt lat="32.630569458" lon="35.127117157">
  <ele>82.379517</ele>
  <time>2011-11-22T18:55:08Z</time>
  <speed>2.170000</speed>
</trkpt>
<trkpt lat="32.630542755" lon="35.127067566">
  <ele>81.443970</ele>
  <time>2011-11-22T18:55:10Z</time>
  <speed>1.570000</speed>
</trkpt>
<trkpt lat="32.630512238" lon="35.127021790">
  <ele>80.940063</ele>
  <time>2011-11-22T18:55:12Z</time>
  <speed>1.440000</speed>
</trkpt>
<trkpt lat="32.630489349" lon="35.126983643">
  <ele>80.977173</ele>
  <time>2011-11-22T18:55:14Z</time>
  <speed>1.890000</speed>
</trkpt>
<trkpt lat="32.630470276" lon="35.126945496">
  <ele>81.416626</ele>
  <time>2011-11-22T18:55:16Z</time>
  <speed>1.900000</speed>
</trkpt>
<trkpt lat="32.630458832" lon="35.126903534">
  <ele>81.533813</ele>
  <time>2011-11-22T18:55:18Z</time>
  <speed>2.310000</speed>
</trkpt>
<trkpt lat="32.630439758" lon="35.126853943">
  <ele>81.113892</ele>
  <time>2011-11-22T18:55:20Z</time>
  <speed>2.450000</speed>
</trkpt>
<trkpt lat="32.630420685" lon="35.126811981">
  <ele>80.988892</ele>
  <time>2011-11-22T18:55:22Z</time>
  <speed>1.770000</speed>
</trkpt>
<trkpt lat="32.630401611" lon="35.126785278">
  <ele>80.731079</ele>
  <time>2011-11-22T18:55:23Z</time>
  <speed>2.040000</speed>
</trkpt>
<trkpt lat="32.630386353" lon="35.126747131">
  <ele>81.649048</ele>
  <time>2011-11-22T18:55:25Z</time>
  <speed>1.550000</speed>
</trkpt>
<trkpt lat="32.630367279" lon="35.126705170">
  <ele>82.014282</ele>
  <time>2011-11-22T18:55:27Z</time>
  <speed>1.690000</speed>
</trkpt>
<trkpt lat="32.630336761" lon="35.126674652">
  <ele>82.846313</ele>
  <time>2011-11-22T18:55:29Z</time>
  <speed>1.630000</speed>
</trkpt>
<trkpt lat="32.630317688" lon="35.126625061">
  <ele>83.209595</ele>
  <time>2011-11-22T18:55:31Z</time>
  <speed>1.720000</speed>
</trkpt>
<trkpt lat="32.630287170" lon="35.126575470">
  <ele>83.176392</ele>
  <time>2011-11-22T18:55:33Z</time>
  <speed>1.950000</speed>
</trkpt>
<trkpt lat="32.630264282" lon="35.126525879">
  <ele>84.692017</ele>
  <time>2011-11-22T18:55:34Z</time>
  <speed>2.170000</speed>
</trkpt>
<trkpt lat="32.630241394" lon="35.126472473">
  <ele>83.852173</ele>
  <time>2011-11-22T18:55:36Z</time>
  <speed>2.180000</speed>
</trkpt>
<trkpt lat="32.630222321" lon="35.126434326">
  <ele>83.633423</ele>
  <time>2011-11-22T18:55:38Z</time>
  <speed>1.910000</speed>
</trkpt>
<trkpt lat="32.630207062" lon="35.126396179">
  <ele>83.553345</ele>
  <time>2011-11-22T18:55:40Z</time>
  <speed>1.800000</speed>
</trkpt>
<trkpt lat="32.630195618" lon="35.126346588">
  <ele>83.897095</ele>
  <time>2011-11-22T18:55:42Z</time>
  <speed>1.850000</speed>
</trkpt>
<trkpt lat="32.630176544" lon="35.126319885">
  <ele>83.836548</ele>
  <time>2011-11-22T18:55:43Z</time>
  <speed>2.160000</speed>
</trkpt>
<trkpt lat="32.630153656" lon="35.126304626">
  <ele>84.789673</ele>
  <time>2011-11-22T18:55:44Z</time>
  <speed>1.940000</speed>
</trkpt>
<trkpt lat="32.630138397" lon="35.126247406">
  <ele>87.215454</ele>
  <time>2011-11-22T18:55:46Z</time>
  <speed>2.050000</speed>
</trkpt>
<trkpt lat="32.630119324" lon="35.126205444">
  <ele>88.969360</ele>
  <time>2011-11-22T18:55:48Z</time>
  <speed>1.880000</speed>
</trkpt>
<trkpt lat="32.630104065" lon="35.126178741">
  <ele>90.274048</ele>
  <time>2011-11-22T18:55:49Z</time>
  <speed>2.060000</speed>
</trkpt>
<trkpt lat="32.630104065" lon="35.126140594">
  <ele>92.158813</ele>
  <time>2011-11-22T18:55:51Z</time>
  <speed>1.920000</speed>
</trkpt>
<trkpt lat="32.630084991" lon="35.126113892">
  <ele>92.914673</ele>
  <time>2011-11-22T18:55:52Z</time>
  <speed>2.320000</speed>
</trkpt>
<trkpt lat="32.630069733" lon="35.126071930">
  <ele>93.018188</ele>
  <time>2011-11-22T18:55:54Z</time>
  <speed>2.040000</speed>
</trkpt>
<trkpt lat="32.630058289" lon="35.126033783">
  <ele>92.776001</ele>
  <time>2011-11-22T18:55:56Z</time>
  <speed>1.930000</speed>
</trkpt>
<trkpt lat="32.630046844" lon="35.125995636">
  <ele>93.518188</ele>
  <time>2011-11-22T18:55:58Z</time>
  <speed>2.030000</speed>
</trkpt>
<trkpt lat="32.630031586" lon="35.125961304">
  <ele>94.848267</ele>
  <time>2011-11-22T18:56:00Z</time>
  <speed>1.160000</speed>
</trkpt>
<trkpt lat="32.630016327" lon="35.125934601">
  <ele>95.574829</ele>
  <time>2011-11-22T18:56:02Z</time>
  <speed>1.800000</speed>
</trkpt>
<trkpt lat="32.629997253" lon="35.125888824">
  <ele>96.766235</ele>
  <time>2011-11-22T18:56:04Z</time>
  <speed>1.810000</speed>
</trkpt>
<trkpt lat="32.629981995" lon="35.125862122">
  <ele>98.053345</ele>
  <time>2011-11-22T18:56:06Z</time>
  <speed>1.850000</speed>
</trkpt>
<trkpt lat="32.629959106" lon="35.125827789">
  <ele>98.420532</ele>
  <time>2011-11-22T18:56:08Z</time>
  <speed>1.240000</speed>
</trkpt>
<trkpt lat="32.629943848" lon="35.125793457">
  <ele>98.733032</ele>
  <time>2011-11-22T18:56:10Z</time>
  <speed>1.050000</speed>
</trkpt>
<trkpt lat="32.629940033" lon="35.125736237">
  <ele>99.242798</ele>
  <time>2011-11-22T18:56:12Z</time>
  <speed>1.560000</speed>
</trkpt>
<trkpt lat="32.629920959" lon="35.125698090">
  <ele>99.447876</ele>
  <time>2011-11-22T18:56:14Z</time>
  <speed>1.580000</speed>
</trkpt>
<trkpt lat="32.629913330" lon="35.125656128">
  <ele>100.236938</ele>
  <time>2011-11-22T18:56:16Z</time>
  <speed>1.440000</speed>
</trkpt>
<trkpt lat="32.629901886" lon="35.125617981">
  <ele>99.570923</ele>
  <time>2011-11-22T18:56:18Z</time>
  <speed>1.590000</speed>
</trkpt>
<trkpt lat="32.629882813" lon="35.125579834">
  <ele>100.301392</ele>
  <time>2011-11-22T18:56:20Z</time>
  <speed>1.440000</speed>
</trkpt>
<trkpt lat="32.629859924" lon="35.125545502">
  <ele>100.111938</ele>
  <time>2011-11-22T18:56:22Z</time>
  <speed>1.690000</speed>
</trkpt>
<trkpt lat="32.629840851" lon="35.125518799">
  <ele>99.570923</ele>
  <time>2011-11-22T18:56:24Z</time>
  <speed>1.540000</speed>
</trkpt>
<trkpt lat="32.629833221" lon="35.125480652">
  <ele>99.535767</ele>
  <time>2011-11-22T18:56:26Z</time>
  <speed>1.610000</speed>
</trkpt>
<trkpt lat="32.629821777" lon="35.125434875">
  <ele>99.664673</ele>
  <time>2011-11-22T18:56:28Z</time>
  <speed>1.440000</speed>
</trkpt>
<trkpt lat="32.629814148" lon="35.125389099">
  <ele>99.684204</ele>
  <time>2011-11-22T18:56:30Z</time>
  <speed>1.820000</speed>
</trkpt>
<trkpt lat="32.629810333" lon="35.125343323">
  <ele>100.424438</ele>
  <time>2011-11-22T18:56:32Z</time>
  <speed>1.740000</speed>
</trkpt>
<trkpt lat="32.629787445" lon="35.125297546">
  <ele>101.047485</ele>
  <time>2011-11-22T18:56:34Z</time>
  <speed>1.840000</speed>
</trkpt>
<trkpt lat="32.629768372" lon="35.125255585">
  <ele>101.391235</ele>
  <time>2011-11-22T18:56:36Z</time>
  <speed>1.870000</speed>
</trkpt>
<trkpt lat="32.629749298" lon="35.125217438">
  <ele>101.559204</ele>
  <time>2011-11-22T18:56:38Z</time>
  <speed>1.870000</speed>
</trkpt>
<trkpt lat="32.629734039" lon="35.125186920">
  <ele>101.893188</ele>
  <time>2011-11-22T18:56:40Z</time>
  <speed>1.360000</speed>
</trkpt>
<trkpt lat="32.629714966" lon="35.125156403">
  <ele>101.143188</ele>
  <time>2011-11-22T18:56:42Z</time>
  <speed>1.680000</speed>
</trkpt>
<trkpt lat="32.629703522" lon="35.125125885">
  <ele>100.668579</ele>
  <time>2011-11-22T18:56:44Z</time>
  <speed>1.620000</speed>
</trkpt>
<trkpt lat="32.629695892" lon="35.125091553">
  <ele>100.469360</ele>
  <time>2011-11-22T18:56:46Z</time>
  <speed>1.110000</speed>
</trkpt>
<trkpt lat="32.629692078" lon="35.125061035">
  <ele>102.412720</ele>
  <time>2011-11-22T18:56:48Z</time>
  <speed>1.300000</speed>
</trkpt>
<trkpt lat="32.629676819" lon="35.125015259">
  <ele>103.010376</ele>
  <time>2011-11-22T18:56:50Z</time>
  <speed>1.510000</speed>
</trkpt>
<trkpt lat="32.629680634" lon="35.124988556">
  <ele>105.078735</ele>
  <time>2011-11-22T18:56:52Z</time>
  <speed>1.270000</speed>
</trkpt>
<trkpt lat="32.629669189" lon="35.124946594">
  <ele>106.074829</ele>
  <time>2011-11-22T18:56:55Z</time>
  <speed>1.200000</speed>
</trkpt>
<trkpt lat="32.629669189" lon="35.124912262">
  <ele>105.451782</ele>
  <time>2011-11-22T18:56:57Z</time>
  <speed>1.590000</speed>
</trkpt>
<trkpt lat="32.629642487" lon="35.124855042">
  <ele>106.502563</ele>
  <time>2011-11-22T18:56:59Z</time>
  <speed>1.800000</speed>
</trkpt>
<trkpt lat="32.629631042" lon="35.124816895">
  <ele>106.981079</ele>
  <time>2011-11-22T18:57:01Z</time>
  <speed>1.790000</speed>
</trkpt>
<trkpt lat="32.629619598" lon="35.124774933">
  <ele>107.197876</ele>
  <time>2011-11-22T18:57:03Z</time>
  <speed>1.590000</speed>
</trkpt>
<trkpt lat="32.629604340" lon="35.124740601">
  <ele>107.277954</ele>
  <time>2011-11-22T18:57:05Z</time>
  <speed>1.610000</speed>
</trkpt>
<trkpt lat="32.629577637" lon="35.124694824">
  <ele>107.369751</ele>
  <time>2011-11-22T18:57:07Z</time>
  <speed>1.330000</speed>
</trkpt>
<trkpt lat="32.629570007" lon="35.124660492">
  <ele>107.291626</ele>
  <time>2011-11-22T18:57:09Z</time>
  <speed>1.360000</speed>
</trkpt>
<trkpt lat="32.629558563" lon="35.124622345">
  <ele>108.020142</ele>
  <time>2011-11-22T18:57:11Z</time>
  <speed>1.730000</speed>
</trkpt>
<trkpt lat="32.629543304" lon="35.124584198">
  <ele>107.922485</ele>
  <time>2011-11-22T18:57:13Z</time>
  <speed>1.560000</speed>
</trkpt>
<trkpt lat="32.629516602" lon="35.124546051">
  <ele>108.158813</ele>
  <time>2011-11-22T18:57:15Z</time>
  <speed>1.590000</speed>
</trkpt>
<trkpt lat="32.629505157" lon="35.124519348">
  <ele>108.826782</ele>
  <time>2011-11-22T18:57:17Z</time>
  <speed>1.770000</speed>
</trkpt>
<trkpt lat="32.629497528" lon="35.124488831">
  <ele>108.842407</ele>
  <time>2011-11-22T18:57:19Z</time>
  <speed>1.320000</speed>
</trkpt>
<trkpt lat="32.629486084" lon="35.124450684">
  <ele>109.080688</ele>
  <time>2011-11-22T18:57:21Z</time>
  <speed>1.620000</speed>
</trkpt>
<trkpt lat="32.629482269" lon="35.124412537">
  <ele>108.969360</ele>
  <time>2011-11-22T18:57:23Z</time>
  <speed>1.840000</speed>
</trkpt>
<trkpt lat="32.629482269" lon="35.124366760">
  <ele>110.119751</ele>
  <time>2011-11-22T18:57:25Z</time>
  <speed>1.660000</speed>
</trkpt>
<trkpt lat="32.629478455" lon="35.124324799">
  <ele>111.848267</ele>
  <time>2011-11-22T18:57:27Z</time>
  <speed>1.940000</speed>
</trkpt>
<trkpt lat="32.629463196" lon="35.124282837">
  <ele>113.330688</ele>
  <time>2011-11-22T18:57:29Z</time>
  <speed>1.450000</speed>
</trkpt>
<trkpt lat="32.629447937" lon="35.124244690">
  <ele>113.092407</ele>
  <time>2011-11-22T18:57:31Z</time>
  <speed>1.340000</speed>
</trkpt>
<trkpt lat="32.629436493" lon="35.124214172">
  <ele>112.660767</ele>
  <time>2011-11-22T18:57:33Z</time>
  <speed>1.350000</speed>
</trkpt>
<trkpt lat="32.629405975" lon="35.124217987">
  <ele>113.026001</ele>
  <time>2011-11-22T18:57:35Z</time>
  <speed>1.880000</speed>
</trkpt>
<trkpt lat="32.629379272" lon="35.124233246">
  <ele>112.674438</ele>
  <time>2011-11-22T18:57:37Z</time>
  <speed>1.460000</speed>
</trkpt>
<trkpt lat="32.629360199" lon="35.124267578">
  <ele>112.750610</ele>
  <time>2011-11-22T18:57:39Z</time>
  <speed>1.860000</speed>
</trkpt>
<trkpt lat="32.629344940" lon="35.124324799">
  <ele>112.594360</ele>
  <time>2011-11-22T18:57:41Z</time>
  <speed>1.980000</speed>
</trkpt>
<trkpt lat="32.629352570" lon="35.124366760">
  <ele>112.867798</ele>
  <time>2011-11-22T18:57:43Z</time>
  <speed>2.240000</speed>
</trkpt>
<trkpt lat="32.629360199" lon="35.124412537">
  <ele>113.365845</ele>
  <time>2011-11-22T18:57:44Z</time>
  <speed>2.650000</speed>
</trkpt>
<trkpt lat="32.629386902" lon="35.124465942">
  <ele>113.098267</ele>
  <time>2011-11-22T18:57:46Z</time>
  <speed>3.020000</speed>
</trkpt>
<trkpt lat="32.629379272" lon="35.124500275">
  <ele>112.752563</ele>
  <time>2011-11-22T18:57:47Z</time>
  <speed>2.810000</speed>
</trkpt>
<trkpt lat="32.629386902" lon="35.124557495">
  <ele>112.846313</ele>
  <time>2011-11-22T18:57:48Z</time>
  <speed>3.520000</speed>
</trkpt>
<trkpt lat="32.629394531" lon="35.124603271">
  <ele>112.744751</ele>
  <time>2011-11-22T18:57:49Z</time>
  <speed>4.490000</speed>
</trkpt>
<trkpt lat="32.629390717" lon="35.124652863">
  <ele>112.557251</ele>
  <time>2011-11-22T18:57:50Z</time>
  <speed>3.780000</speed>
</trkpt>
<trkpt lat="32.629398346" lon="35.124698639">
  <ele>112.389282</ele>
  <time>2011-11-22T18:57:51Z</time>
  <speed>3.460000</speed>
</trkpt>
<trkpt lat="32.629402161" lon="35.124732971">
  <ele>112.315063</ele>
  <time>2011-11-22T18:57:52Z</time>
  <speed>2.990000</speed>
</trkpt>
<trkpt lat="32.629413605" lon="35.124774933">
  <ele>112.733032</ele>
  <time>2011-11-22T18:57:53Z</time>
  <speed>2.600000</speed>
</trkpt>
<trkpt lat="32.629413605" lon="35.124828339">
  <ele>113.201782</ele>
  <time>2011-11-22T18:57:55Z</time>
  <speed>2.040000</speed>
</trkpt>
<trkpt lat="32.629402161" lon="35.124881744">
  <ele>114.151001</ele>
  <time>2011-11-22T18:57:57Z</time>
  <speed>1.980000</speed>
</trkpt>
<trkpt lat="32.629394531" lon="35.124927521">
  <ele>114.455688</ele>
  <time>2011-11-22T18:57:59Z</time>
  <speed>2.320000</speed>
</trkpt>
<trkpt lat="32.629386902" lon="35.124969482">
  <ele>115.016235</ele>
  <time>2011-11-22T18:58:01Z</time>
  <speed>1.450000</speed>
</trkpt>
<trkpt lat="32.629375458" lon="35.125015259">
  <ele>115.811157</ele>
  <time>2011-11-22T18:58:03Z</time>
  <speed>1.710000</speed>
</trkpt>
<trkpt lat="32.629364014" lon="35.125045776">
  <ele>115.244751</ele>
  <time>2011-11-22T18:58:04Z</time>
  <speed>2.030000</speed>
</trkpt>
<trkpt lat="32.629348755" lon="35.125083923">
  <ele>115.740845</ele>
  <time>2011-11-22T18:58:06Z</time>
  <speed>1.530000</speed>
</trkpt>
<trkpt lat="32.629333496" lon="35.125114441">
  <ele>116.520142</ele>
  <time>2011-11-22T18:58:08Z</time>
  <speed>1.710000</speed>
</trkpt>
<trkpt lat="32.629333496" lon="35.125171661">
  <ele>117.504517</ele>
  <time>2011-11-22T18:58:10Z</time>
  <speed>2.120000</speed>
</trkpt>
<trkpt lat="32.629322052" lon="35.125225067">
  <ele>118.736938</ele>
  <time>2011-11-22T18:58:12Z</time>
  <speed>2.070000</speed>
</trkpt>
<trkpt lat="32.629318237" lon="35.125274658">
  <ele>119.764282</ele>
  <time>2011-11-22T18:58:14Z</time>
  <speed>1.880000</speed>
</trkpt>
<trkpt lat="32.629302979" lon="35.125320435">
  <ele>120.082642</ele>
  <time>2011-11-22T18:58:16Z</time>
  <speed>2.080000</speed>
</trkpt>
<trkpt lat="32.629268646" lon="35.125362396">
  <ele>121.856079</ele>
  <time>2011-11-22T18:58:18Z</time>
  <speed>1.850000</speed>
</trkpt>
<trkpt lat="32.629241943" lon="35.125381470">
  <ele>123.053345</ele>
  <time>2011-11-22T18:58:20Z</time>
  <speed>2.060000</speed>
</trkpt>
<trkpt lat="32.629203796" lon="35.125370026">
  <ele>123.824829</ele>
  <time>2011-11-22T18:58:22Z</time>
  <speed>2.020000</speed>
</trkpt>
<trkpt lat="32.629173279" lon="35.125339508">
  <ele>124.809204</ele>
  <time>2011-11-22T18:58:24Z</time>
  <speed>2.020000</speed>
</trkpt>
<trkpt lat="32.629158020" lon="35.125308990">
  <ele>124.668579</ele>
  <time>2011-11-22T18:58:25Z</time>
  <speed>2.110000</speed>
</trkpt>
<trkpt lat="32.629135132" lon="35.125259399">
  <ele>125.334595</ele>
  <time>2011-11-22T18:58:27Z</time>
  <speed>2.120000</speed>
</trkpt>
<trkpt lat="32.629119873" lon="35.125221252">
  <ele>125.451782</ele>
  <time>2011-11-22T18:58:29Z</time>
  <speed>2.070000</speed>
</trkpt>
<trkpt lat="32.629108429" lon="35.125167847">
  <ele>125.904907</ele>
  <time>2011-11-22T18:58:31Z</time>
  <speed>1.740000</speed>
</trkpt>
<trkpt lat="32.629096985" lon="35.125133514">
  <ele>126.408813</ele>
  <time>2011-11-22T18:58:33Z</time>
  <speed>2.140000</speed>
</trkpt>
<trkpt lat="32.629089355" lon="35.125091553">
  <ele>126.863892</ele>
  <time>2011-11-22T18:58:35Z</time>
  <speed>1.520000</speed>
</trkpt>
<trkpt lat="32.629081726" lon="35.125049591">
  <ele>126.770142</ele>
  <time>2011-11-22T18:58:37Z</time>
  <speed>1.970000</speed>
</trkpt>
<trkpt lat="32.629077911" lon="35.125011444">
  <ele>127.484985</ele>
  <time>2011-11-22T18:58:39Z</time>
  <speed>1.880000</speed>
</trkpt>
<trkpt lat="32.629070282" lon="35.124969482">
  <ele>127.834595</ele>
  <time>2011-11-22T18:58:41Z</time>
  <speed>1.690000</speed>
</trkpt>
<trkpt lat="32.629070282" lon="35.124931335">
  <ele>128.243408</ele>
  <time>2011-11-22T18:58:43Z</time>
  <speed>1.740000</speed>
</trkpt>
<trkpt lat="32.629062653" lon="35.124885559">
  <ele>128.680908</ele>
  <time>2011-11-22T18:58:45Z</time>
  <speed>1.460000</speed>
</trkpt>
<trkpt lat="32.629051208" lon="35.124855042">
  <ele>128.747314</ele>
  <time>2011-11-22T18:58:47Z</time>
  <speed>1.630000</speed>
</trkpt>
<trkpt lat="32.629039764" lon="35.124820709">
  <ele>129.747314</ele>
  <time>2011-11-22T18:58:49Z</time>
  <speed>1.780000</speed>
</trkpt>
<trkpt lat="32.629016876" lon="35.124797821">
  <ele>129.727783</ele>
  <time>2011-11-22T18:58:51Z</time>
  <speed>1.650000</speed>
</trkpt>
<trkpt lat="32.628997803" lon="35.124767303">
  <ele>130.407471</ele>
  <time>2011-11-22T18:58:54Z</time>
  <speed>1.360000</speed>
</trkpt>
<trkpt lat="32.628963470" lon="35.124767303">
  <ele>130.364502</ele>
  <time>2011-11-22T18:58:56Z</time>
  <speed>1.160000</speed>
</trkpt>
<trkpt lat="32.628932953" lon="35.124771118">
  <ele>131.153564</ele>
  <time>2011-11-22T18:58:58Z</time>
  <speed>1.280000</speed>
</trkpt>
<trkpt lat="32.628913879" lon="35.124786377">
  <ele>132.321533</ele>
  <time>2011-11-22T18:59:00Z</time>
  <speed>1.430000</speed>
</trkpt>
<trkpt lat="32.628902435" lon="35.124824524">
  <ele>132.286377</ele>
  <time>2011-11-22T18:59:02Z</time>
  <speed>1.390000</speed>
</trkpt>
<trkpt lat="32.628864288" lon="35.124851227">
  <ele>132.294189</ele>
  <time>2011-11-22T18:59:05Z</time>
  <speed>1.670000</speed>
</trkpt>
<trkpt lat="32.628841400" lon="35.124870300">
  <ele>131.688721</ele>
  <time>2011-11-22T18:59:07Z</time>
  <speed>1.750000</speed>
</trkpt>
<trkpt lat="32.628810883" lon="35.124885559">
  <ele>131.419189</ele>
  <time>2011-11-22T18:59:09Z</time>
  <speed>1.720000</speed>
</trkpt>
<trkpt lat="32.628780365" lon="35.124904633">
  <ele>132.442627</ele>
  <time>2011-11-22T18:59:11Z</time>
  <speed>1.770000</speed>
</trkpt>
<trkpt lat="32.628753662" lon="35.124919891">
  <ele>132.282471</ele>
  <time>2011-11-22T18:59:13Z</time>
  <speed>1.730000</speed>
</trkpt>
<trkpt lat="32.628715515" lon="35.124931335">
  <ele>132.391846</ele>
  <time>2011-11-22T18:59:15Z</time>
  <speed>1.940000</speed>
</trkpt>
<trkpt lat="32.628681183" lon="35.124954224">
  <ele>133.641846</ele>
  <time>2011-11-22T18:59:17Z</time>
  <speed>2.160000</speed>
</trkpt>
<trkpt lat="32.628643036" lon="35.124977112">
  <ele>133.794189</ele>
  <time>2011-11-22T18:59:19Z</time>
  <speed>2.030000</speed>
</trkpt>
<trkpt lat="32.628612518" lon="35.124996185">
  <ele>133.688721</ele>
  <time>2011-11-22T18:59:21Z</time>
  <speed>2.210000</speed>
</trkpt>
<trkpt lat="32.628574371" lon="35.125026703">
  <ele>133.825439</ele>
  <time>2011-11-22T18:59:23Z</time>
  <speed>2.030000</speed>
</trkpt>
<trkpt lat="32.628543854" lon="35.125041962">
  <ele>133.606689</ele>
  <time>2011-11-22T18:59:25Z</time>
  <speed>2.180000</speed>
</trkpt>
<trkpt lat="32.628494263" lon="35.125068665">
  <ele>134.462158</ele>
  <time>2011-11-22T18:59:27Z</time>
  <speed>2.460000</speed>
</trkpt>
<trkpt lat="32.628456116" lon="35.125091553">
  <ele>135.134033</ele>
  <time>2011-11-22T18:59:29Z</time>
  <speed>2.680000</speed>
</trkpt>
<trkpt lat="32.628410339" lon="35.125122070">
  <ele>136.391846</ele>
  <time>2011-11-22T18:59:31Z</time>
  <speed>2.540000</speed>
</trkpt>
<trkpt lat="32.628364563" lon="35.125144958">
  <ele>136.024658</ele>
  <time>2011-11-22T18:59:33Z</time>
  <speed>2.710000</speed>
</trkpt>
<trkpt lat="32.628330231" lon="35.125175476">
  <ele>136.368408</ele>
  <time>2011-11-22T18:59:35Z</time>
  <speed>2.420000</speed>
</trkpt>
<trkpt lat="32.628303528" lon="35.125183105">
  <ele>136.106689</ele>
  <time>2011-11-22T18:59:36Z</time>
  <speed>2.620000</speed>
</trkpt>
<trkpt lat="32.628253937" lon="35.125202179">
  <ele>135.130127</ele>
  <time>2011-11-22T18:59:38Z</time>
  <speed>2.910000</speed>
</trkpt>
<trkpt lat="32.628227234" lon="35.125213623">
  <ele>134.958252</ele>
  <time>2011-11-22T18:59:39Z</time>
  <speed>2.890000</speed>
</trkpt>
<trkpt lat="32.628177643" lon="35.125221252">
  <ele>134.501221</ele>
  <time>2011-11-22T18:59:41Z</time>
  <speed>2.860000</speed>
</trkpt>
<trkpt lat="32.628128052" lon="35.125232697">
  <ele>134.337158</ele>
  <time>2011-11-22T18:59:43Z</time>
  <speed>2.780000</speed>
</trkpt>
<trkpt lat="32.628101349" lon="35.125247955">
  <ele>134.286377</ele>
  <time>2011-11-22T18:59:44Z</time>
  <speed>3.190000</speed>
</trkpt>
<trkpt lat="32.628074646" lon="35.125255585">
  <ele>133.774658</ele>
  <time>2011-11-22T18:59:45Z</time>
  <speed>2.910000</speed>
</trkpt>
<trkpt lat="32.628028870" lon="35.125270844">
  <ele>133.716064</ele>
  <time>2011-11-22T18:59:47Z</time>
  <speed>2.670000</speed>
</trkpt>
<trkpt lat="32.627994537" lon="35.125293732">
  <ele>134.024658</ele>
  <time>2011-11-22T18:59:48Z</time>
  <speed>3.090000</speed>
</trkpt>
<trkpt lat="32.627944946" lon="35.125316620">
  <ele>135.114502</ele>
  <time>2011-11-22T18:59:50Z</time>
  <speed>3.040000</speed>
</trkpt>
<trkpt lat="32.627918243" lon="35.125331879">
  <ele>135.739502</ele>
  <time>2011-11-22T18:59:51Z</time>
  <speed>3.120000</speed>
</trkpt>
<trkpt lat="32.627883911" lon="35.125343323">
  <ele>135.548096</ele>
  <time>2011-11-22T18:59:52Z</time>
  <speed>3.090000</speed>
</trkpt>
<trkpt lat="32.627857208" lon="35.125354767">
  <ele>135.798096</ele>
  <time>2011-11-22T18:59:53Z</time>
  <speed>3.080000</speed>
</trkpt>
<trkpt lat="32.627822876" lon="35.125354767">
  <ele>135.872314</ele>
  <time>2011-11-22T18:59:54Z</time>
  <speed>3.130000</speed>
</trkpt>
<trkpt lat="32.627769470" lon="35.125373840">
  <ele>135.411377</ele>
  <time>2011-11-22T18:59:56Z</time>
  <speed>3.280000</speed>
</trkpt>
<trkpt lat="32.627742767" lon="35.125385284">
  <ele>135.532471</ele>
  <time>2011-11-22T18:59:57Z</time>
  <speed>3.180000</speed>
</trkpt>
<trkpt lat="32.627712250" lon="35.125396729">
  <ele>134.704346</ele>
  <time>2011-11-22T18:59:58Z</time>
  <speed>3.470000</speed>
</trkpt>
<trkpt lat="32.627677917" lon="35.125404358">
  <ele>134.981689</ele>
  <time>2011-11-22T18:59:59Z</time>
  <speed>3.700000</speed>
</trkpt>
<trkpt lat="32.627651215" lon="35.125419617">
  <ele>135.407471</ele>
  <time>2011-11-22T19:00:00Z</time>
  <speed>3.730000</speed>
</trkpt>
<trkpt lat="32.627605438" lon="35.125450134">
  <ele>137.579346</ele>
  <time>2011-11-22T19:00:02Z</time>
  <speed>3.600000</speed>
</trkpt>
<trkpt lat="32.627578735" lon="35.125461578">
  <ele>138.450439</ele>
  <time>2011-11-22T19:00:03Z</time>
  <speed>3.790000</speed>
</trkpt>
<trkpt lat="32.627548218" lon="35.125473022">
  <ele>139.091064</ele>
  <time>2011-11-22T19:00:04Z</time>
  <speed>3.760000</speed>
</trkpt>
<trkpt lat="32.627521515" lon="35.125476837">
  <ele>138.516846</ele>
  <time>2011-11-22T19:00:05Z</time>
  <speed>3.100000</speed>
</trkpt>
<trkpt lat="32.627494812" lon="35.125488281">
  <ele>140.024658</ele>
  <time>2011-11-22T19:00:06Z</time>
  <speed>2.790000</speed>
</trkpt>
<trkpt lat="32.627449036" lon="35.125503540">
  <ele>140.637939</ele>
  <time>2011-11-22T19:00:08Z</time>
  <speed>2.310000</speed>
</trkpt>
<trkpt lat="32.627418518" lon="35.125511169">
  <ele>140.387939</ele>
  <time>2011-11-22T19:00:10Z</time>
  <speed>2.130000</speed>
</trkpt>
<trkpt lat="32.627376556" lon="35.125522614">
  <ele>141.348877</ele>
  <time>2011-11-22T19:00:12Z</time>
  <speed>2.420000</speed>
</trkpt>
<trkpt lat="32.627338409" lon="35.125534058">
  <ele>142.571533</ele>
  <time>2011-11-22T19:00:14Z</time>
  <speed>2.290000</speed>
</trkpt>
<trkpt lat="32.627296448" lon="35.125537872">
  <ele>143.122314</ele>
  <time>2011-11-22T19:00:16Z</time>
  <speed>2.080000</speed>
</trkpt>
<trkpt lat="32.627258301" lon="35.125537872">
  <ele>144.145752</ele>
  <time>2011-11-22T19:00:18Z</time>
  <speed>2.330000</speed>
</trkpt>
<trkpt lat="32.627212524" lon="35.125534058">
  <ele>144.184814</ele>
  <time>2011-11-22T19:00:20Z</time>
  <speed>2.260000</speed>
</trkpt>
<trkpt lat="32.627178192" lon="35.125518799">
  <ele>144.298096</ele>
  <time>2011-11-22T19:00:22Z</time>
  <speed>1.300000</speed>
</trkpt>
<trkpt lat="32.627151489" lon="35.125511169">
  <ele>144.743408</ele>
  <time>2011-11-22T19:00:24Z</time>
  <speed>1.960000</speed>
</trkpt>
<trkpt lat="32.627113342" lon="35.125499725">
  <ele>144.743408</ele>
  <time>2011-11-22T19:00:26Z</time>
  <speed>1.840000</speed>
</trkpt>
<trkpt lat="32.627079010" lon="35.125480652">
  <ele>145.591064</ele>
  <time>2011-11-22T19:00:28Z</time>
  <speed>1.850000</speed>
</trkpt>
<trkpt lat="32.627048492" lon="35.125457764">
  <ele>146.692627</ele>
  <time>2011-11-22T19:00:30Z</time>
  <speed>1.710000</speed>
</trkpt>
<trkpt lat="32.627014160" lon="35.125438690">
  <ele>147.872314</ele>
  <time>2011-11-22T19:00:32Z</time>
  <speed>1.540000</speed>
</trkpt>
<trkpt lat="32.626987457" lon="35.125431061">
  <ele>149.360596</ele>
  <time>2011-11-22T19:00:34Z</time>
  <speed>1.660000</speed>
</trkpt>
<trkpt lat="32.626964569" lon="35.125411987">
  <ele>150.063721</ele>
  <time>2011-11-22T19:00:36Z</time>
  <speed>1.590000</speed>
</trkpt>
<trkpt lat="32.626937866" lon="35.125404358">
  <ele>150.938721</ele>
  <time>2011-11-22T19:00:38Z</time>
  <speed>1.920000</speed>
</trkpt>
<trkpt lat="32.626907349" lon="35.125389099">
  <ele>151.454346</ele>
  <time>2011-11-22T19:00:40Z</time>
  <speed>1.840000</speed>
</trkpt>
<trkpt lat="32.626873016" lon="35.125370026">
  <ele>152.262939</ele>
  <time>2011-11-22T19:00:42Z</time>
  <speed>1.450000</speed>
</trkpt>
<trkpt lat="32.626842499" lon="35.125358582">
  <ele>152.848877</ele>
  <time>2011-11-22T19:00:44Z</time>
  <speed>1.830000</speed>
</trkpt>
<trkpt lat="32.626815796" lon="35.125347137">
  <ele>153.665283</ele>
  <time>2011-11-22T19:00:46Z</time>
  <speed>1.830000</speed>
</trkpt>
<trkpt lat="32.626785278" lon="35.125339508">
  <ele>154.180908</ele>
  <time>2011-11-22T19:00:48Z</time>
  <speed>1.460000</speed>
</trkpt>
<trkpt lat="32.626754761" lon="35.125312805">
  <ele>154.380127</ele>
  <time>2011-11-22T19:00:51Z</time>
  <speed>1.320000</speed>
</trkpt>
<trkpt lat="32.626728058" lon="35.125308990">
  <ele>155.591064</ele>
  <time>2011-11-22T19:00:53Z</time>
  <speed>1.580000</speed>
</trkpt>
<trkpt lat="32.626701355" lon="35.125293732">
  <ele>155.805908</ele>
  <time>2011-11-22T19:00:55Z</time>
  <speed>1.660000</speed>
</trkpt>
<trkpt lat="32.626667023" lon="35.125282288">
  <ele>157.450439</ele>
  <time>2011-11-22T19:00:57Z</time>
  <speed>1.470000</speed>
</trkpt>
<trkpt lat="32.626640320" lon="35.125274658">
  <ele>158.251221</ele>
  <time>2011-11-22T19:00:59Z</time>
  <speed>1.280000</speed>
</trkpt>
<trkpt lat="32.626617432" lon="35.125247955">
  <ele>158.759033</ele>
  <time>2011-11-22T19:01:02Z</time>
  <speed>1.020000</speed>
</trkpt>
<trkpt lat="32.626579285" lon="35.125236511">
  <ele>158.934814</ele>
  <time>2011-11-22T19:01:05Z</time>
  <speed>1.240000</speed>
</trkpt>
<trkpt lat="32.626548767" lon="35.125213623">
  <ele>160.290283</ele>
  <time>2011-11-22T19:01:08Z</time>
  <speed>1.110000</speed>
</trkpt>
<trkpt lat="32.626518250" lon="35.125186920">
  <ele>161.079346</ele>
  <time>2011-11-22T19:01:11Z</time>
  <speed>1.240000</speed>
</trkpt>
<trkpt lat="32.626483917" lon="35.125186920">
  <ele>161.579346</ele>
  <time>2011-11-22T19:01:14Z</time>
  <speed>1.330000</speed>
</trkpt>
<trkpt lat="32.626461029" lon="35.125164032">
  <ele>162.821533</ele>
  <time>2011-11-22T19:01:16Z</time>
  <speed>1.060000</speed>
</trkpt>
<trkpt lat="32.626438141" lon="35.125141144">
  <ele>162.294189</ele>
  <time>2011-11-22T19:01:18Z</time>
  <speed>1.210000</speed>
</trkpt>
<trkpt lat="32.626407623" lon="35.125125885">
  <ele>162.192627</ele>
  <time>2011-11-22T19:01:21Z</time>
  <speed>0.980000</speed>
</trkpt>
<trkpt lat="32.626403809" lon="35.125080109">
  <ele>161.294189</ele>
  <time>2011-11-22T19:01:24Z</time>
  <speed>1.300000</speed>
</trkpt>
<trkpt lat="32.626415253" lon="35.125049591">
  <ele>161.911377</ele>
  <time>2011-11-22T19:01:26Z</time>
  <speed>1.650000</speed>
</trkpt>
<trkpt lat="32.626441956" lon="35.125022888">
  <ele>162.094971</ele>
  <time>2011-11-22T19:01:28Z</time>
  <speed>1.150000</speed>
</trkpt>
<trkpt lat="32.626453400" lon="35.124996185">
  <ele>163.098877</ele>
  <time>2011-11-22T19:01:30Z</time>
  <speed>1.030000</speed>
</trkpt>
<trkpt lat="32.626476288" lon="35.124965668">
  <ele>163.946533</ele>
  <time>2011-11-22T19:01:33Z</time>
  <speed>1.140000</speed>
</trkpt>
<trkpt lat="32.626499176" lon="35.124954224">
  <ele>164.653564</ele>
  <time>2011-11-22T19:01:35Z</time>
  <speed>1.280000</speed>
</trkpt>
<trkpt lat="32.626533508" lon="35.124965668">
  <ele>165.532471</ele>
  <time>2011-11-22T19:01:38Z</time>
  <speed>1.250000</speed>
</trkpt>
<trkpt lat="32.626556396" lon="35.124946594">
  <ele>166.153564</ele>
  <time>2011-11-22T19:01:40Z</time>
  <speed>1.100000</speed>
</trkpt>
<trkpt lat="32.626594543" lon="35.124931335">
  <ele>166.950439</ele>
  <time>2011-11-22T19:01:44Z</time>
  <speed>1.310000</speed>
</trkpt>
<trkpt lat="32.626617432" lon="35.124919891">
  <ele>167.927002</ele>
  <time>2011-11-22T19:01:46Z</time>
  <speed>1.490000</speed>
</trkpt>
<trkpt lat="32.626647949" lon="35.124904633">
  <ele>167.677002</ele>
  <time>2011-11-22T19:01:48Z</time>
  <speed>1.070000</speed>
</trkpt>
<trkpt lat="32.626663208" lon="35.124885559">
  <ele>169.915283</ele>
  <time>2011-11-22T19:01:50Z</time>
  <speed>1.230000</speed>
</trkpt>
<trkpt lat="32.626701355" lon="35.124877930">
  <ele>170.032471</ele>
  <time>2011-11-22T19:01:53Z</time>
  <speed>0.950000</speed>
</trkpt>
<trkpt lat="32.626728058" lon="35.124866486">
  <ele>171.016846</ele>
  <time>2011-11-22T19:01:55Z</time>
  <speed>1.310000</speed>
</trkpt>
<trkpt lat="32.626750946" lon="35.124843597">
  <ele>171.884033</ele>
  <time>2011-11-22T19:01:57Z</time>
  <speed>2.050000</speed>
</trkpt>
<trkpt lat="32.626792908" lon="35.124839783">
  <ele>171.989502</ele>
  <time>2011-11-22T19:01:59Z</time>
  <speed>1.830000</speed>
</trkpt>
<trkpt lat="32.626834869" lon="35.124824524">
  <ele>172.548096</ele>
  <time>2011-11-22T19:02:01Z</time>
  <speed>1.570000</speed>
</trkpt>
<trkpt lat="32.626873016" lon="35.124820709">
  <ele>173.524658</ele>
  <time>2011-11-22T19:02:04Z</time>
  <speed>1.610000</speed>
</trkpt>
<trkpt lat="32.626907349" lon="35.124805450">
  <ele>173.915283</ele>
  <time>2011-11-22T19:02:06Z</time>
  <speed>1.870000</speed>
</trkpt>
<trkpt lat="32.626934052" lon="35.124794006">
  <ele>173.649658</ele>
  <time>2011-11-22T19:02:07Z</time>
  <speed>1.870000</speed>
</trkpt>
<trkpt lat="32.626972198" lon="35.124778748">
  <ele>174.337158</ele>
  <time>2011-11-22T19:02:09Z</time>
  <speed>2.070000</speed>
</trkpt>
<trkpt lat="32.627002716" lon="35.124767303">
  <ele>175.180908</ele>
  <time>2011-11-22T19:02:10Z</time>
  <speed>2.900000</speed>
</trkpt>
<trkpt lat="32.627044678" lon="35.124759674">
  <ele>175.485596</ele>
  <time>2011-11-22T19:02:12Z</time>
  <speed>2.100000</speed>
</trkpt>
<trkpt lat="32.627075195" lon="35.124729156">
  <ele>177.278564</ele>
  <time>2011-11-22T19:02:14Z</time>
  <speed>2.010000</speed>
</trkpt>
<trkpt lat="32.627105713" lon="35.124713898">
  <ele>178.387939</ele>
  <time>2011-11-22T19:02:16Z</time>
  <speed>2.400000</speed>
</trkpt>
<trkpt lat="32.627143860" lon="35.124706268">
  <ele>178.372314</ele>
  <time>2011-11-22T19:02:18Z</time>
  <speed>1.940000</speed>
</trkpt>
<trkpt lat="32.627178192" lon="35.124687195">
  <ele>178.134033</ele>
  <time>2011-11-22T19:02:20Z</time>
  <speed>1.990000</speed>
</trkpt>
<trkpt lat="32.627212524" lon="35.124668121">
  <ele>178.602783</ele>
  <time>2011-11-22T19:02:22Z</time>
  <speed>1.940000</speed>
</trkpt>
<trkpt lat="32.627239227" lon="35.124645233">
  <ele>178.833252</ele>
  <time>2011-11-22T19:02:24Z</time>
  <speed>1.650000</speed>
</trkpt>
<trkpt lat="32.627277374" lon="35.124633789">
  <ele>178.946533</ele>
  <time>2011-11-22T19:02:26Z</time>
  <speed>1.330000</speed>
</trkpt>
<trkpt lat="32.627323151" lon="35.124626160">
  <ele>179.423096</ele>
  <time>2011-11-22T19:02:28Z</time>
  <speed>1.520000</speed>
</trkpt>
<trkpt lat="32.627368927" lon="35.124629974">
  <ele>179.075439</ele>
  <time>2011-11-22T19:02:30Z</time>
  <speed>1.490000</speed>
</trkpt>
<trkpt lat="32.627414703" lon="35.124618530">
  <ele>178.977783</ele>
  <time>2011-11-22T19:02:32Z</time>
  <speed>1.630000</speed>
</trkpt>
<trkpt lat="32.627441406" lon="35.124610901">
  <ele>179.352783</ele>
  <time>2011-11-22T19:03:07Z</time>
  <speed>0.780000</speed>
</trkpt>
<trkpt lat="32.627468109" lon="35.124588013">
  <ele>179.259033</ele>
  <time>2011-11-22T19:03:10Z</time>
  <speed>0.970000</speed>
</trkpt>
<trkpt lat="32.627506256" lon="35.124572754">
  <ele>179.302002</ele>
  <time>2011-11-22T19:03:12Z</time>
  <speed>2.280000</speed>
</trkpt>
<trkpt lat="32.627555847" lon="35.124542236">
  <ele>178.841064</ele>
  <time>2011-11-22T19:03:14Z</time>
  <speed>3.230000</speed>
</trkpt>
<trkpt lat="32.627590179" lon="35.124538422">
  <ele>178.098877</ele>
  <time>2011-11-22T19:03:15Z</time>
  <speed>2.820000</speed>
</trkpt>
<trkpt lat="32.627620697" lon="35.124523163">
  <ele>177.384033</ele>
  <time>2011-11-22T19:03:16Z</time>
  <speed>2.940000</speed>
</trkpt>
<trkpt lat="32.627651215" lon="35.124504089">
  <ele>176.602783</ele>
  <time>2011-11-22T19:03:17Z</time>
  <speed>2.880000</speed>
</trkpt>
<trkpt lat="32.627689362" lon="35.124485016">
  <ele>176.157471</ele>
  <time>2011-11-22T19:03:18Z</time>
  <speed>2.170000</speed>
</trkpt>
<trkpt lat="32.627735138" lon="35.124454498">
  <ele>175.719971</ele>
  <time>2011-11-22T19:03:20Z</time>
  <speed>2.260000</speed>
</trkpt>
<trkpt lat="32.627773285" lon="35.124435425">
  <ele>175.235596</ele>
  <time>2011-11-22T19:03:22Z</time>
  <speed>1.430000</speed>
</trkpt>
<trkpt lat="32.627796173" lon="35.124401093">
  <ele>175.958252</ele>
  <time>2011-11-22T19:03:24Z</time>
  <speed>1.960000</speed>
</trkpt>
<trkpt lat="32.627838135" lon="35.124378204">
  <ele>176.634033</ele>
  <time>2011-11-22T19:03:26Z</time>
  <speed>2.000000</speed>
</trkpt>
<trkpt lat="32.627880096" lon="35.124347687">
  <ele>176.630127</ele>
  <time>2011-11-22T19:03:28Z</time>
  <speed>2.470000</speed>
</trkpt>
<trkpt lat="32.627906799" lon="35.124328613">
  <ele>176.579346</ele>
  <time>2011-11-22T19:03:29Z</time>
  <speed>3.260000</speed>
</trkpt>
<trkpt lat="32.627944946" lon="35.124313354">
  <ele>176.204346</ele>
  <time>2011-11-22T19:03:30Z</time>
  <speed>3.370000</speed>
</trkpt>
<trkpt lat="32.627979279" lon="35.124301910">
  <ele>175.977783</ele>
  <time>2011-11-22T19:03:31Z</time>
  <speed>3.440000</speed>
</trkpt>
<trkpt lat="32.628017426" lon="35.124290466">
  <ele>175.743408</ele>
  <time>2011-11-22T19:03:32Z</time>
  <speed>4.120000</speed>
</trkpt>
<trkpt lat="32.628063202" lon="35.124267578">
  <ele>174.907471</ele>
  <time>2011-11-22T19:03:33Z</time>
  <speed>5.220000</speed>
</trkpt>
<trkpt lat="32.628120422" lon="35.124237061">
  <ele>174.805908</ele>
  <time>2011-11-22T19:03:34Z</time>
  <speed>6.440000</speed>
</trkpt>
<trkpt lat="32.628181458" lon="35.124202728">
  <ele>173.895752</ele>
  <time>2011-11-22T19:03:35Z</time>
  <speed>7.110000</speed>
</trkpt>
<trkpt lat="32.628242493" lon="35.124153137">
  <ele>173.419189</ele>
  <time>2011-11-22T19:03:36Z</time>
  <speed>6.880000</speed>
</trkpt>
<trkpt lat="32.628299713" lon="35.124103546">
  <ele>173.173096</ele>
  <time>2011-11-22T19:03:37Z</time>
  <speed>6.900000</speed>
</trkpt>
<trkpt lat="32.628353119" lon="35.124050140">
  <ele>172.227783</ele>
  <time>2011-11-22T19:03:38Z</time>
  <speed>6.900000</speed>
</trkpt>
<trkpt lat="32.628402710" lon="35.124000549">
  <ele>171.692627</ele>
  <time>2011-11-22T19:03:39Z</time>
  <speed>6.800000</speed>
</trkpt>
<trkpt lat="32.628444672" lon="35.123935699">
  <ele>170.884033</ele>
  <time>2011-11-22T19:03:40Z</time>
  <speed>6.890000</speed>
</trkpt>
<trkpt lat="32.628486633" lon="35.123874664">
  <ele>169.321533</ele>
  <time>2011-11-22T19:03:41Z</time>
  <speed>6.920000</speed>
</trkpt>
<trkpt lat="32.628520966" lon="35.123813629">
  <ele>168.434814</ele>
  <time>2011-11-22T19:03:42Z</time>
  <speed>6.740000</speed>
</trkpt>
<trkpt lat="32.628562927" lon="35.123748779">
  <ele>167.903564</ele>
  <time>2011-11-22T19:03:43Z</time>
  <speed>6.690000</speed>
</trkpt>
<trkpt lat="32.628593445" lon="35.123691559">
  <ele>167.149658</ele>
  <time>2011-11-22T19:03:44Z</time>
  <speed>6.290000</speed>
</trkpt>
<trkpt lat="32.628620148" lon="35.123630524">
  <ele>166.040283</ele>
  <time>2011-11-22T19:03:45Z</time>
  <speed>6.350000</speed>
</trkpt>
<trkpt lat="32.628635406" lon="35.123565674">
  <ele>165.130127</ele>
  <time>2011-11-22T19:03:46Z</time>
  <speed>6.550000</speed>
</trkpt>
<trkpt lat="32.628654480" lon="35.123497009">
  <ele>164.489502</ele>
  <time>2011-11-22T19:03:47Z</time>
  <speed>6.460000</speed>
</trkpt>
<trkpt lat="32.628673553" lon="35.123424530">
  <ele>163.462158</ele>
  <time>2011-11-22T19:03:48Z</time>
  <speed>6.490000</speed>
</trkpt>
<trkpt lat="32.628692627" lon="35.123359680">
  <ele>162.868408</ele>
  <time>2011-11-22T19:03:49Z</time>
  <speed>6.090000</speed>
</trkpt>
<trkpt lat="32.628700256" lon="35.123283386">
  <ele>162.575439</ele>
  <time>2011-11-22T19:03:50Z</time>
  <speed>6.530000</speed>
</trkpt>
<trkpt lat="32.628704071" lon="35.123207092">
  <ele>162.063721</ele>
  <time>2011-11-22T19:03:51Z</time>
  <speed>6.740000</speed>
</trkpt>
<trkpt lat="32.628704071" lon="35.123126984">
  <ele>161.563721</ele>
  <time>2011-11-22T19:03:52Z</time>
  <speed>7.320000</speed>
</trkpt>
<trkpt lat="32.628707886" lon="35.123043060">
  <ele>161.149658</ele>
  <time>2011-11-22T19:03:53Z</time>
  <speed>7.300000</speed>
</trkpt>
<trkpt lat="32.628700256" lon="35.122970581">
  <ele>160.591064</ele>
  <time>2011-11-22T19:03:54Z</time>
  <speed>6.310000</speed>
</trkpt>
<trkpt lat="32.628704071" lon="35.122894287">
  <ele>159.282471</ele>
  <time>2011-11-22T19:03:55Z</time>
  <speed>7.650000</speed>
</trkpt>
<trkpt lat="32.628715515" lon="35.122817993">
  <ele>158.598877</ele>
  <time>2011-11-22T19:03:56Z</time>
  <speed>6.900000</speed>
</trkpt>
<trkpt lat="32.628738403" lon="35.122756958">
  <ele>158.180908</ele>
  <time>2011-11-22T19:03:57Z</time>
  <speed>6.090000</speed>
</trkpt>
<trkpt lat="32.628765106" lon="35.122703552">
  <ele>158.083252</ele>
  <time>2011-11-22T19:03:58Z</time>
  <speed>5.130000</speed>
</trkpt>
<trkpt lat="32.628803253" lon="35.122680664">
  <ele>158.442627</ele>
  <time>2011-11-22T19:03:59Z</time>
  <speed>3.370000</speed>
</trkpt>
<trkpt lat="32.628841400" lon="35.122665405">
  <ele>158.407471</ele>
  <time>2011-11-22T19:04:00Z</time>
  <speed>3.300000</speed>
</trkpt>
<trkpt lat="32.628879547" lon="35.122646332">
  <ele>159.071533</ele>
  <time>2011-11-22T19:04:01Z</time>
  <speed>3.350000</speed>
</trkpt>
<trkpt lat="32.628910065" lon="35.122627258">
  <ele>159.536377</ele>
  <time>2011-11-22T19:04:02Z</time>
  <speed>3.230000</speed>
</trkpt>
<trkpt lat="32.628967285" lon="35.122623444">
  <ele>160.352783</ele>
  <time>2011-11-22T19:04:03Z</time>
  <speed>3.540000</speed>
</trkpt>
<trkpt lat="32.628997803" lon="35.122612000">
  <ele>160.552002</ele>
  <time>2011-11-22T19:04:04Z</time>
  <speed>3.100000</speed>
</trkpt>
<trkpt lat="32.629028320" lon="35.122615814">
  <ele>161.024658</ele>
  <time>2011-11-22T19:04:05Z</time>
  <speed>2.890000</speed>
</trkpt>
<trkpt lat="32.629062653" lon="35.122612000">
  <ele>161.219971</ele>
  <time>2011-11-22T19:04:06Z</time>
  <speed>2.880000</speed>
</trkpt>
<trkpt lat="32.629096985" lon="35.122600555">
  <ele>160.969971</ele>
  <time>2011-11-22T19:04:07Z</time>
  <speed>3.030000</speed>
</trkpt>
<trkpt lat="32.629135132" lon="35.122589111">
  <ele>160.669189</ele>
  <time>2011-11-22T19:04:08Z</time>
  <speed>3.310000</speed>
</trkpt>
<trkpt lat="32.629169464" lon="35.122577667">
  <ele>160.458252</ele>
  <time>2011-11-22T19:04:09Z</time>
  <speed>3.680000</speed>
</trkpt>
<trkpt lat="32.629207611" lon="35.122562408">
  <ele>160.399658</ele>
  <time>2011-11-22T19:04:10Z</time>
  <speed>3.630000</speed>
</trkpt>
<trkpt lat="32.629241943" lon="35.122543335">
  <ele>159.700439</ele>
  <time>2011-11-22T19:04:11Z</time>
  <speed>3.850000</speed>
</trkpt>
<trkpt lat="32.629276276" lon="35.122528076">
  <ele>159.618408</ele>
  <time>2011-11-22T19:04:12Z</time>
  <speed>3.890000</speed>
</trkpt>
<trkpt lat="32.629318237" lon="35.122512817">
  <ele>159.231689</ele>
  <time>2011-11-22T19:04:13Z</time>
  <speed>4.220000</speed>
</trkpt>
<trkpt lat="32.629360199" lon="35.122493744">
  <ele>159.430908</ele>
  <time>2011-11-22T19:04:14Z</time>
  <speed>4.530000</speed>
</trkpt>
<trkpt lat="32.629398346" lon="35.122467041">
  <ele>159.427002</ele>
  <time>2011-11-22T19:04:15Z</time>
  <speed>4.860000</speed>
</trkpt>
<trkpt lat="32.629444122" lon="35.122440338">
  <ele>159.266846</ele>
  <time>2011-11-22T19:04:16Z</time>
  <speed>4.800000</speed>
</trkpt>
<trkpt lat="32.629486084" lon="35.122409821">
  <ele>158.891846</ele>
  <time>2011-11-22T19:04:17Z</time>
  <speed>5.030000</speed>
</trkpt>
<trkpt lat="32.629520416" lon="35.122367859">
  <ele>159.071533</ele>
  <time>2011-11-22T19:04:18Z</time>
  <speed>5.470000</speed>
</trkpt>
<trkpt lat="32.629566193" lon="35.122337341">
  <ele>158.969971</ele>
  <time>2011-11-22T19:04:19Z</time>
  <speed>5.760000</speed>
</trkpt>
<trkpt lat="32.629619598" lon="35.122291565">
  <ele>159.048096</ele>
  <time>2011-11-22T19:04:20Z</time>
  <speed>5.000000</speed>
</trkpt>
<trkpt lat="32.629650116" lon="35.122253418">
  <ele>158.466064</ele>
  <time>2011-11-22T19:04:21Z</time>
  <speed>4.530000</speed>
</trkpt>
<trkpt lat="32.629673004" lon="35.122219086">
  <ele>158.059814</ele>
  <time>2011-11-22T19:04:22Z</time>
  <speed>4.190000</speed>
</trkpt>
<trkpt lat="32.629703522" lon="35.122188568">
  <ele>157.880127</ele>
  <time>2011-11-22T19:04:23Z</time>
  <speed>4.230000</speed>
</trkpt>
<trkpt lat="32.629734039" lon="35.122161865">
  <ele>157.454346</ele>
  <time>2011-11-22T19:04:24Z</time>
  <speed>4.070000</speed>
</trkpt>
<trkpt lat="32.629768372" lon="35.122138977">
  <ele>157.798096</ele>
  <time>2011-11-22T19:04:25Z</time>
  <speed>4.290000</speed>
</trkpt>
<trkpt lat="32.629817963" lon="35.122138977">
  <ele>157.290283</ele>
  <time>2011-11-22T19:04:26Z</time>
  <speed>3.890000</speed>
</trkpt>
<trkpt lat="32.629837036" lon="35.122165680">
  <ele>156.091064</ele>
  <time>2011-11-22T19:04:27Z</time>
  <speed>3.280000</speed>
</trkpt>
<trkpt lat="32.629844666" lon="35.122200012">
  <ele>155.700439</ele>
  <time>2011-11-22T19:04:28Z</time>
  <speed>3.790000</speed>
</trkpt>
<trkpt lat="32.629840851" lon="35.122249603">
  <ele>155.735596</ele>
  <time>2011-11-22T19:04:29Z</time>
  <speed>4.410000</speed>
</trkpt>
<trkpt lat="32.629840851" lon="35.122314453">
  <ele>156.102783</ele>
  <time>2011-11-22T19:04:30Z</time>
  <speed>5.330000</speed>
</trkpt>
<trkpt lat="32.629844666" lon="35.122379303">
  <ele>156.466064</ele>
  <time>2011-11-22T19:04:31Z</time>
  <speed>5.160000</speed>
</trkpt>
<trkpt lat="32.629848480" lon="35.122436523">
  <ele>155.911377</ele>
  <time>2011-11-22T19:04:32Z</time>
  <speed>4.640000</speed>
</trkpt>
<trkpt lat="32.629859924" lon="35.122489929">
  <ele>156.137939</ele>
  <time>2011-11-22T19:04:33Z</time>
  <speed>4.390000</speed>
</trkpt>
<trkpt lat="32.629856110" lon="35.122539520">
  <ele>156.091064</ele>
  <time>2011-11-22T19:04:34Z</time>
  <speed>4.000000</speed>
</trkpt>
<trkpt lat="32.629859924" lon="35.122585297">
  <ele>156.059814</ele>
  <time>2011-11-22T19:04:35Z</time>
  <speed>4.120000</speed>
</trkpt>
<trkpt lat="32.629859924" lon="35.122634888">
  <ele>156.227783</ele>
  <time>2011-11-22T19:04:36Z</time>
  <speed>4.090000</speed>
</trkpt>
<trkpt lat="32.629859924" lon="35.122684479">
  <ele>156.466064</ele>
  <time>2011-11-22T19:04:37Z</time>
  <speed>4.090000</speed>
</trkpt>
<trkpt lat="32.629867554" lon="35.122730255">
  <ele>157.212158</ele>
  <time>2011-11-22T19:04:38Z</time>
  <speed>3.950000</speed>
</trkpt>
<trkpt lat="32.629871368" lon="35.122776031">
  <ele>157.755127</ele>
  <time>2011-11-22T19:04:39Z</time>
  <speed>3.870000</speed>
</trkpt>
<trkpt lat="32.629875183" lon="35.122817993">
  <ele>157.993408</ele>
  <time>2011-11-22T19:04:40Z</time>
  <speed>3.830000</speed>
</trkpt>
<trkpt lat="32.629886627" lon="35.122856140">
  <ele>157.829346</ele>
  <time>2011-11-22T19:04:41Z</time>
  <speed>3.850000</speed>
</trkpt>
<trkpt lat="32.629894257" lon="35.122894287">
  <ele>158.192627</ele>
  <time>2011-11-22T19:04:42Z</time>
  <speed>3.500000</speed>
</trkpt>
<trkpt lat="32.629901886" lon="35.122936249">
  <ele>158.938721</ele>
  <time>2011-11-22T19:04:43Z</time>
  <speed>3.480000</speed>
</trkpt>
<trkpt lat="32.629909515" lon="35.122970581">
  <ele>159.001221</ele>
  <time>2011-11-22T19:04:44Z</time>
  <speed>3.590000</speed>
</trkpt>
<trkpt lat="32.629928589" lon="35.123008728">
  <ele>160.200439</ele>
  <time>2011-11-22T19:04:45Z</time>
  <speed>3.460000</speed>
</trkpt>
<trkpt lat="32.629940033" lon="35.123043060">
  <ele>160.907471</ele>
  <time>2011-11-22T19:04:46Z</time>
  <speed>3.350000</speed>
</trkpt>
<trkpt lat="32.629947662" lon="35.123081207">
  <ele>161.079346</ele>
  <time>2011-11-22T19:04:47Z</time>
  <speed>3.430000</speed>
</trkpt>
<trkpt lat="32.629959106" lon="35.123119354">
  <ele>161.227783</ele>
  <time>2011-11-22T19:04:48Z</time>
  <speed>3.470000</speed>
</trkpt>
<trkpt lat="32.629970551" lon="35.123153687">
  <ele>160.829346</ele>
  <time>2011-11-22T19:04:49Z</time>
  <speed>3.650000</speed>
</trkpt>
<trkpt lat="32.629981995" lon="35.123195648">
  <ele>161.755127</ele>
  <time>2011-11-22T19:04:50Z</time>
  <speed>3.730000</speed>
</trkpt>
<trkpt lat="32.629997253" lon="35.123233795">
  <ele>162.938721</ele>
  <time>2011-11-22T19:04:51Z</time>
  <speed>3.730000</speed>
</trkpt>
<trkpt lat="32.630016327" lon="35.123275757">
  <ele>162.880127</ele>
  <time>2011-11-22T19:04:52Z</time>
  <speed>3.840000</speed>
</trkpt>
<trkpt lat="32.630039215" lon="35.123310089">
  <ele>164.036377</ele>
  <time>2011-11-22T19:04:53Z</time>
  <speed>3.620000</speed>
</trkpt>
<trkpt lat="32.630054474" lon="35.123344421">
  <ele>164.454346</ele>
  <time>2011-11-22T19:04:54Z</time>
  <speed>3.450000</speed>
</trkpt>
<trkpt lat="32.630077362" lon="35.123371124">
  <ele>165.083252</ele>
  <time>2011-11-22T19:04:55Z</time>
  <speed>3.220000</speed>
</trkpt>
<trkpt lat="32.630100250" lon="35.123397827">
  <ele>164.880127</ele>
  <time>2011-11-22T19:04:56Z</time>
  <speed>3.140000</speed>
</trkpt>
<trkpt lat="32.630119324" lon="35.123428345">
  <ele>165.884033</ele>
  <time>2011-11-22T19:04:57Z</time>
  <speed>3.150000</speed>
</trkpt>
<trkpt lat="32.630153656" lon="35.123474121">
  <ele>165.927002</ele>
  <time>2011-11-22T19:04:59Z</time>
  <speed>2.900000</speed>
</trkpt>
<trkpt lat="32.630191803" lon="35.123512268">
  <ele>165.864502</ele>
  <time>2011-11-22T19:05:01Z</time>
  <speed>2.880000</speed>
</trkpt>
<trkpt lat="32.630229950" lon="35.123554230">
  <ele>165.430908</ele>
  <time>2011-11-22T19:05:03Z</time>
  <speed>2.580000</speed>
</trkpt>
<trkpt lat="32.630260468" lon="35.123580933">
  <ele>164.501221</ele>
  <time>2011-11-22T19:05:05Z</time>
  <speed>1.790000</speed>
</trkpt>
<trkpt lat="32.630290985" lon="35.123607635">
  <ele>164.587158</ele>
  <time>2011-11-22T19:05:07Z</time>
  <speed>2.630000</speed>
</trkpt>
<trkpt lat="32.630329132" lon="35.123634338">
  <ele>164.446533</ele>
  <time>2011-11-22T19:05:09Z</time>
  <speed>2.480000</speed>
</trkpt>
<trkpt lat="32.630367279" lon="35.123653412">
  <ele>165.587158</ele>
  <time>2011-11-22T19:05:11Z</time>
  <speed>2.280000</speed>
</trkpt>
<trkpt lat="32.630397797" lon="35.123661041">
  <ele>166.880127</ele>
  <time>2011-11-22T19:05:13Z</time>
  <speed>2.280000</speed>
</trkpt>
<trkpt lat="32.630432129" lon="35.123668671">
  <ele>167.493408</ele>
  <time>2011-11-22T19:05:15Z</time>
  <speed>2.390000</speed>
</trkpt>
<trkpt lat="32.630470276" lon="35.123680115">
  <ele>168.266846</ele>
  <time>2011-11-22T19:05:17Z</time>
  <speed>2.340000</speed>
</trkpt>
<trkpt lat="32.630500793" lon="35.123695374">
  <ele>168.442627</ele>
  <time>2011-11-22T19:05:19Z</time>
  <speed>2.120000</speed>
</trkpt>
<trkpt lat="32.630538940" lon="35.123699188">
  <ele>168.923096</ele>
  <time>2011-11-22T19:05:21Z</time>
  <speed>2.590000</speed>
</trkpt>
<trkpt lat="32.630588531" lon="35.123718262">
  <ele>170.044189</ele>
  <time>2011-11-22T19:05:23Z</time>
  <speed>2.330000</speed>
</trkpt>
<trkpt lat="32.630626678" lon="35.123733521">
  <ele>171.661377</ele>
  <time>2011-11-22T19:05:25Z</time>
  <speed>2.180000</speed>
</trkpt>
<trkpt lat="32.630664825" lon="35.123733521">
  <ele>172.462158</ele>
  <time>2011-11-22T19:05:27Z</time>
  <speed>2.070000</speed>
</trkpt>
<trkpt lat="32.630695343" lon="35.123756409">
  <ele>172.969971</ele>
  <time>2011-11-22T19:05:29Z</time>
  <speed>2.130000</speed>
</trkpt>
<trkpt lat="32.630737305" lon="35.123756409">
  <ele>172.247314</ele>
  <time>2011-11-22T19:05:31Z</time>
  <speed>2.120000</speed>
</trkpt>
<trkpt lat="32.630764008" lon="35.123760223">
  <ele>173.204346</ele>
  <time>2011-11-22T19:05:33Z</time>
  <speed>1.850000</speed>
</trkpt>
<trkpt lat="32.630802155" lon="35.123767853">
  <ele>174.759033</ele>
  <time>2011-11-22T19:05:36Z</time>
  <speed>1.750000</speed>
</trkpt>
<trkpt lat="32.630832672" lon="35.123771667">
  <ele>175.427002</ele>
  <time>2011-11-22T19:05:38Z</time>
  <speed>1.720000</speed>
</trkpt>
<trkpt lat="32.630870819" lon="35.123783112">
  <ele>176.262939</ele>
  <time>2011-11-22T19:05:40Z</time>
  <speed>1.900000</speed>
</trkpt>
<trkpt lat="32.630920410" lon="35.123783112">
  <ele>176.782471</ele>
  <time>2011-11-22T19:05:42Z</time>
  <speed>2.460000</speed>
</trkpt>
<trkpt lat="32.630966187" lon="35.123786926">
  <ele>176.450439</ele>
  <time>2011-11-22T19:05:44Z</time>
  <speed>2.520000</speed>
</trkpt>
<trkpt lat="32.630992889" lon="35.123775482">
  <ele>175.833252</ele>
  <time>2011-11-22T19:05:45Z</time>
  <speed>1.600000</speed>
</trkpt>
<trkpt lat="32.631027222" lon="35.123771667">
  <ele>176.317627</ele>
  <time>2011-11-22T19:05:47Z</time>
  <speed>1.920000</speed>
</trkpt>
<trkpt lat="32.631069183" lon="35.123767853">
  <ele>176.098877</ele>
  <time>2011-11-22T19:05:49Z</time>
  <speed>2.080000</speed>
</trkpt>
<trkpt lat="32.631103516" lon="35.123775482">
  <ele>176.813721</ele>
  <time>2011-11-22T19:05:51Z</time>
  <speed>1.810000</speed>
</trkpt>
<trkpt lat="32.631145477" lon="35.123767853">
  <ele>177.540283</ele>
  <time>2011-11-22T19:05:53Z</time>
  <speed>2.040000</speed>
</trkpt>
<trkpt lat="32.631175995" lon="35.123760223">
  <ele>179.005127</ele>
  <time>2011-11-22T19:05:55Z</time>
  <speed>1.740000</speed>
</trkpt>
<trkpt lat="32.631210327" lon="35.123760223">
  <ele>180.704346</ele>
  <time>2011-11-22T19:05:57Z</time>
  <speed>1.790000</speed>
</trkpt>
<trkpt lat="32.631244659" lon="35.123752594">
  <ele>181.149658</ele>
  <time>2011-11-22T19:05:59Z</time>
  <speed>1.650000</speed>
</trkpt>
<trkpt lat="32.631282806" lon="35.123752594">
  <ele>181.770752</ele>
  <time>2011-11-22T19:06:01Z</time>
  <speed>1.370000</speed>
</trkpt>
<trkpt lat="32.631309509" lon="35.123752594">
  <ele>182.567627</ele>
  <time>2011-11-22T19:06:03Z</time>
  <speed>1.510000</speed>
</trkpt>
<trkpt lat="32.631343842" lon="35.123760223">
  <ele>180.821533</ele>
  <time>2011-11-22T19:06:05Z</time>
  <speed>1.480000</speed>
</trkpt>
<trkpt lat="32.631374359" lon="35.123760223">
  <ele>181.637939</ele>
  <time>2011-11-22T19:06:07Z</time>
  <speed>1.770000</speed>
</trkpt>
<trkpt lat="32.631420135" lon="35.123744965">
  <ele>181.755127</ele>
  <time>2011-11-22T19:06:09Z</time>
  <speed>2.050000</speed>
</trkpt>
<trkpt lat="32.631458282" lon="35.123744965">
  <ele>181.809814</ele>
  <time>2011-11-22T19:06:11Z</time>
  <speed>1.800000</speed>
</trkpt>
<trkpt lat="32.631484985" lon="35.123733521">
  <ele>180.876221</ele>
  <time>2011-11-22T19:06:12Z</time>
  <speed>1.830000</speed>
</trkpt>
<trkpt lat="32.631530762" lon="35.123718262">
  <ele>180.528564</ele>
  <time>2011-11-22T19:06:14Z</time>
  <speed>1.750000</speed>
</trkpt>
<trkpt lat="32.631565094" lon="35.123722076">
  <ele>180.602783</ele>
  <time>2011-11-22T19:06:16Z</time>
  <speed>1.850000</speed>
</trkpt>
<trkpt lat="32.631603241" lon="35.123714447">
  <ele>181.751221</ele>
  <time>2011-11-22T19:06:18Z</time>
  <speed>1.810000</speed>
</trkpt>
<trkpt lat="32.631641388" lon="35.123706818">
  <ele>182.559814</ele>
  <time>2011-11-22T19:06:20Z</time>
  <speed>1.870000</speed>
</trkpt>
<trkpt lat="32.631679535" lon="35.123710632">
  <ele>184.110596</ele>
  <time>2011-11-22T19:06:22Z</time>
  <speed>1.120000</speed>
</trkpt>
<trkpt lat="32.631717682" lon="35.123706818">
  <ele>184.610596</ele>
  <time>2011-11-22T19:06:24Z</time>
  <speed>1.920000</speed>
</trkpt>
<trkpt lat="32.631752014" lon="35.123699188">
  <ele>185.165283</ele>
  <time>2011-11-22T19:06:26Z</time>
  <speed>1.880000</speed>
</trkpt>
<trkpt lat="32.631793976" lon="35.123683929">
  <ele>186.165283</ele>
  <time>2011-11-22T19:06:28Z</time>
  <speed>2.140000</speed>
</trkpt>
<trkpt lat="32.631828308" lon="35.123668671">
  <ele>187.333252</ele>
  <time>2011-11-22T19:06:30Z</time>
  <speed>2.120000</speed>
</trkpt>
<trkpt lat="32.631843567" lon="35.123641968">
  <ele>188.141846</ele>
  <time>2011-11-22T19:06:31Z</time>
  <speed>1.820000</speed>
</trkpt>
<trkpt lat="32.631870270" lon="35.123626709">
  <ele>189.192627</ele>
  <time>2011-11-22T19:06:33Z</time>
  <speed>2.130000</speed>
</trkpt>
<trkpt lat="32.631904602" lon="35.123592377">
  <ele>189.380127</ele>
  <time>2011-11-22T19:06:36Z</time>
  <speed>2.000000</speed>
</trkpt>
<trkpt lat="32.631935120" lon="35.123584747">
  <ele>189.512939</ele>
  <time>2011-11-22T19:06:38Z</time>
  <speed>1.940000</speed>
</trkpt>
<trkpt lat="32.631961823" lon="35.123569489">
  <ele>190.958252</ele>
  <time>2011-11-22T19:06:40Z</time>
  <speed>1.770000</speed>
</trkpt>
<trkpt lat="32.631988525" lon="35.123554230">
  <ele>191.680908</ele>
  <time>2011-11-22T19:06:42Z</time>
  <speed>1.760000</speed>
</trkpt>
<trkpt lat="32.632030487" lon="35.123519897">
  <ele>191.036377</ele>
  <time>2011-11-22T19:06:44Z</time>
  <speed>1.860000</speed>
</trkpt>
<trkpt lat="32.632064819" lon="35.123493195">
  <ele>191.305908</ele>
  <time>2011-11-22T19:06:46Z</time>
  <speed>1.970000</speed>
</trkpt>
<trkpt lat="32.632091522" lon="35.123458862">
  <ele>190.403564</ele>
  <time>2011-11-22T19:06:48Z</time>
  <speed>1.810000</speed>
</trkpt>
<trkpt lat="32.632122040" lon="35.123432159">
  <ele>191.110596</ele>
  <time>2011-11-22T19:06:50Z</time>
  <speed>1.880000</speed>
</trkpt>
<trkpt lat="32.632144928" lon="35.123390198">
  <ele>191.012939</ele>
  <time>2011-11-22T19:06:52Z</time>
  <speed>1.990000</speed>
</trkpt>
<trkpt lat="32.632167816" lon="35.123355865">
  <ele>191.282471</ele>
  <time>2011-11-22T19:06:54Z</time>
  <speed>1.930000</speed>
</trkpt>
<trkpt lat="32.632183075" lon="35.123317719">
  <ele>189.887939</ele>
  <time>2011-11-22T19:06:56Z</time>
  <speed>1.680000</speed>
</trkpt>
<trkpt lat="32.632198334" lon="35.123287201">
  <ele>189.255127</ele>
  <time>2011-11-22T19:06:58Z</time>
  <speed>1.540000</speed>
</trkpt>
<trkpt lat="32.632221222" lon="35.123245239">
  <ele>188.786377</ele>
  <time>2011-11-22T19:07:00Z</time>
  <speed>1.780000</speed>
</trkpt>
<trkpt lat="32.632240295" lon="35.123203278">
  <ele>189.208252</ele>
  <time>2011-11-22T19:07:02Z</time>
  <speed>1.860000</speed>
</trkpt>
<trkpt lat="32.632263184" lon="35.123157501">
  <ele>188.817627</ele>
  <time>2011-11-22T19:07:04Z</time>
  <speed>2.100000</speed>
</trkpt>
<trkpt lat="32.632266998" lon="35.123111725">
  <ele>188.637939</ele>
  <time>2011-11-22T19:07:06Z</time>
  <speed>1.730000</speed>
</trkpt>
<trkpt lat="32.632270813" lon="35.123073578">
  <ele>188.696533</ele>
  <time>2011-11-22T19:07:08Z</time>
  <speed>1.660000</speed>
</trkpt>
<trkpt lat="32.632270813" lon="35.123023987">
  <ele>189.407471</ele>
  <time>2011-11-22T19:07:11Z</time>
  <speed>1.610000</speed>
</trkpt>
<trkpt lat="32.632263184" lon="35.122974396">
  <ele>188.368408</ele>
  <time>2011-11-22T19:07:13Z</time>
  <speed>1.890000</speed>
</trkpt>
<trkpt lat="32.632255554" lon="35.122928619">
  <ele>189.102783</ele>
  <time>2011-11-22T19:07:15Z</time>
  <speed>1.720000</speed>
</trkpt>
<trkpt lat="32.632259369" lon="35.122886658">
  <ele>189.833252</ele>
  <time>2011-11-22T19:07:17Z</time>
  <speed>1.780000</speed>
</trkpt>
<trkpt lat="32.632263184" lon="35.122840881">
  <ele>189.954346</ele>
  <time>2011-11-22T19:07:19Z</time>
  <speed>1.980000</speed>
</trkpt>
<trkpt lat="32.632255554" lon="35.122783661">
  <ele>191.481689</ele>
  <time>2011-11-22T19:07:21Z</time>
  <speed>1.580000</speed>
</trkpt>
<trkpt lat="32.632259369" lon="35.122741699">
  <ele>191.938721</ele>
  <time>2011-11-22T19:07:23Z</time>
  <speed>1.700000</speed>
</trkpt>
<trkpt lat="32.632274628" lon="35.122699738">
  <ele>192.177002</ele>
  <time>2011-11-22T19:07:25Z</time>
  <speed>1.560000</speed>
</trkpt>
<trkpt lat="32.632286072" lon="35.122665405">
  <ele>192.942627</ele>
  <time>2011-11-22T19:07:27Z</time>
  <speed>1.990000</speed>
</trkpt>
<trkpt lat="32.632286072" lon="35.122627258">
  <ele>192.911377</ele>
  <time>2011-11-22T19:07:29Z</time>
  <speed>1.790000</speed>
</trkpt>
<trkpt lat="32.632289886" lon="35.122589111">
  <ele>193.505127</ele>
  <time>2011-11-22T19:07:31Z</time>
  <speed>1.860000</speed>
</trkpt>
<trkpt lat="32.632289886" lon="35.122543335">
  <ele>194.430908</ele>
  <time>2011-11-22T19:07:33Z</time>
  <speed>1.860000</speed>
</trkpt>
<trkpt lat="32.632293701" lon="35.122497559">
  <ele>195.173096</ele>
  <time>2011-11-22T19:07:35Z</time>
  <speed>1.940000</speed>
</trkpt>
<trkpt lat="32.632301331" lon="35.122447968">
  <ele>195.727783</ele>
  <time>2011-11-22T19:07:37Z</time>
  <speed>1.960000</speed>
</trkpt>
<trkpt lat="32.632308960" lon="35.122409821">
  <ele>195.634033</ele>
  <time>2011-11-22T19:07:39Z</time>
  <speed>2.040000</speed>
</trkpt>
<trkpt lat="32.632320404" lon="35.122364044">
  <ele>195.075439</ele>
  <time>2011-11-22T19:07:41Z</time>
  <speed>1.850000</speed>
</trkpt>
<trkpt lat="32.632316589" lon="35.122310638">
  <ele>196.024658</ele>
  <time>2011-11-22T19:07:43Z</time>
  <speed>2.020000</speed>
</trkpt>
<trkpt lat="32.632320404" lon="35.122261047">
  <ele>196.848877</ele>
  <time>2011-11-22T19:07:45Z</time>
  <speed>1.650000</speed>
</trkpt>
<trkpt lat="32.632328033" lon="35.122222900">
  <ele>197.411377</ele>
  <time>2011-11-22T19:07:47Z</time>
  <speed>1.400000</speed>
</trkpt>
<trkpt lat="32.632343292" lon="35.122188568">
  <ele>197.954346</ele>
  <time>2011-11-22T19:07:49Z</time>
  <speed>1.690000</speed>
</trkpt>
<trkpt lat="32.632354736" lon="35.122150421">
  <ele>198.067627</ele>
  <time>2011-11-22T19:07:51Z</time>
  <speed>1.520000</speed>
</trkpt>
<trkpt lat="32.632366180" lon="35.122112274">
  <ele>197.930908</ele>
  <time>2011-11-22T19:07:53Z</time>
  <speed>1.700000</speed>
</trkpt>
<trkpt lat="32.632385254" lon="35.122070313">
  <ele>198.755127</ele>
  <time>2011-11-22T19:07:55Z</time>
  <speed>1.910000</speed>
</trkpt>
<trkpt lat="32.632392883" lon="35.122028351">
  <ele>198.817627</ele>
  <time>2011-11-22T19:07:57Z</time>
  <speed>1.790000</speed>
</trkpt>
<trkpt lat="32.632400513" lon="35.121982574">
  <ele>198.735596</ele>
  <time>2011-11-22T19:07:59Z</time>
  <speed>1.930000</speed>
</trkpt>
<trkpt lat="32.632423401" lon="35.121944427">
  <ele>200.048096</ele>
  <time>2011-11-22T19:08:01Z</time>
  <speed>1.530000</speed>
</trkpt>
<trkpt lat="32.632423401" lon="35.121910095">
  <ele>200.227783</ele>
  <time>2011-11-22T19:08:03Z</time>
  <speed>1.630000</speed>
</trkpt>
<trkpt lat="32.632431030" lon="35.121868134">
  <ele>200.782471</ele>
  <time>2011-11-22T19:08:05Z</time>
  <speed>1.830000</speed>
</trkpt>
<trkpt lat="32.632438660" lon="35.121829987">
  <ele>201.266846</ele>
  <time>2011-11-22T19:08:07Z</time>
  <speed>1.730000</speed>
</trkpt>
<trkpt lat="32.632450104" lon="35.121791840">
  <ele>201.399658</ele>
  <time>2011-11-22T19:08:09Z</time>
  <speed>1.450000</speed>
</trkpt>
<trkpt lat="32.632465363" lon="35.121757507">
  <ele>201.442627</ele>
  <time>2011-11-22T19:08:11Z</time>
  <speed>1.750000</speed>
</trkpt>
<trkpt lat="32.632480621" lon="35.121715546">
  <ele>201.950439</ele>
  <time>2011-11-22T19:08:14Z</time>
  <speed>1.240000</speed>
</trkpt>
<trkpt lat="32.632480621" lon="35.121673584">
  <ele>202.173096</ele>
  <time>2011-11-22T19:08:16Z</time>
  <speed>1.630000</speed>
</trkpt>
<trkpt lat="32.632492065" lon="35.121627808">
  <ele>202.177002</ele>
  <time>2011-11-22T19:08:18Z</time>
  <speed>1.920000</speed>
</trkpt>
<trkpt lat="32.632511139" lon="35.121582031">
  <ele>202.153564</ele>
  <time>2011-11-22T19:08:20Z</time>
  <speed>1.870000</speed>
</trkpt>
<trkpt lat="32.632522583" lon="35.121532440">
  <ele>201.860596</ele>
  <time>2011-11-22T19:08:22Z</time>
  <speed>2.060000</speed>
</trkpt>
<trkpt lat="32.632526398" lon="35.121498108">
  <ele>202.563721</ele>
  <time>2011-11-22T19:08:24Z</time>
  <speed>1.850000</speed>
</trkpt>
<trkpt lat="32.632526398" lon="35.121452332">
  <ele>202.587158</ele>
  <time>2011-11-22T19:08:26Z</time>
  <speed>1.750000</speed>
</trkpt>
<trkpt lat="32.632522583" lon="35.121414185">
  <ele>202.950439</ele>
  <time>2011-11-22T19:08:28Z</time>
  <speed>1.690000</speed>
</trkpt>
<trkpt lat="32.632518768" lon="35.121372223">
  <ele>203.505127</ele>
  <time>2011-11-22T19:08:30Z</time>
  <speed>1.840000</speed>
</trkpt>
<trkpt lat="32.632511139" lon="35.121334076">
  <ele>204.309814</ele>
  <time>2011-11-22T19:08:32Z</time>
  <speed>1.830000</speed>
</trkpt>
<trkpt lat="32.632499695" lon="35.121288300">
  <ele>204.302002</ele>
  <time>2011-11-22T19:08:34Z</time>
  <speed>1.880000</speed>
</trkpt>
<trkpt lat="32.632484436" lon="35.121250153">
  <ele>204.946533</ele>
  <time>2011-11-22T19:08:36Z</time>
  <speed>1.870000</speed>
</trkpt>
<trkpt lat="32.632465363" lon="35.121208191">
  <ele>206.075439</ele>
  <time>2011-11-22T19:08:38Z</time>
  <speed>2.150000</speed>
</trkpt>
<trkpt lat="32.632450104" lon="35.121170044">
  <ele>206.341064</ele>
  <time>2011-11-22T19:08:40Z</time>
  <speed>1.950000</speed>
</trkpt>
<trkpt lat="32.632427216" lon="35.121124268">
  <ele>205.469971</ele>
  <time>2011-11-22T19:08:42Z</time>
  <speed>1.960000</speed>
</trkpt>
<trkpt lat="32.632400513" lon="35.121097565">
  <ele>206.610596</ele>
  <time>2011-11-22T19:08:44Z</time>
  <speed>1.830000</speed>
</trkpt>
<trkpt lat="32.632362366" lon="35.121070862">
  <ele>208.438721</ele>
  <time>2011-11-22T19:08:46Z</time>
  <speed>1.800000</speed>
</trkpt>
<trkpt lat="32.632328033" lon="35.121063232">
  <ele>209.376221</ele>
  <time>2011-11-22T19:08:48Z</time>
  <speed>1.900000</speed>
</trkpt>
<trkpt lat="32.632293701" lon="35.121086121">
  <ele>209.864502</ele>
  <time>2011-11-22T19:08:50Z</time>
  <speed>1.540000</speed>
</trkpt>
<trkpt lat="32.632263184" lon="35.121105194">
  <ele>210.415283</ele>
  <time>2011-11-22T19:08:52Z</time>
  <speed>1.320000</speed>
</trkpt>
<trkpt lat="32.632236481" lon="35.121128082">
  <ele>211.391846</ele>
  <time>2011-11-22T19:08:54Z</time>
  <speed>1.020000</speed>
</trkpt>
<trkpt lat="32.632225037" lon="35.121170044">
  <ele>211.122314</ele>
  <time>2011-11-22T19:08:56Z</time>
  <speed>1.610000</speed>
</trkpt>
<trkpt lat="32.632217407" lon="35.121215820">
  <ele>211.247314</ele>
  <time>2011-11-22T19:08:58Z</time>
  <speed>1.770000</speed>
</trkpt>
<trkpt lat="32.632209778" lon="35.121269226">
  <ele>211.329346</ele>
  <time>2011-11-22T19:09:00Z</time>
  <speed>1.690000</speed>
</trkpt>
<trkpt lat="32.632202148" lon="35.121307373">
  <ele>211.759033</ele>
  <time>2011-11-22T19:09:02Z</time>
  <speed>1.600000</speed>
</trkpt>
<trkpt lat="32.632190704" lon="35.121353149">
  <ele>212.454346</ele>
  <time>2011-11-22T19:09:04Z</time>
  <speed>1.630000</speed>
</trkpt>
<trkpt lat="32.632171631" lon="35.121379852">
  <ele>212.743408</ele>
  <time>2011-11-22T19:09:06Z</time>
  <speed>1.920000</speed>
</trkpt>
<trkpt lat="32.632137299" lon="35.121406555">
  <ele>212.372314</ele>
  <time>2011-11-22T19:09:08Z</time>
  <speed>1.790000</speed>
</trkpt>
<trkpt lat="32.632106781" lon="35.121440887">
  <ele>212.044189</ele>
  <time>2011-11-22T19:09:10Z</time>
  <speed>1.980000</speed>
</trkpt>
<trkpt lat="32.632083893" lon="35.121482849">
  <ele>211.559814</ele>
  <time>2011-11-22T19:09:12Z</time>
  <speed>2.030000</speed>
</trkpt>
<trkpt lat="32.632045746" lon="35.121520996">
  <ele>212.528564</ele>
  <time>2011-11-22T19:09:14Z</time>
  <speed>2.250000</speed>
</trkpt>
<trkpt lat="32.632019043" lon="35.121574402">
  <ele>212.602783</ele>
  <time>2011-11-22T19:09:16Z</time>
  <speed>2.740000</speed>
</trkpt>
<trkpt lat="32.631984711" lon="35.121620178">
  <ele>212.387939</ele>
  <time>2011-11-22T19:09:18Z</time>
  <speed>2.390000</speed>
</trkpt>
<trkpt lat="32.631958008" lon="35.121635437">
  <ele>213.372314</ele>
  <time>2011-11-22T19:09:19Z</time>
  <speed>2.210000</speed>
</trkpt>
<trkpt lat="32.631916046" lon="35.121658325">
  <ele>213.673096</ele>
  <time>2011-11-22T19:09:21Z</time>
  <speed>2.530000</speed>
</trkpt>
<trkpt lat="32.631877899" lon="35.121669769">
  <ele>214.286377</ele>
  <time>2011-11-22T19:09:23Z</time>
  <speed>2.220000</speed>
</trkpt>
<trkpt lat="32.631832123" lon="35.121665955">
  <ele>215.055908</ele>
  <time>2011-11-22T19:09:25Z</time>
  <speed>1.920000</speed>
</trkpt>
<trkpt lat="32.631809235" lon="35.121654510">
  <ele>216.274658</ele>
  <time>2011-11-22T19:09:26Z</time>
  <speed>2.330000</speed>
</trkpt>
<trkpt lat="32.631771088" lon="35.121623993">
  <ele>216.575439</ele>
  <time>2011-11-22T19:09:28Z</time>
  <speed>1.900000</speed>
</trkpt>
<trkpt lat="32.631736755" lon="35.121604919">
  <ele>217.735596</ele>
  <time>2011-11-22T19:09:30Z</time>
  <speed>2.120000</speed>
</trkpt>
<trkpt lat="32.631702423" lon="35.121582031">
  <ele>217.864502</ele>
  <time>2011-11-22T19:09:32Z</time>
  <speed>2.030000</speed>
</trkpt>
<trkpt lat="32.631671906" lon="35.121555328">
  <ele>218.442627</ele>
  <time>2011-11-22T19:09:34Z</time>
  <speed>2.120000</speed>
</trkpt>
<trkpt lat="32.631641388" lon="35.121528625">
  <ele>219.173096</ele>
  <time>2011-11-22T19:09:36Z</time>
  <speed>2.130000</speed>
</trkpt>
<trkpt lat="32.631610870" lon="35.121490479">
  <ele>220.755127</ele>
  <time>2011-11-22T19:09:38Z</time>
  <speed>2.090000</speed>
</trkpt>
<trkpt lat="32.631591797" lon="35.121444702">
  <ele>220.364502</ele>
  <time>2011-11-22T19:09:40Z</time>
  <speed>2.240000</speed>
</trkpt>
<trkpt lat="32.631580353" lon="35.121402740">
  <ele>220.305908</ele>
  <time>2011-11-22T19:09:42Z</time>
  <speed>2.150000</speed>
</trkpt>
<trkpt lat="32.631572723" lon="35.121360779">
  <ele>220.848877</ele>
  <time>2011-11-22T19:09:44Z</time>
  <speed>2.360000</speed>
</trkpt>
<trkpt lat="32.631580353" lon="35.121311188">
  <ele>221.356689</ele>
  <time>2011-11-22T19:09:46Z</time>
  <speed>2.360000</speed>
</trkpt>
<trkpt lat="32.631603241" lon="35.121273041">
  <ele>221.786377</ele>
  <time>2011-11-22T19:09:48Z</time>
  <speed>2.150000</speed>
</trkpt>
<trkpt lat="32.631641388" lon="35.121227264">
  <ele>223.384033</ele>
  <time>2011-11-22T19:09:50Z</time>
  <speed>2.370000</speed>
</trkpt>
<trkpt lat="32.631668091" lon="35.121185303">
  <ele>223.587158</ele>
  <time>2011-11-22T19:09:52Z</time>
  <speed>2.340000</speed>
</trkpt>
<trkpt lat="32.631694794" lon="35.121150970">
  <ele>223.438721</ele>
  <time>2011-11-22T19:09:54Z</time>
  <speed>2.150000</speed>
</trkpt>
<trkpt lat="32.631725311" lon="35.121116638">
  <ele>223.188721</ele>
  <time>2011-11-22T19:09:56Z</time>
  <speed>2.420000</speed>
</trkpt>
<trkpt lat="32.631755829" lon="35.121074677">
  <ele>222.766846</ele>
  <time>2011-11-22T19:09:58Z</time>
  <speed>2.240000</speed>
</trkpt>
<trkpt lat="32.631782532" lon="35.121032715">
  <ele>222.512939</ele>
  <time>2011-11-22T19:10:00Z</time>
  <speed>2.680000</speed>
</trkpt>
<trkpt lat="32.631797791" lon="35.120983124">
  <ele>222.005127</ele>
  <time>2011-11-22T19:10:02Z</time>
  <speed>2.750000</speed>
</trkpt>
<trkpt lat="32.631809235" lon="35.120956421">
  <ele>220.723877</ele>
  <time>2011-11-22T19:10:03Z</time>
  <speed>2.250000</speed>
</trkpt>
<trkpt lat="32.631839752" lon="35.120933533">
  <ele>220.520752</ele>
  <time>2011-11-22T19:10:04Z</time>
  <speed>2.110000</speed>
</trkpt>
<trkpt lat="32.631855011" lon="35.120868683">
  <ele>219.786377</ele>
  <time>2011-11-22T19:10:06Z</time>
  <speed>2.660000</speed>
</trkpt>
<trkpt lat="32.631858826" lon="35.120834351">
  <ele>218.727783</ele>
  <time>2011-11-22T19:10:07Z</time>
  <speed>2.830000</speed>
</trkpt>
<trkpt lat="32.631862640" lon="35.120784760">
  <ele>217.407471</ele>
  <time>2011-11-22T19:10:08Z</time>
  <speed>3.150000</speed>
</trkpt>
<trkpt lat="32.631858826" lon="35.120742798">
  <ele>217.055908</ele>
  <time>2011-11-22T19:10:09Z</time>
  <speed>2.840000</speed>
</trkpt>
<trkpt lat="32.631858826" lon="35.120708466">
  <ele>216.598877</ele>
  <time>2011-11-22T19:10:10Z</time>
  <speed>2.450000</speed>
</trkpt>
<trkpt lat="32.631851196" lon="35.120677948">
  <ele>216.020752</ele>
  <time>2011-11-22T19:10:11Z</time>
  <speed>2.910000</speed>
</trkpt>
<trkpt lat="32.631835938" lon="35.120643616">
  <ele>215.118408</ele>
  <time>2011-11-22T19:10:12Z</time>
  <speed>3.060000</speed>
</trkpt>
<trkpt lat="32.631820679" lon="35.120590210">
  <ele>215.075439</ele>
  <time>2011-11-22T19:10:13Z</time>
  <speed>3.540000</speed>
</trkpt>
<trkpt lat="32.631801605" lon="35.120548248">
  <ele>214.825439</ele>
  <time>2011-11-22T19:10:14Z</time>
  <speed>4.000000</speed>
</trkpt>
<trkpt lat="32.631782532" lon="35.120506287">
  <ele>214.778564</ele>
  <time>2011-11-22T19:10:15Z</time>
  <speed>3.990000</speed>
</trkpt>
<trkpt lat="32.631771088" lon="35.120468140">
  <ele>214.501221</ele>
  <time>2011-11-22T19:10:16Z</time>
  <speed>3.940000</speed>
</trkpt>
<trkpt lat="32.631752014" lon="35.120426178">
  <ele>215.200439</ele>
  <time>2011-11-22T19:10:17Z</time>
  <speed>4.260000</speed>
</trkpt>
<trkpt lat="32.631732941" lon="35.120372772">
  <ele>215.708252</ele>
  <time>2011-11-22T19:10:18Z</time>
  <speed>4.920000</speed>
</trkpt>
<trkpt lat="32.631710052" lon="35.120323181">
  <ele>216.231689</ele>
  <time>2011-11-22T19:10:19Z</time>
  <speed>4.510000</speed>
</trkpt>
<trkpt lat="32.631687164" lon="35.120277405">
  <ele>216.587158</ele>
  <time>2011-11-22T19:10:20Z</time>
  <speed>4.130000</speed>
</trkpt>
<trkpt lat="32.631675720" lon="35.120235443">
  <ele>216.161377</ele>
  <time>2011-11-22T19:10:21Z</time>
  <speed>3.980000</speed>
</trkpt>
<trkpt lat="32.631660461" lon="35.120197296">
  <ele>216.325439</ele>
  <time>2011-11-22T19:10:22Z</time>
  <speed>4.030000</speed>
</trkpt>
<trkpt lat="32.631649017" lon="35.120151520">
  <ele>216.399658</ele>
  <time>2011-11-22T19:10:23Z</time>
  <speed>3.820000</speed>
</trkpt>
<trkpt lat="32.631641388" lon="35.120113373">
  <ele>216.509033</ele>
  <time>2011-11-22T19:10:24Z</time>
  <speed>3.750000</speed>
</trkpt>
<trkpt lat="32.631629944" lon="35.120063782">
  <ele>217.458252</ele>
  <time>2011-11-22T19:10:25Z</time>
  <speed>3.810000</speed>
</trkpt>
<trkpt lat="32.631622314" lon="35.120014191">
  <ele>218.927002</ele>
  <time>2011-11-22T19:10:26Z</time>
  <speed>3.990000</speed>
</trkpt>
<trkpt lat="32.631618500" lon="35.119976044">
  <ele>220.438721</ele>
  <time>2011-11-22T19:10:27Z</time>
  <speed>3.610000</speed>
</trkpt>
<trkpt lat="32.631618500" lon="35.119937897">
  <ele>220.825439</ele>
  <time>2011-11-22T19:10:28Z</time>
  <speed>3.350000</speed>
</trkpt>
<trkpt lat="32.631614685" lon="35.119876862">
  <ele>221.520752</ele>
  <time>2011-11-22T19:10:30Z</time>
  <speed>2.850000</speed>
</trkpt>
<trkpt lat="32.631610870" lon="35.119846344">
  <ele>221.997314</ele>
  <time>2011-11-22T19:10:31Z</time>
  <speed>3.050000</speed>
</trkpt>
<trkpt lat="32.631610870" lon="35.119785309">
  <ele>221.555908</ele>
  <time>2011-11-22T19:10:33Z</time>
  <speed>2.620000</speed>
</trkpt>
<trkpt lat="32.631614685" lon="35.119728088">
  <ele>221.915283</ele>
  <time>2011-11-22T19:10:35Z</time>
  <speed>2.880000</speed>
</trkpt>
<trkpt lat="32.631622314" lon="35.119693756">
  <ele>223.134033</ele>
  <time>2011-11-22T19:10:36Z</time>
  <speed>2.570000</speed>
</trkpt>
<trkpt lat="32.631633759" lon="35.119640350">
  <ele>223.958252</ele>
  <time>2011-11-22T19:10:38Z</time>
  <speed>2.880000</speed>
</trkpt>
<trkpt lat="32.631641388" lon="35.119579315">
  <ele>224.102783</ele>
  <time>2011-11-22T19:10:40Z</time>
  <speed>2.910000</speed>
</trkpt>
<trkpt lat="32.631649017" lon="35.119518280">
  <ele>224.618408</ele>
  <time>2011-11-22T19:10:42Z</time>
  <speed>2.800000</speed>
</trkpt>
<trkpt lat="32.631664276" lon="35.119472504">
  <ele>224.356689</ele>
  <time>2011-11-22T19:10:44Z</time>
  <speed>2.650000</speed>
</trkpt>
<trkpt lat="32.631675720" lon="35.119441986">
  <ele>224.927002</ele>
  <time>2011-11-22T19:10:45Z</time>
  <speed>2.840000</speed>
</trkpt>
<trkpt lat="32.631679535" lon="35.119407654">
  <ele>225.091064</ele>
  <time>2011-11-22T19:10:46Z</time>
  <speed>3.030000</speed>
</trkpt>
<trkpt lat="32.631690979" lon="35.119377136">
  <ele>225.192627</ele>
  <time>2011-11-22T19:10:47Z</time>
  <speed>2.790000</speed>
</trkpt>
<trkpt lat="32.631698608" lon="35.119346619">
  <ele>225.509033</ele>
  <time>2011-11-22T19:10:48Z</time>
  <speed>3.050000</speed>
</trkpt>
<trkpt lat="32.631706238" lon="35.119308472">
  <ele>226.485596</ele>
  <time>2011-11-22T19:10:49Z</time>
  <speed>2.700000</speed>
</trkpt>
<trkpt lat="32.631710052" lon="35.119274139">
  <ele>227.305908</ele>
  <time>2011-11-22T19:10:50Z</time>
  <speed>2.580000</speed>
</trkpt>
<trkpt lat="32.631717682" lon="35.119243622">
  <ele>227.094971</ele>
  <time>2011-11-22T19:10:51Z</time>
  <speed>2.690000</speed>
</trkpt>
<trkpt lat="32.631732941" lon="35.119213104">
  <ele>227.153564</ele>
  <time>2011-11-22T19:10:52Z</time>
  <speed>2.820000</speed>
</trkpt>
<trkpt lat="32.631744385" lon="35.119186401">
  <ele>226.868408</ele>
  <time>2011-11-22T19:10:53Z</time>
  <speed>2.880000</speed>
</trkpt>
<trkpt lat="32.631755829" lon="35.119152069">
  <ele>226.876221</ele>
  <time>2011-11-22T19:10:54Z</time>
  <speed>3.660000</speed>
</trkpt>
<trkpt lat="32.631767273" lon="35.119113922">
  <ele>226.243408</ele>
  <time>2011-11-22T19:10:55Z</time>
  <speed>3.580000</speed>
</trkpt>
<trkpt lat="32.631786346" lon="35.119075775">
  <ele>225.966064</ele>
  <time>2011-11-22T19:10:56Z</time>
  <speed>3.370000</speed>
</trkpt>
<trkpt lat="32.631793976" lon="35.119037628">
  <ele>225.469971</ele>
  <time>2011-11-22T19:10:57Z</time>
  <speed>3.250000</speed>
</trkpt>
<trkpt lat="32.631793976" lon="35.118988037">
  <ele>226.731689</ele>
  <time>2011-11-22T19:10:58Z</time>
  <speed>3.270000</speed>
</trkpt>
<trkpt lat="32.631801605" lon="35.118953705">
  <ele>226.848877</ele>
  <time>2011-11-22T19:10:59Z</time>
  <speed>2.930000</speed>
</trkpt>
<trkpt lat="32.631809235" lon="35.118923187">
  <ele>227.063721</ele>
  <time>2011-11-22T19:11:00Z</time>
  <speed>2.700000</speed>
</trkpt>
<trkpt lat="32.631828308" lon="35.118862152">
  <ele>226.594971</ele>
  <time>2011-11-22T19:11:02Z</time>
  <speed>2.560000</speed>
</trkpt>
<trkpt lat="32.631839752" lon="35.118827820">
  <ele>225.829346</ele>
  <time>2011-11-22T19:11:03Z</time>
  <speed>2.830000</speed>
</trkpt>
<trkpt lat="32.631858826" lon="35.118789673">
  <ele>226.231689</ele>
  <time>2011-11-22T19:11:04Z</time>
  <speed>3.170000</speed>
</trkpt>
<trkpt lat="32.631881714" lon="35.118732452">
  <ele>226.075439</ele>
  <time>2011-11-22T19:11:06Z</time>
  <speed>2.440000</speed>
</trkpt>
<trkpt lat="32.631900787" lon="35.118701935">
  <ele>225.907471</ele>
  <time>2011-11-22T19:11:07Z</time>
  <speed>2.860000</speed>
</trkpt>
<trkpt lat="32.631923676" lon="35.118648529">
  <ele>226.563721</ele>
  <time>2011-11-22T19:11:09Z</time>
  <speed>2.740000</speed>
</trkpt>
<trkpt lat="32.631950378" lon="35.118618011">
  <ele>226.782471</ele>
  <time>2011-11-22T19:11:10Z</time>
  <speed>3.090000</speed>
</trkpt>
<trkpt lat="32.631973267" lon="35.118587494">
  <ele>226.723877</ele>
  <time>2011-11-22T19:11:11Z</time>
  <speed>3.010000</speed>
</trkpt>
<trkpt lat="32.631984711" lon="35.118556976">
  <ele>226.352783</ele>
  <time>2011-11-22T19:11:12Z</time>
  <speed>2.700000</speed>
</trkpt>
<trkpt lat="32.631999969" lon="35.118522644">
  <ele>226.626221</ele>
  <time>2011-11-22T19:11:13Z</time>
  <speed>2.750000</speed>
</trkpt>
<trkpt lat="32.632011414" lon="35.118492126">
  <ele>225.884033</ele>
  <time>2011-11-22T19:11:14Z</time>
  <speed>2.650000</speed>
</trkpt>
<trkpt lat="32.632022858" lon="35.118457794">
  <ele>225.602783</ele>
  <time>2011-11-22T19:11:15Z</time>
  <speed>3.050000</speed>
</trkpt>
<trkpt lat="32.632034302" lon="35.118423462">
  <ele>225.505127</ele>
  <time>2011-11-22T19:11:16Z</time>
  <speed>2.870000</speed>
</trkpt>
<trkpt lat="32.632045746" lon="35.118350983">
  <ele>225.524658</ele>
  <time>2011-11-22T19:11:18Z</time>
  <speed>3.050000</speed>
</trkpt>
<trkpt lat="32.632053375" lon="35.118312836">
  <ele>225.360596</ele>
  <time>2011-11-22T19:11:19Z</time>
  <speed>2.930000</speed>
</trkpt>
<trkpt lat="32.632068634" lon="35.118255615">
  <ele>224.833252</ele>
  <time>2011-11-22T19:11:21Z</time>
  <speed>2.530000</speed>
</trkpt>
<trkpt lat="32.632068634" lon="35.118206024">
  <ele>224.782471</ele>
  <time>2011-11-22T19:11:23Z</time>
  <speed>2.110000</speed>
</trkpt>
<trkpt lat="32.632072449" lon="35.118164063">
  <ele>225.102783</ele>
  <time>2011-11-22T19:11:25Z</time>
  <speed>1.340000</speed>
</trkpt>
<trkpt lat="32.632068634" lon="35.118129730">
  <ele>224.501221</ele>
  <time>2011-11-22T19:11:26Z</time>
  <speed>1.090000</speed>
</trkpt>
<trkpt lat="32.632049561" lon="35.118095398">
  <ele>225.884033</ele>
  <time>2011-11-22T19:11:28Z</time>
  <speed>1.030000</speed>
</trkpt>
<trkpt lat="32.632034302" lon="35.118053436">
  <ele>225.735596</ele>
  <time>2011-11-22T19:11:32Z</time>
  <speed>0.950000</speed>
</trkpt>
<trkpt lat="32.632011414" lon="35.118030548">
  <ele>226.110596</ele>
  <time>2011-11-22T19:11:35Z</time>
  <speed>1.160000</speed>
</trkpt>
<trkpt lat="32.631992340" lon="35.118011475">
  <ele>226.942627</ele>
  <time>2011-11-22T19:11:37Z</time>
  <speed>1.040000</speed>
</trkpt>
<trkpt lat="32.631961823" lon="35.117984772">
  <ele>228.024658</ele>
  <time>2011-11-22T19:11:40Z</time>
  <speed>0.710000</speed>
</trkpt>
<trkpt lat="32.631935120" lon="35.117954254">
  <ele>227.641846</ele>
  <time>2011-11-22T19:11:43Z</time>
  <speed>0.760000</speed>
</trkpt>
<trkpt lat="32.631904602" lon="35.117931366">
  <ele>227.501221</ele>
  <time>2011-11-22T19:11:46Z</time>
  <speed>1.060000</speed>
</trkpt>
<trkpt lat="32.631874084" lon="35.117916107">
  <ele>228.235596</ele>
  <time>2011-11-22T19:11:48Z</time>
  <speed>1.320000</speed>
</trkpt>
<trkpt lat="32.631851196" lon="35.117897034">
  <ele>227.618408</ele>
  <time>2011-11-22T19:11:51Z</time>
  <speed>0.720000</speed>
</trkpt>
<trkpt lat="32.631832123" lon="35.117874146">
  <ele>228.153564</ele>
  <time>2011-11-22T19:11:54Z</time>
  <speed>0.770000</speed>
</trkpt>
<trkpt lat="32.631797791" lon="35.117862701">
  <ele>228.059814</ele>
  <time>2011-11-22T19:11:57Z</time>
  <speed>0.840000</speed>
</trkpt>
<trkpt lat="32.631771088" lon="35.117843628">
  <ele>227.059814</ele>
  <time>2011-11-22T19:12:01Z</time>
  <speed>1.000000</speed>
</trkpt>
<trkpt lat="32.631744385" lon="35.117835999">
  <ele>227.786377</ele>
  <time>2011-11-22T19:12:06Z</time>
  <speed>0.100000</speed>
</trkpt>
<trkpt lat="32.631706238" lon="35.117832184">
  <ele>228.520752</ele>
  <time>2011-11-22T19:12:55Z</time>
  <speed>1.410000</speed>
</trkpt>
<trkpt lat="32.631683350" lon="35.117813110">
  <ele>229.665283</ele>
  <time>2011-11-22T19:12:57Z</time>
  <speed>1.780000</speed>
</trkpt>
<trkpt lat="32.631633759" lon="35.117797852">
  <ele>230.259033</ele>
  <time>2011-11-22T19:12:59Z</time>
  <speed>2.210000</speed>
</trkpt>
<trkpt lat="32.631610870" lon="35.117778778">
  <ele>230.462158</ele>
  <time>2011-11-22T19:13:00Z</time>
  <speed>2.520000</speed>
</trkpt>
<trkpt lat="32.631561279" lon="35.117759705">
  <ele>231.680908</ele>
  <time>2011-11-22T19:13:02Z</time>
  <speed>2.680000</speed>
</trkpt>
<trkpt lat="32.631523132" lon="35.117763519">
  <ele>232.032471</ele>
  <time>2011-11-22T19:13:03Z</time>
  <speed>3.100000</speed>
</trkpt>
<trkpt lat="32.631492615" lon="35.117755890">
  <ele>232.270752</ele>
  <time>2011-11-22T19:13:04Z</time>
  <speed>2.950000</speed>
</trkpt>
<trkpt lat="32.631443024" lon="35.117740631">
  <ele>231.442627</ele>
  <time>2011-11-22T19:13:06Z</time>
  <speed>2.430000</speed>
</trkpt>
<trkpt lat="32.631408691" lon="35.117740631">
  <ele>231.067627</ele>
  <time>2011-11-22T19:13:07Z</time>
  <speed>2.720000</speed>
</trkpt>
<trkpt lat="32.631362915" lon="35.117717743">
  <ele>231.145752</ele>
  <time>2011-11-22T19:13:09Z</time>
  <speed>2.670000</speed>
</trkpt>
<trkpt lat="32.631317139" lon="35.117710114">
  <ele>230.735596</ele>
  <time>2011-11-22T19:13:11Z</time>
  <speed>2.340000</speed>
</trkpt>
<trkpt lat="32.631282806" lon="35.117691040">
  <ele>230.563721</ele>
  <time>2011-11-22T19:13:13Z</time>
  <speed>1.940000</speed>
</trkpt>
<trkpt lat="32.631237030" lon="35.117683411">
  <ele>230.450439</ele>
  <time>2011-11-22T19:13:15Z</time>
  <speed>1.900000</speed>
</trkpt>
<trkpt lat="32.631195068" lon="35.117679596">
  <ele>230.305908</ele>
  <time>2011-11-22T19:13:17Z</time>
  <speed>1.800000</speed>
</trkpt>
<trkpt lat="32.631156921" lon="35.117671967">
  <ele>230.321533</ele>
  <time>2011-11-22T19:13:19Z</time>
  <speed>1.580000</speed>
</trkpt>
<trkpt lat="32.631114960" lon="35.117664337">
  <ele>229.958252</ele>
  <time>2011-11-22T19:13:21Z</time>
  <speed>1.980000</speed>
</trkpt>
<trkpt lat="32.631080627" lon="35.117660522">
  <ele>230.239502</ele>
  <time>2011-11-22T19:13:23Z</time>
  <speed>1.430000</speed>
</trkpt>
<trkpt lat="32.631046295" lon="35.117660522">
  <ele>231.458252</ele>
  <time>2011-11-22T19:13:25Z</time>
  <speed>2.090000</speed>
</trkpt>
<trkpt lat="32.631008148" lon="35.117656708">
  <ele>232.501221</ele>
  <time>2011-11-22T19:13:27Z</time>
  <speed>1.800000</speed>
</trkpt>
<trkpt lat="32.630970001" lon="35.117652893">
  <ele>233.790283</ele>
  <time>2011-11-22T19:13:29Z</time>
  <speed>1.690000</speed>
</trkpt>
<trkpt lat="32.630931854" lon="35.117664337">
  <ele>234.571533</ele>
  <time>2011-11-22T19:13:31Z</time>
  <speed>1.450000</speed>
</trkpt>
<trkpt lat="32.630893707" lon="35.117660522">
  <ele>235.134033</ele>
  <time>2011-11-22T19:13:33Z</time>
  <speed>1.540000</speed>
</trkpt>
<trkpt lat="32.630859375" lon="35.117671967">
  <ele>235.352783</ele>
  <time>2011-11-22T19:13:35Z</time>
  <speed>1.590000</speed>
</trkpt>
<trkpt lat="32.630813599" lon="35.117679596">
  <ele>236.571533</ele>
  <time>2011-11-22T19:13:37Z</time>
  <speed>1.690000</speed>
</trkpt>
<trkpt lat="32.630775452" lon="35.117675781">
  <ele>236.813721</ele>
  <time>2011-11-22T19:13:39Z</time>
  <speed>1.630000</speed>
</trkpt>
<trkpt lat="32.630744934" lon="35.117683411">
  <ele>236.446533</ele>
  <time>2011-11-22T19:13:41Z</time>
  <speed>1.790000</speed>
</trkpt>
<trkpt lat="32.630714417" lon="35.117713928">
  <ele>235.981689</ele>
  <time>2011-11-22T19:13:43Z</time>
  <speed>1.820000</speed>
</trkpt>
<trkpt lat="32.630680084" lon="35.117725372">
  <ele>236.348877</ele>
  <time>2011-11-22T19:13:45Z</time>
  <speed>1.360000</speed>
</trkpt>
<trkpt lat="32.630657196" lon="35.117748260">
  <ele>235.903564</ele>
  <time>2011-11-22T19:13:47Z</time>
  <speed>1.930000</speed>
</trkpt>
<trkpt lat="32.630626678" lon="35.117782593">
  <ele>235.419189</ele>
  <time>2011-11-22T19:13:49Z</time>
  <speed>1.880000</speed>
</trkpt>
<trkpt lat="32.630607605" lon="35.117813110">
  <ele>233.923096</ele>
  <time>2011-11-22T19:13:51Z</time>
  <speed>2.060000</speed>
</trkpt>
<trkpt lat="32.630569458" lon="35.117835999">
  <ele>233.723877</ele>
  <time>2011-11-22T19:13:53Z</time>
  <speed>2.360000</speed>
</trkpt>
<trkpt lat="32.630531311" lon="35.117866516">
  <ele>233.708252</ele>
  <time>2011-11-22T19:13:55Z</time>
  <speed>2.100000</speed>
</trkpt>
<trkpt lat="32.630500793" lon="35.117889404">
  <ele>234.716064</ele>
  <time>2011-11-22T19:13:56Z</time>
  <speed>2.600000</speed>
</trkpt>
<trkpt lat="32.630455017" lon="35.117912292">
  <ele>235.059814</ele>
  <time>2011-11-22T19:13:58Z</time>
  <speed>2.730000</speed>
</trkpt>
<trkpt lat="32.630413055" lon="35.117946625">
  <ele>234.868408</ele>
  <time>2011-11-22T19:14:00Z</time>
  <speed>3.290000</speed>
</trkpt>
<trkpt lat="32.630386353" lon="35.117965698">
  <ele>234.833252</ele>
  <time>2011-11-22T19:14:01Z</time>
  <speed>3.310000</speed>
</trkpt>
<trkpt lat="32.630359650" lon="35.117980957">
  <ele>235.079346</ele>
  <time>2011-11-22T19:14:02Z</time>
  <speed>2.910000</speed>
</trkpt>
<trkpt lat="32.630329132" lon="35.117988586">
  <ele>235.665283</ele>
  <time>2011-11-22T19:14:03Z</time>
  <speed>3.730000</speed>
</trkpt>
<trkpt lat="32.630294800" lon="35.118003845">
  <ele>236.102783</ele>
  <time>2011-11-22T19:14:04Z</time>
  <speed>3.660000</speed>
</trkpt>
<trkpt lat="32.630256653" lon="35.118007660">
  <ele>235.962158</ele>
  <time>2011-11-22T19:14:05Z</time>
  <speed>3.910000</speed>
</trkpt>
<trkpt lat="32.630214691" lon="35.118007660">
  <ele>235.360596</ele>
  <time>2011-11-22T19:14:06Z</time>
  <speed>4.610000</speed>
</trkpt>
<trkpt lat="32.630176544" lon="35.118015289">
  <ele>235.626221</ele>
  <time>2011-11-22T19:14:07Z</time>
  <speed>4.340000</speed>
</trkpt>
<trkpt lat="32.630138397" lon="35.118019104">
  <ele>234.696533</ele>
  <time>2011-11-22T19:14:08Z</time>
  <speed>3.770000</speed>
</trkpt>
<trkpt lat="32.630104065" lon="35.118026733">
  <ele>234.477783</ele>
  <time>2011-11-22T19:14:09Z</time>
  <speed>3.230000</speed>
</trkpt>
<trkpt lat="32.630077362" lon="35.118019104">
  <ele>235.110596</ele>
  <time>2011-11-22T19:14:10Z</time>
  <speed>2.580000</speed>
</trkpt>
<trkpt lat="32.630039215" lon="35.118015289">
  <ele>236.040283</ele>
  <time>2011-11-22T19:14:12Z</time>
  <speed>1.540000</speed>
</trkpt>
<trkpt lat="32.630012512" lon="35.117992401">
  <ele>234.743408</ele>
  <time>2011-11-22T19:14:14Z</time>
  <speed>1.480000</speed>
</trkpt>
<trkpt lat="32.629989624" lon="35.117965698">
  <ele>234.735596</ele>
  <time>2011-11-22T19:14:16Z</time>
  <speed>1.600000</speed>
</trkpt>
<trkpt lat="32.629959106" lon="35.117942810">
  <ele>234.286377</ele>
  <time>2011-11-22T19:14:18Z</time>
  <speed>1.940000</speed>
</trkpt>
<trkpt lat="32.629924774" lon="35.117919922">
  <ele>235.036377</ele>
  <time>2011-11-22T19:14:20Z</time>
  <speed>1.760000</speed>
</trkpt>
<trkpt lat="32.629898071" lon="35.117885590">
  <ele>235.759033</ele>
  <time>2011-11-22T19:14:22Z</time>
  <speed>1.800000</speed>
</trkpt>
<trkpt lat="32.629882813" lon="35.117855072">
  <ele>235.938721</ele>
  <time>2011-11-22T19:14:24Z</time>
  <speed>1.610000</speed>
</trkpt>
<trkpt lat="32.629863739" lon="35.117824554">
  <ele>236.333252</ele>
  <time>2011-11-22T19:14:26Z</time>
  <speed>1.330000</speed>
</trkpt>
<trkpt lat="32.629844666" lon="35.117782593">
  <ele>236.614502</ele>
  <time>2011-11-22T19:14:29Z</time>
  <speed>1.320000</speed>
</trkpt>
<trkpt lat="32.629814148" lon="35.117748260">
  <ele>237.098877</ele>
  <time>2011-11-22T19:14:31Z</time>
  <speed>1.580000</speed>
</trkpt>
<trkpt lat="32.629776001" lon="35.117725372">
  <ele>237.614502</ele>
  <time>2011-11-22T19:14:34Z</time>
  <speed>1.800000</speed>
</trkpt>
<trkpt lat="32.629749298" lon="35.117698669">
  <ele>237.872314</ele>
  <time>2011-11-22T19:14:36Z</time>
  <speed>1.450000</speed>
</trkpt>
<trkpt lat="32.629718781" lon="35.117660522">
  <ele>238.856689</ele>
  <time>2011-11-22T19:14:38Z</time>
  <speed>1.590000</speed>
</trkpt>
<trkpt lat="32.629695892" lon="35.117630005">
  <ele>238.809814</ele>
  <time>2011-11-22T19:14:40Z</time>
  <speed>1.620000</speed>
</trkpt>
<trkpt lat="32.629661560" lon="35.117614746">
  <ele>239.669189</ele>
  <time>2011-11-22T19:14:42Z</time>
  <speed>2.100000</speed>
</trkpt>
<trkpt lat="32.629611969" lon="35.117588043">
  <ele>239.415283</ele>
  <time>2011-11-22T19:14:44Z</time>
  <speed>2.670000</speed>
</trkpt>
<trkpt lat="32.629589081" lon="35.117568970">
  <ele>239.524658</ele>
  <time>2011-11-22T19:14:45Z</time>
  <speed>2.800000</speed>
</trkpt>
<trkpt lat="32.629543304" lon="35.117538452">
  <ele>239.352783</ele>
  <time>2011-11-22T19:14:47Z</time>
  <speed>2.700000</speed>
</trkpt>
<trkpt lat="32.629489899" lon="35.117511749">
  <ele>239.309814</ele>
  <time>2011-11-22T19:14:49Z</time>
  <speed>2.650000</speed>
</trkpt>
<trkpt lat="32.629467010" lon="35.117488861">
  <ele>238.837158</ele>
  <time>2011-11-22T19:14:50Z</time>
  <speed>2.450000</speed>
</trkpt>
<trkpt lat="32.629444122" lon="35.117469788">
  <ele>238.930908</ele>
  <time>2011-11-22T19:14:51Z</time>
  <speed>2.890000</speed>
</trkpt>
<trkpt lat="32.629390717" lon="35.117431641">
  <ele>239.016846</ele>
  <time>2011-11-22T19:14:53Z</time>
  <speed>3.090000</speed>
</trkpt>
<trkpt lat="32.629367828" lon="35.117412567">
  <ele>238.954346</ele>
  <time>2011-11-22T19:14:54Z</time>
  <speed>2.690000</speed>
</trkpt>
<trkpt lat="32.629337311" lon="35.117393494">
  <ele>238.770752</ele>
  <time>2011-11-22T19:14:55Z</time>
  <speed>2.930000</speed>
</trkpt>
<trkpt lat="32.629310608" lon="35.117374420">
  <ele>238.622314</ele>
  <time>2011-11-22T19:14:56Z</time>
  <speed>3.030000</speed>
</trkpt>
<trkpt lat="32.629280090" lon="35.117362976">
  <ele>238.680908</ele>
  <time>2011-11-22T19:14:57Z</time>
  <speed>2.920000</speed>
</trkpt>
<trkpt lat="32.629253387" lon="35.117343903">
  <ele>238.727783</ele>
  <time>2011-11-22T19:14:58Z</time>
  <speed>3.070000</speed>
</trkpt>
<trkpt lat="32.629211426" lon="35.117328644">
  <ele>238.848877</ele>
  <time>2011-11-22T19:14:59Z</time>
  <speed>3.140000</speed>
</trkpt>
<trkpt lat="32.629188538" lon="35.117305756">
  <ele>238.747314</ele>
  <time>2011-11-22T19:15:00Z</time>
  <speed>3.090000</speed>
</trkpt>
<trkpt lat="32.629154205" lon="35.117290497">
  <ele>238.966064</ele>
  <time>2011-11-22T19:15:01Z</time>
  <speed>3.150000</speed>
</trkpt>
<trkpt lat="32.629104614" lon="35.117271423">
  <ele>238.645752</ele>
  <time>2011-11-22T19:15:03Z</time>
  <speed>3.140000</speed>
</trkpt>
<trkpt lat="32.629070282" lon="35.117256165">
  <ele>238.649658</ele>
  <time>2011-11-22T19:15:04Z</time>
  <speed>3.110000</speed>
</trkpt>
<trkpt lat="32.629039764" lon="35.117237091">
  <ele>238.462158</ele>
  <time>2011-11-22T19:15:05Z</time>
  <speed>3.370000</speed>
</trkpt>
<trkpt lat="32.629009247" lon="35.117218018">
  <ele>238.356689</ele>
  <time>2011-11-22T19:15:06Z</time>
  <speed>3.430000</speed>
</trkpt>
<trkpt lat="32.628978729" lon="35.117202759">
  <ele>238.266846</ele>
  <time>2011-11-22T19:15:07Z</time>
  <speed>3.000000</speed>
</trkpt>
<trkpt lat="32.628936768" lon="35.117202759">
  <ele>239.223877</ele>
  <time>2011-11-22T19:15:08Z</time>
  <speed>3.410000</speed>
</trkpt>
<trkpt lat="32.628906250" lon="35.117195129">
  <ele>238.719971</ele>
  <time>2011-11-22T19:15:09Z</time>
  <speed>3.470000</speed>
</trkpt>
<trkpt lat="32.628871918" lon="35.117183685">
  <ele>238.786377</ele>
  <time>2011-11-22T19:15:10Z</time>
  <speed>3.270000</speed>
</trkpt>
<trkpt lat="32.628833771" lon="35.117179871">
  <ele>238.934814</ele>
  <time>2011-11-22T19:15:11Z</time>
  <speed>3.630000</speed>
</trkpt>
<trkpt lat="32.628803253" lon="35.117168427">
  <ele>239.872314</ele>
  <time>2011-11-22T19:15:12Z</time>
  <speed>3.580000</speed>
</trkpt>
<trkpt lat="32.628776550" lon="35.117156982">
  <ele>240.286377</ele>
  <time>2011-11-22T19:15:13Z</time>
  <speed>3.350000</speed>
</trkpt>
<trkpt lat="32.628742218" lon="35.117153168">
  <ele>240.567627</ele>
  <time>2011-11-22T19:15:14Z</time>
  <speed>3.660000</speed>
</trkpt>
<trkpt lat="32.628707886" lon="35.117141724">
  <ele>240.395752</ele>
  <time>2011-11-22T19:15:15Z</time>
  <speed>3.590000</speed>
</trkpt>
<trkpt lat="32.628681183" lon="35.117122650">
  <ele>241.032471</ele>
  <time>2011-11-22T19:15:16Z</time>
  <speed>3.630000</speed>
</trkpt>
<trkpt lat="32.628646851" lon="35.117111206">
  <ele>241.001221</ele>
  <time>2011-11-22T19:15:17Z</time>
  <speed>3.580000</speed>
</trkpt>
<trkpt lat="32.628612518" lon="35.117099762">
  <ele>240.876221</ele>
  <time>2011-11-22T19:15:18Z</time>
  <speed>3.620000</speed>
</trkpt>
<trkpt lat="32.628570557" lon="35.117084503">
  <ele>240.387939</ele>
  <time>2011-11-22T19:15:19Z</time>
  <speed>4.020000</speed>
</trkpt>
<trkpt lat="32.628536224" lon="35.117073059">
  <ele>240.165283</ele>
  <time>2011-11-22T19:15:20Z</time>
  <speed>3.620000</speed>
</trkpt>
<trkpt lat="32.628501892" lon="35.117038727">
  <ele>238.829346</ele>
  <time>2011-11-22T19:15:21Z</time>
  <speed>3.990000</speed>
</trkpt>
<trkpt lat="32.628471375" lon="35.117015839">
  <ele>239.063721</ele>
  <time>2011-11-22T19:15:22Z</time>
  <speed>4.060000</speed>
</trkpt>
<trkpt lat="32.628437042" lon="35.116981506">
  <ele>239.005127</ele>
  <time>2011-11-22T19:15:23Z</time>
  <speed>4.480000</speed>
</trkpt>
<trkpt lat="32.628398895" lon="35.116954803">
  <ele>238.930908</ele>
  <time>2011-11-22T19:15:24Z</time>
  <speed>4.610000</speed>
</trkpt>
<trkpt lat="32.628360748" lon="35.116924286">
  <ele>238.798096</ele>
  <time>2011-11-22T19:15:25Z</time>
  <speed>5.250000</speed>
</trkpt>
<trkpt lat="32.628311157" lon="35.116901398">
  <ele>239.360596</ele>
  <time>2011-11-22T19:15:26Z</time>
  <speed>5.890000</speed>
</trkpt>
<trkpt lat="32.628261566" lon="35.116859436">
  <ele>238.387939</ele>
  <time>2011-11-22T19:15:27Z</time>
  <speed>6.420000</speed>
</trkpt>
<trkpt lat="32.628200531" lon="35.116821289">
  <ele>237.962158</ele>
  <time>2011-11-22T19:15:28Z</time>
  <speed>6.640000</speed>
</trkpt>
<trkpt lat="32.628135681" lon="35.116786957">
  <ele>237.094971</ele>
  <time>2011-11-22T19:15:29Z</time>
  <speed>6.940000</speed>
</trkpt>
<trkpt lat="32.628070831" lon="35.116756439">
  <ele>236.950439</ele>
  <time>2011-11-22T19:15:30Z</time>
  <speed>7.270000</speed>
</trkpt>
<trkpt lat="32.628013611" lon="35.116718292">
  <ele>236.704346</ele>
  <time>2011-11-22T19:15:31Z</time>
  <speed>7.510000</speed>
</trkpt>
<trkpt lat="32.627944946" lon="35.116683960">
  <ele>236.333252</ele>
  <time>2011-11-22T19:15:32Z</time>
  <speed>7.710000</speed>
</trkpt>
<trkpt lat="32.627880096" lon="35.116645813">
  <ele>236.188721</ele>
  <time>2011-11-22T19:15:33Z</time>
  <speed>7.670000</speed>
</trkpt>
<trkpt lat="32.627819061" lon="35.116603851">
  <ele>235.954346</ele>
  <time>2011-11-22T19:15:34Z</time>
  <speed>7.830000</speed>
</trkpt>
<trkpt lat="32.627746582" lon="35.116569519">
  <ele>235.923096</ele>
  <time>2011-11-22T19:15:35Z</time>
  <speed>7.770000</speed>
</trkpt>
<trkpt lat="32.627681732" lon="35.116554260">
  <ele>235.395752</ele>
  <time>2011-11-22T19:15:36Z</time>
  <speed>7.870000</speed>
</trkpt>
<trkpt lat="32.627609253" lon="35.116527557">
  <ele>235.094971</ele>
  <time>2011-11-22T19:15:37Z</time>
  <speed>7.790000</speed>
</trkpt>
<trkpt lat="32.627536774" lon="35.116500854">
  <ele>233.950439</ele>
  <time>2011-11-22T19:15:38Z</time>
  <speed>7.830000</speed>
</trkpt>
<trkpt lat="32.627464294" lon="35.116481781">
  <ele>234.266846</ele>
  <time>2011-11-22T19:15:39Z</time>
  <speed>7.620000</speed>
</trkpt>
<trkpt lat="32.627384186" lon="35.116462708">
  <ele>234.813721</ele>
  <time>2011-11-22T19:15:40Z</time>
  <speed>7.710000</speed>
</trkpt>
<trkpt lat="32.627315521" lon="35.116428375">
  <ele>234.329346</ele>
  <time>2011-11-22T19:15:41Z</time>
  <speed>7.930000</speed>
</trkpt>
<trkpt lat="32.627250671" lon="35.116394043">
  <ele>234.141846</ele>
  <time>2011-11-22T19:15:42Z</time>
  <speed>7.560000</speed>
</trkpt>
<trkpt lat="32.627189636" lon="35.116352081">
  <ele>234.141846</ele>
  <time>2011-11-22T19:15:43Z</time>
  <speed>7.580000</speed>
</trkpt>
<trkpt lat="32.627140045" lon="35.116306305">
  <ele>233.247314</ele>
  <time>2011-11-22T19:15:44Z</time>
  <speed>7.060000</speed>
</trkpt>
<trkpt lat="32.627094269" lon="35.116256714">
  <ele>232.993408</ele>
  <time>2011-11-22T19:15:45Z</time>
  <speed>6.810000</speed>
</trkpt>
<trkpt lat="32.627056122" lon="35.116203308">
  <ele>233.126221</ele>
  <time>2011-11-22T19:15:46Z</time>
  <speed>6.440000</speed>
</trkpt>
<trkpt lat="32.627021790" lon="35.116153717">
  <ele>233.255127</ele>
  <time>2011-11-22T19:15:47Z</time>
  <speed>5.900000</speed>
</trkpt>
<trkpt lat="32.626976013" lon="35.116115570">
  <ele>233.427002</ele>
  <time>2011-11-22T19:15:48Z</time>
  <speed>5.210000</speed>
</trkpt>
<trkpt lat="32.626945496" lon="35.116085052">
  <ele>232.923096</ele>
  <time>2011-11-22T19:15:49Z</time>
  <speed>4.640000</speed>
</trkpt>
<trkpt lat="32.626918793" lon="35.116054535">
  <ele>232.915283</ele>
  <time>2011-11-22T19:15:50Z</time>
  <speed>4.020000</speed>
</trkpt>
<trkpt lat="32.626899719" lon="35.116031647">
  <ele>232.622314</ele>
  <time>2011-11-22T19:15:51Z</time>
  <speed>3.290000</speed>
</trkpt>
<trkpt lat="32.626865387" lon="35.115993500">
  <ele>231.915283</ele>
  <time>2011-11-22T19:15:53Z</time>
  <speed>1.950000</speed>
</trkpt>
<trkpt lat="32.626842499" lon="35.115974426">
  <ele>232.887939</ele>
  <time>2011-11-22T19:15:55Z</time>
  <speed>1.820000</speed>
</trkpt>
<trkpt lat="32.626815796" lon="35.115959167">
  <ele>233.055908</ele>
  <time>2011-11-22T19:15:57Z</time>
  <speed>1.320000</speed>
</trkpt>
<trkpt lat="32.626785278" lon="35.115970612">
  <ele>232.512939</ele>
  <time>2011-11-22T19:15:59Z</time>
  <speed>1.310000</speed>
</trkpt>
<trkpt lat="32.626766205" lon="35.115989685">
  <ele>233.278564</ele>
  <time>2011-11-22T19:16:02Z</time>
  <speed>0.400000</speed>
</trkpt>
<trkpt lat="32.626750946" lon="35.116020203">
  <ele>233.427002</ele>
  <time>2011-11-22T19:16:42Z</time>
  <speed>0.180000</speed>
</trkpt>
<trkpt lat="32.626728058" lon="35.116020203">
  <ele>235.075439</ele>
  <time>2011-11-22T19:17:10Z</time>
  <speed>0.080000</speed>
</trkpt>
<trkpt lat="32.626720428" lon="35.116046906">
  <ele>236.684814</ele>
  <time>2011-11-22T19:17:36Z</time>
  <speed>0.070000</speed>
</trkpt>
<trkpt lat="32.626697540" lon="35.116069794">
  <ele>237.219971</ele>
  <time>2011-11-22T19:21:04Z</time>
  <speed>0.860000</speed>
</trkpt>
<trkpt lat="32.626655579" lon="35.116081238">
  <ele>236.602783</ele>
  <time>2011-11-22T19:21:07Z</time>
  <speed>1.680000</speed>
</trkpt>
<trkpt lat="32.626628876" lon="35.116115570">
  <ele>235.844971</ele>
  <time>2011-11-22T19:21:09Z</time>
  <speed>2.540000</speed>
</trkpt>
<trkpt lat="32.626594543" lon="35.116161346">
  <ele>235.536377</ele>
  <time>2011-11-22T19:21:11Z</time>
  <speed>2.710000</speed>
</trkpt>
<trkpt lat="32.626560211" lon="35.116210938">
  <ele>233.614502</ele>
  <time>2011-11-22T19:21:13Z</time>
  <speed>3.410000</speed>
</trkpt>
<trkpt lat="32.626537323" lon="35.116237640">
  <ele>233.368408</ele>
  <time>2011-11-22T19:21:14Z</time>
  <speed>3.640000</speed>
</trkpt>
<trkpt lat="32.626510620" lon="35.116260529">
  <ele>232.665283</ele>
  <time>2011-11-22T19:21:15Z</time>
  <speed>3.970000</speed>
</trkpt>
<trkpt lat="32.626483917" lon="35.116287231">
  <ele>231.329346</ele>
  <time>2011-11-22T19:21:16Z</time>
  <speed>4.160000</speed>
</trkpt>
<trkpt lat="32.626449585" lon="35.116313934">
  <ele>230.415283</ele>
  <time>2011-11-22T19:21:17Z</time>
  <speed>4.620000</speed>
</trkpt>
<trkpt lat="32.626411438" lon="35.116344452">
  <ele>230.536377</ele>
  <time>2011-11-22T19:21:18Z</time>
  <speed>5.040000</speed>
</trkpt>
<trkpt lat="32.626369476" lon="35.116374969">
  <ele>230.079346</ele>
  <time>2011-11-22T19:21:19Z</time>
  <speed>5.220000</speed>
</trkpt>
<trkpt lat="32.626327515" lon="35.116401672">
  <ele>229.653564</ele>
  <time>2011-11-22T19:21:20Z</time>
  <speed>5.720000</speed>
</trkpt>
<trkpt lat="32.626281738" lon="35.116428375">
  <ele>228.813721</ele>
  <time>2011-11-22T19:21:21Z</time>
  <speed>5.960000</speed>
</trkpt>
<trkpt lat="32.626232147" lon="35.116462708">
  <ele>228.360596</ele>
  <time>2011-11-22T19:21:22Z</time>
  <speed>5.990000</speed>
</trkpt>
<trkpt lat="32.626182556" lon="35.116493225">
  <ele>228.188721</ele>
  <time>2011-11-22T19:21:23Z</time>
  <speed>6.190000</speed>
</trkpt>
<trkpt lat="32.626136780" lon="35.116531372">
  <ele>227.762939</ele>
  <time>2011-11-22T19:21:24Z</time>
  <speed>6.270000</speed>
</trkpt>
<trkpt lat="32.626083374" lon="35.116573334">
  <ele>228.137939</ele>
  <time>2011-11-22T19:21:25Z</time>
  <speed>6.140000</speed>
</trkpt>
<trkpt lat="32.626033783" lon="35.116611481">
  <ele>228.118408</ele>
  <time>2011-11-22T19:21:26Z</time>
  <speed>5.900000</speed>
</trkpt>
<trkpt lat="32.625991821" lon="35.116649628">
  <ele>228.165283</ele>
  <time>2011-11-22T19:21:27Z</time>
  <speed>5.690000</speed>
</trkpt>
<trkpt lat="32.625949860" lon="35.116680145">
  <ele>228.200439</ele>
  <time>2011-11-22T19:21:28Z</time>
  <speed>5.130000</speed>
</trkpt>
<trkpt lat="32.625911713" lon="35.116703033">
  <ele>227.735596</ele>
  <time>2011-11-22T19:21:29Z</time>
  <speed>5.170000</speed>
</trkpt>
<trkpt lat="32.625873566" lon="35.116729736">
  <ele>227.571533</ele>
  <time>2011-11-22T19:21:30Z</time>
  <speed>4.970000</speed>
</trkpt>
<trkpt lat="32.625839233" lon="35.116756439">
  <ele>227.317627</ele>
  <time>2011-11-22T19:21:31Z</time>
  <speed>4.320000</speed>
</trkpt>
<trkpt lat="32.625808716" lon="35.116786957">
  <ele>227.391846</ele>
  <time>2011-11-22T19:21:32Z</time>
  <speed>4.050000</speed>
</trkpt>
<trkpt lat="32.625770569" lon="35.116813660">
  <ele>227.540283</ele>
  <time>2011-11-22T19:21:33Z</time>
  <speed>3.930000</speed>
</trkpt>
<trkpt lat="32.625732422" lon="35.116840363">
  <ele>227.868408</ele>
  <time>2011-11-22T19:21:34Z</time>
  <speed>4.140000</speed>
</trkpt>
<trkpt lat="32.625698090" lon="35.116863251">
  <ele>228.130127</ele>
  <time>2011-11-22T19:21:35Z</time>
  <speed>3.910000</speed>
</trkpt>
<trkpt lat="32.625671387" lon="35.116882324">
  <ele>227.614502</ele>
  <time>2011-11-22T19:21:36Z</time>
  <speed>3.440000</speed>
</trkpt>
<trkpt lat="32.625644684" lon="35.116897583">
  <ele>226.907471</ele>
  <time>2011-11-22T19:21:37Z</time>
  <speed>3.090000</speed>
</trkpt>
<trkpt lat="32.625617981" lon="35.116920471">
  <ele>227.184814</ele>
  <time>2011-11-22T19:21:38Z</time>
  <speed>3.340000</speed>
</trkpt>
<trkpt lat="32.625583649" lon="35.116931915">
  <ele>226.552002</ele>
  <time>2011-11-22T19:21:39Z</time>
  <speed>3.400000</speed>
</trkpt>
<trkpt lat="32.625560760" lon="35.116954803">
  <ele>225.747314</ele>
  <time>2011-11-22T19:21:40Z</time>
  <speed>3.510000</speed>
</trkpt>
<trkpt lat="32.625534058" lon="35.116970062">
  <ele>225.204346</ele>
  <time>2011-11-22T19:21:41Z</time>
  <speed>3.600000</speed>
</trkpt>
<trkpt lat="32.625499725" lon="35.116985321">
  <ele>224.759033</ele>
  <time>2011-11-22T19:21:42Z</time>
  <speed>3.770000</speed>
</trkpt>
<trkpt lat="32.625465393" lon="35.117012024">
  <ele>224.587158</ele>
  <time>2011-11-22T19:21:43Z</time>
  <speed>3.890000</speed>
</trkpt>
<trkpt lat="32.625431061" lon="35.117031097">
  <ele>224.852783</ele>
  <time>2011-11-22T19:21:44Z</time>
  <speed>3.820000</speed>
</trkpt>
<trkpt lat="32.625400543" lon="35.117050171">
  <ele>226.774658</ele>
  <time>2011-11-22T19:21:45Z</time>
  <speed>3.620000</speed>
</trkpt>
<trkpt lat="32.625373840" lon="35.117061615">
  <ele>226.907471</ele>
  <time>2011-11-22T19:21:46Z</time>
  <speed>3.640000</speed>
</trkpt>
<trkpt lat="32.625343323" lon="35.117069244">
  <ele>226.755127</ele>
  <time>2011-11-22T19:21:47Z</time>
  <speed>3.180000</speed>
</trkpt>
<trkpt lat="32.625308990" lon="35.117076874">
  <ele>226.805908</ele>
  <time>2011-11-22T19:21:48Z</time>
  <speed>3.540000</speed>
</trkpt>
<trkpt lat="32.625282288" lon="35.117080688">
  <ele>227.438721</ele>
  <time>2011-11-22T19:21:49Z</time>
  <speed>3.360000</speed>
</trkpt>
<trkpt lat="32.625251770" lon="35.117080688">
  <ele>227.415283</ele>
  <time>2011-11-22T19:21:50Z</time>
  <speed>3.280000</speed>
</trkpt>
<trkpt lat="32.625213623" lon="35.117084503">
  <ele>227.606689</ele>
  <time>2011-11-22T19:21:51Z</time>
  <speed>3.290000</speed>
</trkpt>
<trkpt lat="32.625175476" lon="35.117095947">
  <ele>228.243408</ele>
  <time>2011-11-22T19:21:52Z</time>
  <speed>3.190000</speed>
</trkpt>
<trkpt lat="32.625144958" lon="35.117103577">
  <ele>228.259033</ele>
  <time>2011-11-22T19:21:53Z</time>
  <speed>3.380000</speed>
</trkpt>
<trkpt lat="32.625110626" lon="35.117099762">
  <ele>228.911377</ele>
  <time>2011-11-22T19:21:54Z</time>
  <speed>3.430000</speed>
</trkpt>
<trkpt lat="32.625076294" lon="35.117099762">
  <ele>228.739502</ele>
  <time>2011-11-22T19:21:55Z</time>
  <speed>3.510000</speed>
</trkpt>
<trkpt lat="32.625045776" lon="35.117099762">
  <ele>229.188721</ele>
  <time>2011-11-22T19:21:56Z</time>
  <speed>3.190000</speed>
</trkpt>
<trkpt lat="32.625015259" lon="35.117095947">
  <ele>229.165283</ele>
  <time>2011-11-22T19:21:57Z</time>
  <speed>3.050000</speed>
</trkpt>
<trkpt lat="32.624961853" lon="35.117107391">
  <ele>229.376221</ele>
  <time>2011-11-22T19:21:58Z</time>
  <speed>3.140000</speed>
</trkpt>
<trkpt lat="32.624927521" lon="35.117107391">
  <ele>228.927002</ele>
  <time>2011-11-22T19:21:59Z</time>
  <speed>3.690000</speed>
</trkpt>
<trkpt lat="32.624889374" lon="35.117111206">
  <ele>228.770752</ele>
  <time>2011-11-22T19:22:00Z</time>
  <speed>3.650000</speed>
</trkpt>
<trkpt lat="32.624858856" lon="35.117118835">
  <ele>227.825439</ele>
  <time>2011-11-22T19:22:01Z</time>
  <speed>3.030000</speed>
</trkpt>
<trkpt lat="32.624824524" lon="35.117130280">
  <ele>227.497314</ele>
  <time>2011-11-22T19:22:02Z</time>
  <speed>3.720000</speed>
</trkpt>
<trkpt lat="32.624790192" lon="35.117145538">
  <ele>227.427002</ele>
  <time>2011-11-22T19:22:03Z</time>
  <speed>4.080000</speed>
</trkpt>
<trkpt lat="32.624744415" lon="35.117156982">
  <ele>227.286377</ele>
  <time>2011-11-22T19:22:04Z</time>
  <speed>4.520000</speed>
</trkpt>
<trkpt lat="32.624691010" lon="35.117179871">
  <ele>228.036377</ele>
  <time>2011-11-22T19:22:05Z</time>
  <speed>6.070000</speed>
</trkpt>
<trkpt lat="32.624637604" lon="35.117198944">
  <ele>227.637939</ele>
  <time>2011-11-22T19:22:06Z</time>
  <speed>5.920000</speed>
</trkpt>
<trkpt lat="32.624576569" lon="35.117210388">
  <ele>227.040283</ele>
  <time>2011-11-22T19:22:07Z</time>
  <speed>6.540000</speed>
</trkpt>
<trkpt lat="32.624519348" lon="35.117233276">
  <ele>226.567627</ele>
  <time>2011-11-22T19:22:08Z</time>
  <speed>6.610000</speed>
</trkpt>
<trkpt lat="32.624454498" lon="35.117256165">
  <ele>226.579346</ele>
  <time>2011-11-22T19:22:09Z</time>
  <speed>6.960000</speed>
</trkpt>
<trkpt lat="32.624389648" lon="35.117275238">
  <ele>226.024658</ele>
  <time>2011-11-22T19:22:10Z</time>
  <speed>7.340000</speed>
</trkpt>
<trkpt lat="32.624320984" lon="35.117294312">
  <ele>225.520752</ele>
  <time>2011-11-22T19:22:11Z</time>
  <speed>7.450000</speed>
</trkpt>
<trkpt lat="32.624259949" lon="35.117317200">
  <ele>225.130127</ele>
  <time>2011-11-22T19:22:12Z</time>
  <speed>7.230000</speed>
</trkpt>
<trkpt lat="32.624191284" lon="35.117351532">
  <ele>225.262939</ele>
  <time>2011-11-22T19:22:13Z</time>
  <speed>7.180000</speed>
</trkpt>
<trkpt lat="32.624122620" lon="35.117374420">
  <ele>225.407471</ele>
  <time>2011-11-22T19:22:14Z</time>
  <speed>7.470000</speed>
</trkpt>
<trkpt lat="32.624053955" lon="35.117397308">
  <ele>225.415283</ele>
  <time>2011-11-22T19:22:15Z</time>
  <speed>7.610000</speed>
</trkpt>
<trkpt lat="32.623985291" lon="35.117416382">
  <ele>225.614502</ele>
  <time>2011-11-22T19:22:16Z</time>
  <speed>6.840000</speed>
</trkpt>
<trkpt lat="32.623920441" lon="35.117431641">
  <ele>225.243408</ele>
  <time>2011-11-22T19:22:17Z</time>
  <speed>6.930000</speed>
</trkpt>
<trkpt lat="32.623859406" lon="35.117446899">
  <ele>225.372314</ele>
  <time>2011-11-22T19:22:18Z</time>
  <speed>6.790000</speed>
</trkpt>
<trkpt lat="32.623798370" lon="35.117469788">
  <ele>225.091064</ele>
  <time>2011-11-22T19:22:19Z</time>
  <speed>6.610000</speed>
</trkpt>
<trkpt lat="32.623729706" lon="35.117488861">
  <ele>225.188721</ele>
  <time>2011-11-22T19:22:20Z</time>
  <speed>7.250000</speed>
</trkpt>
<trkpt lat="32.623657227" lon="35.117507935">
  <ele>224.981689</ele>
  <time>2011-11-22T19:22:21Z</time>
  <speed>7.330000</speed>
</trkpt>
<trkpt lat="32.623580933" lon="35.117534637">
  <ele>225.469971</ele>
  <time>2011-11-22T19:22:22Z</time>
  <speed>7.860000</speed>
</trkpt>
<trkpt lat="32.623489380" lon="35.117588043">
  <ele>225.731689</ele>
  <time>2011-11-22T19:22:23Z</time>
  <speed>7.970000</speed>
</trkpt>
<trkpt lat="32.623409271" lon="35.117618561">
  <ele>226.387939</ele>
  <time>2011-11-22T19:22:24Z</time>
  <speed>8.080000</speed>
</trkpt>
<trkpt lat="32.623332977" lon="35.117641449">
  <ele>226.540283</ele>
  <time>2011-11-22T19:22:25Z</time>
  <speed>7.830000</speed>
</trkpt>
<trkpt lat="32.623260498" lon="35.117656708">
  <ele>226.759033</ele>
  <time>2011-11-22T19:22:26Z</time>
  <speed>7.650000</speed>
</trkpt>
<trkpt lat="32.623184204" lon="35.117671967">
  <ele>227.251221</ele>
  <time>2011-11-22T19:22:27Z</time>
  <speed>7.780000</speed>
</trkpt>
<trkpt lat="32.623119354" lon="35.117668152">
  <ele>226.887939</ele>
  <time>2011-11-22T19:22:28Z</time>
  <speed>7.250000</speed>
</trkpt>
<trkpt lat="32.623046875" lon="35.117671967">
  <ele>228.419189</ele>
  <time>2011-11-22T19:22:29Z</time>
  <speed>6.800000</speed>
</trkpt>
<trkpt lat="32.622985840" lon="35.117645264">
  <ele>227.891846</ele>
  <time>2011-11-22T19:22:30Z</time>
  <speed>7.180000</speed>
</trkpt>
<trkpt lat="32.622928619" lon="35.117595673">
  <ele>226.454346</ele>
  <time>2011-11-22T19:22:31Z</time>
  <speed>7.350000</speed>
</trkpt>
<trkpt lat="32.622871399" lon="35.117542267">
  <ele>226.942627</ele>
  <time>2011-11-22T19:22:32Z</time>
  <speed>7.880000</speed>
</trkpt>
<trkpt lat="32.622825623" lon="35.117481232">
  <ele>226.930908</ele>
  <time>2011-11-22T19:22:33Z</time>
  <speed>7.990000</speed>
</trkpt>
<trkpt lat="32.622783661" lon="35.117401123">
  <ele>226.946533</ele>
  <time>2011-11-22T19:22:34Z</time>
  <speed>8.910000</speed>
</trkpt>
<trkpt lat="32.622753143" lon="35.117313385">
  <ele>226.930908</ele>
  <time>2011-11-22T19:22:35Z</time>
  <speed>8.920000</speed>
</trkpt>
<trkpt lat="32.622726440" lon="35.117218018">
  <ele>227.001221</ele>
  <time>2011-11-22T19:22:36Z</time>
  <speed>9.500000</speed>
</trkpt>
<trkpt lat="32.622703552" lon="35.117130280">
  <ele>227.036377</ele>
  <time>2011-11-22T19:22:37Z</time>
  <speed>8.950000</speed>
</trkpt>
<trkpt lat="32.622680664" lon="35.117034912">
  <ele>227.223877</ele>
  <time>2011-11-22T19:22:38Z</time>
  <speed>9.040000</speed>
</trkpt>
<trkpt lat="32.622627258" lon="35.116950989">
  <ele>227.169189</ele>
  <time>2011-11-22T19:22:39Z</time>
  <speed>8.650000</speed>
</trkpt>
<trkpt lat="32.622581482" lon="35.116867065">
  <ele>226.712158</ele>
  <time>2011-11-22T19:22:40Z</time>
  <speed>9.440000</speed>
</trkpt>
<trkpt lat="32.622528076" lon="35.116779327">
  <ele>226.594971</ele>
  <time>2011-11-22T19:22:41Z</time>
  <speed>9.010000</speed>
</trkpt>
<trkpt lat="32.622482300" lon="35.116699219">
  <ele>226.458252</ele>
  <time>2011-11-22T19:22:42Z</time>
  <speed>8.830000</speed>
</trkpt>
<trkpt lat="32.622417450" lon="35.116626740">
  <ele>226.223877</ele>
  <time>2011-11-22T19:22:43Z</time>
  <speed>9.490000</speed>
</trkpt>
<trkpt lat="32.622352600" lon="35.116561890">
  <ele>226.122314</ele>
  <time>2011-11-22T19:22:44Z</time>
  <speed>9.550000</speed>
</trkpt>
<trkpt lat="32.622276306" lon="35.116500854">
  <ele>226.298096</ele>
  <time>2011-11-22T19:22:45Z</time>
  <speed>9.130000</speed>
</trkpt>
<trkpt lat="32.622188568" lon="35.116455078">
  <ele>225.313721</ele>
  <time>2011-11-22T19:22:46Z</time>
  <speed>9.780000</speed>
</trkpt>
<trkpt lat="32.622097015" lon="35.116413116">
  <ele>224.743408</ele>
  <time>2011-11-22T19:22:47Z</time>
  <speed>10.090000</speed>
</trkpt>
<trkpt lat="32.622013092" lon="35.116363525">
  <ele>224.610596</ele>
  <time>2011-11-22T19:22:48Z</time>
  <speed>10.420000</speed>
</trkpt>
<trkpt lat="32.621925354" lon="35.116310120">
  <ele>224.020752</ele>
  <time>2011-11-22T19:22:49Z</time>
  <speed>10.540000</speed>
</trkpt>
<trkpt lat="32.621845245" lon="35.116245270">
  <ele>223.985596</ele>
  <time>2011-11-22T19:22:50Z</time>
  <speed>10.500000</speed>
</trkpt>
<trkpt lat="32.621772766" lon="35.116172791">
  <ele>223.555908</ele>
  <time>2011-11-22T19:22:51Z</time>
  <speed>10.120000</speed>
</trkpt>
<trkpt lat="32.621704102" lon="35.116096497">
  <ele>223.282471</ele>
  <time>2011-11-22T19:22:52Z</time>
  <speed>10.310000</speed>
</trkpt>
<trkpt lat="32.621643066" lon="35.116016388">
  <ele>223.180908</ele>
  <time>2011-11-22T19:22:53Z</time>
  <speed>9.980000</speed>
</trkpt>
<trkpt lat="32.621593475" lon="35.115905762">
  <ele>221.821533</ele>
  <time>2011-11-22T19:22:54Z</time>
  <speed>10.300001</speed>
</trkpt>
<trkpt lat="32.621540070" lon="35.115810394">
  <ele>221.360596</ele>
  <time>2011-11-22T19:22:55Z</time>
  <speed>10.500000</speed>
</trkpt>
<trkpt lat="32.621486664" lon="35.115695953">
  <ele>220.235596</ele>
  <time>2011-11-22T19:22:56Z</time>
  <speed>11.439999</speed>
</trkpt>
<trkpt lat="32.621437073" lon="35.115600586">
  <ele>219.516846</ele>
  <time>2011-11-22T19:22:57Z</time>
  <speed>10.700000</speed>
</trkpt>
<trkpt lat="32.621376038" lon="35.115509033">
  <ele>219.481689</ele>
  <time>2011-11-22T19:22:58Z</time>
  <speed>10.980000</speed>
</trkpt>
<trkpt lat="32.621311188" lon="35.115417480">
  <ele>219.262939</ele>
  <time>2011-11-22T19:22:59Z</time>
  <speed>11.280000</speed>
</trkpt>
<trkpt lat="32.621246338" lon="35.115322113">
  <ele>218.294189</ele>
  <time>2011-11-22T19:23:00Z</time>
  <speed>11.100000</speed>
</trkpt>
<trkpt lat="32.621185303" lon="35.115222931">
  <ele>217.880127</ele>
  <time>2011-11-22T19:23:01Z</time>
  <speed>10.990000</speed>
</trkpt>
<trkpt lat="32.621120453" lon="35.115123749">
  <ele>216.938721</ele>
  <time>2011-11-22T19:23:02Z</time>
  <speed>11.010000</speed>
</trkpt>
<trkpt lat="32.621063232" lon="35.115013123">
  <ele>215.997314</ele>
  <time>2011-11-22T19:23:03Z</time>
  <speed>10.790000</speed>
</trkpt>
<trkpt lat="32.621013641" lon="35.114917755">
  <ele>214.696533</ele>
  <time>2011-11-22T19:23:04Z</time>
  <speed>9.810001</speed>
</trkpt>
<trkpt lat="32.620990753" lon="35.114814758">
  <ele>212.364502</ele>
  <time>2011-11-22T19:23:05Z</time>
  <speed>7.690000</speed>
</trkpt>
<trkpt lat="32.621002197" lon="35.114727020">
  <ele>210.130127</ele>
  <time>2011-11-22T19:23:06Z</time>
  <speed>7.690000</speed>
</trkpt>
<trkpt lat="32.621032715" lon="35.114650726">
  <ele>207.512939</ele>
  <time>2011-11-22T19:23:07Z</time>
  <speed>7.120000</speed>
</trkpt>
<trkpt lat="32.621059418" lon="35.114578247">
  <ele>206.423096</ele>
  <time>2011-11-22T19:23:08Z</time>
  <speed>6.820000</speed>
</trkpt>
<trkpt lat="32.621086121" lon="35.114513397">
  <ele>203.977783</ele>
  <time>2011-11-22T19:23:09Z</time>
  <speed>6.660000</speed>
</trkpt>
<trkpt lat="32.621089935" lon="35.114448547">
  <ele>202.372314</ele>
  <time>2011-11-22T19:23:10Z</time>
  <speed>6.520000</speed>
</trkpt>
<trkpt lat="32.621093750" lon="35.114391327">
  <ele>200.204346</ele>
  <time>2011-11-22T19:23:11Z</time>
  <speed>4.900000</speed>
</trkpt>
<trkpt lat="32.621086121" lon="35.114341736">
  <ele>198.973877</ele>
  <time>2011-11-22T19:23:12Z</time>
  <speed>3.430000</speed>
</trkpt>
<trkpt lat="32.621059418" lon="35.114288330">
  <ele>197.719971</ele>
  <time>2011-11-22T19:23:14Z</time>
  <speed>1.910000</speed>
</trkpt>
<trkpt lat="32.621036530" lon="35.114273071">
  <ele>198.262939</ele>
  <time>2011-11-22T19:23:20Z</time>
  <speed>0.020000</speed>
</trkpt>
<trkpt lat="32.621028900" lon="35.114238739">
  <ele>198.415283</ele>
  <time>2011-11-22T19:23:29Z</time>
  <speed>0.050000</speed>
</trkpt>
<trkpt lat="32.621047974" lon="35.114242554">
  <ele>200.540283</ele>
  <time>2011-11-22T19:23:38Z</time>
  <speed>0.620000</speed>
</trkpt>
<trkpt lat="32.621074677" lon="35.114238739">
  <ele>201.774658</ele>
  <time>2011-11-22T19:23:53Z</time>
  <speed>0.020000</speed>
</trkpt>
<trkpt lat="32.621101379" lon="35.114215851">
  <ele>201.364502</ele>
  <time>2011-11-22T19:26:54Z</time>
  <speed>1.630000</speed>
</trkpt>
<trkpt lat="32.621143341" lon="35.114181519">
  <ele>200.962158</ele>
  <time>2011-11-22T19:26:56Z</time>
  <speed>2.760000</speed>
</trkpt>
<trkpt lat="32.621173859" lon="35.114158630">
  <ele>200.540283</ele>
  <time>2011-11-22T19:26:57Z</time>
  <speed>3.270000</speed>
</trkpt>
<trkpt lat="32.621208191" lon="35.114143372">
  <ele>199.934814</ele>
  <time>2011-11-22T19:26:58Z</time>
  <speed>3.380000</speed>
</trkpt>
<trkpt lat="32.621242523" lon="35.114128113">
  <ele>199.415283</ele>
  <time>2011-11-22T19:26:59Z</time>
  <speed>4.160000</speed>
</trkpt>
<trkpt lat="32.621292114" lon="35.114109039">
  <ele>198.903564</ele>
  <time>2011-11-22T19:27:00Z</time>
  <speed>5.000000</speed>
</trkpt>
<trkpt lat="32.621334076" lon="35.114089966">
  <ele>198.153564</ele>
  <time>2011-11-22T19:27:01Z</time>
  <speed>5.200000</speed>
</trkpt>
<trkpt lat="32.621379852" lon="35.114063263">
  <ele>197.364502</ele>
  <time>2011-11-22T19:27:02Z</time>
  <speed>5.510000</speed>
</trkpt>
<trkpt lat="32.621429443" lon="35.114040375">
  <ele>196.692627</ele>
  <time>2011-11-22T19:27:03Z</time>
  <speed>5.680000</speed>
</trkpt>
<trkpt lat="32.621482849" lon="35.114009857">
  <ele>196.032471</ele>
  <time>2011-11-22T19:27:04Z</time>
  <speed>6.360000</speed>
</trkpt>
<trkpt lat="32.621540070" lon="35.113979340">
  <ele>195.567627</ele>
  <time>2011-11-22T19:27:05Z</time>
  <speed>6.430000</speed>
</trkpt>
<trkpt lat="32.621601105" lon="35.113956451">
  <ele>195.477783</ele>
  <time>2011-11-22T19:27:06Z</time>
  <speed>6.660000</speed>
</trkpt>
<trkpt lat="32.621662140" lon="35.113922119">
  <ele>194.837158</ele>
  <time>2011-11-22T19:27:07Z</time>
  <speed>6.940000</speed>
</trkpt>
<trkpt lat="32.621738434" lon="35.113891602">
  <ele>194.024658</ele>
  <time>2011-11-22T19:27:08Z</time>
  <speed>7.890000</speed>
</trkpt>
<trkpt lat="32.621814728" lon="35.113868713">
  <ele>193.145752</ele>
  <time>2011-11-22T19:27:09Z</time>
  <speed>8.250000</speed>
</trkpt>
<trkpt lat="32.621879578" lon="35.113845825">
  <ele>192.864502</ele>
  <time>2011-11-22T19:27:10Z</time>
  <speed>8.390000</speed>
</trkpt>
<trkpt lat="32.621963501" lon="35.113830566">
  <ele>191.930908</ele>
  <time>2011-11-22T19:27:11Z</time>
  <speed>9.040000</speed>
</trkpt>
<trkpt lat="32.622051239" lon="35.113815308">
  <ele>190.333252</ele>
  <time>2011-11-22T19:27:12Z</time>
  <speed>9.530000</speed>
</trkpt>
<trkpt lat="32.622138977" lon="35.113796234">
  <ele>189.407471</ele>
  <time>2011-11-22T19:27:13Z</time>
  <speed>9.690000</speed>
</trkpt>
<trkpt lat="32.622222900" lon="35.113792419">
  <ele>188.516846</ele>
  <time>2011-11-22T19:27:14Z</time>
  <speed>9.540000</speed>
</trkpt>
<trkpt lat="32.622310638" lon="35.113792419">
  <ele>187.407471</ele>
  <time>2011-11-22T19:27:15Z</time>
  <speed>9.650000</speed>
</trkpt>
<trkpt lat="32.622398376" lon="35.113792419">
  <ele>186.606689</ele>
  <time>2011-11-22T19:27:16Z</time>
  <speed>9.710000</speed>
</trkpt>
<trkpt lat="32.622486115" lon="35.113796234">
  <ele>185.837158</ele>
  <time>2011-11-22T19:27:17Z</time>
  <speed>9.300000</speed>
</trkpt>
<trkpt lat="32.622585297" lon="35.113807678">
  <ele>184.887939</ele>
  <time>2011-11-22T19:27:18Z</time>
  <speed>10.110000</speed>
</trkpt>
<trkpt lat="32.622688293" lon="35.113815308">
  <ele>183.141846</ele>
  <time>2011-11-22T19:27:19Z</time>
  <speed>10.940000</speed>
</trkpt>
<trkpt lat="32.622798920" lon="35.113830566">
  <ele>181.251221</ele>
  <time>2011-11-22T19:27:20Z</time>
  <speed>11.530000</speed>
</trkpt>
<trkpt lat="32.622920990" lon="35.113842010">
  <ele>179.891846</ele>
  <time>2011-11-22T19:27:21Z</time>
  <speed>11.690000</speed>
</trkpt>
<trkpt lat="32.623031616" lon="35.113861084">
  <ele>176.919189</ele>
  <time>2011-11-22T19:27:22Z</time>
  <speed>11.370000</speed>
</trkpt>
<trkpt lat="32.623134613" lon="35.113868713">
  <ele>175.083252</ele>
  <time>2011-11-22T19:27:23Z</time>
  <speed>11.040000</speed>
</trkpt>
<trkpt lat="32.623222351" lon="35.113857269">
  <ele>173.841064</ele>
  <time>2011-11-22T19:27:24Z</time>
  <speed>9.490000</speed>
</trkpt>
<trkpt lat="32.623329163" lon="35.113830566">
  <ele>169.645752</ele>
  <time>2011-11-22T19:27:25Z</time>
  <speed>9.290000</speed>
</trkpt>
<trkpt lat="32.623409271" lon="35.113788605">
  <ele>164.606689</ele>
  <time>2011-11-22T19:27:26Z</time>
  <speed>9.780000</speed>
</trkpt>
<trkpt lat="32.623474121" lon="35.113719940">
  <ele>162.927002</ele>
  <time>2011-11-22T19:27:27Z</time>
  <speed>8.970000</speed>
</trkpt>
<trkpt lat="32.623538971" lon="35.113632202">
  <ele>162.817627</ele>
  <time>2011-11-22T19:27:28Z</time>
  <speed>9.540000</speed>
</trkpt>
<trkpt lat="32.623611450" lon="35.113544464">
  <ele>160.469971</ele>
  <time>2011-11-22T19:27:29Z</time>
  <speed>10.520000</speed>
</trkpt>
<trkpt lat="32.623691559" lon="35.113449097">
  <ele>159.594971</ele>
  <time>2011-11-22T19:27:30Z</time>
  <speed>11.250000</speed>
</trkpt>
<trkpt lat="32.623767853" lon="35.113365173">
  <ele>157.712158</ele>
  <time>2011-11-22T19:27:31Z</time>
  <speed>11.870000</speed>
</trkpt>
<trkpt lat="32.623847961" lon="35.113269806">
  <ele>156.509033</ele>
  <time>2011-11-22T19:27:32Z</time>
  <speed>12.020000</speed>
</trkpt>
<trkpt lat="32.623928070" lon="35.113185883">
  <ele>155.044189</ele>
  <time>2011-11-22T19:27:33Z</time>
  <speed>11.890000</speed>
</trkpt>
<trkpt lat="32.624008179" lon="35.113094330">
  <ele>153.684814</ele>
  <time>2011-11-22T19:27:34Z</time>
  <speed>11.810000</speed>
</trkpt>
<trkpt lat="32.624092102" lon="35.112998962">
  <ele>151.942627</ele>
  <time>2011-11-22T19:27:35Z</time>
  <speed>11.439999</speed>
</trkpt>
<trkpt lat="32.624156952" lon="35.112899780">
  <ele>150.438721</ele>
  <time>2011-11-22T19:27:36Z</time>
  <speed>11.530000</speed>
</trkpt>
<trkpt lat="32.624225616" lon="35.112796783">
  <ele>150.520752</ele>
  <time>2011-11-22T19:27:37Z</time>
  <speed>11.370000</speed>
</trkpt>
<trkpt lat="32.624286652" lon="35.112701416">
  <ele>149.477783</ele>
  <time>2011-11-22T19:27:38Z</time>
  <speed>11.100000</speed>
</trkpt>
<trkpt lat="32.624355316" lon="35.112609863">
  <ele>148.594971</ele>
  <time>2011-11-22T19:27:39Z</time>
  <speed>11.860000</speed>
</trkpt>
<trkpt lat="32.624420166" lon="35.112499237">
  <ele>147.602783</ele>
  <time>2011-11-22T19:27:40Z</time>
  <speed>11.510000</speed>
</trkpt>
<trkpt lat="32.624481201" lon="35.112400055">
  <ele>146.524658</ele>
  <time>2011-11-22T19:27:41Z</time>
  <speed>11.840000</speed>
</trkpt>
<trkpt lat="32.624542236" lon="35.112300873">
  <ele>145.540283</ele>
  <time>2011-11-22T19:27:42Z</time>
  <speed>11.540000</speed>
</trkpt>
<trkpt lat="32.624607086" lon="35.112216949">
  <ele>143.958252</ele>
  <time>2011-11-22T19:27:43Z</time>
  <speed>11.190000</speed>
</trkpt>
<trkpt lat="32.624679565" lon="35.112113953">
  <ele>143.005127</ele>
  <time>2011-11-22T19:27:44Z</time>
  <speed>11.550001</speed>
</trkpt>
<trkpt lat="32.624755859" lon="35.112033844">
  <ele>141.919189</ele>
  <time>2011-11-22T19:27:45Z</time>
  <speed>11.460000</speed>
</trkpt>
<trkpt lat="32.624851227" lon="35.111972809">
  <ele>140.153564</ele>
  <time>2011-11-22T19:27:46Z</time>
  <speed>11.700000</speed>
</trkpt>
<trkpt lat="32.624938965" lon="35.111915588">
  <ele>139.001221</ele>
  <time>2011-11-22T19:27:47Z</time>
  <speed>11.140000</speed>
</trkpt>
<trkpt lat="32.625019073" lon="35.111854553">
  <ele>137.942627</ele>
  <time>2011-11-22T19:27:48Z</time>
  <speed>10.990000</speed>
</trkpt>
<trkpt lat="32.625099182" lon="35.111808777">
  <ele>136.950439</ele>
  <time>2011-11-22T19:27:49Z</time>
  <speed>10.090000</speed>
</trkpt>
<trkpt lat="32.625183105" lon="35.111766815">
  <ele>135.977783</ele>
  <time>2011-11-22T19:27:50Z</time>
  <speed>10.010000</speed>
</trkpt>
<trkpt lat="32.625270844" lon="35.111736298">
  <ele>134.962158</ele>
  <time>2011-11-22T19:27:51Z</time>
  <speed>9.890000</speed>
</trkpt>
<trkpt lat="32.625354767" lon="35.111705780">
  <ele>133.997314</ele>
  <time>2011-11-22T19:27:52Z</time>
  <speed>10.040000</speed>
</trkpt>
<trkpt lat="32.625442505" lon="35.111686707">
  <ele>133.009033</ele>
  <time>2011-11-22T19:27:53Z</time>
  <speed>9.500000</speed>
</trkpt>
<trkpt lat="32.625526428" lon="35.111675262">
  <ele>132.001221</ele>
  <time>2011-11-22T19:27:54Z</time>
  <speed>9.630000</speed>
</trkpt>
<trkpt lat="32.625617981" lon="35.111663818">
  <ele>130.645752</ele>
  <time>2011-11-22T19:27:55Z</time>
  <speed>9.760000</speed>
</trkpt>
<trkpt lat="32.625709534" lon="35.111640930">
  <ele>129.907471</ele>
  <time>2011-11-22T19:27:56Z</time>
  <speed>9.580000</speed>
</trkpt>
<trkpt lat="32.625801086" lon="35.111625671">
  <ele>128.934814</ele>
  <time>2011-11-22T19:27:57Z</time>
  <speed>8.939999</speed>
</trkpt>
<trkpt lat="32.625881195" lon="35.111591339">
  <ele>128.204346</ele>
  <time>2011-11-22T19:27:58Z</time>
  <speed>9.040000</speed>
</trkpt>
<trkpt lat="32.625957489" lon="35.111557007">
  <ele>127.295532</ele>
  <time>2011-11-22T19:27:59Z</time>
  <speed>9.280000</speed>
</trkpt>
<trkpt lat="32.626071930" lon="35.111495972">
  <ele>124.764282</ele>
  <time>2011-11-22T19:28:00Z</time>
  <speed>9.920001</speed>
</trkpt>
<trkpt lat="32.626171112" lon="35.111427307">
  <ele>123.199829</ele>
  <time>2011-11-22T19:28:01Z</time>
  <speed>10.300001</speed>
</trkpt>
<trkpt lat="32.626258850" lon="35.111377716">
  <ele>121.959595</ele>
  <time>2011-11-22T19:28:02Z</time>
  <speed>9.990000</speed>
</trkpt>
<trkpt lat="32.626354218" lon="35.111328125">
  <ele>120.418579</ele>
  <time>2011-11-22T19:28:03Z</time>
  <speed>9.600000</speed>
</trkpt>
<trkpt lat="32.626445770" lon="35.111282349">
  <ele>120.897095</ele>
  <time>2011-11-22T19:28:04Z</time>
  <speed>9.270000</speed>
</trkpt>
<trkpt lat="32.626533508" lon="35.111240387">
  <ele>119.932251</ele>
  <time>2011-11-22T19:28:05Z</time>
  <speed>9.580000</speed>
</trkpt>
<trkpt lat="32.626590729" lon="35.111206055">
  <ele>118.830688</ele>
  <time>2011-11-22T19:28:06Z</time>
  <speed>7.290000</speed>
</trkpt>
<trkpt lat="32.626655579" lon="35.111171722">
  <ele>118.506470</ele>
  <time>2011-11-22T19:28:07Z</time>
  <speed>5.810000</speed>
</trkpt>
<trkpt lat="32.626705170" lon="35.111133575">
  <ele>118.533813</ele>
  <time>2011-11-22T19:28:08Z</time>
  <speed>4.860000</speed>
</trkpt>
<trkpt lat="32.626720428" lon="35.111099243">
  <ele>118.527954</ele>
  <time>2011-11-22T19:28:09Z</time>
  <speed>3.380000</speed>
</trkpt>
<trkpt lat="32.626747131" lon="35.111076355">
  <ele>118.744751</ele>
  <time>2011-11-22T19:28:10Z</time>
  <speed>2.480000</speed>
</trkpt>
<trkpt lat="32.626777649" lon="35.111015320">
  <ele>119.738892</ele>
  <time>2011-11-22T19:28:12Z</time>
  <speed>2.830000</speed>
</trkpt>
<trkpt lat="32.626773834" lon="35.110977173">
  <ele>119.359985</ele>
  <time>2011-11-22T19:28:13Z</time>
  <speed>2.790000</speed>
</trkpt>
<trkpt lat="32.626762390" lon="35.110935211">
  <ele>119.533813</ele>
  <time>2011-11-22T19:28:14Z</time>
  <speed>3.080000</speed>
</trkpt>
<trkpt lat="32.626750946" lon="35.110904694">
  <ele>118.535767</ele>
  <time>2011-11-22T19:28:15Z</time>
  <speed>2.630000</speed>
</trkpt>
<trkpt lat="32.626739502" lon="35.110877991">
  <ele>119.164673</ele>
  <time>2011-11-22T19:28:16Z</time>
  <speed>2.560000</speed>
</trkpt>
<trkpt lat="32.626728058" lon="35.110847473">
  <ele>118.733032</ele>
  <time>2011-11-22T19:28:17Z</time>
  <speed>2.950000</speed>
</trkpt>
<trkpt lat="32.626716614" lon="35.110786438">
  <ele>119.338501</ele>
  <time>2011-11-22T19:28:19Z</time>
  <speed>3.020000</speed>
</trkpt>
<trkpt lat="32.626720428" lon="35.110748291">
  <ele>118.920532</ele>
  <time>2011-11-22T19:28:20Z</time>
  <speed>2.960000</speed>
</trkpt>
<trkpt lat="32.626720428" lon="35.110713959">
  <ele>118.449829</ele>
  <time>2011-11-22T19:28:21Z</time>
  <speed>2.420000</speed>
</trkpt>
<trkpt lat="32.626728058" lon="35.110668182">
  <ele>118.274048</ele>
  <time>2011-11-22T19:28:23Z</time>
  <speed>2.510000</speed>
</trkpt>
<trkpt lat="32.626735687" lon="35.110610962">
  <ele>118.899048</ele>
  <time>2011-11-22T19:28:25Z</time>
  <speed>2.920000</speed>
</trkpt>
<trkpt lat="32.626735687" lon="35.110576630">
  <ele>119.344360</ele>
  <time>2011-11-22T19:28:26Z</time>
  <speed>3.220000</speed>
</trkpt>
<trkpt lat="32.626728058" lon="35.110538483">
  <ele>118.729126</ele>
  <time>2011-11-22T19:28:27Z</time>
  <speed>3.090000</speed>
</trkpt>
<trkpt lat="32.626724243" lon="35.110496521">
  <ele>118.649048</ele>
  <time>2011-11-22T19:28:28Z</time>
  <speed>3.080000</speed>
</trkpt>
<trkpt lat="32.626720428" lon="35.110458374">
  <ele>118.348267</ele>
  <time>2011-11-22T19:28:29Z</time>
  <speed>3.300000</speed>
</trkpt>
<trkpt lat="32.626720428" lon="35.110420227">
  <ele>118.256470</ele>
  <time>2011-11-22T19:28:30Z</time>
  <speed>3.370000</speed>
</trkpt>
<trkpt lat="32.626716614" lon="35.110382080">
  <ele>118.371704</ele>
  <time>2011-11-22T19:28:31Z</time>
  <speed>3.870000</speed>
</trkpt>
<trkpt lat="32.626712799" lon="35.110336304">
  <ele>118.783813</ele>
  <time>2011-11-22T19:28:32Z</time>
  <speed>4.170000</speed>
</trkpt>
<trkpt lat="32.626716614" lon="35.110290527">
  <ele>118.912720</ele>
  <time>2011-11-22T19:28:33Z</time>
  <speed>4.090000</speed>
</trkpt>
<trkpt lat="32.626720428" lon="35.110244751">
  <ele>118.969360</ele>
  <time>2011-11-22T19:28:34Z</time>
  <speed>4.000000</speed>
</trkpt>
<trkpt lat="32.626716614" lon="35.110198975">
  <ele>118.711548</ele>
  <time>2011-11-22T19:28:35Z</time>
  <speed>4.020000</speed>
</trkpt>
<trkpt lat="32.626712799" lon="35.110157013">
  <ele>118.818970</ele>
  <time>2011-11-22T19:28:36Z</time>
  <speed>4.330000</speed>
</trkpt>
<trkpt lat="32.626716614" lon="35.110111237">
  <ele>118.440063</ele>
  <time>2011-11-22T19:28:37Z</time>
  <speed>4.400000</speed>
</trkpt>
<trkpt lat="32.626731873" lon="35.110054016">
  <ele>118.953735</ele>
  <time>2011-11-22T19:28:38Z</time>
  <speed>4.670000</speed>
</trkpt>
<trkpt lat="32.626747131" lon="35.110004425">
  <ele>118.693970</ele>
  <time>2011-11-22T19:28:39Z</time>
  <speed>4.690000</speed>
</trkpt>
<trkpt lat="32.626758575" lon="35.109958649">
  <ele>118.803345</ele>
  <time>2011-11-22T19:28:40Z</time>
  <speed>4.280000</speed>
</trkpt>
<trkpt lat="32.626762390" lon="35.109909058">
  <ele>118.342407</ele>
  <time>2011-11-22T19:28:41Z</time>
  <speed>4.590000</speed>
</trkpt>
<trkpt lat="32.626762390" lon="35.109855652">
  <ele>117.725220</ele>
  <time>2011-11-22T19:28:42Z</time>
  <speed>4.480000</speed>
</trkpt>
<trkpt lat="32.626773834" lon="35.109806061">
  <ele>117.320923</ele>
  <time>2011-11-22T19:28:43Z</time>
  <speed>4.330000</speed>
</trkpt>
<trkpt lat="32.626789093" lon="35.109756470">
  <ele>117.061157</ele>
  <time>2011-11-22T19:28:44Z</time>
  <speed>4.320000</speed>
</trkpt>
<trkpt lat="32.626808167" lon="35.109714508">
  <ele>116.994751</ele>
  <time>2011-11-22T19:28:45Z</time>
  <speed>4.220000</speed>
</trkpt>
<trkpt lat="32.626827240" lon="35.109672546">
  <ele>116.764282</ele>
  <time>2011-11-22T19:28:46Z</time>
  <speed>4.110000</speed>
</trkpt>
<trkpt lat="32.626838684" lon="35.109630585">
  <ele>115.887329</ele>
  <time>2011-11-22T19:28:47Z</time>
  <speed>4.020000</speed>
</trkpt>
<trkpt lat="32.626850128" lon="35.109588623">
  <ele>114.647095</ele>
  <time>2011-11-22T19:28:48Z</time>
  <speed>3.840000</speed>
</trkpt>
<trkpt lat="32.626865387" lon="35.109539032">
  <ele>115.703735</ele>
  <time>2011-11-22T19:28:49Z</time>
  <speed>3.550000</speed>
</trkpt>
<trkpt lat="32.626869202" lon="35.109508514">
  <ele>115.438110</ele>
  <time>2011-11-22T19:28:50Z</time>
  <speed>3.030000</speed>
</trkpt>
<trkpt lat="32.626880646" lon="35.109474182">
  <ele>115.551392</ele>
  <time>2011-11-22T19:28:51Z</time>
  <speed>3.200000</speed>
</trkpt>
<trkpt lat="32.626895905" lon="35.109443665">
  <ele>115.904907</ele>
  <time>2011-11-22T19:28:52Z</time>
  <speed>2.960000</speed>
</trkpt>
<trkpt lat="32.626911163" lon="35.109416962">
  <ele>115.793579</ele>
  <time>2011-11-22T19:28:53Z</time>
  <speed>2.820000</speed>
</trkpt>
<trkpt lat="32.626911163" lon="35.109371185">
  <ele>114.674438</ele>
  <time>2011-11-22T19:28:55Z</time>
  <speed>2.120000</speed>
</trkpt>
<trkpt lat="32.626930237" lon="35.109344482">
  <ele>115.861938</ele>
  <time>2011-11-22T19:28:56Z</time>
  <speed>2.080000</speed>
</trkpt>
<trkpt lat="32.626949310" lon="35.109298706">
  <ele>116.693970</ele>
  <time>2011-11-22T19:28:58Z</time>
  <speed>2.790000</speed>
</trkpt>
<trkpt lat="32.626976013" lon="35.109245300">
  <ele>117.053345</ele>
  <time>2011-11-22T19:29:00Z</time>
  <speed>2.450000</speed>
</trkpt>
<trkpt lat="32.627002716" lon="35.109203339">
  <ele>117.637329</ele>
  <time>2011-11-22T19:29:02Z</time>
  <speed>2.700000</speed>
</trkpt>
<trkpt lat="32.627021790" lon="35.109176636">
  <ele>117.996704</ele>
  <time>2011-11-22T19:29:03Z</time>
  <speed>2.900000</speed>
</trkpt>
<trkpt lat="32.627052307" lon="35.109157562">
  <ele>119.016235</ele>
  <time>2011-11-22T19:29:04Z</time>
  <speed>2.950000</speed>
</trkpt>
<trkpt lat="32.627071381" lon="35.109130859">
  <ele>119.529907</ele>
  <time>2011-11-22T19:29:05Z</time>
  <speed>2.450000</speed>
</trkpt>
<trkpt lat="32.627094269" lon="35.109085083">
  <ele>119.684204</ele>
  <time>2011-11-22T19:29:07Z</time>
  <speed>2.850000</speed>
</trkpt>
<trkpt lat="32.627109528" lon="35.109054565">
  <ele>119.826782</ele>
  <time>2011-11-22T19:29:08Z</time>
  <speed>2.750000</speed>
</trkpt>
<trkpt lat="32.627128601" lon="35.109008789">
  <ele>119.561157</ele>
  <time>2011-11-22T19:29:10Z</time>
  <speed>2.920000</speed>
</trkpt>
<trkpt lat="32.627147675" lon="35.108951569">
  <ele>120.131470</ele>
  <time>2011-11-22T19:29:12Z</time>
  <speed>2.720000</speed>
</trkpt>
<trkpt lat="32.627166748" lon="35.108890533">
  <ele>120.965454</ele>
  <time>2011-11-22T19:29:14Z</time>
  <speed>2.830000</speed>
</trkpt>
<trkpt lat="32.627178192" lon="35.108840942">
  <ele>120.766235</ele>
  <time>2011-11-22T19:29:16Z</time>
  <speed>3.270000</speed>
</trkpt>
<trkpt lat="32.627193451" lon="35.108814240">
  <ele>121.524048</ele>
  <time>2011-11-22T19:29:17Z</time>
  <speed>2.780000</speed>
</trkpt>
<trkpt lat="32.627208710" lon="35.108764648">
  <ele>120.701782</ele>
  <time>2011-11-22T19:29:19Z</time>
  <speed>3.190000</speed>
</trkpt>
<trkpt lat="32.627220154" lon="35.108730316">
  <ele>120.359985</ele>
  <time>2011-11-22T19:29:20Z</time>
  <speed>3.660000</speed>
</trkpt>
<trkpt lat="32.627250671" lon="35.108703613">
  <ele>120.234985</ele>
  <time>2011-11-22T19:29:21Z</time>
  <speed>3.190000</speed>
</trkpt>
<trkpt lat="32.627281189" lon="35.108661652">
  <ele>118.887329</ele>
  <time>2011-11-22T19:29:23Z</time>
  <speed>2.220000</speed>
</trkpt>
<trkpt lat="32.627311707" lon="35.108615875">
  <ele>118.615845</ele>
  <time>2011-11-22T19:29:25Z</time>
  <speed>2.670000</speed>
</trkpt>
<trkpt lat="32.627346039" lon="35.108570099">
  <ele>117.682251</ele>
  <time>2011-11-22T19:29:27Z</time>
  <speed>3.030000</speed>
</trkpt>
<trkpt lat="32.627365112" lon="35.108547211">
  <ele>117.803345</ele>
  <time>2011-11-22T19:29:28Z</time>
  <speed>3.170000</speed>
</trkpt>
<trkpt lat="32.627388000" lon="35.108524323">
  <ele>117.787720</ele>
  <time>2011-11-22T19:29:29Z</time>
  <speed>2.970000</speed>
</trkpt>
<trkpt lat="32.627410889" lon="35.108497620">
  <ele>117.102173</ele>
  <time>2011-11-22T19:29:30Z</time>
  <speed>2.870000</speed>
</trkpt>
<trkpt lat="32.627433777" lon="35.108474731">
  <ele>116.863892</ele>
  <time>2011-11-22T19:29:31Z</time>
  <speed>3.480000</speed>
</trkpt>
<trkpt lat="32.627456665" lon="35.108444214">
  <ele>116.256470</ele>
  <time>2011-11-22T19:29:32Z</time>
  <speed>3.650000</speed>
</trkpt>
<trkpt lat="32.627487183" lon="35.108413696">
  <ele>115.805298</ele>
  <time>2011-11-22T19:29:33Z</time>
  <speed>3.890000</speed>
</trkpt>
<trkpt lat="32.627510071" lon="35.108383179">
  <ele>115.609985</ele>
  <time>2011-11-22T19:29:34Z</time>
  <speed>3.510000</speed>
</trkpt>
<trkpt lat="32.627532959" lon="35.108352661">
  <ele>115.428345</ele>
  <time>2011-11-22T19:29:35Z</time>
  <speed>3.700000</speed>
</trkpt>
<trkpt lat="32.627571106" lon="35.108295441">
  <ele>117.811157</ele>
  <time>2011-11-22T19:29:36Z</time>
  <speed>3.700000</speed>
</trkpt>
<trkpt lat="32.627597809" lon="35.108264923">
  <ele>118.106079</ele>
  <time>2011-11-22T19:29:37Z</time>
  <speed>3.480000</speed>
</trkpt>
<trkpt lat="32.627613068" lon="35.108242035">
  <ele>117.656860</ele>
  <time>2011-11-22T19:29:38Z</time>
  <speed>3.240000</speed>
</trkpt>
<trkpt lat="32.627639771" lon="35.108207703">
  <ele>118.010376</ele>
  <time>2011-11-22T19:29:39Z</time>
  <speed>3.770000</speed>
</trkpt>
<trkpt lat="32.627666473" lon="35.108184814">
  <ele>117.826782</ele>
  <time>2011-11-22T19:29:40Z</time>
  <speed>3.770000</speed>
</trkpt>
<trkpt lat="32.627693176" lon="35.108161926">
  <ele>117.358032</ele>
  <time>2011-11-22T19:29:41Z</time>
  <speed>3.820000</speed>
</trkpt>
<trkpt lat="32.627716064" lon="35.108135223">
  <ele>117.135376</ele>
  <time>2011-11-22T19:29:42Z</time>
  <speed>3.810000</speed>
</trkpt>
<trkpt lat="32.627738953" lon="35.108108521">
  <ele>117.207642</ele>
  <time>2011-11-22T19:29:43Z</time>
  <speed>3.450000</speed>
</trkpt>
<trkpt lat="32.627761841" lon="35.108078003">
  <ele>117.123657</ele>
  <time>2011-11-22T19:29:44Z</time>
  <speed>3.570000</speed>
</trkpt>
<trkpt lat="32.627788544" lon="35.108047485">
  <ele>117.459595</ele>
  <time>2011-11-22T19:29:45Z</time>
  <speed>3.670000</speed>
</trkpt>
<trkpt lat="32.627822876" lon="35.108020782">
  <ele>117.885376</ele>
  <time>2011-11-22T19:29:46Z</time>
  <speed>3.840000</speed>
</trkpt>
<trkpt lat="32.627853394" lon="35.107994080">
  <ele>118.387329</ele>
  <time>2011-11-22T19:29:47Z</time>
  <speed>3.510000</speed>
</trkpt>
<trkpt lat="32.627876282" lon="35.107967377">
  <ele>118.309204</ele>
  <time>2011-11-22T19:29:48Z</time>
  <speed>3.500000</speed>
</trkpt>
<trkpt lat="32.627895355" lon="35.107936859">
  <ele>118.209595</ele>
  <time>2011-11-22T19:29:49Z</time>
  <speed>3.520000</speed>
</trkpt>
<trkpt lat="32.627922058" lon="35.107913971">
  <ele>118.430298</ele>
  <time>2011-11-22T19:29:50Z</time>
  <speed>3.570000</speed>
</trkpt>
<trkpt lat="32.627948761" lon="35.107887268">
  <ele>118.486938</ele>
  <time>2011-11-22T19:29:51Z</time>
  <speed>3.620000</speed>
</trkpt>
<trkpt lat="32.627971649" lon="35.107856750">
  <ele>118.484985</ele>
  <time>2011-11-22T19:29:52Z</time>
  <speed>3.580000</speed>
</trkpt>
<trkpt lat="32.627994537" lon="35.107833862">
  <ele>118.549438</ele>
  <time>2011-11-22T19:29:53Z</time>
  <speed>3.590000</speed>
</trkpt>
<trkpt lat="32.628021240" lon="35.107807159">
  <ele>118.625610</ele>
  <time>2011-11-22T19:29:54Z</time>
  <speed>3.580000</speed>
</trkpt>
<trkpt lat="32.628051758" lon="35.107780457">
  <ele>118.578735</ele>
  <time>2011-11-22T19:29:55Z</time>
  <speed>3.960000</speed>
</trkpt>
<trkpt lat="32.628078461" lon="35.107757568">
  <ele>118.326782</ele>
  <time>2011-11-22T19:29:56Z</time>
  <speed>3.560000</speed>
</trkpt>
<trkpt lat="32.628097534" lon="35.107730865">
  <ele>118.410767</ele>
  <time>2011-11-22T19:29:57Z</time>
  <speed>3.240000</speed>
</trkpt>
<trkpt lat="32.628120422" lon="35.107704163">
  <ele>118.125610</ele>
  <time>2011-11-22T19:29:58Z</time>
  <speed>3.450000</speed>
</trkpt>
<trkpt lat="32.628139496" lon="35.107681274">
  <ele>117.828735</ele>
  <time>2011-11-22T19:29:59Z</time>
  <speed>3.290000</speed>
</trkpt>
<trkpt lat="32.628162384" lon="35.107654572">
  <ele>117.697876</ele>
  <time>2011-11-22T19:30:00Z</time>
  <speed>3.390000</speed>
</trkpt>
<trkpt lat="32.628181458" lon="35.107620239">
  <ele>117.533813</ele>
  <time>2011-11-22T19:30:01Z</time>
  <speed>3.180000</speed>
</trkpt>
<trkpt lat="32.628215790" lon="35.107574463">
  <ele>118.945923</ele>
  <time>2011-11-22T19:30:02Z</time>
  <speed>3.350000</speed>
</trkpt>
<trkpt lat="32.628234863" lon="35.107543945">
  <ele>118.912720</ele>
  <time>2011-11-22T19:30:03Z</time>
  <speed>3.870000</speed>
</trkpt>
<trkpt lat="32.628253937" lon="35.107509613">
  <ele>119.115845</ele>
  <time>2011-11-22T19:30:04Z</time>
  <speed>3.880000</speed>
</trkpt>
<trkpt lat="32.628276825" lon="35.107482910">
  <ele>118.658813</ele>
  <time>2011-11-22T19:30:05Z</time>
  <speed>3.630000</speed>
</trkpt>
<trkpt lat="32.628303528" lon="35.107463837">
  <ele>118.850220</ele>
  <time>2011-11-22T19:30:06Z</time>
  <speed>3.370000</speed>
</trkpt>
<trkpt lat="32.628330231" lon="35.107440948">
  <ele>118.549438</ele>
  <time>2011-11-22T19:30:07Z</time>
  <speed>2.870000</speed>
</trkpt>
<trkpt lat="32.628349304" lon="35.107421875">
  <ele>118.477173</ele>
  <time>2011-11-22T19:30:08Z</time>
  <speed>3.160000</speed>
</trkpt>
<trkpt lat="32.628379822" lon="35.107402802">
  <ele>118.799438</ele>
  <time>2011-11-22T19:30:09Z</time>
  <speed>3.200000</speed>
</trkpt>
<trkpt lat="32.628410339" lon="35.107379913">
  <ele>118.934204</ele>
  <time>2011-11-22T19:30:10Z</time>
  <speed>3.260000</speed>
</trkpt>
<trkpt lat="32.628459930" lon="35.107357025">
  <ele>118.027954</ele>
  <time>2011-11-22T19:30:12Z</time>
  <speed>3.250000</speed>
</trkpt>
<trkpt lat="32.628494263" lon="35.107345581">
  <ele>118.930298</ele>
  <time>2011-11-22T19:30:13Z</time>
  <speed>2.970000</speed>
</trkpt>
<trkpt lat="32.628543854" lon="35.107353210">
  <ele>119.358032</ele>
  <time>2011-11-22T19:30:14Z</time>
  <speed>2.600000</speed>
</trkpt>
<trkpt lat="32.628597260" lon="35.107372284">
  <ele>118.672485</ele>
  <time>2011-11-22T19:30:16Z</time>
  <speed>3.180000</speed>
</trkpt>
<trkpt lat="32.628635406" lon="35.107379913">
  <ele>117.879517</ele>
  <time>2011-11-22T19:30:18Z</time>
  <speed>2.200000</speed>
</trkpt>
<trkpt lat="32.628662109" lon="35.107410431">
  <ele>117.479126</ele>
  <time>2011-11-22T19:30:20Z</time>
  <speed>1.810000</speed>
</trkpt>
<trkpt lat="32.628688812" lon="35.107437134">
  <ele>116.551392</ele>
  <time>2011-11-22T19:30:22Z</time>
  <speed>1.560000</speed>
</trkpt>
<trkpt lat="32.628704071" lon="35.107479095">
  <ele>115.756470</ele>
  <time>2011-11-22T19:30:24Z</time>
  <speed>2.480000</speed>
</trkpt>
<trkpt lat="32.628738403" lon="35.107524872">
  <ele>116.037720</ele>
  <time>2011-11-22T19:30:26Z</time>
  <speed>2.640000</speed>
</trkpt>
<trkpt lat="32.628784180" lon="35.107555389">
  <ele>115.611938</ele>
  <time>2011-11-22T19:30:28Z</time>
  <speed>2.620000</speed>
</trkpt>
<trkpt lat="32.628818512" lon="35.107570648">
  <ele>116.502563</ele>
  <time>2011-11-22T19:30:30Z</time>
  <speed>2.340000</speed>
</trkpt>
<trkpt lat="32.628841400" lon="35.107601166">
  <ele>117.143188</ele>
  <time>2011-11-22T19:30:32Z</time>
  <speed>1.730000</speed>
</trkpt>
<trkpt lat="32.628856659" lon="35.107635498">
  <ele>116.188110</ele>
  <time>2011-11-22T19:30:34Z</time>
  <speed>1.410000</speed>
</trkpt>
<trkpt lat="32.628879547" lon="35.107658386">
  <ele>115.402954</ele>
  <time>2011-11-22T19:30:36Z</time>
  <speed>1.420000</speed>
</trkpt>
<trkpt lat="32.628906250" lon="35.107685089">
  <ele>115.981079</ele>
  <time>2011-11-22T19:30:38Z</time>
  <speed>1.600000</speed>
</trkpt>
<trkpt lat="32.628921509" lon="35.107723236">
  <ele>114.377563</ele>
  <time>2011-11-22T19:30:42Z</time>
  <speed>1.220000</speed>
</trkpt>
<trkpt lat="32.628952026" lon="35.107753754">
  <ele>115.000610</ele>
  <time>2011-11-22T19:30:45Z</time>
  <speed>1.260000</speed>
</trkpt>
<trkpt lat="32.628986359" lon="35.107780457">
  <ele>115.143188</ele>
  <time>2011-11-22T19:30:47Z</time>
  <speed>2.040000</speed>
</trkpt>
<trkpt lat="32.629016876" lon="35.107807159">
  <ele>114.885376</ele>
  <time>2011-11-22T19:30:49Z</time>
  <speed>2.340000</speed>
</trkpt>
<trkpt lat="32.629058838" lon="35.107841492">
  <ele>115.231079</ele>
  <time>2011-11-22T19:30:51Z</time>
  <speed>2.940000</speed>
</trkpt>
<trkpt lat="32.629074097" lon="35.107868195">
  <ele>114.313110</ele>
  <time>2011-11-22T19:30:52Z</time>
  <speed>2.410000</speed>
</trkpt>
<trkpt lat="32.629096985" lon="35.107906342">
  <ele>115.197876</ele>
  <time>2011-11-22T19:30:54Z</time>
  <speed>2.730000</speed>
</trkpt>
<trkpt lat="32.629138947" lon="35.107933044">
  <ele>116.182251</ele>
  <time>2011-11-22T19:30:56Z</time>
  <speed>2.740000</speed>
</trkpt>
<trkpt lat="32.629184723" lon="35.107963562">
  <ele>116.600220</ele>
  <time>2011-11-22T19:30:58Z</time>
  <speed>3.010000</speed>
</trkpt>
<trkpt lat="32.629215240" lon="35.107990265">
  <ele>117.977173</ele>
  <time>2011-11-22T19:31:00Z</time>
  <speed>2.560000</speed>
</trkpt>
<trkpt lat="32.629249573" lon="35.108013153">
  <ele>120.385376</ele>
  <time>2011-11-22T19:31:02Z</time>
  <speed>1.830000</speed>
</trkpt>
<trkpt lat="32.629291534" lon="35.108016968">
  <ele>121.067017</ele>
  <time>2011-11-22T19:31:04Z</time>
  <speed>1.850000</speed>
</trkpt>
<trkpt lat="32.629306793" lon="35.107971191">
  <ele>122.422485</ele>
  <time>2011-11-22T19:31:06Z</time>
  <speed>2.020000</speed>
</trkpt>
<trkpt lat="32.629333496" lon="35.107921600">
  <ele>124.080688</ele>
  <time>2011-11-22T19:31:08Z</time>
  <speed>2.340000</speed>
</trkpt>
<trkpt lat="32.629364014" lon="35.107864380">
  <ele>125.426392</ele>
  <time>2011-11-22T19:31:10Z</time>
  <speed>2.400000</speed>
</trkpt>
<trkpt lat="32.629379272" lon="35.107841492">
  <ele>126.510376</ele>
  <time>2011-11-22T19:31:11Z</time>
  <speed>2.190000</speed>
</trkpt>
<trkpt lat="32.629405975" lon="35.107814789">
  <ele>125.867798</ele>
  <time>2011-11-22T19:31:13Z</time>
  <speed>1.820000</speed>
</trkpt>
<trkpt lat="32.629428864" lon="35.107780457">
  <ele>126.475220</ele>
  <time>2011-11-22T19:31:15Z</time>
  <speed>2.110000</speed>
</trkpt>
<trkpt lat="32.629463196" lon="35.107757568">
  <ele>127.586548</ele>
  <time>2011-11-22T19:31:17Z</time>
  <speed>2.550000</speed>
</trkpt>
<trkpt lat="32.629489899" lon="35.107734680">
  <ele>128.759033</ele>
  <time>2011-11-22T19:31:18Z</time>
  <speed>2.530000</speed>
</trkpt>
<trkpt lat="32.629531860" lon="35.107700348">
  <ele>129.649658</ele>
  <time>2011-11-22T19:31:20Z</time>
  <speed>2.340000</speed>
</trkpt>
<trkpt lat="32.629566193" lon="35.107669830">
  <ele>130.614502</ele>
  <time>2011-11-22T19:31:22Z</time>
  <speed>2.430000</speed>
</trkpt>
<trkpt lat="32.629596710" lon="35.107650757">
  <ele>130.458252</ele>
  <time>2011-11-22T19:31:24Z</time>
  <speed>2.130000</speed>
</trkpt>
<trkpt lat="32.629634857" lon="35.107631683">
  <ele>131.044189</ele>
  <time>2011-11-22T19:31:26Z</time>
  <speed>2.590000</speed>
</trkpt>
<trkpt lat="32.629673004" lon="35.107601166">
  <ele>131.583252</ele>
  <time>2011-11-22T19:31:28Z</time>
  <speed>2.430000</speed>
</trkpt>
<trkpt lat="32.629711151" lon="35.107570648">
  <ele>131.895752</ele>
  <time>2011-11-22T19:31:30Z</time>
  <speed>2.390000</speed>
</trkpt>
<trkpt lat="32.629745483" lon="35.107532501">
  <ele>132.462158</ele>
  <time>2011-11-22T19:31:32Z</time>
  <speed>2.200000</speed>
</trkpt>
<trkpt lat="32.629776001" lon="35.107505798">
  <ele>133.411377</ele>
  <time>2011-11-22T19:31:34Z</time>
  <speed>2.110000</speed>
</trkpt>
<trkpt lat="32.629810333" lon="35.107490540">
  <ele>134.290283</ele>
  <time>2011-11-22T19:31:36Z</time>
  <speed>2.180000</speed>
</trkpt>
<trkpt lat="32.629840851" lon="35.107467651">
  <ele>135.723877</ele>
  <time>2011-11-22T19:31:38Z</time>
  <speed>2.320000</speed>
</trkpt>
<trkpt lat="32.629875183" lon="35.107440948">
  <ele>136.055908</ele>
  <time>2011-11-22T19:31:40Z</time>
  <speed>2.180000</speed>
</trkpt>
<trkpt lat="32.629909515" lon="35.107414246">
  <ele>137.180908</ele>
  <time>2011-11-22T19:31:42Z</time>
  <speed>2.250000</speed>
</trkpt>
<trkpt lat="32.629940033" lon="35.107387543">
  <ele>137.587158</ele>
  <time>2011-11-22T19:31:44Z</time>
  <speed>2.270000</speed>
</trkpt>
<trkpt lat="32.629981995" lon="35.107364655">
  <ele>138.423096</ele>
  <time>2011-11-22T19:31:46Z</time>
  <speed>2.020000</speed>
</trkpt>
<trkpt lat="32.630012512" lon="35.107337952">
  <ele>138.446533</ele>
  <time>2011-11-22T19:31:48Z</time>
  <speed>1.940000</speed>
</trkpt>
<trkpt lat="32.630043030" lon="35.107322693">
  <ele>138.927002</ele>
  <time>2011-11-22T19:31:50Z</time>
  <speed>2.040000</speed>
</trkpt>
<trkpt lat="32.630077362" lon="35.107303619">
  <ele>139.227783</ele>
  <time>2011-11-22T19:31:52Z</time>
  <speed>1.710000</speed>
</trkpt>
<trkpt lat="32.630107880" lon="35.107284546">
  <ele>139.880127</ele>
  <time>2011-11-22T19:31:54Z</time>
  <speed>2.170000</speed>
</trkpt>
<trkpt lat="32.630138397" lon="35.107269287">
  <ele>139.239502</ele>
  <time>2011-11-22T19:31:56Z</time>
  <speed>2.360000</speed>
</trkpt>
<trkpt lat="32.630172729" lon="35.107246399">
  <ele>139.532471</ele>
  <time>2011-11-22T19:31:58Z</time>
  <speed>2.180000</speed>
</trkpt>
<trkpt lat="32.630210876" lon="35.107234955">
  <ele>139.684814</ele>
  <time>2011-11-22T19:32:00Z</time>
  <speed>1.960000</speed>
</trkpt>
<trkpt lat="32.630237579" lon="35.107223511">
  <ele>140.512939</ele>
  <time>2011-11-22T19:32:02Z</time>
  <speed>1.850000</speed>
</trkpt>
<trkpt lat="32.630268097" lon="35.107208252">
  <ele>140.692627</ele>
  <time>2011-11-22T19:32:04Z</time>
  <speed>1.890000</speed>
</trkpt>
<trkpt lat="32.630294800" lon="35.107189178">
  <ele>141.489502</ele>
  <time>2011-11-22T19:32:06Z</time>
  <speed>1.980000</speed>
</trkpt>
<trkpt lat="32.630321503" lon="35.107170105">
  <ele>142.536377</ele>
  <time>2011-11-22T19:32:08Z</time>
  <speed>1.630000</speed>
</trkpt>
<trkpt lat="32.630336761" lon="35.107151031">
  <ele>144.805908</ele>
  <time>2011-11-22T19:32:09Z</time>
  <speed>1.480000</speed>
</trkpt>
<trkpt lat="32.630359650" lon="35.107131958">
  <ele>145.817627</ele>
  <time>2011-11-22T19:32:11Z</time>
  <speed>1.510000</speed>
</trkpt>
<trkpt lat="32.630386353" lon="35.107112885">
  <ele>146.384033</ele>
  <time>2011-11-22T19:32:13Z</time>
  <speed>1.820000</speed>
</trkpt>
<trkpt lat="32.630416870" lon="35.107101440">
  <ele>147.040283</ele>
  <time>2011-11-22T19:32:15Z</time>
  <speed>1.800000</speed>
</trkpt>
<trkpt lat="32.630443573" lon="35.107078552">
  <ele>146.427002</ele>
  <time>2011-11-22T19:32:17Z</time>
  <speed>2.340000</speed>
</trkpt>
<trkpt lat="32.630470276" lon="35.107044220">
  <ele>147.005127</ele>
  <time>2011-11-22T19:32:19Z</time>
  <speed>2.110000</speed>
</trkpt>
<trkpt lat="32.630500793" lon="35.107002258">
  <ele>147.223877</ele>
  <time>2011-11-22T19:32:21Z</time>
  <speed>2.920000</speed>
</trkpt>
<trkpt lat="32.630519867" lon="35.106979370">
  <ele>146.364502</ele>
  <time>2011-11-22T19:32:22Z</time>
  <speed>2.720000</speed>
</trkpt>
<trkpt lat="32.630542755" lon="35.106929779">
  <ele>146.341064</ele>
  <time>2011-11-22T19:32:24Z</time>
  <speed>2.430000</speed>
</trkpt>
<trkpt lat="32.630569458" lon="35.106887817">
  <ele>145.067627</ele>
  <time>2011-11-22T19:32:26Z</time>
  <speed>2.500000</speed>
</trkpt>
<trkpt lat="32.630599976" lon="35.106838226">
  <ele>143.966064</ele>
  <time>2011-11-22T19:32:28Z</time>
  <speed>2.650000</speed>
</trkpt>
<trkpt lat="32.630619049" lon="35.106788635">
  <ele>143.919189</ele>
  <time>2011-11-22T19:32:30Z</time>
  <speed>2.490000</speed>
</trkpt>
<trkpt lat="32.630645752" lon="35.106742859">
  <ele>143.286377</ele>
  <time>2011-11-22T19:32:32Z</time>
  <speed>2.430000</speed>
</trkpt>
<trkpt lat="32.630680084" lon="35.106704712">
  <ele>143.274658</ele>
  <time>2011-11-22T19:32:34Z</time>
  <speed>2.490000</speed>
</trkpt>
<trkpt lat="32.630706787" lon="35.106647491">
  <ele>143.927002</ele>
  <time>2011-11-22T19:32:36Z</time>
  <speed>2.470000</speed>
</trkpt>
<trkpt lat="32.630741119" lon="35.106620789">
  <ele>145.243408</ele>
  <time>2011-11-22T19:32:38Z</time>
  <speed>2.420000</speed>
</trkpt>
<trkpt lat="32.630767822" lon="35.106582642">
  <ele>144.966064</ele>
  <time>2011-11-22T19:32:40Z</time>
  <speed>2.300000</speed>
</trkpt>
<trkpt lat="32.630794525" lon="35.106555939">
  <ele>146.130127</ele>
  <time>2011-11-22T19:32:42Z</time>
  <speed>2.440000</speed>
</trkpt>
<trkpt lat="32.630821228" lon="35.106521606">
  <ele>146.876221</ele>
  <time>2011-11-22T19:32:44Z</time>
  <speed>2.220000</speed>
</trkpt>
<trkpt lat="32.630847931" lon="35.106491089">
  <ele>146.821533</ele>
  <time>2011-11-22T19:32:46Z</time>
  <speed>2.180000</speed>
</trkpt>
<trkpt lat="32.630867004" lon="35.106456757">
  <ele>146.692627</ele>
  <time>2011-11-22T19:32:48Z</time>
  <speed>2.170000</speed>
</trkpt>
<trkpt lat="32.630893707" lon="35.106422424">
  <ele>147.442627</ele>
  <time>2011-11-22T19:32:50Z</time>
  <speed>2.260000</speed>
</trkpt>
<trkpt lat="32.630920410" lon="35.106380463">
  <ele>147.856689</ele>
  <time>2011-11-22T19:32:52Z</time>
  <speed>2.150000</speed>
</trkpt>
<trkpt lat="32.630954742" lon="35.106349945">
  <ele>147.786377</ele>
  <time>2011-11-22T19:32:54Z</time>
  <speed>2.360000</speed>
</trkpt>
<trkpt lat="32.630977631" lon="35.106304169">
  <ele>147.868408</ele>
  <time>2011-11-22T19:32:56Z</time>
  <speed>2.310000</speed>
</trkpt>
<trkpt lat="32.631008148" lon="35.106269836">
  <ele>147.837158</ele>
  <time>2011-11-22T19:32:58Z</time>
  <speed>2.240000</speed>
</trkpt>
<trkpt lat="32.631038666" lon="35.106239319">
  <ele>148.192627</ele>
  <time>2011-11-22T19:33:00Z</time>
  <speed>2.110000</speed>
</trkpt>
<trkpt lat="32.631065369" lon="35.106201172">
  <ele>147.626221</ele>
  <time>2011-11-22T19:33:02Z</time>
  <speed>2.270000</speed>
</trkpt>
<trkpt lat="32.631092072" lon="35.106159210">
  <ele>147.891846</ele>
  <time>2011-11-22T19:33:04Z</time>
  <speed>1.900000</speed>
</trkpt>
<trkpt lat="32.631126404" lon="35.106140137">
  <ele>147.747314</ele>
  <time>2011-11-22T19:33:06Z</time>
  <speed>1.820000</speed>
</trkpt>
<trkpt lat="32.631153107" lon="35.106105804">
  <ele>147.024658</ele>
  <time>2011-11-22T19:33:08Z</time>
  <speed>2.510000</speed>
</trkpt>
<trkpt lat="32.631179810" lon="35.106086731">
  <ele>147.618408</ele>
  <time>2011-11-22T19:33:09Z</time>
  <speed>3.020000</speed>
</trkpt>
<trkpt lat="32.631214142" lon="35.106048584">
  <ele>147.333252</ele>
  <time>2011-11-22T19:33:11Z</time>
  <speed>2.710000</speed>
</trkpt>
<trkpt lat="32.631225586" lon="35.106014252">
  <ele>147.423096</ele>
  <time>2011-11-22T19:33:12Z</time>
  <speed>2.720000</speed>
</trkpt>
<trkpt lat="32.631256104" lon="35.105968475">
  <ele>147.626221</ele>
  <time>2011-11-22T19:33:14Z</time>
  <speed>2.550000</speed>
</trkpt>
<trkpt lat="32.631271362" lon="35.105945587">
  <ele>148.298096</ele>
  <time>2011-11-22T19:33:15Z</time>
  <speed>2.530000</speed>
</trkpt>
<trkpt lat="32.631305695" lon="35.105907440">
  <ele>148.235596</ele>
  <time>2011-11-22T19:33:17Z</time>
  <speed>2.410000</speed>
</trkpt>
<trkpt lat="32.631320953" lon="35.105876923">
  <ele>149.856689</ele>
  <time>2011-11-22T19:33:18Z</time>
  <speed>2.530000</speed>
</trkpt>
<trkpt lat="32.631336212" lon="35.105834961">
  <ele>152.278564</ele>
  <time>2011-11-22T19:33:19Z</time>
  <speed>2.710000</speed>
</trkpt>
<trkpt lat="32.631362915" lon="35.105789185">
  <ele>152.313721</ele>
  <time>2011-11-22T19:33:21Z</time>
  <speed>2.440000</speed>
</trkpt>
<trkpt lat="32.631393433" lon="35.105751038">
  <ele>153.005127</ele>
  <time>2011-11-22T19:33:23Z</time>
  <speed>2.270000</speed>
</trkpt>
<trkpt lat="32.631416321" lon="35.105709076">
  <ele>154.688721</ele>
  <time>2011-11-22T19:33:25Z</time>
  <speed>2.260000</speed>
</trkpt>
<trkpt lat="32.631443024" lon="35.105674744">
  <ele>154.747314</ele>
  <time>2011-11-22T19:33:27Z</time>
  <speed>2.130000</speed>
</trkpt>
<trkpt lat="32.631465912" lon="35.105636597">
  <ele>155.114502</ele>
  <time>2011-11-22T19:33:29Z</time>
  <speed>2.020000</speed>
</trkpt>
<trkpt lat="32.631500244" lon="35.105609894">
  <ele>155.552002</ele>
  <time>2011-11-22T19:33:31Z</time>
  <speed>1.920000</speed>
</trkpt>
<trkpt lat="32.631523132" lon="35.105575562">
  <ele>155.790283</ele>
  <time>2011-11-22T19:33:33Z</time>
  <speed>1.930000</speed>
</trkpt>
<trkpt lat="32.631568909" lon="35.105548859">
  <ele>155.255127</ele>
  <time>2011-11-22T19:33:35Z</time>
  <speed>2.220000</speed>
</trkpt>
<trkpt lat="32.631599426" lon="35.105522156">
  <ele>155.989502</ele>
  <time>2011-11-22T19:33:37Z</time>
  <speed>2.200000</speed>
</trkpt>
<trkpt lat="32.631629944" lon="35.105495453">
  <ele>156.735596</ele>
  <time>2011-11-22T19:33:39Z</time>
  <speed>2.080000</speed>
</trkpt>
<trkpt lat="32.631660461" lon="35.105476379">
  <ele>157.278564</ele>
  <time>2011-11-22T19:33:41Z</time>
  <speed>2.010000</speed>
</trkpt>
<trkpt lat="32.631683350" lon="35.105442047">
  <ele>157.766846</ele>
  <time>2011-11-22T19:33:43Z</time>
  <speed>2.020000</speed>
</trkpt>
<trkpt lat="32.631717682" lon="35.105415344">
  <ele>158.036377</ele>
  <time>2011-11-22T19:33:45Z</time>
  <speed>1.890000</speed>
</trkpt>
<trkpt lat="32.631748199" lon="35.105400085">
  <ele>156.817627</ele>
  <time>2011-11-22T19:33:47Z</time>
  <speed>1.470000</speed>
</trkpt>
<trkpt lat="32.631790161" lon="35.105377197">
  <ele>156.837158</ele>
  <time>2011-11-22T19:33:50Z</time>
  <speed>1.880000</speed>
</trkpt>
<trkpt lat="32.631816864" lon="35.105354309">
  <ele>156.735596</ele>
  <time>2011-11-22T19:33:52Z</time>
  <speed>2.000000</speed>
</trkpt>
<trkpt lat="32.631832123" lon="35.105316162">
  <ele>156.700439</ele>
  <time>2011-11-22T19:33:54Z</time>
  <speed>1.770000</speed>
</trkpt>
<trkpt lat="32.631855011" lon="35.105293274">
  <ele>157.262939</ele>
  <time>2011-11-22T19:33:56Z</time>
  <speed>1.600000</speed>
</trkpt>
<trkpt lat="32.631881714" lon="35.105258942">
  <ele>156.884033</ele>
  <time>2011-11-22T19:33:58Z</time>
  <speed>1.590000</speed>
</trkpt>
<trkpt lat="32.631904602" lon="35.105236053">
  <ele>156.704346</ele>
  <time>2011-11-22T19:34:00Z</time>
  <speed>1.530000</speed>
</trkpt>
<trkpt lat="32.631923676" lon="35.105194092">
  <ele>157.102783</ele>
  <time>2011-11-22T19:34:02Z</time>
  <speed>1.290000</speed>
</trkpt>
<trkpt lat="32.631950378" lon="35.105159760">
  <ele>155.973877</ele>
  <time>2011-11-22T19:34:04Z</time>
  <speed>1.720000</speed>
</trkpt>
<trkpt lat="32.631977081" lon="35.105136871">
  <ele>154.860596</ele>
  <time>2011-11-22T19:34:06Z</time>
  <speed>1.470000</speed>
</trkpt>
<trkpt lat="32.631996155" lon="35.105110168">
  <ele>155.040283</ele>
  <time>2011-11-22T19:34:08Z</time>
  <speed>1.440000</speed>
</trkpt>
<trkpt lat="32.632026672" lon="35.105094910">
  <ele>155.876221</ele>
  <time>2011-11-22T19:34:10Z</time>
  <speed>1.370000</speed>
</trkpt>
<trkpt lat="32.632049561" lon="35.105056763">
  <ele>155.798096</ele>
  <time>2011-11-22T19:34:12Z</time>
  <speed>1.410000</speed>
</trkpt>
<trkpt lat="32.632083893" lon="35.105018616">
  <ele>155.856689</ele>
  <time>2011-11-22T19:34:14Z</time>
  <speed>1.530000</speed>
</trkpt>
<trkpt lat="32.632106781" lon="35.104999542">
  <ele>156.774658</ele>
  <time>2011-11-22T19:34:16Z</time>
  <speed>1.620000</speed>
</trkpt>
<trkpt lat="32.632122040" lon="35.104961395">
  <ele>157.395752</ele>
  <time>2011-11-22T19:34:18Z</time>
  <speed>1.860000</speed>
</trkpt>
<trkpt lat="32.632148743" lon="35.104923248">
  <ele>156.899658</ele>
  <time>2011-11-22T19:34:20Z</time>
  <speed>1.890000</speed>
</trkpt>
<trkpt lat="32.632175446" lon="35.104854584">
  <ele>158.071533</ele>
  <time>2011-11-22T19:34:22Z</time>
  <speed>2.000000</speed>
</trkpt>
<trkpt lat="32.632202148" lon="35.104816437">
  <ele>158.399658</ele>
  <time>2011-11-22T19:34:24Z</time>
  <speed>2.220000</speed>
</trkpt>
<trkpt lat="32.632232666" lon="35.104778290">
  <ele>158.794189</ele>
  <time>2011-11-22T19:34:26Z</time>
  <speed>2.510000</speed>
</trkpt>
<trkpt lat="32.632266998" lon="35.104736328">
  <ele>159.016846</ele>
  <time>2011-11-22T19:34:28Z</time>
  <speed>2.400000</speed>
</trkpt>
<trkpt lat="32.632297516" lon="35.104701996">
  <ele>159.348877</ele>
  <time>2011-11-22T19:34:30Z</time>
  <speed>2.440000</speed>
</trkpt>
<trkpt lat="32.632331848" lon="35.104663849">
  <ele>159.266846</ele>
  <time>2011-11-22T19:34:32Z</time>
  <speed>2.360000</speed>
</trkpt>
<trkpt lat="32.632366180" lon="35.104625702">
  <ele>159.665283</ele>
  <time>2011-11-22T19:34:34Z</time>
  <speed>2.440000</speed>
</trkpt>
<trkpt lat="32.632396698" lon="35.104576111">
  <ele>159.309814</ele>
  <time>2011-11-22T19:34:36Z</time>
  <speed>2.620000</speed>
</trkpt>
<trkpt lat="32.632431030" lon="35.104537964">
  <ele>157.528564</ele>
  <time>2011-11-22T19:34:38Z</time>
  <speed>2.970000</speed>
</trkpt>
<trkpt lat="32.632469177" lon="35.104492188">
  <ele>157.052002</ele>
  <time>2011-11-22T19:34:40Z</time>
  <speed>2.900000</speed>
</trkpt>
<trkpt lat="32.632488251" lon="35.104469299">
  <ele>156.954346</ele>
  <time>2011-11-22T19:34:41Z</time>
  <speed>2.890000</speed>
</trkpt>
<trkpt lat="32.632507324" lon="35.104446411">
  <ele>156.259033</ele>
  <time>2011-11-22T19:34:42Z</time>
  <speed>2.930000</speed>
</trkpt>
<trkpt lat="32.632530212" lon="35.104423523">
  <ele>156.962158</ele>
  <time>2011-11-22T19:34:43Z</time>
  <speed>3.010000</speed>
</trkpt>
<trkpt lat="32.632553101" lon="35.104396820">
  <ele>157.481689</ele>
  <time>2011-11-22T19:34:44Z</time>
  <speed>3.210000</speed>
</trkpt>
<trkpt lat="32.632575989" lon="35.104373932">
  <ele>157.684814</ele>
  <time>2011-11-22T19:34:45Z</time>
  <speed>3.300000</speed>
</trkpt>
<trkpt lat="32.632598877" lon="35.104343414">
  <ele>158.907471</ele>
  <time>2011-11-22T19:34:46Z</time>
  <speed>3.290000</speed>
</trkpt>
<trkpt lat="32.632633209" lon="35.104309082">
  <ele>160.802002</ele>
  <time>2011-11-22T19:34:47Z</time>
  <speed>3.240000</speed>
</trkpt>
<trkpt lat="32.632659912" lon="35.104290009">
  <ele>160.825439</ele>
  <time>2011-11-22T19:34:48Z</time>
  <speed>3.260000</speed>
</trkpt>
<trkpt lat="32.632686615" lon="35.104274750">
  <ele>160.786377</ele>
  <time>2011-11-22T19:34:49Z</time>
  <speed>3.060000</speed>
</trkpt>
<trkpt lat="32.632736206" lon="35.104248047">
  <ele>161.427002</ele>
  <time>2011-11-22T19:34:51Z</time>
  <speed>3.020000</speed>
</trkpt>
<trkpt lat="32.632762909" lon="35.104228973">
  <ele>162.102783</ele>
  <time>2011-11-22T19:34:52Z</time>
  <speed>3.080000</speed>
</trkpt>
<trkpt lat="32.632789612" lon="35.104225159">
  <ele>162.415283</ele>
  <time>2011-11-22T19:34:53Z</time>
  <speed>3.160000</speed>
</trkpt>
<trkpt lat="32.632816315" lon="35.104213715">
  <ele>162.762939</ele>
  <time>2011-11-22T19:34:54Z</time>
  <speed>3.010000</speed>
</trkpt>
<trkpt lat="32.632846832" lon="35.104206085">
  <ele>163.966064</ele>
  <time>2011-11-22T19:34:55Z</time>
  <speed>3.120000</speed>
</trkpt>
<trkpt lat="32.632877350" lon="35.104206085">
  <ele>163.630127</ele>
  <time>2011-11-22T19:34:56Z</time>
  <speed>3.120000</speed>
</trkpt>
<trkpt lat="32.632911682" lon="35.104198456">
  <ele>164.399658</ele>
  <time>2011-11-22T19:34:57Z</time>
  <speed>3.050000</speed>
</trkpt>
<trkpt lat="32.632942200" lon="35.104194641">
  <ele>165.255127</ele>
  <time>2011-11-22T19:34:58Z</time>
  <speed>3.180000</speed>
</trkpt>
<trkpt lat="32.632968903" lon="35.104183197">
  <ele>166.063721</ele>
  <time>2011-11-22T19:34:59Z</time>
  <speed>3.080000</speed>
</trkpt>
<trkpt lat="32.632995605" lon="35.104190826">
  <ele>165.532471</ele>
  <time>2011-11-22T19:35:00Z</time>
  <speed>2.970000</speed>
</trkpt>
<trkpt lat="32.633022308" lon="35.104194641">
  <ele>165.696533</ele>
  <time>2011-11-22T19:35:01Z</time>
  <speed>3.080000</speed>
</trkpt>
<trkpt lat="32.633049011" lon="35.104202271">
  <ele>166.028564</ele>
  <time>2011-11-22T19:35:02Z</time>
  <speed>3.020000</speed>
</trkpt>
<trkpt lat="32.633079529" lon="35.104206085">
  <ele>166.341064</ele>
  <time>2011-11-22T19:35:03Z</time>
  <speed>2.980000</speed>
</trkpt>
<trkpt lat="32.633110046" lon="35.104202271">
  <ele>167.505127</ele>
  <time>2011-11-22T19:35:04Z</time>
  <speed>3.140000</speed>
</trkpt>
<trkpt lat="32.633140564" lon="35.104206085">
  <ele>168.094971</ele>
  <time>2011-11-22T19:35:05Z</time>
  <speed>2.780000</speed>
</trkpt>
<trkpt lat="32.633193970" lon="35.104213715">
  <ele>167.716064</ele>
  <time>2011-11-22T19:35:07Z</time>
  <speed>2.940000</speed>
</trkpt>
<trkpt lat="32.633228302" lon="35.104217529">
  <ele>168.477783</ele>
  <time>2011-11-22T19:35:08Z</time>
  <speed>2.970000</speed>
</trkpt>
<trkpt lat="32.633277893" lon="35.104213715">
  <ele>169.126221</ele>
  <time>2011-11-22T19:35:10Z</time>
  <speed>2.640000</speed>
</trkpt>
<trkpt lat="32.633327484" lon="35.104217529">
  <ele>169.419189</ele>
  <time>2011-11-22T19:35:12Z</time>
  <speed>2.780000</speed>
</trkpt>
<trkpt lat="32.633377075" lon="35.104225159">
  <ele>169.329346</ele>
  <time>2011-11-22T19:35:14Z</time>
  <speed>3.030000</speed>
</trkpt>
<trkpt lat="32.633407593" lon="35.104228973">
  <ele>169.598877</ele>
  <time>2011-11-22T19:35:15Z</time>
  <speed>2.530000</speed>
</trkpt>
<trkpt lat="32.633453369" lon="35.104251862">
  <ele>169.630127</ele>
  <time>2011-11-22T19:35:17Z</time>
  <speed>2.340000</speed>
</trkpt>
<trkpt lat="32.633499146" lon="35.104267120">
  <ele>169.583252</ele>
  <time>2011-11-22T19:35:19Z</time>
  <speed>2.710000</speed>
</trkpt>
<trkpt lat="32.633541107" lon="35.104282379">
  <ele>169.969971</ele>
  <time>2011-11-22T19:35:21Z</time>
  <speed>2.640000</speed>
</trkpt>
<trkpt lat="32.633586884" lon="35.104297638">
  <ele>170.262939</ele>
  <time>2011-11-22T19:35:23Z</time>
  <speed>2.720000</speed>
</trkpt>
<trkpt lat="32.633632660" lon="35.104293823">
  <ele>169.630127</ele>
  <time>2011-11-22T19:35:25Z</time>
  <speed>2.550000</speed>
</trkpt>
<trkpt lat="32.633674622" lon="35.104301453">
  <ele>169.075439</ele>
  <time>2011-11-22T19:35:27Z</time>
  <speed>2.780000</speed>
</trkpt>
<trkpt lat="32.633720398" lon="35.104316711">
  <ele>168.919189</ele>
  <time>2011-11-22T19:35:29Z</time>
  <speed>3.080000</speed>
</trkpt>
<trkpt lat="32.633750916" lon="35.104324341">
  <ele>168.364502</ele>
  <time>2011-11-22T19:35:30Z</time>
  <speed>3.420000</speed>
</trkpt>
<trkpt lat="32.633777618" lon="35.104328156">
  <ele>167.989502</ele>
  <time>2011-11-22T19:35:31Z</time>
  <speed>3.390000</speed>
</trkpt>
<trkpt lat="32.633819580" lon="35.104331970">
  <ele>167.813721</ele>
  <time>2011-11-22T19:35:32Z</time>
  <speed>3.380000</speed>
</trkpt>
<trkpt lat="32.633850098" lon="35.104335785">
  <ele>167.489502</ele>
  <time>2011-11-22T19:35:33Z</time>
  <speed>3.470000</speed>
</trkpt>
<trkpt lat="32.633880615" lon="35.104339600">
  <ele>167.688721</ele>
  <time>2011-11-22T19:35:34Z</time>
  <speed>3.460000</speed>
</trkpt>
<trkpt lat="32.633918762" lon="35.104343414">
  <ele>168.520752</ele>
  <time>2011-11-22T19:35:35Z</time>
  <speed>3.410000</speed>
</trkpt>
<trkpt lat="32.633953094" lon="35.104351044">
  <ele>168.809814</ele>
  <time>2011-11-22T19:35:36Z</time>
  <speed>3.850000</speed>
</trkpt>
<trkpt lat="32.633987427" lon="35.104358673">
  <ele>169.052002</ele>
  <time>2011-11-22T19:35:37Z</time>
  <speed>4.390000</speed>
</trkpt>
<trkpt lat="32.634025574" lon="35.104370117">
  <ele>168.727783</ele>
  <time>2011-11-22T19:35:38Z</time>
  <speed>5.060000</speed>
</trkpt>
<trkpt lat="32.634071350" lon="35.104389191">
  <ele>168.821533</ele>
  <time>2011-11-22T19:35:39Z</time>
  <speed>5.430000</speed>
</trkpt>
<trkpt lat="32.634124756" lon="35.104423523">
  <ele>167.833252</ele>
  <time>2011-11-22T19:35:40Z</time>
  <speed>6.810000</speed>
</trkpt>
<trkpt lat="32.634174347" lon="35.104465485">
  <ele>166.891846</ele>
  <time>2011-11-22T19:35:41Z</time>
  <speed>6.450000</speed>
</trkpt>
<trkpt lat="32.634208679" lon="35.104530334">
  <ele>165.700439</ele>
  <time>2011-11-22T19:35:42Z</time>
  <speed>7.350000</speed>
</trkpt>
<trkpt lat="32.634250641" lon="35.104598999">
  <ele>164.462158</ele>
  <time>2011-11-22T19:35:43Z</time>
  <speed>8.550000</speed>
</trkpt>
<trkpt lat="32.634296417" lon="35.104682922">
  <ele>163.270752</ele>
  <time>2011-11-22T19:35:44Z</time>
  <speed>8.480000</speed>
</trkpt>
<trkpt lat="32.634334564" lon="35.104766846">
  <ele>162.298096</ele>
  <time>2011-11-22T19:35:45Z</time>
  <speed>8.930000</speed>
</trkpt>
<trkpt lat="32.634372711" lon="35.104858398">
  <ele>161.548096</ele>
  <time>2011-11-22T19:35:46Z</time>
  <speed>9.360000</speed>
</trkpt>
<trkpt lat="32.634410858" lon="35.104953766">
  <ele>160.001221</ele>
  <time>2011-11-22T19:35:47Z</time>
  <speed>9.970000</speed>
</trkpt>
<trkpt lat="32.634449005" lon="35.105052948">
  <ele>158.536377</ele>
  <time>2011-11-22T19:35:48Z</time>
  <speed>11.220000</speed>
</trkpt>
<trkpt lat="32.634506226" lon="35.105159760">
  <ele>157.614502</ele>
  <time>2011-11-22T19:35:49Z</time>
  <speed>11.360000</speed>
</trkpt>
<trkpt lat="32.634559631" lon="35.105266571">
  <ele>155.333252</ele>
  <time>2011-11-22T19:35:50Z</time>
  <speed>11.750000</speed>
</trkpt>
<trkpt lat="32.634613037" lon="35.105381012">
  <ele>154.450439</ele>
  <time>2011-11-22T19:35:51Z</time>
  <speed>12.210000</speed>
</trkpt>
<trkpt lat="32.634674072" lon="35.105495453">
  <ele>153.657471</ele>
  <time>2011-11-22T19:35:52Z</time>
  <speed>12.830000</speed>
</trkpt>
<trkpt lat="32.634727478" lon="35.105621338">
  <ele>152.813721</ele>
  <time>2011-11-22T19:35:53Z</time>
  <speed>13.400000</speed>
</trkpt>
<trkpt lat="32.634788513" lon="35.105751038">
  <ele>152.036377</ele>
  <time>2011-11-22T19:35:54Z</time>
  <speed>13.980000</speed>
</trkpt>
<trkpt lat="32.634857178" lon="35.105884552">
  <ele>150.938721</ele>
  <time>2011-11-22T19:35:55Z</time>
  <speed>14.000000</speed>
</trkpt>
<trkpt lat="32.634925842" lon="35.106014252">
  <ele>149.137939</ele>
  <time>2011-11-22T19:35:56Z</time>
  <speed>14.010000</speed>
</trkpt>
<trkpt lat="32.634975433" lon="35.106140137">
  <ele>147.325439</ele>
  <time>2011-11-22T19:35:57Z</time>
  <speed>13.110000</speed>
</trkpt>
<trkpt lat="32.635047913" lon="35.106258392">
  <ele>145.891846</ele>
  <time>2011-11-22T19:35:58Z</time>
  <speed>12.460000</speed>
</trkpt>
<trkpt lat="32.635112762" lon="35.106365204">
  <ele>145.145752</ele>
  <time>2011-11-22T19:35:59Z</time>
  <speed>12.020000</speed>
</trkpt>
<trkpt lat="32.635169983" lon="35.106464386">
  <ele>144.028564</ele>
  <time>2011-11-22T19:36:00Z</time>
  <speed>10.540000</speed>
</trkpt>
<trkpt lat="32.635238647" lon="35.106559753">
  <ele>142.950439</ele>
  <time>2011-11-22T19:36:01Z</time>
  <speed>10.150000</speed>
</trkpt>
<trkpt lat="32.635292053" lon="35.106651306">
  <ele>142.430908</ele>
  <time>2011-11-22T19:36:02Z</time>
  <speed>10.860000</speed>
</trkpt>
<trkpt lat="32.635368347" lon="35.106739044">
  <ele>141.708252</ele>
  <time>2011-11-22T19:36:03Z</time>
  <speed>11.790000</speed>
</trkpt>
<trkpt lat="32.635448456" lon="35.106838226">
  <ele>140.934814</ele>
  <time>2011-11-22T19:36:04Z</time>
  <speed>13.200000</speed>
</trkpt>
<trkpt lat="32.635540009" lon="35.106945038">
  <ele>139.274658</ele>
  <time>2011-11-22T19:36:05Z</time>
  <speed>14.110000</speed>
</trkpt>
<trkpt lat="32.635616302" lon="35.107048035">
  <ele>137.759033</ele>
  <time>2011-11-22T19:36:06Z</time>
  <speed>13.480000</speed>
</trkpt>
<trkpt lat="32.635677338" lon="35.107154846">
  <ele>135.012939</ele>
  <time>2011-11-22T19:36:07Z</time>
  <speed>13.470000</speed>
</trkpt>
<trkpt lat="32.635761261" lon="35.107269287">
  <ele>133.911377</ele>
  <time>2011-11-22T19:36:08Z</time>
  <speed>14.540000</speed>
</trkpt>
<trkpt lat="32.635837555" lon="35.107395172">
  <ele>132.286377</ele>
  <time>2011-11-22T19:36:09Z</time>
  <speed>14.600000</speed>
</trkpt>
<trkpt lat="32.635875702" lon="35.107528687">
  <ele>129.188721</ele>
  <time>2011-11-22T19:36:10Z</time>
  <speed>14.130000</speed>
</trkpt>
<trkpt lat="32.635944366" lon="35.107654572">
  <ele>125.647095</ele>
  <time>2011-11-22T19:36:11Z</time>
  <speed>13.800000</speed>
</trkpt>
<trkpt lat="32.635982513" lon="35.107791901">
  <ele>122.649048</ele>
  <time>2011-11-22T19:36:12Z</time>
  <speed>13.350000</speed>
</trkpt>
<trkpt lat="32.636024475" lon="35.107921600">
  <ele>121.318970</ele>
  <time>2011-11-22T19:36:13Z</time>
  <speed>13.180001</speed>
</trkpt>
<trkpt lat="32.636047363" lon="35.108055115">
  <ele>120.022095</ele>
  <time>2011-11-22T19:36:14Z</time>
  <speed>12.740000</speed>
</trkpt>
<trkpt lat="32.636066437" lon="35.108188629">
  <ele>119.471313</ele>
  <time>2011-11-22T19:36:15Z</time>
  <speed>12.600000</speed>
</trkpt>
<trkpt lat="32.636077881" lon="35.108318329">
  <ele>118.539673</ele>
  <time>2011-11-22T19:36:16Z</time>
  <speed>12.160000</speed>
</trkpt>
<trkpt lat="32.636062622" lon="35.108448029">
  <ele>118.018188</ele>
  <time>2011-11-22T19:36:17Z</time>
  <speed>12.300000</speed>
</trkpt>
<trkpt lat="32.636058807" lon="35.108573914">
  <ele>117.475220</ele>
  <time>2011-11-22T19:36:18Z</time>
  <speed>11.590000</speed>
</trkpt>
<trkpt lat="32.636074066" lon="35.108695984">
  <ele>117.387329</ele>
  <time>2011-11-22T19:36:19Z</time>
  <speed>11.020000</speed>
</trkpt>
<trkpt lat="32.636085510" lon="35.108806610">
  <ele>115.967407</ele>
  <time>2011-11-22T19:36:20Z</time>
  <speed>10.250000</speed>
</trkpt>
<trkpt lat="32.636127472" lon="35.108905792">
  <ele>115.045532</ele>
  <time>2011-11-22T19:36:21Z</time>
  <speed>10.540000</speed>
</trkpt>
<trkpt lat="32.636192322" lon="35.109001160">
  <ele>114.369751</ele>
  <time>2011-11-22T19:36:22Z</time>
  <speed>11.540000</speed>
</trkpt>
<trkpt lat="32.636257172" lon="35.109088898">
  <ele>114.262329</ele>
  <time>2011-11-22T19:36:23Z</time>
  <speed>11.260000</speed>
</trkpt>
<trkpt lat="32.636344910" lon="35.109157562">
  <ele>113.254517</ele>
  <time>2011-11-22T19:36:24Z</time>
  <speed>11.450000</speed>
</trkpt>
<trkpt lat="32.636440277" lon="35.109210968">
  <ele>111.348267</ele>
  <time>2011-11-22T19:36:25Z</time>
  <speed>11.750000</speed>
</trkpt>
<trkpt lat="32.636524200" lon="35.109268188">
  <ele>110.654907</ele>
  <time>2011-11-22T19:36:26Z</time>
  <speed>10.690000</speed>
</trkpt>
<trkpt lat="32.636611938" lon="35.109325409">
  <ele>110.215454</ele>
  <time>2011-11-22T19:36:27Z</time>
  <speed>9.880000</speed>
</trkpt>
<trkpt lat="32.636703491" lon="35.109348297">
  <ele>110.270142</ele>
  <time>2011-11-22T19:36:28Z</time>
  <speed>9.270000</speed>
</trkpt>
<trkpt lat="32.636795044" lon="35.109363556">
  <ele>110.416626</ele>
  <time>2011-11-22T19:36:29Z</time>
  <speed>8.960000</speed>
</trkpt>
<trkpt lat="32.636863708" lon="35.109382629">
  <ele>109.902954</ele>
  <time>2011-11-22T19:36:30Z</time>
  <speed>6.990000</speed>
</trkpt>
<trkpt lat="32.636917114" lon="35.109416962">
  <ele>110.690063</ele>
  <time>2011-11-22T19:36:31Z</time>
  <speed>5.990000</speed>
</trkpt>
<trkpt lat="32.636932373" lon="35.109466553">
  <ele>109.602173</ele>
  <time>2011-11-22T19:36:32Z</time>
  <speed>5.110000</speed>
</trkpt>
<trkpt lat="32.636932373" lon="35.109519958">
  <ele>109.018188</ele>
  <time>2011-11-22T19:36:33Z</time>
  <speed>5.100000</speed>
</trkpt>
<trkpt lat="32.636932373" lon="35.109577179">
  <ele>108.445923</ele>
  <time>2011-11-22T19:36:34Z</time>
  <speed>5.130000</speed>
</trkpt>
<trkpt lat="32.636917114" lon="35.109638214">
  <ele>108.078735</ele>
  <time>2011-11-22T19:36:35Z</time>
  <speed>5.190000</speed>
</trkpt>
<trkpt lat="32.636917114" lon="35.109695435">
  <ele>108.293579</ele>
  <time>2011-11-22T19:36:36Z</time>
  <speed>5.250000</speed>
</trkpt>
<trkpt lat="32.636909485" lon="35.109752655">
  <ele>108.484985</ele>
  <time>2011-11-22T19:36:37Z</time>
  <speed>5.310000</speed>
</trkpt>
<trkpt lat="32.636901855" lon="35.109817505">
  <ele>108.291626</ele>
  <time>2011-11-22T19:36:38Z</time>
  <speed>5.320000</speed>
</trkpt>
<trkpt lat="32.636901855" lon="35.109870911">
  <ele>108.500610</ele>
  <time>2011-11-22T19:36:39Z</time>
  <speed>4.790000</speed>
</trkpt>
<trkpt lat="32.636898041" lon="35.109916687">
  <ele>108.164673</ele>
  <time>2011-11-22T19:36:40Z</time>
  <speed>3.710000</speed>
</trkpt>
<trkpt lat="32.636901855" lon="35.109970093">
  <ele>107.758423</ele>
  <time>2011-11-22T19:36:42Z</time>
  <speed>3.050000</speed>
</trkpt>
<trkpt lat="32.636909485" lon="35.110004425">
  <ele>107.674438</ele>
  <time>2011-11-22T19:36:43Z</time>
  <speed>3.090000</speed>
</trkpt>
<trkpt lat="32.636917114" lon="35.110038757">
  <ele>107.430298</ele>
  <time>2011-11-22T19:36:44Z</time>
  <speed>3.210000</speed>
</trkpt>
<trkpt lat="32.636924744" lon="35.110073090">
  <ele>107.238892</ele>
  <time>2011-11-22T19:36:45Z</time>
  <speed>2.690000</speed>
</trkpt>
<trkpt lat="32.636932373" lon="35.110122681">
  <ele>107.596313</ele>
  <time>2011-11-22T19:36:47Z</time>
  <speed>2.650000</speed>
</trkpt>
<trkpt lat="32.636943817" lon="35.110157013">
  <ele>107.990845</ele>
  <time>2011-11-22T19:36:48Z</time>
  <speed>3.120000</speed>
</trkpt>
<trkpt lat="32.636959076" lon="35.110183716">
  <ele>107.973267</ele>
  <time>2011-11-22T19:36:49Z</time>
  <speed>2.750000</speed>
</trkpt>
<trkpt lat="32.636966705" lon="35.110221863">
  <ele>107.225220</ele>
  <time>2011-11-22T19:36:51Z</time>
  <speed>1.930000</speed>
</trkpt>
<trkpt lat="32.636989594" lon="35.110256195">
  <ele>107.428345</ele>
  <time>2011-11-22T19:36:53Z</time>
  <speed>1.750000</speed>
</trkpt>
<trkpt lat="32.637012482" lon="35.110294342">
  <ele>108.154907</ele>
  <time>2011-11-22T19:36:56Z</time>
  <speed>1.410000</speed>
</trkpt>
<trkpt lat="32.637042999" lon="35.110324860">
  <ele>108.772095</ele>
  <time>2011-11-22T19:36:58Z</time>
  <speed>2.320000</speed>
</trkpt>
<trkpt lat="32.637054443" lon="35.110359192">
  <ele>108.947876</ele>
  <time>2011-11-22T19:36:59Z</time>
  <speed>3.170000</speed>
</trkpt>
<trkpt lat="32.637069702" lon="35.110397339">
  <ele>109.233032</ele>
  <time>2011-11-22T19:37:00Z</time>
  <speed>4.190000</speed>
</trkpt>
<trkpt lat="32.637081146" lon="35.110443115">
  <ele>109.674438</ele>
  <time>2011-11-22T19:37:01Z</time>
  <speed>4.750000</speed>
</trkpt>
<trkpt lat="32.637096405" lon="35.110500336">
  <ele>110.188110</ele>
  <time>2011-11-22T19:37:02Z</time>
  <speed>6.120000</speed>
</trkpt>
<trkpt lat="32.637107849" lon="35.110576630">
  <ele>109.695923</ele>
  <time>2011-11-22T19:37:03Z</time>
  <speed>7.190000</speed>
</trkpt>
<trkpt lat="32.637123108" lon="35.110656738">
  <ele>109.553345</ele>
  <time>2011-11-22T19:37:04Z</time>
  <speed>8.180000</speed>
</trkpt>
<trkpt lat="32.637145996" lon="35.110748291">
  <ele>109.303345</ele>
  <time>2011-11-22T19:37:05Z</time>
  <speed>8.390000</speed>
</trkpt>
<trkpt lat="32.637165070" lon="35.110820770">
  <ele>109.313110</ele>
  <time>2011-11-22T19:37:06Z</time>
  <speed>7.420000</speed>
</trkpt>
<trkpt lat="32.637207031" lon="35.110900879">
  <ele>109.393188</ele>
  <time>2011-11-22T19:37:07Z</time>
  <speed>8.200000</speed>
</trkpt>
<trkpt lat="32.637287140" lon="35.110984802">
  <ele>108.100220</ele>
  <time>2011-11-22T19:37:08Z</time>
  <speed>8.880000</speed>
</trkpt>
<trkpt lat="32.637332916" lon="35.111068726">
  <ele>108.063110</ele>
  <time>2011-11-22T19:37:09Z</time>
  <speed>9.160000</speed>
</trkpt>
<trkpt lat="32.637378693" lon="35.111148834">
  <ele>107.934204</ele>
  <time>2011-11-22T19:37:10Z</time>
  <speed>8.980000</speed>
</trkpt>
<trkpt lat="32.637447357" lon="35.111259460">
  <ele>107.402954</ele>
  <time>2011-11-22T19:37:11Z</time>
  <speed>8.970000</speed>
</trkpt>
<trkpt lat="32.637508392" lon="35.111331940">
  <ele>107.502563</ele>
  <time>2011-11-22T19:37:12Z</time>
  <speed>8.880000</speed>
</trkpt>
<trkpt lat="32.637573242" lon="35.111400604">
  <ele>107.688110</ele>
  <time>2011-11-22T19:37:13Z</time>
  <speed>8.990000</speed>
</trkpt>
<trkpt lat="32.637641907" lon="35.111465454">
  <ele>107.242798</ele>
  <time>2011-11-22T19:37:14Z</time>
  <speed>8.910000</speed>
</trkpt>
<trkpt lat="32.637702942" lon="35.111526489">
  <ele>107.162720</ele>
  <time>2011-11-22T19:37:15Z</time>
  <speed>8.650000</speed>
</trkpt>
<trkpt lat="32.637783051" lon="35.111564636">
  <ele>107.742798</ele>
  <time>2011-11-22T19:37:16Z</time>
  <speed>8.210000</speed>
</trkpt>
<trkpt lat="32.637847900" lon="35.111606598">
  <ele>107.817017</ele>
  <time>2011-11-22T19:37:17Z</time>
  <speed>7.970000</speed>
</trkpt>
<trkpt lat="32.637897491" lon="35.111644745">
  <ele>107.801392</ele>
  <time>2011-11-22T19:37:18Z</time>
  <speed>6.460000</speed>
</trkpt>
<trkpt lat="32.637950897" lon="35.111671448">
  <ele>107.746704</ele>
  <time>2011-11-22T19:37:19Z</time>
  <speed>6.640000</speed>
</trkpt>
<trkpt lat="32.638000488" lon="35.111705780">
  <ele>107.502563</ele>
  <time>2011-11-22T19:37:20Z</time>
  <speed>6.110000</speed>
</trkpt>
<trkpt lat="32.638069153" lon="35.111751556">
  <ele>106.678345</ele>
  <time>2011-11-22T19:37:21Z</time>
  <speed>6.990000</speed>
</trkpt>
<trkpt lat="32.638153076" lon="35.111801147">
  <ele>105.559204</ele>
  <time>2011-11-22T19:37:22Z</time>
  <speed>7.700000</speed>
</trkpt>
<trkpt lat="32.638225555" lon="35.111816406">
  <ele>105.129517</ele>
  <time>2011-11-22T19:37:23Z</time>
  <speed>7.750000</speed>
</trkpt>
<trkpt lat="32.638305664" lon="35.111843109">
  <ele>105.281860</ele>
  <time>2011-11-22T19:37:24Z</time>
  <speed>8.560000</speed>
</trkpt>
<trkpt lat="32.638378143" lon="35.111869812">
  <ele>104.928345</ele>
  <time>2011-11-22T19:37:25Z</time>
  <speed>8.170000</speed>
</trkpt>
<trkpt lat="32.638462067" lon="35.111885071">
  <ele>104.670532</ele>
  <time>2011-11-22T19:37:26Z</time>
  <speed>8.610000</speed>
</trkpt>
<trkpt lat="32.638538361" lon="35.111915588">
  <ele>104.406860</ele>
  <time>2011-11-22T19:37:27Z</time>
  <speed>8.450000</speed>
</trkpt>
<trkpt lat="32.638610840" lon="35.111946106">
  <ele>104.170532</ele>
  <time>2011-11-22T19:37:28Z</time>
  <speed>7.710000</speed>
</trkpt>
<trkpt lat="32.638687134" lon="35.111968994">
  <ele>103.955688</ele>
  <time>2011-11-22T19:37:29Z</time>
  <speed>7.460000</speed>
</trkpt>
<trkpt lat="32.638755798" lon="35.112018585">
  <ele>103.873657</ele>
  <time>2011-11-22T19:37:30Z</time>
  <speed>7.360000</speed>
</trkpt>
<trkpt lat="32.638839722" lon="35.112033844">
  <ele>103.633423</ele>
  <time>2011-11-22T19:37:31Z</time>
  <speed>7.520000</speed>
</trkpt>
<trkpt lat="32.638916016" lon="35.112087250">
  <ele>103.641235</ele>
  <time>2011-11-22T19:37:32Z</time>
  <speed>7.670000</speed>
</trkpt>
<trkpt lat="32.638977051" lon="35.112117767">
  <ele>103.285767</ele>
  <time>2011-11-22T19:37:33Z</time>
  <speed>7.440000</speed>
</trkpt>
<trkpt lat="32.639038086" lon="35.112171173">
  <ele>103.238892</ele>
  <time>2011-11-22T19:37:34Z</time>
  <speed>7.500000</speed>
</trkpt>
<trkpt lat="32.639091492" lon="35.112213135">
  <ele>102.920532</ele>
  <time>2011-11-22T19:37:35Z</time>
  <speed>7.000000</speed>
</trkpt>
<trkpt lat="32.639133453" lon="35.112255096">
  <ele>102.695923</ele>
  <time>2011-11-22T19:37:36Z</time>
  <speed>6.140000</speed>
</trkpt>
<trkpt lat="32.639175415" lon="35.112323761">
  <ele>102.358032</ele>
  <time>2011-11-22T19:37:37Z</time>
  <speed>7.720000</speed>
</trkpt>
<trkpt lat="32.639221191" lon="35.112403870">
  <ele>102.117798</ele>
  <time>2011-11-22T19:37:38Z</time>
  <speed>8.410000</speed>
</trkpt>
<trkpt lat="32.639263153" lon="35.112491608">
  <ele>101.699829</ele>
  <time>2011-11-22T19:37:39Z</time>
  <speed>8.250000</speed>
</trkpt>
<trkpt lat="32.639316559" lon="35.112571716">
  <ele>101.291626</ele>
  <time>2011-11-22T19:37:40Z</time>
  <speed>8.190000</speed>
</trkpt>
<trkpt lat="32.639400482" lon="35.112663269">
  <ele>100.303345</ele>
  <time>2011-11-22T19:37:41Z</time>
  <speed>8.190000</speed>
</trkpt>
<trkpt lat="32.639431000" lon="35.112747192">
  <ele>99.666626</ele>
  <time>2011-11-22T19:37:42Z</time>
  <speed>8.120000</speed>
</trkpt>
<trkpt lat="32.639442444" lon="35.112819672">
  <ele>99.385376</ele>
  <time>2011-11-22T19:37:43Z</time>
  <speed>6.950000</speed>
</trkpt>
<trkpt lat="32.639450073" lon="35.112888336">
  <ele>99.002563</ele>
  <time>2011-11-22T19:37:44Z</time>
  <speed>6.340000</speed>
</trkpt>
<trkpt lat="32.639461517" lon="35.112949371">
  <ele>98.625610</ele>
  <time>2011-11-22T19:37:45Z</time>
  <speed>5.780000</speed>
</trkpt>
<trkpt lat="32.639472961" lon="35.113002777">
  <ele>98.510376</ele>
  <time>2011-11-22T19:37:46Z</time>
  <speed>4.930000</speed>
</trkpt>
<trkpt lat="32.639503479" lon="35.113052368">
  <ele>98.143188</ele>
  <time>2011-11-22T19:37:47Z</time>
  <speed>5.200000</speed>
</trkpt>
<trkpt lat="32.639564514" lon="35.113117218">
  <ele>97.879517</ele>
  <time>2011-11-22T19:37:48Z</time>
  <speed>5.120000</speed>
</trkpt>
<trkpt lat="32.639575958" lon="35.113178253">
  <ele>97.236938</ele>
  <time>2011-11-22T19:37:49Z</time>
  <speed>5.360000</speed>
</trkpt>
<trkpt lat="32.639579773" lon="35.113231659">
  <ele>96.645142</ele>
  <time>2011-11-22T19:37:50Z</time>
  <speed>4.710000</speed>
</trkpt>
<trkpt lat="32.639575958" lon="35.113285065">
  <ele>96.078735</ele>
  <time>2011-11-22T19:37:51Z</time>
  <speed>4.460000</speed>
</trkpt>
<trkpt lat="32.639587402" lon="35.113346100">
  <ele>95.680298</ele>
  <time>2011-11-22T19:37:52Z</time>
  <speed>4.800000</speed>
</trkpt>
<trkpt lat="32.639629364" lon="35.113395691">
  <ele>94.395142</ele>
  <time>2011-11-22T19:37:53Z</time>
  <speed>4.340000</speed>
</trkpt>
<trkpt lat="32.639648438" lon="35.113437653">
  <ele>93.990845</ele>
  <time>2011-11-22T19:37:54Z</time>
  <speed>4.340000</speed>
</trkpt>
<trkpt lat="32.639667511" lon="35.113494873">
  <ele>93.197876</ele>
  <time>2011-11-22T19:37:55Z</time>
  <speed>4.600000</speed>
</trkpt>
<trkpt lat="32.639678955" lon="35.113548279">
  <ele>92.858032</ele>
  <time>2011-11-22T19:37:56Z</time>
  <speed>5.160000</speed>
</trkpt>
<trkpt lat="32.639678955" lon="35.113613129">
  <ele>92.070923</ele>
  <time>2011-11-22T19:37:57Z</time>
  <speed>5.460000</speed>
</trkpt>
<trkpt lat="32.639698029" lon="35.113674164">
  <ele>91.734985</ele>
  <time>2011-11-22T19:37:58Z</time>
  <speed>5.930000</speed>
</trkpt>
<trkpt lat="32.639724731" lon="35.113708496">
  <ele>91.567017</ele>
  <time>2011-11-22T19:37:59Z</time>
  <speed>5.260000</speed>
</trkpt>
<trkpt lat="32.639755249" lon="35.113754272">
  <ele>91.104126</ele>
  <time>2011-11-22T19:38:00Z</time>
  <speed>5.390000</speed>
</trkpt>
<trkpt lat="32.639789581" lon="35.113800049">
  <ele>90.887329</ele>
  <time>2011-11-22T19:38:01Z</time>
  <speed>5.220000</speed>
</trkpt>
<trkpt lat="32.639820099" lon="35.113834381">
  <ele>90.516235</ele>
  <time>2011-11-22T19:38:02Z</time>
  <speed>4.540000</speed>
</trkpt>
<trkpt lat="32.639854431" lon="35.113853455">
  <ele>90.584595</ele>
  <time>2011-11-22T19:38:03Z</time>
  <speed>3.660000</speed>
</trkpt>
<trkpt lat="32.639896393" lon="35.113861084">
  <ele>90.289673</ele>
  <time>2011-11-22T19:38:04Z</time>
  <speed>2.880000</speed>
</trkpt>
<trkpt lat="32.639930725" lon="35.113845825">
  <ele>90.625610</ele>
  <time>2011-11-22T19:38:05Z</time>
  <speed>1.730000</speed>
</trkpt>
<trkpt lat="32.639953613" lon="35.113861084">
  <ele>89.994751</ele>
  <time>2011-11-22T19:38:07Z</time>
  <speed>0.120000</speed>
</trkpt>
<trkpt lat="32.639923096" lon="35.113838196">
  <ele>90.207642</ele>
  <time>2011-11-22T19:38:21Z</time>
  <speed>1.250000</speed>
</trkpt>
<trkpt lat="32.639904022" lon="35.113811493">
  <ele>90.334595</ele>
  <time>2011-11-22T19:38:22Z</time>
  <speed>1.590000</speed>
</trkpt>
<trkpt lat="32.639865875" lon="35.113777161">
  <ele>90.580688</ele>
  <time>2011-11-22T19:38:24Z</time>
  <speed>2.850000</speed>
</trkpt>
<trkpt lat="32.639835358" lon="35.113731384">
  <ele>90.266235</ele>
  <time>2011-11-22T19:38:26Z</time>
  <speed>2.760000</speed>
</trkpt>
<trkpt lat="32.639816284" lon="35.113697052">
  <ele>90.492798</ele>
  <time>2011-11-22T19:38:28Z</time>
  <speed>1.800000</speed>
</trkpt>
<trkpt lat="32.639812469" lon="35.113624573">
  <ele>89.799438</ele>
  <time>2011-11-22T19:38:30Z</time>
  <speed>3.780000</speed>
</trkpt>
<trkpt lat="32.639816284" lon="35.113578796">
  <ele>89.201782</ele>
  <time>2011-11-22T19:38:31Z</time>
  <speed>3.290000</speed>
</trkpt>
<trkpt lat="32.639808655" lon="35.113536835">
  <ele>89.084595</ele>
  <time>2011-11-22T19:38:32Z</time>
  <speed>2.990000</speed>
</trkpt>
<trkpt lat="32.639812469" lon="35.113494873">
  <ele>88.889282</ele>
  <time>2011-11-22T19:38:34Z</time>
  <speed>1.540000</speed>
</trkpt>
<trkpt lat="32.639770508" lon="35.113452911">
  <ele>88.401001</ele>
  <time>2011-11-22T19:38:36Z</time>
  <speed>1.280000</speed>
</trkpt>
<trkpt lat="32.639743805" lon="35.113430023">
  <ele>88.192017</ele>
  <time>2011-11-22T19:38:39Z</time>
  <speed>0.060000</speed>
</trkpt>
<trkpt lat="32.639720917" lon="35.113410950">
  <ele>88.102173</ele>
  <time>2011-11-22T19:38:44Z</time>
  <speed>0.160000</speed>
</trkpt>
<trkpt lat="32.639713287" lon="35.113441467">
  <ele>89.604126</ele>
  <time>2011-11-22T19:39:08Z</time>
  <speed>0.660000</speed>
</trkpt>
<trkpt lat="32.639713287" lon="35.113491058">
  <ele>89.059204</ele>
  <time>2011-11-22T19:39:10Z</time>
  <speed>1.900000</speed>
</trkpt>
<trkpt lat="32.639686584" lon="35.113559723">
  <ele>90.496704</ele>
  <time>2011-11-22T19:39:12Z</time>
  <speed>3.730000</speed>
</trkpt>
<trkpt lat="32.639698029" lon="35.113605499">
  <ele>91.135376</ele>
  <time>2011-11-22T19:39:13Z</time>
  <speed>3.910000</speed>
</trkpt>
<trkpt lat="32.639717102" lon="35.113655090">
  <ele>91.154907</ele>
  <time>2011-11-22T19:39:14Z</time>
  <speed>4.410000</speed>
</trkpt>
<trkpt lat="32.639736176" lon="35.113697052">
  <ele>91.168579</ele>
  <time>2011-11-22T19:39:15Z</time>
  <speed>4.080000</speed>
</trkpt>
<trkpt lat="32.639759064" lon="35.113731384">
  <ele>91.520142</ele>
  <time>2011-11-22T19:39:16Z</time>
  <speed>3.400000</speed>
</trkpt>
<trkpt lat="32.639778137" lon="35.113758087">
  <ele>91.598267</ele>
  <time>2011-11-22T19:39:17Z</time>
  <speed>3.310000</speed>
</trkpt>
<trkpt lat="32.639797211" lon="35.113788605">
  <ele>91.567017</ele>
  <time>2011-11-22T19:39:18Z</time>
  <speed>3.540000</speed>
</trkpt>
<trkpt lat="32.639816284" lon="35.113815308">
  <ele>91.578735</ele>
  <time>2011-11-22T19:39:19Z</time>
  <speed>2.920000</speed>
</trkpt>
<trkpt lat="32.639846802" lon="35.113834381">
  <ele>91.715454</ele>
  <time>2011-11-22T19:39:20Z</time>
  <speed>3.150000</speed>
</trkpt>
<trkpt lat="32.639884949" lon="35.113849640">
  <ele>92.006470</ele>
  <time>2011-11-22T19:39:21Z</time>
  <speed>3.330000</speed>
</trkpt>
<trkpt lat="32.639923096" lon="35.113864899">
  <ele>92.123657</ele>
  <time>2011-11-22T19:39:22Z</time>
  <speed>3.270000</speed>
</trkpt>
<trkpt lat="32.639957428" lon="35.113895416">
  <ele>92.240845</ele>
  <time>2011-11-22T19:39:23Z</time>
  <speed>3.640000</speed>
</trkpt>
<trkpt lat="32.639995575" lon="35.113914490">
  <ele>92.651001</ele>
  <time>2011-11-22T19:39:24Z</time>
  <speed>3.060000</speed>
</trkpt>
<trkpt lat="32.640033722" lon="35.113945007">
  <ele>92.863892</ele>
  <time>2011-11-22T19:39:25Z</time>
  <speed>3.790000</speed>
</trkpt>
<trkpt lat="32.640060425" lon="35.113975525">
  <ele>93.285767</ele>
  <time>2011-11-22T19:39:26Z</time>
  <speed>3.940000</speed>
</trkpt>
<trkpt lat="32.640083313" lon="35.114006042">
  <ele>93.381470</ele>
  <time>2011-11-22T19:39:27Z</time>
  <speed>4.380000</speed>
</trkpt>
<trkpt lat="32.640117645" lon="35.114044189">
  <ele>93.414673</ele>
  <time>2011-11-22T19:39:28Z</time>
  <speed>4.410000</speed>
</trkpt>
<trkpt lat="32.640151978" lon="35.114086151">
  <ele>93.541626</ele>
  <time>2011-11-22T19:39:29Z</time>
  <speed>4.880000</speed>
</trkpt>
<trkpt lat="32.640182495" lon="35.114128113">
  <ele>93.512329</ele>
  <time>2011-11-22T19:39:30Z</time>
  <speed>4.990000</speed>
</trkpt>
<trkpt lat="32.640220642" lon="35.114170074">
  <ele>93.660767</ele>
  <time>2011-11-22T19:39:31Z</time>
  <speed>4.940000</speed>
</trkpt>
<trkpt lat="32.640262604" lon="35.114231110">
  <ele>93.723267</ele>
  <time>2011-11-22T19:39:32Z</time>
  <speed>5.700000</speed>
</trkpt>
<trkpt lat="32.640316010" lon="35.114292145">
  <ele>92.895142</ele>
  <time>2011-11-22T19:39:33Z</time>
  <speed>6.250000</speed>
</trkpt>
<trkpt lat="32.640354156" lon="35.114356995">
  <ele>93.258423</ele>
  <time>2011-11-22T19:39:34Z</time>
  <speed>7.270000</speed>
</trkpt>
<trkpt lat="32.640392303" lon="35.114414215">
  <ele>93.414673</ele>
  <time>2011-11-22T19:39:35Z</time>
  <speed>6.110000</speed>
</trkpt>
<trkpt lat="32.640438080" lon="35.114456177">
  <ele>93.514282</ele>
  <time>2011-11-22T19:39:36Z</time>
  <speed>5.950000</speed>
</trkpt>
<trkpt lat="32.640491486" lon="35.114482880">
  <ele>93.313110</ele>
  <time>2011-11-22T19:39:37Z</time>
  <speed>6.060000</speed>
</trkpt>
<trkpt lat="32.640548706" lon="35.114513397">
  <ele>93.035767</ele>
  <time>2011-11-22T19:39:38Z</time>
  <speed>5.940000</speed>
</trkpt>
<trkpt lat="32.640590668" lon="35.114540100">
  <ele>92.926392</ele>
  <time>2011-11-22T19:39:39Z</time>
  <speed>5.190000</speed>
</trkpt>
<trkpt lat="32.640640259" lon="35.114562988">
  <ele>93.035767</ele>
  <time>2011-11-22T19:39:40Z</time>
  <speed>5.560000</speed>
</trkpt>
<trkpt lat="32.640693665" lon="35.114578247">
  <ele>93.381470</ele>
  <time>2011-11-22T19:39:41Z</time>
  <speed>5.200000</speed>
</trkpt>
<trkpt lat="32.640739441" lon="35.114589691">
  <ele>93.211548</ele>
  <time>2011-11-22T19:39:42Z</time>
  <speed>5.150000</speed>
</trkpt>
<trkpt lat="32.640808105" lon="35.114604950">
  <ele>93.190063</ele>
  <time>2011-11-22T19:39:43Z</time>
  <speed>6.560000</speed>
</trkpt>
<trkpt lat="32.640876770" lon="35.114612579">
  <ele>93.055298</ele>
  <time>2011-11-22T19:39:44Z</time>
  <speed>6.730000</speed>
</trkpt>
<trkpt lat="32.640937805" lon="35.114612579">
  <ele>92.717407</ele>
  <time>2011-11-22T19:39:45Z</time>
  <speed>6.820000</speed>
</trkpt>
<trkpt lat="32.641006470" lon="35.114616394">
  <ele>92.311157</ele>
  <time>2011-11-22T19:39:46Z</time>
  <speed>6.790000</speed>
</trkpt>
<trkpt lat="32.641078949" lon="35.114627838">
  <ele>91.875610</ele>
  <time>2011-11-22T19:39:47Z</time>
  <speed>6.770000</speed>
</trkpt>
<trkpt lat="32.641159058" lon="35.114627838">
  <ele>90.693970</ele>
  <time>2011-11-22T19:39:48Z</time>
  <speed>7.420000</speed>
</trkpt>
<trkpt lat="32.641220093" lon="35.114620209">
  <ele>89.904907</ele>
  <time>2011-11-22T19:39:49Z</time>
  <speed>6.880000</speed>
</trkpt>
<trkpt lat="32.641300201" lon="35.114631653">
  <ele>88.129517</ele>
  <time>2011-11-22T19:39:50Z</time>
  <speed>6.910000</speed>
</trkpt>
<trkpt lat="32.641403198" lon="35.114620209">
  <ele>88.701782</ele>
  <time>2011-11-22T19:39:51Z</time>
  <speed>7.970000</speed>
</trkpt>
<trkpt lat="32.641513824" lon="35.114612579">
  <ele>88.377563</ele>
  <time>2011-11-22T19:39:52Z</time>
  <speed>8.820000</speed>
</trkpt>
<trkpt lat="32.641601563" lon="35.114612579">
  <ele>87.621704</ele>
  <time>2011-11-22T19:39:53Z</time>
  <speed>8.350000</speed>
</trkpt>
<trkpt lat="32.641677856" lon="35.114608765">
  <ele>87.565063</ele>
  <time>2011-11-22T19:39:54Z</time>
  <speed>8.310000</speed>
</trkpt>
<trkpt lat="32.641750336" lon="35.114612579">
  <ele>87.266235</ele>
  <time>2011-11-22T19:39:55Z</time>
  <speed>8.150000</speed>
</trkpt>
<trkpt lat="32.641826630" lon="35.114608765">
  <ele>86.770142</ele>
  <time>2011-11-22T19:39:56Z</time>
  <speed>8.290000</speed>
</trkpt>
<trkpt lat="32.641910553" lon="35.114574432">
  <ele>84.865845</ele>
  <time>2011-11-22T19:39:57Z</time>
  <speed>8.040000</speed>
</trkpt>
<trkpt lat="32.641983032" lon="35.114562988">
  <ele>86.379517</ele>
  <time>2011-11-22T19:39:58Z</time>
  <speed>7.330000</speed>
</trkpt>
<trkpt lat="32.642055511" lon="35.114547729">
  <ele>86.924438</ele>
  <time>2011-11-22T19:39:59Z</time>
  <speed>7.610000</speed>
</trkpt>
<trkpt lat="32.642116547" lon="35.114528656">
  <ele>86.565063</ele>
  <time>2011-11-22T19:40:00Z</time>
  <speed>7.140000</speed>
</trkpt>
<trkpt lat="32.642192841" lon="35.114513397">
  <ele>87.051392</ele>
  <time>2011-11-22T19:40:01Z</time>
  <speed>8.030000</speed>
</trkpt>
<trkpt lat="32.642261505" lon="35.114486694">
  <ele>86.834595</ele>
  <time>2011-11-22T19:40:02Z</time>
  <speed>8.100000</speed>
</trkpt>
<trkpt lat="32.642326355" lon="35.114459991">
  <ele>86.908813</ele>
  <time>2011-11-22T19:40:03Z</time>
  <speed>7.250000</speed>
</trkpt>
<trkpt lat="32.642387390" lon="35.114433289">
  <ele>86.762329</ele>
  <time>2011-11-22T19:40:04Z</time>
  <speed>7.300000</speed>
</trkpt>
<trkpt lat="32.642436981" lon="35.114414215">
  <ele>86.680298</ele>
  <time>2011-11-22T19:40:05Z</time>
  <speed>7.050000</speed>
</trkpt>
<trkpt lat="32.642494202" lon="35.114387512">
  <ele>87.152954</ele>
  <time>2011-11-22T19:40:06Z</time>
  <speed>6.760000</speed>
</trkpt>
<trkpt lat="32.642559052" lon="35.114364624">
  <ele>87.317017</ele>
  <time>2011-11-22T19:40:07Z</time>
  <speed>6.290000</speed>
</trkpt>
<trkpt lat="32.642612457" lon="35.114334106">
  <ele>86.977173</ele>
  <time>2011-11-22T19:40:08Z</time>
  <speed>6.050000</speed>
</trkpt>
<trkpt lat="32.642658234" lon="35.114303589">
  <ele>87.051392</ele>
  <time>2011-11-22T19:40:09Z</time>
  <speed>5.580000</speed>
</trkpt>
<trkpt lat="32.642711639" lon="35.114273071">
  <ele>87.104126</ele>
  <time>2011-11-22T19:40:10Z</time>
  <speed>5.470000</speed>
</trkpt>
<trkpt lat="32.642757416" lon="35.114246368">
  <ele>86.611938</ele>
  <time>2011-11-22T19:40:11Z</time>
  <speed>5.360000</speed>
</trkpt>
<trkpt lat="32.642833710" lon="35.114212036">
  <ele>87.526001</ele>
  <time>2011-11-22T19:40:12Z</time>
  <speed>5.640000</speed>
</trkpt>
<trkpt lat="32.642883301" lon="35.114212036">
  <ele>88.033813</ele>
  <time>2011-11-22T19:40:13Z</time>
  <speed>5.170000</speed>
</trkpt>
<trkpt lat="32.642929077" lon="35.114204407">
  <ele>87.496704</ele>
  <time>2011-11-22T19:40:14Z</time>
  <speed>4.680000</speed>
</trkpt>
<trkpt lat="32.642974854" lon="35.114212036">
  <ele>88.168579</ele>
  <time>2011-11-22T19:40:15Z</time>
  <speed>5.110000</speed>
</trkpt>
<trkpt lat="32.643039703" lon="35.114223480">
  <ele>87.406860</ele>
  <time>2011-11-22T19:40:16Z</time>
  <speed>4.990000</speed>
</trkpt>
<trkpt lat="32.643085480" lon="35.114234924">
  <ele>86.549438</ele>
  <time>2011-11-22T19:40:17Z</time>
  <speed>4.560000</speed>
</trkpt>
<trkpt lat="32.643123627" lon="35.114242554">
  <ele>87.147095</ele>
  <time>2011-11-22T19:40:18Z</time>
  <speed>4.710000</speed>
</trkpt>
<trkpt lat="32.643165588" lon="35.114250183">
  <ele>86.404907</ele>
  <time>2011-11-22T19:40:19Z</time>
  <speed>4.310000</speed>
</trkpt>
<trkpt lat="32.643203735" lon="35.114253998">
  <ele>86.391235</ele>
  <time>2011-11-22T19:40:20Z</time>
  <speed>4.310000</speed>
</trkpt>
<trkpt lat="32.643249512" lon="35.114250183">
  <ele>86.604126</ele>
  <time>2011-11-22T19:40:21Z</time>
  <speed>4.450000</speed>
</trkpt>
<trkpt lat="32.643295288" lon="35.114257813">
  <ele>86.631470</ele>
  <time>2011-11-22T19:40:22Z</time>
  <speed>4.460000</speed>
</trkpt>
<trkpt lat="32.643337250" lon="35.114261627">
  <ele>86.553345</ele>
  <time>2011-11-22T19:40:23Z</time>
  <speed>4.190000</speed>
</trkpt>
<trkpt lat="32.643375397" lon="35.114269257">
  <ele>87.496704</ele>
  <time>2011-11-22T19:40:24Z</time>
  <speed>4.120000</speed>
</trkpt>
<trkpt lat="32.643409729" lon="35.114273071">
  <ele>89.033813</ele>
  <time>2011-11-22T19:40:25Z</time>
  <speed>4.120000</speed>
</trkpt>
<trkpt lat="32.643451691" lon="35.114280701">
  <ele>89.483032</ele>
  <time>2011-11-22T19:40:26Z</time>
  <speed>4.000000</speed>
</trkpt>
<trkpt lat="32.643486023" lon="35.114280701">
  <ele>89.537720</ele>
  <time>2011-11-22T19:40:27Z</time>
  <speed>4.280000</speed>
</trkpt>
<trkpt lat="32.643524170" lon="35.114276886">
  <ele>89.797485</ele>
  <time>2011-11-22T19:40:28Z</time>
  <speed>4.060000</speed>
</trkpt>
<trkpt lat="32.643562317" lon="35.114280701">
  <ele>89.930298</ele>
  <time>2011-11-22T19:40:29Z</time>
  <speed>4.260000</speed>
</trkpt>
<trkpt lat="32.643596649" lon="35.114280701">
  <ele>89.477173</ele>
  <time>2011-11-22T19:40:30Z</time>
  <speed>4.390000</speed>
</trkpt>
<trkpt lat="32.643638611" lon="35.114276886">
  <ele>89.717407</ele>
  <time>2011-11-22T19:40:31Z</time>
  <speed>4.290000</speed>
</trkpt>
<trkpt lat="32.643672943" lon="35.114288330">
  <ele>89.651001</ele>
  <time>2011-11-22T19:40:32Z</time>
  <speed>4.290000</speed>
</trkpt>
<trkpt lat="32.643714905" lon="35.114303589">
  <ele>89.535767</ele>
  <time>2011-11-22T19:40:33Z</time>
  <speed>4.610000</speed>
</trkpt>
<trkpt lat="32.643753052" lon="35.114322662">
  <ele>89.467407</ele>
  <time>2011-11-22T19:40:34Z</time>
  <speed>4.540000</speed>
</trkpt>
<trkpt lat="32.643795013" lon="35.114341736">
  <ele>89.133423</ele>
  <time>2011-11-22T19:40:35Z</time>
  <speed>4.710000</speed>
</trkpt>
<trkpt lat="32.643836975" lon="35.114364624">
  <ele>89.106079</ele>
  <time>2011-11-22T19:40:36Z</time>
  <speed>5.000000</speed>
</trkpt>
<trkpt lat="32.643878937" lon="35.114391327">
  <ele>88.906860</ele>
  <time>2011-11-22T19:40:37Z</time>
  <speed>5.220000</speed>
</trkpt>
<trkpt lat="32.643920898" lon="35.114418030">
  <ele>88.766235</ele>
  <time>2011-11-22T19:40:38Z</time>
  <speed>5.170000</speed>
</trkpt>
<trkpt lat="32.643962860" lon="35.114440918">
  <ele>88.744751</ele>
  <time>2011-11-22T19:40:39Z</time>
  <speed>5.240000</speed>
</trkpt>
<trkpt lat="32.644001007" lon="35.114475250">
  <ele>89.506470</ele>
  <time>2011-11-22T19:40:40Z</time>
  <speed>5.210000</speed>
</trkpt>
<trkpt lat="32.644046783" lon="35.114501953">
  <ele>89.899048</ele>
  <time>2011-11-22T19:40:41Z</time>
  <speed>5.320000</speed>
</trkpt>
<trkpt lat="32.644096375" lon="35.114532471">
  <ele>89.516235</ele>
  <time>2011-11-22T19:40:42Z</time>
  <speed>5.600000</speed>
</trkpt>
<trkpt lat="32.644138336" lon="35.114566803">
  <ele>89.654907</ele>
  <time>2011-11-22T19:40:43Z</time>
  <speed>5.650000</speed>
</trkpt>
<trkpt lat="32.644184113" lon="35.114597321">
  <ele>89.795532</ele>
  <time>2011-11-22T19:40:44Z</time>
  <speed>5.610000</speed>
</trkpt>
<trkpt lat="32.644229889" lon="35.114631653">
  <ele>90.190063</ele>
  <time>2011-11-22T19:40:45Z</time>
  <speed>5.580000</speed>
</trkpt>
<trkpt lat="32.644275665" lon="35.114665985">
  <ele>89.777954</ele>
  <time>2011-11-22T19:40:46Z</time>
  <speed>5.780000</speed>
</trkpt>
<trkpt lat="32.644317627" lon="35.114700317">
  <ele>89.764282</ele>
  <time>2011-11-22T19:40:47Z</time>
  <speed>5.860000</speed>
</trkpt>
<trkpt lat="32.644359589" lon="35.114734650">
  <ele>89.885376</ele>
  <time>2011-11-22T19:40:48Z</time>
  <speed>5.950000</speed>
</trkpt>
<trkpt lat="32.644405365" lon="35.114772797">
  <ele>90.289673</ele>
  <time>2011-11-22T19:40:49Z</time>
  <speed>6.040000</speed>
</trkpt>
<trkpt lat="32.644447327" lon="35.114807129">
  <ele>90.594360</ele>
  <time>2011-11-22T19:40:50Z</time>
  <speed>5.830000</speed>
</trkpt>
<trkpt lat="32.644489288" lon="35.114841461">
  <ele>90.297485</ele>
  <time>2011-11-22T19:40:51Z</time>
  <speed>5.720000</speed>
</trkpt>
<trkpt lat="32.644546509" lon="35.114871979">
  <ele>90.649048</ele>
  <time>2011-11-22T19:40:52Z</time>
  <speed>6.490000</speed>
</trkpt>
<trkpt lat="32.644596100" lon="35.114906311">
  <ele>90.633423</ele>
  <time>2011-11-22T19:40:53Z</time>
  <speed>6.380000</speed>
</trkpt>
<trkpt lat="32.644649506" lon="35.114944458">
  <ele>89.500610</ele>
  <time>2011-11-22T19:40:54Z</time>
  <speed>6.490000</speed>
</trkpt>
<trkpt lat="32.644702911" lon="35.114974976">
  <ele>89.481079</ele>
  <time>2011-11-22T19:40:55Z</time>
  <speed>6.590000</speed>
</trkpt>
<trkpt lat="32.644760132" lon="35.115005493">
  <ele>89.151001</ele>
  <time>2011-11-22T19:40:56Z</time>
  <speed>7.220000</speed>
</trkpt>
<trkpt lat="32.644817352" lon="35.115036011">
  <ele>88.805298</ele>
  <time>2011-11-22T19:40:57Z</time>
  <speed>7.520000</speed>
</trkpt>
<trkpt lat="32.644882202" lon="35.115066528">
  <ele>88.791626</ele>
  <time>2011-11-22T19:40:58Z</time>
  <speed>7.840000</speed>
</trkpt>
<trkpt lat="32.644947052" lon="35.115097046">
  <ele>88.383423</ele>
  <time>2011-11-22T19:40:59Z</time>
  <speed>7.770000</speed>
</trkpt>
<trkpt lat="32.645019531" lon="35.115127563">
  <ele>88.229126</ele>
  <time>2011-11-22T19:41:00Z</time>
  <speed>8.450000</speed>
</trkpt>
<trkpt lat="32.645088196" lon="35.115161896">
  <ele>87.947876</ele>
  <time>2011-11-22T19:41:01Z</time>
  <speed>8.160000</speed>
</trkpt>
<trkpt lat="32.645149231" lon="35.115192413">
  <ele>88.041626</ele>
  <time>2011-11-22T19:41:02Z</time>
  <speed>7.780000</speed>
</trkpt>
<trkpt lat="32.645221710" lon="35.115219116">
  <ele>88.010376</ele>
  <time>2011-11-22T19:41:03Z</time>
  <speed>7.840000</speed>
</trkpt>
<trkpt lat="32.645286560" lon="35.115249634">
  <ele>88.002563</ele>
  <time>2011-11-22T19:41:04Z</time>
  <speed>7.450000</speed>
</trkpt>
<trkpt lat="32.645362854" lon="35.115287781">
  <ele>86.938110</ele>
  <time>2011-11-22T19:41:05Z</time>
  <speed>8.250000</speed>
</trkpt>
<trkpt lat="32.645439148" lon="35.115329742">
  <ele>86.174438</ele>
  <time>2011-11-22T19:41:06Z</time>
  <speed>8.520000</speed>
</trkpt>
<trkpt lat="32.645503998" lon="35.115375519">
  <ele>85.578735</ele>
  <time>2011-11-22T19:41:07Z</time>
  <speed>8.460000</speed>
</trkpt>
<trkpt lat="32.645595551" lon="35.115425110">
  <ele>84.334595</ele>
  <time>2011-11-22T19:41:08Z</time>
  <speed>8.950000</speed>
</trkpt>
<trkpt lat="32.645687103" lon="35.115447998">
  <ele>83.947876</ele>
  <time>2011-11-22T19:41:09Z</time>
  <speed>9.690000</speed>
</trkpt>
<trkpt lat="32.645771027" lon="35.115470886">
  <ele>83.277954</ele>
  <time>2011-11-22T19:41:10Z</time>
  <speed>10.320000</speed>
</trkpt>
<trkpt lat="32.645874023" lon="35.115489960">
  <ele>82.879517</ele>
  <time>2011-11-22T19:41:11Z</time>
  <speed>10.790000</speed>
</trkpt>
<trkpt lat="32.645969391" lon="35.115516663">
  <ele>81.854126</ele>
  <time>2011-11-22T19:41:12Z</time>
  <speed>10.820000</speed>
</trkpt>
<trkpt lat="32.646068573" lon="35.115550995">
  <ele>80.135376</ele>
  <time>2011-11-22T19:41:13Z</time>
  <speed>12.100000</speed>
</trkpt>
<trkpt lat="32.646163940" lon="35.115589142">
  <ele>79.176392</ele>
  <time>2011-11-22T19:41:14Z</time>
  <speed>11.290000</speed>
</trkpt>
<trkpt lat="32.646255493" lon="35.115653992">
  <ele>76.893188</ele>
  <time>2011-11-22T19:41:15Z</time>
  <speed>11.060001</speed>
</trkpt>
<trkpt lat="32.646324158" lon="35.115737915">
  <ele>75.514282</ele>
  <time>2011-11-22T19:41:16Z</time>
  <speed>10.920000</speed>
</trkpt>
<trkpt lat="32.646381378" lon="35.115829468">
  <ele>74.746704</ele>
  <time>2011-11-22T19:41:17Z</time>
  <speed>10.760000</speed>
</trkpt>
<trkpt lat="32.646427155" lon="35.115932465">
  <ele>72.822876</ele>
  <time>2011-11-22T19:41:18Z</time>
  <speed>10.949999</speed>
</trkpt>
<trkpt lat="32.646469116" lon="35.116046906">
  <ele>71.955688</ele>
  <time>2011-11-22T19:41:19Z</time>
  <speed>10.990000</speed>
</trkpt>
<trkpt lat="32.646507263" lon="35.116146088">
  <ele>71.576782</ele>
  <time>2011-11-22T19:41:20Z</time>
  <speed>10.990000</speed>
</trkpt>
<trkpt lat="32.646553040" lon="35.116256714">
  <ele>70.908813</ele>
  <time>2011-11-22T19:41:21Z</time>
  <speed>10.830000</speed>
</trkpt>
<trkpt lat="32.646591187" lon="35.116359711">
  <ele>70.733032</ele>
  <time>2011-11-22T19:41:22Z</time>
  <speed>10.680001</speed>
</trkpt>
<trkpt lat="32.646633148" lon="35.116455078">
  <ele>69.492798</ele>
  <time>2011-11-22T19:41:23Z</time>
  <speed>10.720000</speed>
</trkpt>
<trkpt lat="32.646671295" lon="35.116554260">
  <ele>69.027954</ele>
  <time>2011-11-22T19:41:24Z</time>
  <speed>10.340000</speed>
</trkpt>
<trkpt lat="32.646709442" lon="35.116649628">
  <ele>68.746704</ele>
  <time>2011-11-22T19:41:25Z</time>
  <speed>9.900000</speed>
</trkpt>
<trkpt lat="32.646751404" lon="35.116744995">
  <ele>67.590454</ele>
  <time>2011-11-22T19:41:26Z</time>
  <speed>9.830000</speed>
</trkpt>
<trkpt lat="32.646789551" lon="35.116844177">
  <ele>67.695923</ele>
  <time>2011-11-22T19:41:27Z</time>
  <speed>10.079999</speed>
</trkpt>
<trkpt lat="32.646831512" lon="35.116939545">
  <ele>67.904907</ele>
  <time>2011-11-22T19:41:28Z</time>
  <speed>9.720000</speed>
</trkpt>
<trkpt lat="32.646865845" lon="35.117034912">
  <ele>67.399048</ele>
  <time>2011-11-22T19:41:29Z</time>
  <speed>9.440000</speed>
</trkpt>
<trkpt lat="32.646907806" lon="35.117122650">
  <ele>66.928345</ele>
  <time>2011-11-22T19:41:30Z</time>
  <speed>9.380000</speed>
</trkpt>
<trkpt lat="32.646953583" lon="35.117210388">
  <ele>65.867798</ele>
  <time>2011-11-22T19:41:31Z</time>
  <speed>9.060000</speed>
</trkpt>
<trkpt lat="32.646999359" lon="35.117298126">
  <ele>65.283813</ele>
  <time>2011-11-22T19:41:32Z</time>
  <speed>9.190000</speed>
</trkpt>
<trkpt lat="32.647037506" lon="35.117385864">
  <ele>64.668579</ele>
  <time>2011-11-22T19:41:33Z</time>
  <speed>9.560000</speed>
</trkpt>
<trkpt lat="32.647079468" lon="35.117473602">
  <ele>63.317688</ele>
  <time>2011-11-22T19:41:34Z</time>
  <speed>9.460000</speed>
</trkpt>
<trkpt lat="32.647121429" lon="35.117565155">
  <ele>63.542297</ele>
  <time>2011-11-22T19:41:35Z</time>
  <speed>8.970000</speed>
</trkpt>
<trkpt lat="32.647155762" lon="35.117652893">
  <ele>63.458313</ele>
  <time>2011-11-22T19:41:36Z</time>
  <speed>8.690000</speed>
</trkpt>
<trkpt lat="32.647182465" lon="35.117740631">
  <ele>63.215149</ele>
  <time>2011-11-22T19:41:37Z</time>
  <speed>8.710000</speed>
</trkpt>
<trkpt lat="32.647220612" lon="35.117816925">
  <ele>62.990540</ele>
  <time>2011-11-22T19:41:38Z</time>
  <speed>8.190000</speed>
</trkpt>
<trkpt lat="32.647258759" lon="35.117889404">
  <ele>62.099915</ele>
  <time>2011-11-22T19:41:39Z</time>
  <speed>7.980000</speed>
</trkpt>
<trkpt lat="32.647293091" lon="35.117961884">
  <ele>62.104797</ele>
  <time>2011-11-22T19:41:40Z</time>
  <speed>7.570000</speed>
</trkpt>
<trkpt lat="32.647327423" lon="35.118026733">
  <ele>60.612610</ele>
  <time>2011-11-22T19:41:41Z</time>
  <speed>7.420000</speed>
</trkpt>
<trkpt lat="32.647365570" lon="35.118095398">
  <ele>60.427063</ele>
  <time>2011-11-22T19:41:42Z</time>
  <speed>7.560000</speed>
</trkpt>
<trkpt lat="32.647399902" lon="35.118164063">
  <ele>59.261047</ele>
  <time>2011-11-22T19:41:43Z</time>
  <speed>7.150000</speed>
</trkpt>
<trkpt lat="32.647434235" lon="35.118232727">
  <ele>59.465149</ele>
  <time>2011-11-22T19:41:44Z</time>
  <speed>6.920000</speed>
</trkpt>
<trkpt lat="32.647460938" lon="35.118297577">
  <ele>59.809875</ele>
  <time>2011-11-22T19:41:45Z</time>
  <speed>6.620000</speed>
</trkpt>
<trkpt lat="32.647491455" lon="35.118358612">
  <ele>60.011047</ele>
  <time>2011-11-22T19:41:46Z</time>
  <speed>6.680000</speed>
</trkpt>
<trkpt lat="32.647518158" lon="35.118427277">
  <ele>60.166321</ele>
  <time>2011-11-22T19:41:47Z</time>
  <speed>6.480000</speed>
</trkpt>
<trkpt lat="32.647544861" lon="35.118488312">
  <ele>60.183899</ele>
  <time>2011-11-22T19:41:48Z</time>
  <speed>6.320000</speed>
</trkpt>
<trkpt lat="32.647575378" lon="35.118549347">
  <ele>60.876282</ele>
  <time>2011-11-22T19:41:49Z</time>
  <speed>6.080000</speed>
</trkpt>
<trkpt lat="32.647594452" lon="35.118602753">
  <ele>60.297180</ele>
  <time>2011-11-22T19:41:50Z</time>
  <speed>5.370000</speed>
</trkpt>
<trkpt lat="32.647609711" lon="35.118656158">
  <ele>59.445618</ele>
  <time>2011-11-22T19:41:51Z</time>
  <speed>5.660000</speed>
</trkpt>
<trkpt lat="32.647628784" lon="35.118713379">
  <ele>60.069641</ele>
  <time>2011-11-22T19:41:52Z</time>
  <speed>5.370000</speed>
</trkpt>
<trkpt lat="32.647655487" lon="35.118755341">
  <ele>59.281555</ele>
  <time>2011-11-22T19:41:53Z</time>
  <speed>5.180000</speed>
</trkpt>
<trkpt lat="32.647678375" lon="35.118804932">
  <ele>58.374329</ele>
  <time>2011-11-22T19:41:54Z</time>
  <speed>5.230000</speed>
</trkpt>
<trkpt lat="32.647716522" lon="35.118846893">
  <ele>57.738586</ele>
  <time>2011-11-22T19:41:55Z</time>
  <speed>4.600000</speed>
</trkpt>
<trkpt lat="32.647727966" lon="35.118896484">
  <ele>57.512024</ele>
  <time>2011-11-22T19:41:56Z</time>
  <speed>4.380000</speed>
</trkpt>
<trkpt lat="32.647724152" lon="35.118942261">
  <ele>57.828430</ele>
  <time>2011-11-22T19:41:57Z</time>
  <speed>3.970000</speed>
</trkpt>
<trkpt lat="32.647712708" lon="35.118984222">
  <ele>57.813782</ele>
  <time>2011-11-22T19:41:58Z</time>
  <speed>3.660000</speed>
</trkpt>
<trkpt lat="32.647708893" lon="35.119018555">
  <ele>58.385071</ele>
  <time>2011-11-22T19:41:59Z</time>
  <speed>2.670000</speed>
</trkpt>
<trkpt lat="32.647750854" lon="35.119041443">
  <ele>56.982727</ele>
  <time>2011-11-22T19:42:01Z</time>
  <speed>2.280000</speed>
</trkpt>
<trkpt lat="32.647789001" lon="35.119033813">
  <ele>57.032532</ele>
  <time>2011-11-22T19:42:03Z</time>
  <speed>0.600000</speed>
</trkpt>
<trkpt lat="32.647819519" lon="35.119029999">
  <ele>58.650696</ele>
  <time>2011-11-22T19:42:09Z</time>
  <speed>0.040000</speed>
</trkpt>
<trkpt lat="32.647808075" lon="35.119022369">
  <ele>60.036438</ele>
  <time>2011-11-22T19:42:20Z</time>
  <speed>0.010000</speed>
</trkpt>
</trkseg>
</trk>
</gpx>
